<?xml version='1.0' encoding='UTF-8'?><gpx version="1.1" creator="JPX - https://github.com/jenetics/jpx" xmlns="http://www.topografix.com/GPX/1/1"><trk><trkseg><trkpt lat="49.29275876774395" lon="0.972801521242737"><ele>117.0</ele><time>2026-03-22T16:40:07.999Z</time></trkpt><trkpt lat="49.292678932096095" lon="0.9728262636364136"><ele>117.0</ele><time>2026-03-22T16:40:55.998Z</time></trkpt><trkpt lat="49.292745344280505" lon="0.9727987864897841"><ele>117.0</ele><time>2026-03-22T16:41:57.999Z</time></trkpt><trkpt lat="49.292801389222376" lon="0.9729449823730691"><ele>117.0</ele><time>2026-03-22T16:45:25.998Z</time></trkpt><trkpt lat="49.29287008121621" lon="0.9728952569751529"><ele>117.0</ele><time>2026-03-22T16:45:28.998Z</time></trkpt><trkpt lat="49.29286519259166" lon="0.9727500573598306"><ele>117.0</ele><time>2026-03-22T16:45:31.998Z</time></trkpt><trkpt lat="49.29283429831162" lon="0.9726166200305327"><ele>117.19999999999999</ele><time>2026-03-22T16:45:33.998Z</time></trkpt><trkpt lat="49.292800472743316" lon="0.9724818751598482"><ele>117.39999999999999</ele><time>2026-03-22T16:45:35.998Z</time></trkpt><trkpt lat="49.292786332635266" lon="0.9723277873189695"><ele>117.60000000000001</ele><time>2026-03-22T16:45:37.998Z</time></trkpt><trkpt lat="49.29278417891102" lon="0.9721785625148371"><ele>117.80000000000001</ele><time>2026-03-22T16:45:39.998Z</time></trkpt><trkpt lat="49.29282618120047" lon="0.9720832256155788"><ele>118.0</ele><time>2026-03-22T16:45:41.998Z</time></trkpt><trkpt lat="49.29291251681754" lon="0.9720306220354993"><ele>118.0</ele><time>2026-03-22T16:45:43.998Z</time></trkpt><trkpt lat="49.29300631917351" lon="0.9719779596321959"><ele>118.00000000000001</ele><time>2026-03-22T16:45:45.998Z</time></trkpt><trkpt lat="49.293094183215956" lon="0.9719122336256334"><ele>118.00000000000001</ele><time>2026-03-22T16:45:47.998Z</time></trkpt><trkpt lat="49.293178314848426" lon="0.9718458466142201"><ele>118.0</ele><time>2026-03-22T16:45:49.999Z</time></trkpt><trkpt lat="49.293271234262996" lon="0.9717803958940333"><ele>118.0</ele><time>2026-03-22T16:45:51.999Z</time></trkpt><trkpt lat="49.29336791741978" lon="0.9717220961525438"><ele>118.0</ele><time>2026-03-22T16:45:53.999Z</time></trkpt><trkpt lat="49.293465385879024" lon="0.9716632854082211"><ele>118.00000000000001</ele><time>2026-03-22T16:45:55.999Z</time></trkpt><trkpt lat="49.29355528456887" lon="0.9715867351817479"><ele>118.00000000000001</ele><time>2026-03-22T16:45:57.999Z</time></trkpt><trkpt lat="49.293643743621445" lon="0.97151126659696"><ele>118.0</ele><time>2026-03-22T16:45:59.999Z</time></trkpt><trkpt lat="49.29373177852794" lon="0.9714359806627332"><ele>118.0</ele><time>2026-03-22T16:46:01.999Z</time></trkpt><trkpt lat="49.29383650284035" lon="0.9713609339364074"><ele>118.00000000000001</ele><time>2026-03-22T16:46:03.999Z</time></trkpt><trkpt lat="49.29395468752063" lon="0.9712792345478658"><ele>118.0</ele><time>2026-03-22T16:46:05.999Z</time></trkpt><trkpt lat="49.294012816993884" lon="0.9712417225093064"><ele>118.0</ele><time>2026-03-22T16:46:06.999Z</time></trkpt><trkpt lat="49.294073402145884" lon="0.9712102799470365"><ele>118.0</ele><time>2026-03-22T16:46:07.999Z</time></trkpt><trkpt lat="49.2941371335358" lon="0.971181866500364"><ele>118.00000000000001</ele><time>2026-03-22T16:46:08.999Z</time></trkpt><trkpt lat="49.2942029078936" lon="0.971149676388836"><ele>118.0</ele><time>2026-03-22T16:46:09.999Z</time></trkpt><trkpt lat="49.294270253311716" lon="0.9711146243117817"><ele>118.0</ele><time>2026-03-22T16:46:10.999Z</time></trkpt><trkpt lat="49.2943365651296" lon="0.9710800407510184"><ele>118.0</ele><time>2026-03-22T16:46:11.999Z</time></trkpt><trkpt lat="49.29440538563316" lon="0.9710437168375038"><ele>118.0</ele><time>2026-03-22T16:46:12.999Z</time></trkpt><trkpt lat="49.294475309414764" lon="0.9710087823455072"><ele>118.0</ele><time>2026-03-22T16:46:13.999Z</time></trkpt><trkpt lat="49.29454672039032" lon="0.9709777207608763"><ele>118.0</ele><time>2026-03-22T16:46:14.999Z</time></trkpt><trkpt lat="49.29461929061535" lon="0.9709629931889967"><ele>118.0</ele><time>2026-03-22T16:46:15.999Z</time></trkpt><trkpt lat="49.294693434664644" lon="0.9709720608935593"><ele>118.0</ele><time>2026-03-22T16:46:16.999Z</time></trkpt><trkpt lat="49.29475717776999" lon="0.9710387747186949"><ele>118.50000000000001</ele><time>2026-03-22T16:46:17.999Z</time></trkpt><trkpt lat="49.29482004831047" lon="0.9710953183879686"><ele>119.0</ele><time>2026-03-22T16:46:18.999Z</time></trkpt><trkpt lat="49.29488597001653" lon="0.9711527612462715"><ele>119.5</ele><time>2026-03-22T16:46:19.999Z</time></trkpt><trkpt lat="49.29496013298756" lon="0.9711975768603028"><ele>120.0</ele><time>2026-03-22T16:46:20.999Z</time></trkpt><trkpt lat="49.295021063559375" lon="0.9712621649288322"><ele>120.50000000000001</ele><time>2026-03-22T16:46:21.999Z</time></trkpt><trkpt lat="49.29508001667706" lon="0.9713189452627586"><ele>121.0</ele><time>2026-03-22T16:46:22.999Z</time></trkpt><trkpt lat="49.29517724278992" lon="0.9714080528294105"><ele>121.0</ele><time>2026-03-22T16:46:24.999Z</time></trkpt><trkpt lat="49.29527067760458" lon="0.9714913550137777"><ele>121.0</ele><time>2026-03-22T16:46:26.999Z</time></trkpt><trkpt lat="49.29537042182245" lon="0.9715552652088423"><ele>121.0</ele><time>2026-03-22T16:46:28.999Z</time></trkpt><trkpt lat="49.2954880150412" lon="0.9715512337030039"><ele>121.0</ele><time>2026-03-22T16:46:30.999Z</time></trkpt><trkpt lat="49.29560722518123" lon="0.9714869102022312"><ele>121.25</ele><time>2026-03-22T16:46:32.999Z</time></trkpt><trkpt lat="49.29571554106692" lon="0.9713947581681969"><ele>121.5</ele><time>2026-03-22T16:46:34.999Z</time></trkpt><trkpt lat="49.29582081769194" lon="0.9713114995181836"><ele>121.75</ele><time>2026-03-22T16:46:36.999Z</time></trkpt><trkpt lat="49.29591908243405" lon="0.9712292870933548"><ele>122.0</ele><time>2026-03-22T16:46:38.999Z</time></trkpt><trkpt lat="49.29602103025449" lon="0.9711519017628762"><ele>121.99999999999999</ele><time>2026-03-22T16:46:40.999Z</time></trkpt><trkpt lat="49.296084934554585" lon="0.9711231717314808"><ele>122.0</ele><time>2026-03-22T16:46:43.999Z</time></trkpt><trkpt lat="49.296148476289474" lon="0.9711167080458715"><ele>122.0</ele><time>2026-03-22T16:46:45.999Z</time></trkpt><trkpt lat="49.296215416402106" lon="0.9710703256823042"><ele>122.0</ele><time>2026-03-22T16:46:47.999Z</time></trkpt><trkpt lat="49.2962472499891" lon="0.9708864233007005"><ele>121.99999999999999</ele><time>2026-03-22T16:46:49.999Z</time></trkpt><trkpt lat="49.296265507395255" lon="0.970753024925901"><ele>122.0</ele><time>2026-03-22T16:46:50.999Z</time></trkpt><trkpt lat="49.29628350473274" lon="0.970588662256731"><ele>122.25</ele><time>2026-03-22T16:46:51.999Z</time></trkpt><trkpt lat="49.296301181190515" lon="0.9704170316364439"><ele>122.5</ele><time>2026-03-22T16:46:52.999Z</time></trkpt><trkpt lat="49.29631749977045" lon="0.9702289970352032"><ele>122.75</ele><time>2026-03-22T16:46:53.999Z</time></trkpt><trkpt lat="49.29633450807221" lon="0.9700270631885851"><ele>123.0</ele><time>2026-03-22T16:46:54.999Z</time></trkpt><trkpt lat="49.296350793937464" lon="0.9698208396867682"><ele>123.60000000000001</ele><time>2026-03-22T16:46:55.999Z</time></trkpt><trkpt lat="49.296370852188865" lon="0.9696382664504876"><ele>124.20000000000002</ele><time>2026-03-22T16:46:56.999Z</time></trkpt><trkpt lat="49.296384408682734" lon="0.9694840102640598"><ele>124.8</ele><time>2026-03-22T16:46:57.999Z</time></trkpt><trkpt lat="49.296396976355666" lon="0.9693411440028704"><ele>125.4</ele><time>2026-03-22T16:46:58.998Z</time></trkpt><trkpt lat="49.296408887865844" lon="0.9692187567674174"><ele>126.0</ele><time>2026-03-22T16:46:59.998Z</time></trkpt><trkpt lat="49.29642054411981" lon="0.9690924872403003"><ele>126.0</ele><time>2026-03-22T16:47:00.998Z</time></trkpt><trkpt lat="49.29642814513031" lon="0.9689635238375247"><ele>126.0</ele><time>2026-03-22T16:47:01.998Z</time></trkpt><trkpt lat="49.296438261625866" lon="0.9688399810017231"><ele>126.0</ele><time>2026-03-22T16:47:02.998Z</time></trkpt><trkpt lat="49.29644749400199" lon="0.9687194863716637"><ele>126.0</ele><time>2026-03-22T16:47:03.998Z</time></trkpt><trkpt lat="49.29646098315084" lon="0.9686024051094265"><ele>126.0</ele><time>2026-03-22T16:47:04.998Z</time></trkpt><trkpt lat="49.29647447670159" lon="0.9684854844024288"><ele>126.0</ele><time>2026-03-22T16:47:05.998Z</time></trkpt><trkpt lat="49.29648451705297" lon="0.9683660245128297"><ele>126.16666666666667</ele><time>2026-03-22T16:47:06.998Z</time></trkpt><trkpt lat="49.296491024145226" lon="0.9682462078760609"><ele>126.33333333333334</ele><time>2026-03-22T16:47:07.998Z</time></trkpt><trkpt lat="49.29649871390155" lon="0.968122920052759"><ele>126.5</ele><time>2026-03-22T16:47:08.998Z</time></trkpt><trkpt lat="49.29650590324534" lon="0.9680003823334109"><ele>126.66666666666667</ele><time>2026-03-22T16:47:09.998Z</time></trkpt><trkpt lat="49.29651716308504" lon="0.9678756994330668"><ele>126.83333333333334</ele><time>2026-03-22T16:47:10.998Z</time></trkpt><trkpt lat="49.29652917776813" lon="0.9677501283235322"><ele>127.0</ele><time>2026-03-22T16:47:11.998Z</time></trkpt><trkpt lat="49.296542352523375" lon="0.9676238996474364"><ele>127.33333333333334</ele><time>2026-03-22T16:47:12.998Z</time></trkpt><trkpt lat="49.296556817072215" lon="0.9674986487109641"><ele>127.66666666666667</ele><time>2026-03-22T16:47:13.998Z</time></trkpt><trkpt lat="49.29656798884421" lon="0.9673746277607663"><ele>128.0</ele><time>2026-03-22T16:47:14.998Z</time></trkpt><trkpt lat="49.296579171416056" lon="0.967249912069396"><ele>128.33333333333334</ele><time>2026-03-22T16:47:15.998Z</time></trkpt><trkpt lat="49.29658704606572" lon="0.9671330293459227"><ele>128.66666666666666</ele><time>2026-03-22T16:47:16.998Z</time></trkpt><trkpt lat="49.2965953884447" lon="0.967022969323966"><ele>129.0</ele><time>2026-03-22T16:47:17.998Z</time></trkpt><trkpt lat="49.29662099765948" lon="0.9669126638877679"><ele>129.0</ele><time>2026-03-22T16:47:18.998Z</time></trkpt><trkpt lat="49.29662384206056" lon="0.9667919535145761"><ele>129.0</ele><time>2026-03-22T16:47:19.998Z</time></trkpt><trkpt lat="49.29664718132884" lon="0.9666810323065602"><ele>129.0</ele><time>2026-03-22T16:47:20.998Z</time></trkpt><trkpt lat="49.296669302275475" lon="0.9665705698651391"><ele>129.0</ele><time>2026-03-22T16:47:21.998Z</time></trkpt><trkpt lat="49.2966942516462" lon="0.9664467736980271"><ele>129.0</ele><time>2026-03-22T16:47:22.998Z</time></trkpt><trkpt lat="49.29672293923397" lon="0.966326050586764"><ele>129.0</ele><time>2026-03-22T16:47:23.998Z</time></trkpt><trkpt lat="49.29675223817674" lon="0.9662084499277419"><ele>129.0</ele><time>2026-03-22T16:47:24.998Z</time></trkpt><trkpt lat="49.29677910755636" lon="0.9660927737744518"><ele>129.0</ele><time>2026-03-22T16:47:25.998Z</time></trkpt><trkpt lat="49.296804483185554" lon="0.9659784030092387"><ele>129.0</ele><time>2026-03-22T16:47:26.998Z</time></trkpt><trkpt lat="49.29682559699452" lon="0.9658592578948894"><ele>129.0</ele><time>2026-03-22T16:47:27.998Z</time></trkpt><trkpt lat="49.296861369914275" lon="0.9657509944834279"><ele>129.0</ele><time>2026-03-22T16:47:28.998Z</time></trkpt><trkpt lat="49.29688954214965" lon="0.9656227046233686"><ele>129.0</ele><time>2026-03-22T16:47:29.998Z</time></trkpt><trkpt lat="49.29692236886256" lon="0.965472822283766"><ele>129.0</ele><time>2026-03-22T16:47:30.998Z</time></trkpt><trkpt lat="49.296946750827395" lon="0.9653101285796151"><ele>129.0</ele><time>2026-03-22T16:47:31.998Z</time></trkpt><trkpt lat="49.29698507824816" lon="0.9651375472725682"><ele>129.0</ele><time>2026-03-22T16:47:32.998Z</time></trkpt><trkpt lat="49.29702257355818" lon="0.9649630926196581"><ele>129.0</ele><time>2026-03-22T16:47:33.998Z</time></trkpt><trkpt lat="49.29706405804065" lon="0.9647784757228329"><ele>129.0</ele><time>2026-03-22T16:47:34.998Z</time></trkpt><trkpt lat="49.29711063067309" lon="0.9645782953530266"><ele>129.0</ele><time>2026-03-22T16:47:35.998Z</time></trkpt><trkpt lat="49.29716214458404" lon="0.9643807826527812"><ele>129.0</ele><time>2026-03-22T16:47:36.998Z</time></trkpt><trkpt lat="49.297210353891174" lon="0.9641921209121557"><ele>129.0</ele><time>2026-03-22T16:47:37.998Z</time></trkpt><trkpt lat="49.29725231929332" lon="0.9640226498146653"><ele>128.8</ele><time>2026-03-22T16:47:38.998Z</time></trkpt><trkpt lat="49.297289187546454" lon="0.9638737836222693"><ele>128.60000000000002</ele><time>2026-03-22T16:47:39.998Z</time></trkpt><trkpt lat="49.297330334829105" lon="0.9637268439915213"><ele>128.4</ele><time>2026-03-22T16:47:40.998Z</time></trkpt><trkpt lat="49.29736956996735" lon="0.9635841685762304"><ele>128.20000000000002</ele><time>2026-03-22T16:47:41.998Z</time></trkpt><trkpt lat="49.29740984106537" lon="0.9634395934616341"><ele>128.0</ele><time>2026-03-22T16:47:42.998Z</time></trkpt><trkpt lat="49.297448794322854" lon="0.9633027831801735"><ele>128.0</ele><time>2026-03-22T16:47:43.998Z</time></trkpt><trkpt lat="49.29748817884345" lon="0.9631644497568089"><ele>128.0</ele><time>2026-03-22T16:47:44.998Z</time></trkpt><trkpt lat="49.29752865956295" lon="0.9630306348581822"><ele>128.0</ele><time>2026-03-22T16:47:45.998Z</time></trkpt><trkpt lat="49.29756914078731" lon="0.9628991088925002"><ele>128.0</ele><time>2026-03-22T16:47:46.998Z</time></trkpt><trkpt lat="49.29760957990634" lon="0.9627674093591366"><ele>128.0</ele><time>2026-03-22T16:47:47.998Z</time></trkpt><trkpt lat="49.297654540406775" lon="0.9626439996981025"><ele>128.20000000000002</ele><time>2026-03-22T16:47:48.998Z</time></trkpt><trkpt lat="49.29769957952765" lon="0.9625193842676011"><ele>128.4</ele><time>2026-03-22T16:47:49.998Z</time></trkpt><trkpt lat="49.29774328415397" lon="0.9624008457739394"><ele>128.60000000000002</ele><time>2026-03-22T16:47:50.998Z</time></trkpt><trkpt lat="49.29778853374437" lon="0.9622773801677373"><ele>128.8</ele><time>2026-03-22T16:47:51.998Z</time></trkpt><trkpt lat="49.297832243053776" lon="0.9621538817968298"><ele>129.0</ele><time>2026-03-22T16:47:52.998Z</time></trkpt><trkpt lat="49.297876785354674" lon="0.9620286670288456"><ele>129.0</ele><time>2026-03-22T16:47:53.998Z</time></trkpt><trkpt lat="49.297920899379776" lon="0.9618996816277501"><ele>129.0</ele><time>2026-03-22T16:47:54.998Z</time></trkpt><trkpt lat="49.29796886991578" lon="0.9617741108178632"><ele>129.0</ele><time>2026-03-22T16:47:56Z</time></trkpt><trkpt lat="49.298013054783915" lon="0.9616659656378432"><ele>129.0</ele><time>2026-03-22T16:47:57.001Z</time></trkpt><trkpt lat="49.29805434074117" lon="0.9615612464345528"><ele>129.0</ele><time>2026-03-22T16:47:58.001Z</time></trkpt><trkpt lat="49.298098128178125" lon="0.9614656332650493"><ele>129.0</ele><time>2026-03-22T16:47:59.001Z</time></trkpt><trkpt lat="49.298155872006696" lon="0.9613477945072194"><ele>128.8</ele><time>2026-03-22T16:48:00.001Z</time></trkpt><trkpt lat="49.298220827824444" lon="0.9612184711838423"><ele>128.60000000000002</ele><time>2026-03-22T16:48:01.001Z</time></trkpt><trkpt lat="49.2982712229599" lon="0.9610906600446084"><ele>128.4</ele><time>2026-03-22T16:48:02.001Z</time></trkpt><trkpt lat="49.298329963456375" lon="0.9610007839594029"><ele>128.20000000000002</ele><time>2026-03-22T16:48:03.001Z</time></trkpt><trkpt lat="49.29837117288525" lon="0.9609195559674668"><ele>128.0</ele><time>2026-03-22T16:48:04.001Z</time></trkpt><trkpt lat="49.29844448077165" lon="0.960814972016601"><ele>127.60000000000001</ele><time>2026-03-22T16:48:06.001Z</time></trkpt><trkpt lat="49.2985483984071" lon="0.9609549351526477"><ele>127.20000000000002</ele><time>2026-03-22T16:48:07.001Z</time></trkpt><trkpt lat="49.29864000200754" lon="0.9609974266643205"><ele>126.8</ele><time>2026-03-22T16:48:08.001Z</time></trkpt><trkpt lat="49.29872867811775" lon="0.9610206177467495"><ele>126.4</ele><time>2026-03-22T16:48:09.001Z</time></trkpt><trkpt lat="49.29882734935455" lon="0.9610661755347597"><ele>126.0</ele><time>2026-03-22T16:48:10.001Z</time></trkpt><trkpt lat="49.298936544402814" lon="0.96110796469862"><ele>125.25</ele><time>2026-03-22T16:48:11.001Z</time></trkpt><trkpt lat="49.299043666871945" lon="0.9611793900424324"><ele>124.5</ele><time>2026-03-22T16:48:12.001Z</time></trkpt><trkpt lat="49.29915599281766" lon="0.9612289142380668"><ele>123.75</ele><time>2026-03-22T16:48:13.001Z</time></trkpt><trkpt lat="49.299270639087375" lon="0.9612794614468786"><ele>123.0</ele><time>2026-03-22T16:48:14.001Z</time></trkpt><trkpt lat="49.299386255004165" lon="0.9613304361723034"><ele>123.0</ele><time>2026-03-22T16:48:15.001Z</time></trkpt><trkpt lat="49.29950794048484" lon="0.9613840869628584"><ele>123.0</ele><time>2026-03-22T16:48:16.001Z</time></trkpt><trkpt lat="49.29965513925129" lon="0.961423121001187"><ele>123.0</ele><time>2026-03-22T16:48:17Z</time></trkpt><trkpt lat="49.29978972179871" lon="0.9614841566696684"><ele>123.0</ele><time>2026-03-22T16:48:18Z</time></trkpt><trkpt lat="49.29991163298861" lon="0.9615415259567593"><ele>122.0</ele><time>2026-03-22T16:48:19Z</time></trkpt><trkpt lat="49.30002739480739" lon="0.9615890275000354"><ele>121.0</ele><time>2026-03-22T16:48:20Z</time></trkpt><trkpt lat="49.300134840864246" lon="0.9616604855678936"><ele>120.0</ele><time>2026-03-22T16:48:21Z</time></trkpt><trkpt lat="49.3002465372885" lon="0.9616843304112217"><ele>119.0</ele><time>2026-03-22T16:48:22Z</time></trkpt><trkpt lat="49.30034938043154" lon="0.9617316144724632"><ele>118.80000000000001</ele><time>2026-03-22T16:48:23Z</time></trkpt><trkpt lat="49.30045374516807" lon="0.9617802707692777"><ele>118.60000000000001</ele><time>2026-03-22T16:48:24Z</time></trkpt><trkpt lat="49.300555367872455" lon="0.9618294486441732"><ele>118.4</ele><time>2026-03-22T16:48:25Z</time></trkpt><trkpt lat="49.300648910861646" lon="0.9618759420095979"><ele>118.2</ele><time>2026-03-22T16:48:26Z</time></trkpt><trkpt lat="49.3007350867417" lon="0.9619153774708104"><ele>118.0</ele><time>2026-03-22T16:48:27Z</time></trkpt><trkpt lat="49.30081614657303" lon="0.961944496465031"><ele>117.75</ele><time>2026-03-22T16:48:28Z</time></trkpt><trkpt lat="49.30088695830218" lon="0.9619872275704509"><ele>117.5</ele><time>2026-03-22T16:48:29Z</time></trkpt><trkpt lat="49.30100853939714" lon="0.9617464527933322"><ele>117.25</ele><time>2026-03-22T16:48:31Z</time></trkpt><trkpt lat="49.30105562187392" lon="0.961609604433446"><ele>117.0</ele><time>2026-03-22T16:48:32Z</time></trkpt><trkpt lat="49.30111431143086" lon="0.9614797033486858"><ele>117.0</ele><time>2026-03-22T16:48:33Z</time></trkpt><trkpt lat="49.30117874466045" lon="0.9613507610662161"><ele>116.99999999999999</ele><time>2026-03-22T16:48:34Z</time></trkpt><trkpt lat="49.301250433264215" lon="0.9612247091354718"><ele>116.99999999999999</ele><time>2026-03-22T16:48:35Z</time></trkpt><trkpt lat="49.30132274092523" lon="0.9611031842904522"><ele>117.0</ele><time>2026-03-22T16:48:36Z</time></trkpt><trkpt lat="49.301392312357976" lon="0.9609743747683402"><ele>117.0</ele><time>2026-03-22T16:48:37Z</time></trkpt><trkpt lat="49.30146498834582" lon="0.9608437009275982"><ele>117.0</ele><time>2026-03-22T16:48:38Z</time></trkpt><trkpt lat="49.30153723100275" lon="0.9607176223606362"><ele>117.0</ele><time>2026-03-22T16:48:39Z</time></trkpt><trkpt lat="49.30161423420848" lon="0.9606279547872447"><ele>117.0</ele><time>2026-03-22T16:48:40Z</time></trkpt><trkpt lat="49.301673745379965" lon="0.9605356430611244"><ele>117.0</ele><time>2026-03-22T16:48:41Z</time></trkpt><trkpt lat="49.3017277246884" lon="0.9604524054612191"><ele>117.0</ele><time>2026-03-22T16:48:42Z</time></trkpt><trkpt lat="49.301771726788765" lon="0.9603708517304512"><ele>117.0</ele><time>2026-03-22T16:48:43Z</time></trkpt><trkpt lat="49.30183758178052" lon="0.9603521995435548"><ele>117.0</ele><time>2026-03-22T16:48:44Z</time></trkpt><trkpt lat="49.301915982513954" lon="0.9604039266565962"><ele>117.0</ele><time>2026-03-22T16:48:45Z</time></trkpt><trkpt lat="49.30200704731936" lon="0.9604240918986595"><ele>117.0</ele><time>2026-03-22T16:48:46Z</time></trkpt><trkpt lat="49.30209639689763" lon="0.9604467053292639"><ele>117.0</ele><time>2026-03-22T16:48:47Z</time></trkpt><trkpt lat="49.302177026227916" lon="0.9604729970082978"><ele>117.0</ele><time>2026-03-22T16:48:48Z</time></trkpt><trkpt lat="49.30225491829614" lon="0.9605094764130745"><ele>117.0</ele><time>2026-03-22T16:48:49Z</time></trkpt><trkpt lat="49.30233481219076" lon="0.9605520913648671"><ele>117.66666666666667</ele><time>2026-03-22T16:48:50Z</time></trkpt><trkpt lat="49.30241406552972" lon="0.9605987236688214"><ele>118.33333333333334</ele><time>2026-03-22T16:48:51Z</time></trkpt><trkpt lat="49.30249353468286" lon="0.9606474375456838"><ele>119.0</ele><time>2026-03-22T16:48:52Z</time></trkpt><trkpt lat="49.30257204583654" lon="0.9606981390933703"><ele>119.66666666666667</ele><time>2026-03-22T16:48:53Z</time></trkpt><trkpt lat="49.30265043058756" lon="0.9607528645677486"><ele>120.33333333333334</ele><time>2026-03-22T16:48:54Z</time></trkpt><trkpt lat="49.30273890184196" lon="0.960793489664465"><ele>121.0</ele><time>2026-03-22T16:48:55Z</time></trkpt><trkpt lat="49.302833047792014" lon="0.9608651715264167"><ele>121.00000000000001</ele><time>2026-03-22T16:48:56Z</time></trkpt><trkpt lat="49.302923524568" lon="0.9609584773874849"><ele>121.0</ele><time>2026-03-22T16:48:57Z</time></trkpt><trkpt lat="49.303004097590524" lon="0.9609916405040282"><ele>121.0</ele><time>2026-03-22T16:48:58Z</time></trkpt><trkpt lat="49.30307166692434" lon="0.9610403196856826"><ele>121.0</ele><time>2026-03-22T16:48:59Z</time></trkpt><trkpt lat="49.30314199861221" lon="0.9610841188367283"><ele>121.00000000000001</ele><time>2026-03-22T16:49:00Z</time></trkpt><trkpt lat="49.303229933546426" lon="0.9611241608323792"><ele>121.0</ele><time>2026-03-22T16:49:01Z</time></trkpt><trkpt lat="49.30331200655634" lon="0.9611529260217054"><ele>121.66666666666667</ele><time>2026-03-22T16:49:02Z</time></trkpt><trkpt lat="49.30339388258877" lon="0.9611672477976639"><ele>122.33333333333334</ele><time>2026-03-22T16:49:03Z</time></trkpt><trkpt lat="49.30347130797261" lon="0.9611679106749148"><ele>123.0</ele><time>2026-03-22T16:49:04Z</time></trkpt><trkpt lat="49.303549115595416" lon="0.9611603770621662"><ele>123.66666666666666</ele><time>2026-03-22T16:49:05Z</time></trkpt><trkpt lat="49.30362725537976" lon="0.9611595832754397"><ele>124.33333333333333</ele><time>2026-03-22T16:49:06Z</time></trkpt><trkpt lat="49.3037080729918" lon="0.9611706969666802"><ele>125.0</ele><time>2026-03-22T16:49:07Z</time></trkpt><trkpt lat="49.30378855249707" lon="0.9611881150594299"><ele>125.0</ele><time>2026-03-22T16:49:08Z</time></trkpt><trkpt lat="49.303868826028854" lon="0.9612128156247038"><ele>125.0</ele><time>2026-03-22T16:49:09Z</time></trkpt><trkpt lat="49.30394100035128" lon="0.9612535279581605"><ele>125.0</ele><time>2026-03-22T16:49:10Z</time></trkpt><trkpt lat="49.30401911088102" lon="0.9612601846511795"><ele>125.0</ele><time>2026-03-22T16:49:11Z</time></trkpt><trkpt lat="49.3040496180608" lon="0.961453252611675"><ele>125.0</ele><time>2026-03-22T16:49:12Z</time></trkpt><trkpt lat="49.30412019339345" lon="0.9615503706351449"><ele>125.0</ele><time>2026-03-22T16:49:13Z</time></trkpt><trkpt lat="49.30416415750995" lon="0.9616840850614048"><ele>125.0</ele><time>2026-03-22T16:49:14Z</time></trkpt><trkpt lat="49.304212377807" lon="0.9618079112260399"><ele>125.0</ele><time>2026-03-22T16:49:15Z</time></trkpt><trkpt lat="49.304258159234514" lon="0.9619477362467584"><ele>125.0</ele><time>2026-03-22T16:49:16Z</time></trkpt><trkpt lat="49.30431094904325" lon="0.9621217135226006"><ele>125.0</ele><time>2026-03-22T16:49:16.999Z</time></trkpt><trkpt lat="49.304358999715824" lon="0.9622862573027954"><ele>125.2</ele><time>2026-03-22T16:49:17.999Z</time></trkpt><trkpt lat="49.304400856998996" lon="0.9624237888377247"><ele>125.4</ele><time>2026-03-22T16:49:18.999Z</time></trkpt><trkpt lat="49.30445488168519" lon="0.9625346760628736"><ele>125.6</ele><time>2026-03-22T16:49:19.999Z</time></trkpt><trkpt lat="49.3044947188008" lon="0.9626430114938176"><ele>125.8</ele><time>2026-03-22T16:49:20.999Z</time></trkpt><trkpt lat="49.3045291004626" lon="0.9627839543968589"><ele>126.0</ele><time>2026-03-22T16:49:21.999Z</time></trkpt><trkpt lat="49.30458962658076" lon="0.9629395985882024"><ele>126.19999999999999</ele><time>2026-03-22T16:49:22.999Z</time></trkpt><trkpt lat="49.304659815460724" lon="0.9630681593442512"><ele>126.39999999999999</ele><time>2026-03-22T16:49:23.999Z</time></trkpt><trkpt lat="49.30470157678493" lon="0.9631959135467232"><ele>126.6</ele><time>2026-03-22T16:49:24.999Z</time></trkpt><trkpt lat="49.30473956630382" lon="0.9633038201452313"><ele>126.8</ele><time>2026-03-22T16:49:25.999Z</time></trkpt><trkpt lat="49.30477601616374" lon="0.9633981117488998"><ele>127.0</ele><time>2026-03-22T16:49:26.999Z</time></trkpt><trkpt lat="49.30485089216933" lon="0.9635332210596845"><ele>127.00000000000001</ele><time>2026-03-22T16:49:28.999Z</time></trkpt><trkpt lat="49.3049085098855" lon="0.9635800078208506"><ele>127.0</ele><time>2026-03-22T16:49:29.999Z</time></trkpt><trkpt lat="49.30499149209487" lon="0.9636179982538416"><ele>127.0</ele><time>2026-03-22T16:49:30.999Z</time></trkpt><trkpt lat="49.30506997106306" lon="0.9636683485081021"><ele>127.0</ele><time>2026-03-22T16:49:31.999Z</time></trkpt><trkpt lat="49.305137043420174" lon="0.9637283825903105"><ele>127.00000000000001</ele><time>2026-03-22T16:49:32.999Z</time></trkpt><trkpt lat="49.305199536803364" lon="0.963790153747594"><ele>127.0</ele><time>2026-03-22T16:49:33.999Z</time></trkpt><trkpt lat="49.305263723289094" lon="0.9638614680088231"><ele>127.0</ele><time>2026-03-22T16:49:34.999Z</time></trkpt><trkpt lat="49.30533097614751" lon="0.9639399079012198"><ele>126.99999999999999</ele><time>2026-03-22T16:49:35.999Z</time></trkpt><trkpt lat="49.30539713697634" lon="0.9640232186070817"><ele>126.99999999999999</ele><time>2026-03-22T16:49:36.999Z</time></trkpt><trkpt lat="49.30546949577251" lon="0.9641113379665477"><ele>127.0</ele><time>2026-03-22T16:49:37.999Z</time></trkpt><trkpt lat="49.30554178519838" lon="0.9641997239334326"><ele>127.0</ele><time>2026-03-22T16:49:38.999Z</time></trkpt><trkpt lat="49.30561802443253" lon="0.9642899678695451"><ele>127.0</ele><time>2026-03-22T16:49:39.999Z</time></trkpt><trkpt lat="49.305694050578076" lon="0.9643801761241885"><ele>127.0</ele><time>2026-03-22T16:49:40.999Z</time></trkpt><trkpt lat="49.30579226075044" lon="0.9644904272278274"><ele>127.0</ele><time>2026-03-22T16:49:41.999Z</time></trkpt><trkpt lat="49.305907067837914" lon="0.9645948137693593"><ele>127.0</ele><time>2026-03-22T16:49:42.999Z</time></trkpt><trkpt lat="49.306009813639115" lon="0.9646600996505624"><ele>127.0</ele><time>2026-03-22T16:49:43.999Z</time></trkpt><trkpt lat="49.30610180891055" lon="0.9647060939781131"><ele>126.99999999999999</ele><time>2026-03-22T16:49:44.999Z</time></trkpt><trkpt lat="49.3061902784755" lon="0.9647543986672921"><ele>126.99999999999999</ele><time>2026-03-22T16:49:45.999Z</time></trkpt><trkpt lat="49.30629349729319" lon="0.9648402528330211"><ele>127.0</ele><time>2026-03-22T16:49:46.999Z</time></trkpt><trkpt lat="49.306398747993555" lon="0.9649097988535389"><ele>127.0</ele><time>2026-03-22T16:49:47.999Z</time></trkpt><trkpt lat="49.30648894115643" lon="0.9649702467484571"><ele>126.8</ele><time>2026-03-22T16:49:48.999Z</time></trkpt><trkpt lat="49.3065768479845" lon="0.9650047586950384"><ele>126.6</ele><time>2026-03-22T16:49:49.999Z</time></trkpt><trkpt lat="49.306653279180566" lon="0.9650598904856224"><ele>126.39999999999999</ele><time>2026-03-22T16:49:50.999Z</time></trkpt><trkpt lat="49.306734919945775" lon="0.9651231984629506"><ele>126.19999999999999</ele><time>2026-03-22T16:49:51.999Z</time></trkpt><trkpt lat="49.306818858417664" lon="0.9651897585986883"><ele>126.0</ele><time>2026-03-22T16:49:52.999Z</time></trkpt><trkpt lat="49.30690172853484" lon="0.9652517748153046"><ele>125.83333333333333</ele><time>2026-03-22T16:49:53.999Z</time></trkpt><trkpt lat="49.30697754323721" lon="0.9653052017096959"><ele>125.66666666666666</ele><time>2026-03-22T16:49:54.999Z</time></trkpt><trkpt lat="49.30704701513902" lon="0.9653543950798174"><ele>125.5</ele><time>2026-03-22T16:49:55.999Z</time></trkpt><trkpt lat="49.3071083288395" lon="0.9654040339296648"><ele>125.33333333333333</ele><time>2026-03-22T16:49:56.999Z</time></trkpt><trkpt lat="49.307166744978204" lon="0.9654548171507499"><ele>125.16666666666666</ele><time>2026-03-22T16:49:57.999Z</time></trkpt><trkpt lat="49.307223907600445" lon="0.9655020896407013"><ele>125.0</ele><time>2026-03-22T16:49:58.999Z</time></trkpt><trkpt lat="49.30732448300437" lon="0.9655874049119747"><ele>124.83333333333333</ele><time>2026-03-22T16:50:00.999Z</time></trkpt><trkpt lat="49.30740126820306" lon="0.9656409181845216"><ele>124.66666666666666</ele><time>2026-03-22T16:50:02.001Z</time></trkpt><trkpt lat="49.30748476161098" lon="0.9656983342230239"><ele>124.5</ele><time>2026-03-22T16:50:03.001Z</time></trkpt><trkpt lat="49.30755490134991" lon="0.9657477441903178"><ele>124.33333333333334</ele><time>2026-03-22T16:50:04.001Z</time></trkpt><trkpt lat="49.307610908881905" lon="0.9657938025868044"><ele>124.16666666666667</ele><time>2026-03-22T16:50:05.001Z</time></trkpt><trkpt lat="49.307717783065044" lon="0.9658959650824914"><ele>124.0</ele><time>2026-03-22T16:50:07.001Z</time></trkpt><trkpt lat="49.30778257653687" lon="0.9659564442280524"><ele>124.0</ele><time>2026-03-22T16:50:08.001Z</time></trkpt><trkpt lat="49.307878130084134" lon="0.9660413824976752"><ele>124.0</ele><time>2026-03-22T16:50:09.001Z</time></trkpt><trkpt lat="49.308008467029204" lon="0.9661523391595651"><ele>124.0</ele><time>2026-03-22T16:50:10.001Z</time></trkpt><trkpt lat="49.30816383106111" lon="0.966270722970294"><ele>124.0</ele><time>2026-03-22T16:50:11.001Z</time></trkpt><trkpt lat="49.30831610288433" lon="0.9663872362873106"><ele>124.0</ele><time>2026-03-22T16:50:12.001Z</time></trkpt><trkpt lat="49.3084423825031" lon="0.9664880378868296"><ele>124.0</ele><time>2026-03-22T16:50:13.001Z</time></trkpt><trkpt lat="49.308549858446796" lon="0.9665697831077855"><ele>124.0</ele><time>2026-03-22T16:50:14.001Z</time></trkpt><trkpt lat="49.30864480028276" lon="0.9666464796377234"><ele>124.0</ele><time>2026-03-22T16:50:15.001Z</time></trkpt><trkpt lat="49.30872881577669" lon="0.9667107595062775"><ele>124.33333333333334</ele><time>2026-03-22T16:50:16.001Z</time></trkpt><trkpt lat="49.30880298754415" lon="0.9667638502801428"><ele>124.66666666666667</ele><time>2026-03-22T16:50:17.001Z</time></trkpt><trkpt lat="49.30885760766309" lon="0.9668270743752522"><ele>125.0</ele><time>2026-03-22T16:50:18.001Z</time></trkpt><trkpt lat="49.3089094666489" lon="0.9668824430101802"><ele>125.33333333333334</ele><time>2026-03-22T16:50:19.001Z</time></trkpt><trkpt lat="49.30896120861087" lon="0.966998418261883"><ele>125.66666666666667</ele><time>2026-03-22T16:50:21.001Z</time></trkpt><trkpt lat="49.30904143457046" lon="0.9670533948246716"><ele>126.0</ele><time>2026-03-22T16:50:23.001Z</time></trkpt><trkpt lat="49.309064948290114" lon="0.9673058902181116"><ele>126.75</ele><time>2026-03-22T16:50:25.001Z</time></trkpt><trkpt lat="49.30911928308269" lon="0.9674206157347726"><ele>127.5</ele><time>2026-03-22T16:50:26.001Z</time></trkpt><trkpt lat="49.30919545143551" lon="0.9675790458066639"><ele>128.25</ele><time>2026-03-22T16:50:27.001Z</time></trkpt><trkpt lat="49.309257234892776" lon="0.9677372715525423"><ele>129.0</ele><time>2026-03-22T16:50:28.001Z</time></trkpt><trkpt lat="49.309321768178336" lon="0.9678977285853965"><ele>129.0</ele><time>2026-03-22T16:50:29.001Z</time></trkpt><trkpt lat="49.30939815320952" lon="0.9680278462819031"><ele>129.0</ele><time>2026-03-22T16:50:30.001Z</time></trkpt><trkpt lat="49.30944749979408" lon="0.9681465730820654"><ele>129.0</ele><time>2026-03-22T16:50:31.001Z</time></trkpt><trkpt lat="49.309507165576115" lon="0.9682520373650098"><ele>129.0</ele><time>2026-03-22T16:50:32.001Z</time></trkpt><trkpt lat="49.309560966436074" lon="0.9683524371928299"><ele>129.0</ele><time>2026-03-22T16:50:33Z</time></trkpt><trkpt lat="49.30961075962606" lon="0.9684368059554629"><ele>128.83333333333334</ele><time>2026-03-22T16:50:34Z</time></trkpt><trkpt lat="49.30966280346455" lon="0.9685300594302284"><ele>128.66666666666666</ele><time>2026-03-22T16:50:35Z</time></trkpt><trkpt lat="49.309724983272766" lon="0.9686023537352715"><ele>128.5</ele><time>2026-03-22T16:50:36Z</time></trkpt><trkpt lat="49.30981565098936" lon="0.9687164852088055"><ele>128.33333333333331</ele><time>2026-03-22T16:50:38Z</time></trkpt><trkpt lat="49.30987019126061" lon="0.9687697226614167"><ele>128.16666666666666</ele><time>2026-03-22T16:50:39Z</time></trkpt><trkpt lat="49.30993348508751" lon="0.9688241319065929"><ele>128.0</ele><time>2026-03-22T16:50:40Z</time></trkpt><trkpt lat="49.31001416333117" lon="0.9689072310334818"><ele>128.0</ele><time>2026-03-22T16:50:41Z</time></trkpt><trkpt lat="49.310118644414736" lon="0.9690130707738615"><ele>128.0</ele><time>2026-03-22T16:50:42Z</time></trkpt><trkpt lat="49.31023964986979" lon="0.9691529836521453"><ele>128.0</ele><time>2026-03-22T16:50:43Z</time></trkpt><trkpt lat="49.31038026482622" lon="0.969297955722668"><ele>128.0</ele><time>2026-03-22T16:50:44Z</time></trkpt><trkpt lat="49.310510068482166" lon="0.9694200444387256"><ele>128.0</ele><time>2026-03-22T16:50:45Z</time></trkpt><trkpt lat="49.31061604858753" lon="0.9695329544242167"><ele>128.0</ele><time>2026-03-22T16:50:46Z</time></trkpt><trkpt lat="49.31071829647617" lon="0.9696351807168276"><ele>128.0</ele><time>2026-03-22T16:50:47Z</time></trkpt><trkpt lat="49.310815194412584" lon="0.9697457182988378"><ele>128.0</ele><time>2026-03-22T16:50:48Z</time></trkpt><trkpt lat="49.31091396046387" lon="0.9698243037680757"><ele>127.99999999999999</ele><time>2026-03-22T16:50:49Z</time></trkpt><trkpt lat="49.31099070916342" lon="0.9698780481102067"><ele>128.0</ele><time>2026-03-22T16:50:50Z</time></trkpt><trkpt lat="49.311070434050954" lon="0.9699789472270554"><ele>128.0</ele><time>2026-03-22T16:50:51Z</time></trkpt><trkpt lat="49.311134335776636" lon="0.970081984589029"><ele>128.0</ele><time>2026-03-22T16:50:52Z</time></trkpt><trkpt lat="49.31119313730475" lon="0.9701586488828009"><ele>127.99999999999999</ele><time>2026-03-22T16:50:53Z</time></trkpt><trkpt lat="49.31127674639003" lon="0.9702143320350091"><ele>128.0</ele><time>2026-03-22T16:50:54Z</time></trkpt><trkpt lat="49.31135322202613" lon="0.9702760839354007"><ele>127.80000000000001</ele><time>2026-03-22T16:50:55Z</time></trkpt><trkpt lat="49.3114252854726" lon="0.9703542099817821"><ele>127.60000000000001</ele><time>2026-03-22T16:50:56Z</time></trkpt><trkpt lat="49.311513949132845" lon="0.9704570002010834"><ele>127.39999999999999</ele><time>2026-03-22T16:50:57Z</time></trkpt><trkpt lat="49.31161462005278" lon="0.9705331609209661"><ele>127.19999999999999</ele><time>2026-03-22T16:50:58Z</time></trkpt><trkpt lat="49.311708161195604" lon="0.9706152140192252"><ele>127.0</ele><time>2026-03-22T16:50:59Z</time></trkpt><trkpt lat="49.311797767813594" lon="0.9707176708637519"><ele>127.0</ele><time>2026-03-22T16:51:00Z</time></trkpt><trkpt lat="49.311888784500454" lon="0.9708292757862235"><ele>126.99999999999999</ele><time>2026-03-22T16:51:01Z</time></trkpt><trkpt lat="49.311987638297126" lon="0.9709321919560455"><ele>126.99999999999999</ele><time>2026-03-22T16:51:02Z</time></trkpt><trkpt lat="49.31208018670469" lon="0.9710030237744761"><ele>127.0</ele><time>2026-03-22T16:51:03Z</time></trkpt><trkpt lat="49.312155931617355" lon="0.9710753621941585"><ele>127.0</ele><time>2026-03-22T16:51:04Z</time></trkpt><trkpt lat="49.312237070251314" lon="0.9711349386696742"><ele>127.00000000000001</ele><time>2026-03-22T16:51:05Z</time></trkpt><trkpt lat="49.31230125772442" lon="0.971178405711707"><ele>127.0</ele><time>2026-03-22T16:51:06Z</time></trkpt><trkpt lat="49.31234560534811" lon="0.9712642379740374"><ele>127.0</ele><time>2026-03-22T16:51:07Z</time></trkpt><trkpt lat="49.3124132404072" lon="0.9713580043012783"><ele>127.0</ele><time>2026-03-22T16:51:08Z</time></trkpt><trkpt lat="49.312475516026566" lon="0.9714296548663605"><ele>127.00000000000001</ele><time>2026-03-22T16:51:09Z</time></trkpt><trkpt lat="49.31254362121521" lon="0.971472527898516"><ele>127.0</ele><time>2026-03-22T16:51:10Z</time></trkpt><trkpt lat="49.31263632914762" lon="0.971584828273126"><ele>127.25</ele><time>2026-03-22T16:51:12Z</time></trkpt><trkpt lat="49.3126343152203" lon="0.9716958153004197"><ele>127.5</ele><time>2026-03-22T16:51:14Z</time></trkpt><trkpt lat="49.31252070619545" lon="0.9718146143011234"><ele>127.75</ele><time>2026-03-22T16:51:16Z</time></trkpt><trkpt lat="49.31243489751407" lon="0.9719674770182231"><ele>128.0</ele><time>2026-03-22T16:51:17Z</time></trkpt><trkpt lat="49.31231448706925" lon="0.9721467188402562"><ele>128.0</ele><time>2026-03-22T16:51:18Z</time></trkpt><trkpt lat="49.31227439744331" lon="0.9722405078896332"><ele>128.0</ele><time>2026-03-22T16:51:19Z</time></trkpt><trkpt lat="49.31215803526353" lon="0.9723835930854104"><ele>128.0</ele><time>2026-03-22T16:51:20Z</time></trkpt><trkpt lat="49.31207345115126" lon="0.9725151610089555"><ele>128.0</ele><time>2026-03-22T16:51:21Z</time></trkpt><trkpt lat="49.31199517321834" lon="0.9726547898819802"><ele>127.5</ele><time>2026-03-22T16:51:22Z</time></trkpt><trkpt lat="49.31192314261617" lon="0.9728172764929395"><ele>127.0</ele><time>2026-03-22T16:51:23Z</time></trkpt><trkpt lat="49.311851469328" lon="0.9729752310722787"><ele>126.5</ele><time>2026-03-22T16:51:24Z</time></trkpt><trkpt lat="49.3117783532556" lon="0.9731572108950229"><ele>126.0</ele><time>2026-03-22T16:51:25Z</time></trkpt><trkpt lat="49.31171031873808" lon="0.9733294712836504"><ele>125.5</ele><time>2026-03-22T16:51:26Z</time></trkpt><trkpt lat="49.31164833689655" lon="0.973506077984877"><ele>125.0</ele><time>2026-03-22T16:51:27Z</time></trkpt><trkpt lat="49.311575144710375" lon="0.9736722360446289"><ele>124.5</ele><time>2026-03-22T16:51:28Z</time></trkpt><trkpt lat="49.31151682405082" lon="0.973822850538788"><ele>124.0</ele><time>2026-03-22T16:51:28.999Z</time></trkpt><trkpt lat="49.31146635083285" lon="0.9739522868218716"><ele>124.00000000000001</ele><time>2026-03-22T16:51:29.999Z</time></trkpt><trkpt lat="49.311420414567294" lon="0.974079687887291"><ele>124.0</ele><time>2026-03-22T16:51:30.999Z</time></trkpt><trkpt lat="49.31137577190889" lon="0.9741890833966537"><ele>124.0</ele><time>2026-03-22T16:51:31.999Z</time></trkpt><trkpt lat="49.31133154990662" lon="0.9743069852066686"><ele>124.0</ele><time>2026-03-22T16:51:32.999Z</time></trkpt><trkpt lat="49.31129288198899" lon="0.9744146416460064"><ele>124.00000000000001</ele><time>2026-03-22T16:51:33.999Z</time></trkpt><trkpt lat="49.31125696260513" lon="0.9745255343338488"><ele>124.0</ele><time>2026-03-22T16:51:34.999Z</time></trkpt><trkpt lat="49.31122225975401" lon="0.9746316920274871"><ele>122.71428571428572</ele><time>2026-03-22T16:51:35.999Z</time></trkpt><trkpt lat="49.31119034064957" lon="0.9747282454107887"><ele>121.42857142857144</ele><time>2026-03-22T16:51:36.999Z</time></trkpt><trkpt lat="49.31114677831276" lon="0.9748255604343268"><ele>120.14285714285714</ele><time>2026-03-22T16:51:37.999Z</time></trkpt><trkpt lat="49.31110898522317" lon="0.9749175526718328"><ele>118.85714285714286</ele><time>2026-03-22T16:51:38.999Z</time></trkpt><trkpt lat="49.31106545278364" lon="0.9749992544725586"><ele>117.57142857142857</ele><time>2026-03-22T16:51:39.999Z</time></trkpt><trkpt lat="49.31101773998129" lon="0.9750986225788041"><ele>116.28571428571428</ele><time>2026-03-22T16:51:40.999Z</time></trkpt><trkpt lat="49.31098312405141" lon="0.9751989133081252"><ele>114.99999999999999</ele><time>2026-03-22T16:51:41.999Z</time></trkpt><trkpt lat="49.310927597319704" lon="0.9753468761700278"><ele>112.66666666666667</ele><time>2026-03-22T16:51:43.999Z</time></trkpt><trkpt lat="49.310874912068925" lon="0.9754991440900681"><ele>110.33333333333334</ele><time>2026-03-22T16:51:45.999Z</time></trkpt><trkpt lat="49.310826329956924" lon="0.9756238279792563"><ele>108.0</ele><time>2026-03-22T16:51:47.999Z</time></trkpt><trkpt lat="49.31079775725918" lon="0.9757103781289724"><ele>105.66666666666666</ele><time>2026-03-22T16:51:48.999Z</time></trkpt><trkpt lat="49.310770749408064" lon="0.9758047822334686"><ele>103.33333333333333</ele><time>2026-03-22T16:51:49.999Z</time></trkpt><trkpt lat="49.310733338189664" lon="0.9758842960328693"><ele>101.0</ele><time>2026-03-22T16:51:50.999Z</time></trkpt><trkpt lat="49.31067882169744" lon="0.9760461407814882"><ele>99.16666666666666</ele><time>2026-03-22T16:51:52.999Z</time></trkpt><trkpt lat="49.310635155078515" lon="0.9761538283178666"><ele>97.33333333333333</ele><time>2026-03-22T16:51:53.999Z</time></trkpt><trkpt lat="49.31059562344789" lon="0.9762548509180385"><ele>95.5</ele><time>2026-03-22T16:51:54.999Z</time></trkpt><trkpt lat="49.31055515767025" lon="0.9763428609065744"><ele>93.66666666666666</ele><time>2026-03-22T16:51:55.999Z</time></trkpt><trkpt lat="49.31052201477714" lon="0.9764461978506858"><ele>91.83333333333333</ele><time>2026-03-22T16:51:56.999Z</time></trkpt><trkpt lat="49.31046371236884" lon="0.9765705414333634"><ele>90.0</ele><time>2026-03-22T16:51:57.999Z</time></trkpt><trkpt lat="49.310412498185066" lon="0.9767046434213025"><ele>90.0</ele><time>2026-03-22T16:51:58.999Z</time></trkpt><trkpt lat="49.31035590598045" lon="0.9768512323620342"><ele>90.0</ele><time>2026-03-22T16:51:59.999Z</time></trkpt><trkpt lat="49.31030520583254" lon="0.9769712955585494"><ele>90.0</ele><time>2026-03-22T16:52:00.999Z</time></trkpt><trkpt lat="49.31026541458848" lon="0.9770820499395475"><ele>90.0</ele><time>2026-03-22T16:52:01.999Z</time></trkpt><trkpt lat="49.31022741127285" lon="0.9771605494587884"><ele>90.0</ele><time>2026-03-22T16:52:02.999Z</time></trkpt><trkpt lat="49.310184069818035" lon="0.9772370116534851"><ele>90.0</ele><time>2026-03-22T16:52:03.999Z</time></trkpt><trkpt lat="49.31013229567334" lon="0.9773578539690427"><ele>90.0</ele><time>2026-03-22T16:52:04.999Z</time></trkpt><trkpt lat="49.31010484974753" lon="0.9774959890390318"><ele>90.0</ele><time>2026-03-22T16:52:05.999Z</time></trkpt><trkpt lat="49.31007605056168" lon="0.9776198768824714"><ele>90.0</ele><time>2026-03-22T16:52:06.999Z</time></trkpt><trkpt lat="49.310030498170136" lon="0.977739770720143"><ele>90.0</ele><time>2026-03-22T16:52:08.001Z</time></trkpt><trkpt lat="49.30997230206446" lon="0.9778836599265567"><ele>90.0</ele><time>2026-03-22T16:52:09.001Z</time></trkpt><trkpt lat="49.30990963736213" lon="0.9780024446016735"><ele>92.8</ele><time>2026-03-22T16:52:10.001Z</time></trkpt><trkpt lat="49.30986191345682" lon="0.9781204222732688"><ele>95.6</ele><time>2026-03-22T16:52:11.001Z</time></trkpt><trkpt lat="49.309825622437224" lon="0.9782127226089425"><ele>98.4</ele><time>2026-03-22T16:52:12.001Z</time></trkpt><trkpt lat="49.309781246918355" lon="0.978335814871101"><ele>101.2</ele><time>2026-03-22T16:52:13.001Z</time></trkpt><trkpt lat="49.3097338120079" lon="0.9785122017428778"><ele>104.0</ele><time>2026-03-22T16:52:14.001Z</time></trkpt><trkpt lat="49.309682390635516" lon="0.9786295091999587"><ele>103.99999999999999</ele><time>2026-03-22T16:52:15.001Z</time></trkpt><trkpt lat="49.30961165072874" lon="0.9787531676812301"><ele>104.0</ele><time>2026-03-22T16:52:17.001Z</time></trkpt><trkpt lat="49.3096720276319" lon="0.9786872147745792"><ele>104.0</ele><time>2026-03-22T16:54:47Z</time></trkpt><trkpt lat="49.309677243560195" lon="0.9785831574791239"><ele>104.0</ele><time>2026-03-22T16:55:19Z</time></trkpt><trkpt lat="49.309720113728794" lon="0.9784861568559855"><ele>103.99999999999999</ele><time>2026-03-22T16:55:23Z</time></trkpt><trkpt lat="49.30975239467934" lon="0.9783900508412153"><ele>104.0</ele><time>2026-03-22T16:55:25Z</time></trkpt><trkpt lat="49.30978232655321" lon="0.9783032615965925"><ele>103.99999999999999</ele><time>2026-03-22T16:55:27Z</time></trkpt><trkpt lat="49.30981062252496" lon="0.9781939456189886"><ele>104.0</ele><time>2026-03-22T16:55:30.999Z</time></trkpt><trkpt lat="49.30986435093905" lon="0.9780877035291028"><ele>104.0</ele><time>2026-03-22T16:55:33.999Z</time></trkpt><trkpt lat="49.309927919013575" lon="0.9779647380903816"><ele>104.0</ele><time>2026-03-22T16:55:36.999Z</time></trkpt><trkpt lat="49.309984823028174" lon="0.9778519028838549"><ele>103.99999999999999</ele><time>2026-03-22T16:55:38.999Z</time></trkpt><trkpt lat="49.31002863399041" lon="0.9777625696731165"><ele>104.0</ele><time>2026-03-22T16:55:40.999Z</time></trkpt><trkpt lat="49.31005787297734" lon="0.9776599679599222"><ele>104.0</ele><time>2026-03-22T16:55:42.999Z</time></trkpt><trkpt lat="49.31009151355318" lon="0.9775656667715042"><ele>104.0</ele><time>2026-03-22T16:55:44.999Z</time></trkpt><trkpt lat="49.31014179514488" lon="0.9774234342497323"><ele>104.0</ele><time>2026-03-22T16:55:46.999Z</time></trkpt><trkpt lat="49.31019878986058" lon="0.9772828246945645"><ele>104.0</ele><time>2026-03-22T16:55:48.999Z</time></trkpt><trkpt lat="49.31025770994377" lon="0.977143741705413"><ele>104.0</ele><time>2026-03-22T16:55:50.999Z</time></trkpt><trkpt lat="49.31036278010927" lon="0.9769019312203508"><ele>100.5</ele><time>2026-03-22T16:55:52.999Z</time></trkpt><trkpt lat="49.31041387420813" lon="0.9767684966128128"><ele>97.0</ele><time>2026-03-22T16:55:53.999Z</time></trkpt><trkpt lat="49.31049861075245" lon="0.9765779635110912"><ele>93.5</ele><time>2026-03-22T16:55:54.999Z</time></trkpt><trkpt lat="49.31056298064826" lon="0.9764256511448581"><ele>90.0</ele><time>2026-03-22T16:55:55.999Z</time></trkpt><trkpt lat="49.3106273245409" lon="0.9762555514369154"><ele>89.75</ele><time>2026-03-22T16:55:56.999Z</time></trkpt><trkpt lat="49.31069437716433" lon="0.9760814135041115"><ele>89.5</ele><time>2026-03-22T16:55:57.999Z</time></trkpt><trkpt lat="49.310752418111" lon="0.9759207622558383"><ele>89.25</ele><time>2026-03-22T16:55:58.999Z</time></trkpt><trkpt lat="49.31081539946474" lon="0.9757568980823671"><ele>89.0</ele><time>2026-03-22T16:55:59.999Z</time></trkpt><trkpt lat="49.31088319196606" lon="0.9756003157882319"><ele>92.0</ele><time>2026-03-22T16:56:00.999Z</time></trkpt><trkpt lat="49.31094551989677" lon="0.9754191924061253"><ele>95.0</ele><time>2026-03-22T16:56:01.999Z</time></trkpt><trkpt lat="49.31101741167479" lon="0.9752495430651256"><ele>98.0</ele><time>2026-03-22T16:56:02.999Z</time></trkpt><trkpt lat="49.31109650713276" lon="0.9750546317622044"><ele>101.0</ele><time>2026-03-22T16:56:03.999Z</time></trkpt><trkpt lat="49.31115807517109" lon="0.9748451233675821"><ele>103.8</ele><time>2026-03-22T16:56:04.999Z</time></trkpt><trkpt lat="49.311237449631314" lon="0.9746492899750632"><ele>106.6</ele><time>2026-03-22T16:56:05.999Z</time></trkpt><trkpt lat="49.311301561082786" lon="0.9744811848401829"><ele>109.4</ele><time>2026-03-22T16:56:06.999Z</time></trkpt><trkpt lat="49.311344437234766" lon="0.9743543761205193"><ele>112.2</ele><time>2026-03-22T16:56:07.999Z</time></trkpt><trkpt lat="49.31137918662164" lon="0.9742614970638798"><ele>115.0</ele><time>2026-03-22T16:56:08.999Z</time></trkpt><trkpt lat="49.31139929077665" lon="0.9741542944354729"><ele>116.8</ele><time>2026-03-22T16:56:09.999Z</time></trkpt><trkpt lat="49.31145951866713" lon="0.9740004213268222"><ele>118.6</ele><time>2026-03-22T16:56:11.999Z</time></trkpt><trkpt lat="49.31150828271066" lon="0.9739066975087335"><ele>120.4</ele><time>2026-03-22T16:56:13.999Z</time></trkpt><trkpt lat="49.31155239945477" lon="0.9737817581335482"><ele>122.2</ele><time>2026-03-22T16:56:16.999Z</time></trkpt><trkpt lat="49.31161191335991" lon="0.973640077100259"><ele>124.0</ele><time>2026-03-22T16:56:19.001Z</time></trkpt><trkpt lat="49.31165509653695" lon="0.973564032928735"><ele>124.00000000000001</ele><time>2026-03-22T16:56:21.001Z</time></trkpt><trkpt lat="49.311595430985975" lon="0.9735314257818982"><ele>124.0</ele><time>2026-03-22T16:56:25.001Z</time></trkpt><trkpt lat="49.311573405900376" lon="0.9736300527673059"><ele>124.0</ele><time>2026-03-22T16:56:27.001Z</time></trkpt><trkpt lat="49.31152619835911" lon="0.9737390123129661"><ele>124.0</ele><time>2026-03-22T16:56:30.001Z</time></trkpt><trkpt lat="49.31145658023711" lon="0.9737781129331977"><ele>124.00000000000001</ele><time>2026-03-22T16:56:33.001Z</time></trkpt><trkpt lat="49.31151294698453" lon="0.9738415760197467"><ele>124.0</ele><time>2026-03-22T16:56:40.001Z</time></trkpt><trkpt lat="49.311587991962114" lon="0.9739794187821085"><ele>124.00000000000001</ele><time>2026-03-22T16:56:42Z</time></trkpt><trkpt lat="49.31164024821491" lon="0.9740358686163859"><ele>124.0</ele><time>2026-03-22T16:56:43Z</time></trkpt><trkpt lat="49.31171701344602" lon="0.9740934423002227"><ele>124.0</ele><time>2026-03-22T16:56:44Z</time></trkpt><trkpt lat="49.311802909953315" lon="0.9741613259842702"><ele>124.0</ele><time>2026-03-22T16:56:45Z</time></trkpt><trkpt lat="49.311874730535074" lon="0.9742271290104743"><ele>124.00000000000001</ele><time>2026-03-22T16:56:46Z</time></trkpt><trkpt lat="49.311953657582585" lon="0.9743098543631856"><ele>124.0</ele><time>2026-03-22T16:56:47Z</time></trkpt><trkpt lat="49.312029277407625" lon="0.9743787093903369"><ele>124.0</ele><time>2026-03-22T16:56:48Z</time></trkpt><trkpt lat="49.31213705161839" lon="0.9744734505491031"><ele>124.0</ele><time>2026-03-22T16:56:49Z</time></trkpt><trkpt lat="49.31227163873949" lon="0.9745818947610765"><ele>124.0</ele><time>2026-03-22T16:56:50Z</time></trkpt><trkpt lat="49.31241665623404" lon="0.9747229390326307"><ele>124.0</ele><time>2026-03-22T16:56:51Z</time></trkpt><trkpt lat="49.312551753385435" lon="0.9748486425328027"><ele>124.0</ele><time>2026-03-22T16:56:52Z</time></trkpt><trkpt lat="49.31266967402387" lon="0.9749802009605505"><ele>124.0</ele><time>2026-03-22T16:56:53Z</time></trkpt><trkpt lat="49.3127623135024" lon="0.975065965094411"><ele>124.0</ele><time>2026-03-22T16:56:54Z</time></trkpt><trkpt lat="49.31285361726744" lon="0.9751617140759583"><ele>124.0</ele><time>2026-03-22T16:56:55Z</time></trkpt><trkpt lat="49.31294655666407" lon="0.9752416758033681"><ele>123.75</ele><time>2026-03-22T16:56:56Z</time></trkpt><trkpt lat="49.313053438159784" lon="0.975324141703194"><ele>123.5</ele><time>2026-03-22T16:56:57Z</time></trkpt><trkpt lat="49.31315716449157" lon="0.9754092867675708"><ele>123.25</ele><time>2026-03-22T16:56:58Z</time></trkpt><trkpt lat="49.3132569080413" lon="0.9754921570700499"><ele>123.0</ele><time>2026-03-22T16:56:59Z</time></trkpt><trkpt lat="49.313353828764455" lon="0.9755775715378038"><ele>123.0</ele><time>2026-03-22T16:57:00Z</time></trkpt><trkpt lat="49.31345208569856" lon="0.9756690159843157"><ele>123.0</ele><time>2026-03-22T16:57:01Z</time></trkpt><trkpt lat="49.31355494684369" lon="0.97575559211106"><ele>123.0</ele><time>2026-03-22T16:57:02Z</time></trkpt><trkpt lat="49.31366143581288" lon="0.9758425470385179"><ele>123.0</ele><time>2026-03-22T16:57:03Z</time></trkpt><trkpt lat="49.3137664742341" lon="0.975927697642098"><ele>123.0</ele><time>2026-03-22T16:57:04Z</time></trkpt><trkpt lat="49.313883113109114" lon="0.9760319394829942"><ele>123.0</ele><time>2026-03-22T16:57:05Z</time></trkpt><trkpt lat="49.31400902657166" lon="0.976140651336802"><ele>123.0</ele><time>2026-03-22T16:57:06Z</time></trkpt><trkpt lat="49.31411510634059" lon="0.9762380070645783"><ele>123.0</ele><time>2026-03-22T16:57:07Z</time></trkpt><trkpt lat="49.314212978834924" lon="0.9763266138687817"><ele>123.0</ele><time>2026-03-22T16:57:08Z</time></trkpt><trkpt lat="49.31428939827977" lon="0.9764023220009732"><ele>123.0</ele><time>2026-03-22T16:57:09Z</time></trkpt><trkpt lat="49.314361681800335" lon="0.9764688244015617"><ele>123.0</ele><time>2026-03-22T16:57:10Z</time></trkpt><trkpt lat="49.314427741704854" lon="0.9765325497630034"><ele>123.0</ele><time>2026-03-22T16:57:11Z</time></trkpt><trkpt lat="49.31449829588862" lon="0.9766014094202169"><ele>123.0</ele><time>2026-03-22T16:57:12Z</time></trkpt><trkpt lat="49.31456192209458" lon="0.9766670254101101"><ele>123.0</ele><time>2026-03-22T16:57:13Z</time></trkpt><trkpt lat="49.31464180191809" lon="0.9767485277856464"><ele>122.60000000000001</ele><time>2026-03-22T16:57:14Z</time></trkpt><trkpt lat="49.31473744350893" lon="0.9768519755518781"><ele>122.20000000000002</ele><time>2026-03-22T16:57:15Z</time></trkpt><trkpt lat="49.314830334023064" lon="0.9769335768547571"><ele>121.8</ele><time>2026-03-22T16:57:16Z</time></trkpt><trkpt lat="49.31492209771266" lon="0.9770130060781398"><ele>121.4</ele><time>2026-03-22T16:57:17Z</time></trkpt><trkpt lat="49.31500500894989" lon="0.9770929147479606"><ele>121.0</ele><time>2026-03-22T16:57:18Z</time></trkpt><trkpt lat="49.31508311455213" lon="0.9771725587793992"><ele>120.83333333333334</ele><time>2026-03-22T16:57:19Z</time></trkpt><trkpt lat="49.31517248752777" lon="0.9772521297287909"><ele>120.66666666666667</ele><time>2026-03-22T16:57:20Z</time></trkpt><trkpt lat="49.31525101981272" lon="0.9773191937182018"><ele>120.5</ele><time>2026-03-22T16:57:21Z</time></trkpt><trkpt lat="49.315315898337595" lon="0.9773841243175552"><ele>120.33333333333334</ele><time>2026-03-22T16:57:22Z</time></trkpt><trkpt lat="49.31538051200465" lon="0.9774366000332972"><ele>120.16666666666667</ele><time>2026-03-22T16:57:23Z</time></trkpt><trkpt lat="49.315440736988315" lon="0.977488579852467"><ele>120.0</ele><time>2026-03-22T16:57:24Z</time></trkpt><trkpt lat="49.31550945432895" lon="0.9775563937391566"><ele>119.83333333333333</ele><time>2026-03-22T16:57:25Z</time></trkpt><trkpt lat="49.31556820410977" lon="0.9776260212822758"><ele>119.66666666666666</ele><time>2026-03-22T16:57:26Z</time></trkpt><trkpt lat="49.31563180774781" lon="0.9776890779100759"><ele>119.5</ele><time>2026-03-22T16:57:26.999Z</time></trkpt><trkpt lat="49.31569296150665" lon="0.97773725141526"><ele>119.33333333333333</ele><time>2026-03-22T16:57:27.999Z</time></trkpt><trkpt lat="49.31576644832973" lon="0.9777867446707902"><ele>119.16666666666666</ele><time>2026-03-22T16:57:28.999Z</time></trkpt><trkpt lat="49.31583267049953" lon="0.9778558651305476"><ele>119.0</ele><time>2026-03-22T16:57:29.999Z</time></trkpt><trkpt lat="49.31591550738724" lon="0.9779212898235355"><ele>117.85714285714286</ele><time>2026-03-22T16:57:30.999Z</time></trkpt><trkpt lat="49.31598024420668" lon="0.977974914892808"><ele>116.71428571428572</ele><time>2026-03-22T16:57:31.999Z</time></trkpt><trkpt lat="49.31604462762891" lon="0.9780336850386979"><ele>115.57142857142857</ele><time>2026-03-22T16:57:32.999Z</time></trkpt><trkpt lat="49.3161074719773" lon="0.978089985166096"><ele>114.42857142857143</ele><time>2026-03-22T16:57:33.999Z</time></trkpt><trkpt lat="49.3161681581653" lon="0.9781490562747696"><ele>113.28571428571429</ele><time>2026-03-22T16:57:34.999Z</time></trkpt><trkpt lat="49.316231225360895" lon="0.978213997909052"><ele>112.14285714285714</ele><time>2026-03-22T16:57:35.999Z</time></trkpt><trkpt lat="49.316295418748936" lon="0.9782760457858157"><ele>111.0</ele><time>2026-03-22T16:57:36.999Z</time></trkpt><trkpt lat="49.31636451510468" lon="0.9783340780291389"><ele>108.0</ele><time>2026-03-22T16:57:37.999Z</time></trkpt><trkpt lat="49.316428263575055" lon="0.978391723056189"><ele>105.0</ele><time>2026-03-22T16:57:38.999Z</time></trkpt><trkpt lat="49.316484099706514" lon="0.9784451380843786"><ele>102.0</ele><time>2026-03-22T16:57:39.999Z</time></trkpt><trkpt lat="49.31655971760579" lon="0.9785479208125966"><ele>99.0</ele><time>2026-03-22T16:57:41.999Z</time></trkpt><trkpt lat="49.316633684055155" lon="0.9786450520153859"><ele>96.0</ele><time>2026-03-22T16:57:43.999Z</time></trkpt><trkpt lat="49.31670085012178" lon="0.9787036590660128"><ele>93.0</ele><time>2026-03-22T16:57:45.999Z</time></trkpt><trkpt lat="49.31676687251494" lon="0.9787454990642906"><ele>93.0</ele><time>2026-03-22T16:57:47.999Z</time></trkpt><trkpt lat="49.316859168583" lon="0.9788126146876703"><ele>93.0</ele><time>2026-03-22T16:57:50.999Z</time></trkpt><trkpt lat="49.31692907862552" lon="0.9789168888567115"><ele>93.0</ele><time>2026-03-22T16:57:53.999Z</time></trkpt><trkpt lat="49.316994799438" lon="0.9789826306251143"><ele>93.0</ele><time>2026-03-22T16:59:12Z</time></trkpt><trkpt lat="49.317070577507884" lon="0.9790230965804503"><ele>93.0</ele><time>2026-03-22T16:59:32.999Z</time></trkpt><trkpt lat="49.31713569582496" lon="0.9790498033385813"><ele>93.0</ele><time>2026-03-22T17:00:00.999Z</time></trkpt><trkpt lat="49.317193067933694" lon="0.9790985162921203"><ele>90.83333333333333</ele><time>2026-03-22T17:00:04.999Z</time></trkpt><trkpt lat="49.31726347087656" lon="0.9791473491659527"><ele>88.66666666666667</ele><time>2026-03-22T17:00:07.999Z</time></trkpt><trkpt lat="49.31734207784515" lon="0.9791760761402373"><ele>86.5</ele><time>2026-03-22T17:00:10.998Z</time></trkpt><trkpt lat="49.31740726180886" lon="0.9792309372681713"><ele>84.33333333333334</ele><time>2026-03-22T17:00:11.998Z</time></trkpt><trkpt lat="49.31746856254111" lon="0.9793000911410583"><ele>82.16666666666667</ele><time>2026-03-22T17:00:12.998Z</time></trkpt><trkpt lat="49.31751507062997" lon="0.9793740906093403"><ele>80.0</ele><time>2026-03-22T17:00:13.998Z</time></trkpt><trkpt lat="49.31758979720042" lon="0.9794470435387151"><ele>77.5</ele><time>2026-03-22T17:00:14.998Z</time></trkpt><trkpt lat="49.317671444038844" lon="0.9795245034423351"><ele>75.0</ele><time>2026-03-22T17:00:15.998Z</time></trkpt><trkpt lat="49.31772268580797" lon="0.9795933692946331"><ele>72.5</ele><time>2026-03-22T17:00:16.998Z</time></trkpt><trkpt lat="49.31777315955613" lon="0.9796554734546951"><ele>70.0</ele><time>2026-03-22T17:00:17.998Z</time></trkpt><trkpt lat="49.31784911967817" lon="0.9797605498220665"><ele>67.5</ele><time>2026-03-22T17:00:19.998Z</time></trkpt><trkpt lat="49.31792155285781" lon="0.9798016449006198"><ele>65.0</ele><time>2026-03-22T17:00:21.998Z</time></trkpt><trkpt lat="49.317988936320724" lon="0.9798472514429469"><ele>65.0</ele><time>2026-03-22T17:00:23.998Z</time></trkpt><trkpt lat="49.318066682082495" lon="0.9798310699864425"><ele>65.0</ele><time>2026-03-22T17:00:26.998Z</time></trkpt><trkpt lat="49.31794788003706" lon="0.9797626313382157"><ele>65.0</ele><time>2026-03-22T17:01:26.999Z</time></trkpt><trkpt lat="49.31787130850008" lon="0.9797305702929333"><ele>65.0</ele><time>2026-03-22T17:01:27.999Z</time></trkpt><trkpt lat="49.317772815416795" lon="0.9796227943796904"><ele>65.0</ele><time>2026-03-22T17:01:29.999Z</time></trkpt><trkpt lat="49.31771213443661" lon="0.9795435920418781"><ele>65.0</ele><time>2026-03-22T17:01:30.999Z</time></trkpt><trkpt lat="49.31764882371849" lon="0.9794756480265233"><ele>65.0</ele><time>2026-03-22T17:01:31.999Z</time></trkpt><trkpt lat="49.31756881581617" lon="0.9794242824998405"><ele>65.0</ele><time>2026-03-22T17:01:32.999Z</time></trkpt><trkpt lat="49.31748648939162" lon="0.9793605443246617"><ele>65.0</ele><time>2026-03-22T17:01:33.999Z</time></trkpt><trkpt lat="49.31740002587036" lon="0.9792684045111658"><ele>65.0</ele><time>2026-03-22T17:01:34.999Z</time></trkpt><trkpt lat="49.317298554383456" lon="0.9791942877042149"><ele>70.6</ele><time>2026-03-22T17:01:35.999Z</time></trkpt><trkpt lat="49.31721278702433" lon="0.9791182397525199"><ele>76.2</ele><time>2026-03-22T17:01:36.999Z</time></trkpt><trkpt lat="49.317136422771874" lon="0.979025117571007"><ele>81.80000000000001</ele><time>2026-03-22T17:01:37.999Z</time></trkpt><trkpt lat="49.3170373044191" lon="0.9789884638181049"><ele>87.4</ele><time>2026-03-22T17:01:38.999Z</time></trkpt><trkpt lat="49.31698017586298" lon="0.9789360625007049"><ele>93.0</ele><time>2026-03-22T17:01:39.999Z</time></trkpt><trkpt lat="49.316877631690176" lon="0.9788746845841058"><ele>93.0</ele><time>2026-03-22T17:01:41.999Z</time></trkpt><trkpt lat="49.31680430098918" lon="0.9787861893257033"><ele>93.0</ele><time>2026-03-22T17:01:43.999Z</time></trkpt><trkpt lat="49.31668351158902" lon="0.9786809707609784"><ele>93.0</ele><time>2026-03-22T17:01:45.999Z</time></trkpt><trkpt lat="49.31662260850877" lon="0.9786380207042064"><ele>93.0</ele><time>2026-03-22T17:01:46.999Z</time></trkpt><trkpt lat="49.31655806426662" lon="0.9785732314578299"><ele>93.0</ele><time>2026-03-22T17:01:47.999Z</time></trkpt><trkpt lat="49.316496571566375" lon="0.978495877074723"><ele>93.0</ele><time>2026-03-22T17:01:48.999Z</time></trkpt><trkpt lat="49.316421996741745" lon="0.9784058201586545"><ele>93.0</ele><time>2026-03-22T17:01:49.999Z</time></trkpt><trkpt lat="49.31630987049303" lon="0.9783083550162098"><ele>93.0</ele><time>2026-03-22T17:01:50.999Z</time></trkpt><trkpt lat="49.31621713594453" lon="0.978205838880225"><ele>93.0</ele><time>2026-03-22T17:01:51.999Z</time></trkpt><trkpt lat="49.31614608003828" lon="0.9781383276145017"><ele>93.0</ele><time>2026-03-22T17:01:52.999Z</time></trkpt><trkpt lat="49.31607378594" lon="0.9780788397257877"><ele>96.60000000000001</ele><time>2026-03-22T17:01:53.999Z</time></trkpt><trkpt lat="49.315999414955826" lon="0.9780191937658415"><ele>100.2</ele><time>2026-03-22T17:01:54.999Z</time></trkpt><trkpt lat="49.3159223526259" lon="0.9779494623611048"><ele>103.8</ele><time>2026-03-22T17:01:55.999Z</time></trkpt><trkpt lat="49.315861300855744" lon="0.9778881438990955"><ele>107.4</ele><time>2026-03-22T17:01:56.999Z</time></trkpt><trkpt lat="49.315767704497375" lon="0.9778211457520826"><ele>111.0</ele><time>2026-03-22T17:01:57.999Z</time></trkpt><trkpt lat="49.31567448880189" lon="0.9777436508899857"><ele>113.66666666666666</ele><time>2026-03-22T17:01:58.999Z</time></trkpt><trkpt lat="49.31555161040578" lon="0.9776652941998549"><ele>116.33333333333333</ele><time>2026-03-22T17:01:59.999Z</time></trkpt><trkpt lat="49.31542838780152" lon="0.97756661681766"><ele>119.0</ele><time>2026-03-22T17:02:00.999Z</time></trkpt><trkpt lat="49.31527518489337" lon="0.977416442795529"><ele>119.33333333333333</ele><time>2026-03-22T17:02:01.999Z</time></trkpt><trkpt lat="49.3150957922537" lon="0.977250983468269"><ele>119.66666666666666</ele><time>2026-03-22T17:02:02.999Z</time></trkpt><trkpt lat="49.31496379632092" lon="0.9771120442627634"><ele>120.0</ele><time>2026-03-22T17:02:03.999Z</time></trkpt><trkpt lat="49.314852461095754" lon="0.9769930436227324"><ele>120.0</ele><time>2026-03-22T17:02:04.999Z</time></trkpt><trkpt lat="49.31474760293423" lon="0.9768736919483141"><ele>120.0</ele><time>2026-03-22T17:02:05.999Z</time></trkpt><trkpt lat="49.314657645044" lon="0.9767727997324915"><ele>120.0</ele><time>2026-03-22T17:02:06.999Z</time></trkpt><trkpt lat="49.31457495591965" lon="0.9766961373860789"><ele>120.0</ele><time>2026-03-22T17:02:07.999Z</time></trkpt><trkpt lat="49.31451548338499" lon="0.9766203742385717"><ele>120.0</ele><time>2026-03-22T17:02:08.999Z</time></trkpt><trkpt lat="49.31445770966566" lon="0.976569644213446"><ele>120.0</ele><time>2026-03-22T17:02:09.999Z</time></trkpt><trkpt lat="49.314384702812006" lon="0.9764613335572363"><ele>120.0</ele><time>2026-03-22T17:02:11.999Z</time></trkpt><trkpt lat="49.31442103145956" lon="0.976568566788488"><ele>120.0</ele><time>2026-03-22T17:02:16.998Z</time></trkpt><trkpt lat="49.31449079237434" lon="0.9766067276859328"><ele>120.0</ele><time>2026-03-22T17:02:18.998Z</time></trkpt><trkpt lat="49.314540994027844" lon="0.9767253494268388"><ele>120.0</ele><time>2026-03-22T17:02:20.998Z</time></trkpt><trkpt lat="49.314785285368146" lon="0.9768930680969788"><ele>120.0</ele><time>2026-03-22T17:02:21.998Z</time></trkpt><trkpt lat="49.31487985812483" lon="0.976995130682893"><ele>120.0</ele><time>2026-03-22T17:02:22.998Z</time></trkpt><trkpt lat="49.31498961976072" lon="0.9770826835007917"><ele>120.0</ele><time>2026-03-22T17:02:23.998Z</time></trkpt><trkpt lat="49.31510111879116" lon="0.9771804587464991"><ele>120.0</ele><time>2026-03-22T17:02:24.998Z</time></trkpt><trkpt lat="49.315216695284555" lon="0.9772830216647637"><ele>120.0</ele><time>2026-03-22T17:02:25.998Z</time></trkpt><trkpt lat="49.315324596845166" lon="0.9773778262218205"><ele>120.0</ele><time>2026-03-22T17:02:26.998Z</time></trkpt><trkpt lat="49.315422520375726" lon="0.9774585897970698"><ele>120.0</ele><time>2026-03-22T17:02:27.998Z</time></trkpt><trkpt lat="49.315506733637235" lon="0.9775321604595207"><ele>120.0</ele><time>2026-03-22T17:02:28.998Z</time></trkpt><trkpt lat="49.31558752960132" lon="0.9776090417608154"><ele>120.0</ele><time>2026-03-22T17:02:29.998Z</time></trkpt><trkpt lat="49.315666873862284" lon="0.9776830130899831"><ele>118.5</ele><time>2026-03-22T17:02:30.998Z</time></trkpt><trkpt lat="49.31574198985702" lon="0.9777600653415406"><ele>117.0</ele><time>2026-03-22T17:02:31.998Z</time></trkpt><trkpt lat="49.31581765228806" lon="0.9778337763264815"><ele>115.5</ele><time>2026-03-22T17:02:32.998Z</time></trkpt><trkpt lat="49.315883662012745" lon="0.9778987220872783"><ele>114.0</ele><time>2026-03-22T17:02:33.998Z</time></trkpt><trkpt lat="49.31594672316377" lon="0.977945945310112"><ele>112.5</ele><time>2026-03-22T17:02:34.998Z</time></trkpt><trkpt lat="49.31604953143438" lon="0.9780288803770281"><ele>111.0</ele><time>2026-03-22T17:02:37Z</time></trkpt><trkpt lat="49.316116572169435" lon="0.9780891301358843"><ele>111.0</ele><time>2026-03-22T17:02:39Z</time></trkpt><trkpt lat="49.31620287904807" lon="0.9781538662482476"><ele>111.0</ele><time>2026-03-22T17:02:41Z</time></trkpt><trkpt lat="49.3162638461853" lon="0.9782257582309037"><ele>111.0</ele><time>2026-03-22T17:02:43Z</time></trkpt><trkpt lat="49.31633865282342" lon="0.9782976466026965"><ele>111.0</ele><time>2026-03-22T17:02:45Z</time></trkpt><trkpt lat="49.31642695933774" lon="0.9783771252047184"><ele>111.0</ele><time>2026-03-22T17:02:47Z</time></trkpt><trkpt lat="49.31651880854216" lon="0.9784783681749151"><ele>108.0</ele><time>2026-03-22T17:02:49Z</time></trkpt><trkpt lat="49.316594529368054" lon="0.9786054949364297"><ele>105.0</ele><time>2026-03-22T17:02:51Z</time></trkpt><trkpt lat="49.31666635141646" lon="0.9786689723262407"><ele>102.0</ele><time>2026-03-22T17:02:53Z</time></trkpt><trkpt lat="49.31673568290168" lon="0.978752926674364"><ele>99.0</ele><time>2026-03-22T17:02:56Z</time></trkpt><trkpt lat="49.31680155674082" lon="0.9788030078248863"><ele>96.0</ele><time>2026-03-22T17:02:58Z</time></trkpt><trkpt lat="49.3168619765172" lon="0.9788800974251994"><ele>93.0</ele><time>2026-03-22T17:03:01Z</time></trkpt><trkpt lat="49.31692037793315" lon="0.9789332707878271"><ele>93.00000000000001</ele><time>2026-03-22T17:03:03Z</time></trkpt><trkpt lat="49.31699177207827" lon="0.9789372831070553"><ele>93.0</ele><time>2026-03-22T17:03:06Z</time></trkpt><trkpt lat="49.3170539608802" lon="0.9789756255656434"><ele>93.0</ele><time>2026-03-22T17:06:58Z</time></trkpt><trkpt lat="49.31711257577307" lon="0.9790344115980878"><ele>93.0</ele><time>2026-03-22T17:07:08Z</time></trkpt><trkpt lat="49.31717953746633" lon="0.9790603497538102"><ele>93.0</ele><time>2026-03-22T17:07:10Z</time></trkpt><trkpt lat="49.317242214384976" lon="0.979096431759258"><ele>93.00000000000001</ele><time>2026-03-22T17:07:12Z</time></trkpt><trkpt lat="49.31733123394696" lon="0.9791797924679808"><ele>93.0</ele><time>2026-03-22T17:07:13.999Z</time></trkpt><trkpt lat="49.317433250164605" lon="0.9792601991571728"><ele>88.33333333333333</ele><time>2026-03-22T17:07:15.999Z</time></trkpt><trkpt lat="49.31749105500116" lon="0.9793345517604103"><ele>83.66666666666667</ele><time>2026-03-22T17:07:16.999Z</time></trkpt><trkpt lat="49.31756078801081" lon="0.9794160191834578"><ele>79.0</ele><time>2026-03-22T17:07:17.999Z</time></trkpt><trkpt lat="49.31763166118791" lon="0.9794984447427543"><ele>74.33333333333334</ele><time>2026-03-22T17:07:18.999Z</time></trkpt><trkpt lat="49.31769840795653" lon="0.9795712512242709"><ele>69.66666666666667</ele><time>2026-03-22T17:07:19.999Z</time></trkpt><trkpt lat="49.317759019691096" lon="0.979633659527586"><ele>65.0</ele><time>2026-03-22T17:07:20.999Z</time></trkpt><trkpt lat="49.31781380241114" lon="0.9796941805931744"><ele>65.0</ele><time>2026-03-22T17:07:21.999Z</time></trkpt><trkpt lat="49.31790520081061" lon="0.9797823683897294"><ele>65.0</ele><time>2026-03-22T17:07:23.999Z</time></trkpt><trkpt lat="49.31797947525096" lon="0.9798677334302589"><ele>65.0</ele><time>2026-03-22T17:07:25.999Z</time></trkpt><trkpt lat="49.318062594331444" lon="0.979935882243459"><ele>65.0</ele><time>2026-03-22T17:07:28.999Z</time></trkpt><trkpt lat="49.318093274265266" lon="0.9798402369903716"><ele>65.0</ele><time>2026-03-22T17:07:58.999Z</time></trkpt><trkpt lat="49.31803176901713" lon="0.9798165951881904"><ele>65.0</ele><time>2026-03-22T17:08:00.999Z</time></trkpt><trkpt lat="49.317922854015606" lon="0.9797682871292657"><ele>65.0</ele><time>2026-03-22T17:08:02.999Z</time></trkpt><trkpt lat="49.31783383011811" lon="0.9796927616443818"><ele>65.0</ele><time>2026-03-22T17:08:04.999Z</time></trkpt><trkpt lat="49.317777968935836" lon="0.979627677651269"><ele>65.0</ele><time>2026-03-22T17:08:05.999Z</time></trkpt><trkpt lat="49.31769178511582" lon="0.9795439320420884"><ele>65.0</ele><time>2026-03-22T17:08:06.999Z</time></trkpt><trkpt lat="49.31760338876466" lon="0.9794570144797878"><ele>65.0</ele><time>2026-03-22T17:08:07.999Z</time></trkpt><trkpt lat="49.31751407723583" lon="0.9793461564585436"><ele>65.0</ele><time>2026-03-22T17:08:08.999Z</time></trkpt><trkpt lat="49.31740567486017" lon="0.9792487301761462"><ele>65.0</ele><time>2026-03-22T17:08:09.999Z</time></trkpt><trkpt lat="49.317298392575175" lon="0.9791630525525007"><ele>65.0</ele><time>2026-03-22T17:08:10.999Z</time></trkpt><trkpt lat="49.31720088482189" lon="0.9791085350503868"><ele>65.0</ele><time>2026-03-22T17:08:11.999Z</time></trkpt><trkpt lat="49.31712774772313" lon="0.9790372990240207"><ele>65.0</ele><time>2026-03-22T17:08:12.998Z</time></trkpt><trkpt lat="49.31702508384777" lon="0.9789641813677662"><ele>70.6</ele><time>2026-03-22T17:08:14.998Z</time></trkpt><trkpt lat="49.3169535778616" lon="0.9789169442823669"><ele>76.2</ele><time>2026-03-22T17:08:16.998Z</time></trkpt><trkpt lat="49.31684589546922" lon="0.978819200081109"><ele>81.80000000000001</ele><time>2026-03-22T17:08:18.998Z</time></trkpt><trkpt lat="49.31675489746246" lon="0.9787258963400896"><ele>87.4</ele><time>2026-03-22T17:08:20.998Z</time></trkpt><trkpt lat="49.31668659583026" lon="0.9786454364878606"><ele>93.0</ele><time>2026-03-22T17:08:24.998Z</time></trkpt><trkpt lat="49.31646789988426" lon="0.9784450953324748"><ele>95.60000000000001</ele><time>2026-03-22T17:08:25.998Z</time></trkpt><trkpt lat="49.31638591381457" lon="0.978369991577561"><ele>98.2</ele><time>2026-03-22T17:08:26.998Z</time></trkpt><trkpt lat="49.31630098452466" lon="0.9782921916509144"><ele>100.8</ele><time>2026-03-22T17:08:27.998Z</time></trkpt><trkpt lat="49.3162065199628" lon="0.9782056568915746"><ele>103.4</ele><time>2026-03-22T17:08:28.998Z</time></trkpt><trkpt lat="49.3161139853493" lon="0.9781208900665066"><ele>106.0</ele><time>2026-03-22T17:08:29.998Z</time></trkpt><trkpt lat="49.316024117788245" lon="0.978038566421291"><ele>107.66666666666667</ele><time>2026-03-22T17:08:30.998Z</time></trkpt><trkpt lat="49.31589320666272" lon="0.9779186446044462"><ele>109.33333333333334</ele><time>2026-03-22T17:08:31.998Z</time></trkpt><trkpt lat="49.315786692495095" lon="0.9777548819820888"><ele>111.0</ele><time>2026-03-22T17:08:32.998Z</time></trkpt><trkpt lat="49.315650671506816" lon="0.9776465532830273"><ele>113.66666666666666</ele><time>2026-03-22T17:08:33.998Z</time></trkpt><trkpt lat="49.315490589949" lon="0.9775416809583215"><ele>116.33333333333333</ele><time>2026-03-22T17:08:34.998Z</time></trkpt><trkpt lat="49.31534243024031" lon="0.9774378952416929"><ele>119.0</ele><time>2026-03-22T17:08:35.998Z</time></trkpt><trkpt lat="49.31515817016273" lon="0.9773031343153863"><ele>119.33333333333333</ele><time>2026-03-22T17:08:36.998Z</time></trkpt><trkpt lat="49.31500828761417" lon="0.9771625552838501"><ele>119.66666666666666</ele><time>2026-03-22T17:08:37.998Z</time></trkpt><trkpt lat="49.31487134147229" lon="0.9770313691008644"><ele>120.0</ele><time>2026-03-22T17:08:38.998Z</time></trkpt><trkpt lat="49.31474789029858" lon="0.9769131102945886"><ele>120.2</ele><time>2026-03-22T17:08:39.998Z</time></trkpt><trkpt lat="49.31463230633487" lon="0.9768023877911218"><ele>120.4</ele><time>2026-03-22T17:08:40.998Z</time></trkpt><trkpt lat="49.31452842950696" lon="0.9767028800189753"><ele>120.6</ele><time>2026-03-22T17:08:41.998Z</time></trkpt><trkpt lat="49.31444417764487" lon="0.9766221717675551"><ele>120.8</ele><time>2026-03-22T17:08:42.998Z</time></trkpt><trkpt lat="49.314370352801504" lon="0.9765506803451257"><ele>121.0</ele><time>2026-03-22T17:08:43.998Z</time></trkpt><trkpt lat="49.314303945375386" lon="0.9764914391540205"><ele>121.0</ele><time>2026-03-22T17:08:45.998Z</time></trkpt><trkpt lat="49.31441740157235" lon="0.9765577871655093"><ele>121.0</ele><time>2026-03-22T17:08:46.998Z</time></trkpt><trkpt lat="49.31451099154494" lon="0.9766171114417407"><ele>121.0</ele><time>2026-03-22T17:08:50.998Z</time></trkpt><trkpt lat="49.31458618949023" lon="0.9766514406322527"><ele>121.0</ele><time>2026-03-22T17:08:51.998Z</time></trkpt><trkpt lat="49.314653204192425" lon="0.9767192981933137"><ele>121.0</ele><time>2026-03-22T17:08:53Z</time></trkpt><trkpt lat="49.314764788283675" lon="0.9768205828304998"><ele>120.8</ele><time>2026-03-22T17:08:54Z</time></trkpt><trkpt lat="49.31485170914789" lon="0.9769134405654936"><ele>120.6</ele><time>2026-03-22T17:08:55Z</time></trkpt><trkpt lat="49.31490912753269" lon="0.9769713885738235"><ele>120.4</ele><time>2026-03-22T17:08:56Z</time></trkpt><trkpt lat="49.31502186661655" lon="0.9770394523022562"><ele>120.2</ele><time>2026-03-22T17:08:57Z</time></trkpt><trkpt lat="49.315120237539716" lon="0.9771485847146497"><ele>120.0</ele><time>2026-03-22T17:08:58Z</time></trkpt><trkpt lat="49.315213223066635" lon="0.9772465360264533"><ele>120.0</ele><time>2026-03-22T17:08:59Z</time></trkpt><trkpt lat="49.315287144624385" lon="0.9773347389611121"><ele>120.0</ele><time>2026-03-22T17:09:00Z</time></trkpt><trkpt lat="49.315362515977085" lon="0.977406852865787"><ele>120.0</ele><time>2026-03-22T17:09:01Z</time></trkpt><trkpt lat="49.315439885697714" lon="0.9774822877928263"><ele>120.0</ele><time>2026-03-22T17:09:02Z</time></trkpt><trkpt lat="49.315511801365545" lon="0.9775573152516793"><ele>120.0</ele><time>2026-03-22T17:09:03Z</time></trkpt><trkpt lat="49.31556515351488" lon="0.977624378093869"><ele>120.0</ele><time>2026-03-22T17:09:04Z</time></trkpt><trkpt lat="49.31563594268414" lon="0.9776950882514165"><ele>118.5</ele><time>2026-03-22T17:09:05Z</time></trkpt><trkpt lat="49.31570962126921" lon="0.9777605960195657"><ele>117.0</ele><time>2026-03-22T17:09:06Z</time></trkpt><trkpt lat="49.31578551058571" lon="0.9778199893961294"><ele>115.5</ele><time>2026-03-22T17:09:07Z</time></trkpt><trkpt lat="49.31585827069602" lon="0.9778866413508375"><ele>114.0</ele><time>2026-03-22T17:09:08Z</time></trkpt><trkpt lat="49.31591599957657" lon="0.9779428590692767"><ele>112.5</ele><time>2026-03-22T17:09:09Z</time></trkpt><trkpt lat="49.31598981388256" lon="0.9780076458866566"><ele>111.0</ele><time>2026-03-22T17:09:10Z</time></trkpt><trkpt lat="49.316107888928556" lon="0.9781153054302472"><ele>111.0</ele><time>2026-03-22T17:09:12Z</time></trkpt><trkpt lat="49.31616270855309" lon="0.978174824046144"><ele>111.0</ele><time>2026-03-22T17:09:13Z</time></trkpt><trkpt lat="49.31623079082889" lon="0.9782278903580788"><ele>111.0</ele><time>2026-03-22T17:09:14Z</time></trkpt><trkpt lat="49.316300973536485" lon="0.9782921815856117"><ele>111.0</ele><time>2026-03-22T17:09:15Z</time></trkpt><trkpt lat="49.31636455909504" lon="0.9783593851771645"><ele>111.0</ele><time>2026-03-22T17:09:16Z</time></trkpt><trkpt lat="49.316420249701906" lon="0.9784147325670493"><ele>111.0</ele><time>2026-03-22T17:09:17Z</time></trkpt><trkpt lat="49.31648990040644" lon="0.9784652490549562"><ele>111.0</ele><time>2026-03-22T17:09:18Z</time></trkpt><trkpt lat="49.316545691584075" lon="0.9785163568449985"><ele>108.0</ele><time>2026-03-22T17:09:19Z</time></trkpt><trkpt lat="49.31663818261443" lon="0.9786171152228831"><ele>105.0</ele><time>2026-03-22T17:09:21Z</time></trkpt><trkpt lat="49.316725792306976" lon="0.9786973816207398"><ele>102.0</ele><time>2026-03-22T17:09:23Z</time></trkpt><trkpt lat="49.31678439025848" lon="0.9787510706116976"><ele>99.0</ele><time>2026-03-22T17:09:25Z</time></trkpt><trkpt lat="49.31685401524274" lon="0.9788148628649685"><ele>96.0</ele><time>2026-03-22T17:09:28Z</time></trkpt><trkpt lat="49.31691568902094" lon="0.978871370019723"><ele>93.0</ele><time>2026-03-22T17:09:31Z</time></trkpt><trkpt lat="49.316982006163975" lon="0.978923335741703"><ele>93.0</ele><time>2026-03-22T17:09:33.999Z</time></trkpt><trkpt lat="49.317043845611174" lon="0.9788452343848328"><ele>93.0</ele><time>2026-03-22T17:10:24.999Z</time></trkpt><trkpt lat="49.31706718035601" lon="0.9786748736663899"><ele>93.0</ele><time>2026-03-22T17:10:26.999Z</time></trkpt><trkpt lat="49.31710150346371" lon="0.9785584122447223"><ele>93.0</ele><time>2026-03-22T17:10:27.998Z</time></trkpt><trkpt lat="49.3171274837739" lon="0.9784175166051278"><ele>93.0</ele><time>2026-03-22T17:10:28.998Z</time></trkpt><trkpt lat="49.3171624233452" lon="0.9782708524651792"><ele>93.4</ele><time>2026-03-22T17:10:30.998Z</time></trkpt><trkpt lat="49.31720424568317" lon="0.9781854099382383"><ele>93.80000000000001</ele><time>2026-03-22T17:10:31.998Z</time></trkpt><trkpt lat="49.317240272673295" lon="0.9780824270497984"><ele>94.2</ele><time>2026-03-22T17:10:32.998Z</time></trkpt><trkpt lat="49.317286560349324" lon="0.9779419660909838"><ele>94.6</ele><time>2026-03-22T17:10:33.998Z</time></trkpt><trkpt lat="49.317342347847834" lon="0.9777849385012225"><ele>95.0</ele><time>2026-03-22T17:10:34.998Z</time></trkpt><trkpt lat="49.31741156737802" lon="0.9776029579021613"><ele>96.4</ele><time>2026-03-22T17:10:35.998Z</time></trkpt><trkpt lat="49.31747290714587" lon="0.9774260503548479"><ele>97.8</ele><time>2026-03-22T17:10:36.998Z</time></trkpt><trkpt lat="49.31752152290146" lon="0.9772647672771517"><ele>99.19999999999999</ele><time>2026-03-22T17:10:37.998Z</time></trkpt><trkpt lat="49.31758956485843" lon="0.9771407699349095"><ele>100.6</ele><time>2026-03-22T17:10:38.998Z</time></trkpt><trkpt lat="49.317633749415194" lon="0.9770149878071636"><ele>102.0</ele><time>2026-03-22T17:10:39.998Z</time></trkpt><trkpt lat="49.31767622528466" lon="0.9769084446035581"><ele>102.0</ele><time>2026-03-22T17:10:40.998Z</time></trkpt><trkpt lat="49.31773706391045" lon="0.9768072001750979"><ele>102.0</ele><time>2026-03-22T17:10:41.998Z</time></trkpt><trkpt lat="49.31779818741988" lon="0.9766792214238782"><ele>102.0</ele><time>2026-03-22T17:10:42.998Z</time></trkpt><trkpt lat="49.317843499138775" lon="0.9766020325191782"><ele>102.0</ele><time>2026-03-22T17:10:43.998Z</time></trkpt><trkpt lat="49.317876168153816" lon="0.9765015974566419"><ele>102.0</ele><time>2026-03-22T17:10:44.998Z</time></trkpt><trkpt lat="49.317965407046884" lon="0.9764243918921939"><ele>102.0</ele><time>2026-03-22T17:10:45.998Z</time></trkpt><trkpt lat="49.31802506943954" lon="0.976337170553307"><ele>102.0</ele><time>2026-03-22T17:10:46.998Z</time></trkpt><trkpt lat="49.31805891556956" lon="0.9762275446310278"><ele>102.0</ele><time>2026-03-22T17:10:47.998Z</time></trkpt><trkpt lat="49.31811198523644" lon="0.976108641219907"><ele>102.0</ele><time>2026-03-22T17:10:48.998Z</time></trkpt><trkpt lat="49.31815417731899" lon="0.9759935803822958"><ele>102.0</ele><time>2026-03-22T17:10:49.998Z</time></trkpt><trkpt lat="49.318184970271794" lon="0.9759038994846945"><ele>102.0</ele><time>2026-03-22T17:10:50.998Z</time></trkpt><trkpt lat="49.318219081934174" lon="0.9757698460298109"><ele>102.0</ele><time>2026-03-22T17:10:52.998Z</time></trkpt><trkpt lat="49.318248293308834" lon="0.9756293892334678"><ele>102.39999999999999</ele><time>2026-03-22T17:10:54.998Z</time></trkpt><trkpt lat="49.31828254179863" lon="0.9755432126060144"><ele>102.8</ele><time>2026-03-22T17:10:55.998Z</time></trkpt><trkpt lat="49.318300985225335" lon="0.9754359630158643"><ele>103.2</ele><time>2026-03-22T17:10:57.998Z</time></trkpt><trkpt lat="49.31832721010462" lon="0.975307230384689"><ele>103.6</ele><time>2026-03-22T17:11:01Z</time></trkpt><trkpt lat="49.31835145863001" lon="0.975189005666783"><ele>104.0</ele><time>2026-03-22T17:11:03Z</time></trkpt><trkpt lat="49.318445046618784" lon="0.9749853776588898"><ele>104.4</ele><time>2026-03-22T17:11:05Z</time></trkpt><trkpt lat="49.31848436311236" lon="0.974848817456898"><ele>104.80000000000001</ele><time>2026-03-22T17:11:07Z</time></trkpt><trkpt lat="49.31853341214091" lon="0.9747085359672817"><ele>105.19999999999999</ele><time>2026-03-22T17:11:09Z</time></trkpt><trkpt lat="49.31857998134169" lon="0.9745798394725276"><ele>105.6</ele><time>2026-03-22T17:11:11Z</time></trkpt><trkpt lat="49.31861979055831" lon="0.9744548394068249"><ele>106.0</ele><time>2026-03-22T17:11:13Z</time></trkpt><trkpt lat="49.31865818876431" lon="0.9743399768879439"><ele>106.00000000000001</ele><time>2026-03-22T17:11:15Z</time></trkpt><trkpt lat="49.31871144617717" lon="0.9742213241379318"><ele>106.0</ele><time>2026-03-22T17:11:17Z</time></trkpt><trkpt lat="49.31875694138362" lon="0.9741310381855128"><ele>106.0</ele><time>2026-03-22T17:11:19Z</time></trkpt><trkpt lat="49.31880595906407" lon="0.9740404570902468"><ele>106.0</ele><time>2026-03-22T17:11:22Z</time></trkpt><trkpt lat="49.31885695999545" lon="0.9739472334919944"><ele>106.00000000000001</ele><time>2026-03-22T17:11:26Z</time></trkpt><trkpt lat="49.31888060228178" lon="0.9738552351726292"><ele>106.0</ele><time>2026-03-22T17:11:30Z</time></trkpt><trkpt lat="49.31890926232888" lon="0.9737594980668232"><ele>104.00000000000001</ele><time>2026-03-22T17:11:32Z</time></trkpt><trkpt lat="49.31894199321199" lon="0.9736727199380938"><ele>102.0</ele><time>2026-03-22T17:11:35Z</time></trkpt><trkpt lat="49.31897289205049" lon="0.9735785079840397"><ele>100.0</ele><time>2026-03-22T17:11:38Z</time></trkpt><trkpt lat="49.31901199603825" lon="0.9734497149302567"><ele>98.0</ele><time>2026-03-22T17:11:41Z</time></trkpt><trkpt lat="49.31905393831294" lon="0.9733738771640714"><ele>96.0</ele><time>2026-03-22T17:11:43Z</time></trkpt><trkpt lat="49.31910078141151" lon="0.9732533399254274"><ele>94.0</ele><time>2026-03-22T17:11:46Z</time></trkpt><trkpt lat="49.3191469905116" lon="0.9731595791591622"><ele>91.5</ele><time>2026-03-22T17:11:49.999Z</time></trkpt><trkpt lat="49.31919273547433" lon="0.9730859832603918"><ele>89.0</ele><time>2026-03-22T17:11:51.999Z</time></trkpt><trkpt lat="49.31923161838412" lon="0.973006987467452"><ele>86.5</ele><time>2026-03-22T17:11:53.999Z</time></trkpt><trkpt lat="49.31924871228906" lon="0.9729109613566468"><ele>84.0</ele><time>2026-03-22T17:11:55.999Z</time></trkpt><trkpt lat="49.31929250131964" lon="0.9728007677129124"><ele>81.5</ele><time>2026-03-22T17:11:58.999Z</time></trkpt><trkpt lat="49.31934257574365" lon="0.9726835148921606"><ele>79.0</ele><time>2026-03-22T17:12:01.999Z</time></trkpt><trkpt lat="49.319389781743055" lon="0.9725679968057334"><ele>76.60000000000001</ele><time>2026-03-22T17:12:03.999Z</time></trkpt><trkpt lat="49.31944722574202" lon="0.9724375507050266"><ele>74.2</ele><time>2026-03-22T17:12:05.999Z</time></trkpt><trkpt lat="49.31949429323564" lon="0.9723280161813058"><ele>71.80000000000001</ele><time>2026-03-22T17:12:07.999Z</time></trkpt><trkpt lat="49.31948094779492" lon="0.9722288849980683"><ele>69.4</ele><time>2026-03-22T17:12:10.999Z</time></trkpt><trkpt lat="49.319554656503115" lon="0.9721922489754257"><ele>67.0</ele><time>2026-03-22T17:13:12Z</time></trkpt><trkpt lat="49.31943225934998" lon="0.9721048897630797"><ele>67.0</ele><time>2026-03-22T17:13:21Z</time></trkpt><trkpt lat="49.319374477617245" lon="0.972055631197687"><ele>67.0</ele><time>2026-03-22T17:13:22Z</time></trkpt><trkpt lat="49.31928926843958" lon="0.9719885345090128"><ele>67.0</ele><time>2026-03-22T17:13:23Z</time></trkpt><trkpt lat="49.31919341316817" lon="0.9718916256037554"><ele>67.0</ele><time>2026-03-22T17:13:24Z</time></trkpt><trkpt lat="49.31907772327688" lon="0.9717706841324906"><ele>67.0</ele><time>2026-03-22T17:13:25Z</time></trkpt><trkpt lat="49.318942913202655" lon="0.9716212401258367"><ele>68.0</ele><time>2026-03-22T17:13:26Z</time></trkpt><trkpt lat="49.318807863481815" lon="0.9714676987924664"><ele>69.0</ele><time>2026-03-22T17:13:27Z</time></trkpt><trkpt lat="49.318685550078946" lon="0.9713043431408033"><ele>70.0</ele><time>2026-03-22T17:13:28Z</time></trkpt><trkpt lat="49.3185651632284" lon="0.9711242758214083"><ele>70.0</ele><time>2026-03-22T17:13:29Z</time></trkpt><trkpt lat="49.318452643046626" lon="0.9709192470022259"><ele>70.0</ele><time>2026-03-22T17:13:30Z</time></trkpt><trkpt lat="49.31834390727097" lon="0.9707087165805901"><ele>70.0</ele><time>2026-03-22T17:13:31Z</time></trkpt><trkpt lat="49.318240060289526" lon="0.9704682021758283"><ele>70.0</ele><time>2026-03-22T17:13:32Z</time></trkpt><trkpt lat="49.31813102321901" lon="0.9701979643979766"><ele>70.0</ele><time>2026-03-22T17:13:33Z</time></trkpt><trkpt lat="49.318008055950315" lon="0.9699175957817191"><ele>70.0</ele><time>2026-03-22T17:13:34Z</time></trkpt><trkpt lat="49.317862993017144" lon="0.9696196778927588"><ele>72.33333333333333</ele><time>2026-03-22T17:13:35Z</time></trkpt><trkpt lat="49.3177213013959" lon="0.9693584191919252"><ele>74.66666666666667</ele><time>2026-03-22T17:13:36Z</time></trkpt><trkpt lat="49.317592627826805" lon="0.9691464127262234"><ele>77.0</ele><time>2026-03-22T17:13:37Z</time></trkpt><trkpt lat="49.317457144096224" lon="0.9689750752898542"><ele>77.0</ele><time>2026-03-22T17:13:38Z</time></trkpt><trkpt lat="49.31734275163001" lon="0.9688295648365137"><ele>77.0</ele><time>2026-03-22T17:13:39Z</time></trkpt><trkpt lat="49.31725205140491" lon="0.968717636364985"><ele>77.0</ele><time>2026-03-22T17:13:40Z</time></trkpt><trkpt lat="49.31717221923802" lon="0.9685957414041945"><ele>77.0</ele><time>2026-03-22T17:13:41Z</time></trkpt><trkpt lat="49.31710710509802" lon="0.9684975816432744"><ele>78.83333333333334</ele><time>2026-03-22T17:13:42Z</time></trkpt><trkpt lat="49.31704825250575" lon="0.9684133027263737"><ele>80.66666666666667</ele><time>2026-03-22T17:13:43Z</time></trkpt><trkpt lat="49.31698994172396" lon="0.968322062933036"><ele>82.5</ele><time>2026-03-22T17:13:44Z</time></trkpt><trkpt lat="49.31692556879047" lon="0.9682301639278655"><ele>84.33333333333333</ele><time>2026-03-22T17:13:45Z</time></trkpt><trkpt lat="49.316861058264294" lon="0.9681199552385799"><ele>86.16666666666666</ele><time>2026-03-22T17:13:46Z</time></trkpt><trkpt lat="49.31680459043933" lon="0.9680048618702802"><ele>88.0</ele><time>2026-03-22T17:13:47Z</time></trkpt><trkpt lat="49.31674828210502" lon="0.9678946499967115"><ele>88.0</ele><time>2026-03-22T17:13:48Z</time></trkpt><trkpt lat="49.316693580054206" lon="0.9677785272795932"><ele>88.0</ele><time>2026-03-22T17:13:49Z</time></trkpt><trkpt lat="49.316642475411776" lon="0.9676654499410842"><ele>88.0</ele><time>2026-03-22T17:13:50Z</time></trkpt><trkpt lat="49.316577609834894" lon="0.9675666997270688"><ele>88.0</ele><time>2026-03-22T17:13:51Z</time></trkpt><trkpt lat="49.31650755315503" lon="0.9674824266156041"><ele>88.0</ele><time>2026-03-22T17:13:52Z</time></trkpt><trkpt lat="49.316426964593845" lon="0.9673846791908931"><ele>89.5</ele><time>2026-03-22T17:13:53Z</time></trkpt><trkpt lat="49.3163549291453" lon="0.9672915335220592"><ele>91.0</ele><time>2026-03-22T17:13:54Z</time></trkpt><trkpt lat="49.31629623198296" lon="0.9672238351985807"><ele>92.5</ele><time>2026-03-22T17:13:55Z</time></trkpt><trkpt lat="49.316244122979874" lon="0.9671639870833864"><ele>94.0</ele><time>2026-03-22T17:13:56Z</time></trkpt><trkpt lat="49.31618313498307" lon="0.9670980348933857"><ele>95.50000000000001</ele><time>2026-03-22T17:13:56.999Z</time></trkpt><trkpt lat="49.3161019926457" lon="0.9669942565967357"><ele>97.0</ele><time>2026-03-22T17:13:58.999Z</time></trkpt><trkpt lat="49.31604351036735" lon="0.9669248991382376"><ele>97.0</ele><time>2026-03-22T17:14:01.999Z</time></trkpt><trkpt lat="49.31597513099021" lon="0.9669429050335391"><ele>97.0</ele><time>2026-03-22T17:14:04.999Z</time></trkpt><trkpt lat="49.31593941114225" lon="0.9670409149857819"><ele>97.0</ele><time>2026-03-22T17:14:06.999Z</time></trkpt><trkpt lat="49.31586168785672" lon="0.9671093061618004"><ele>97.0</ele><time>2026-03-22T17:14:08.999Z</time></trkpt><trkpt lat="49.31575346638999" lon="0.9672593964640053"><ele>97.0</ele><time>2026-03-22T17:14:10.999Z</time></trkpt><trkpt lat="49.3156944144244" lon="0.9673665015111067"><ele>97.0</ele><time>2026-03-22T17:14:11.999Z</time></trkpt><trkpt lat="49.31561412140833" lon="0.9674619152181435"><ele>97.0</ele><time>2026-03-22T17:14:12.999Z</time></trkpt><trkpt lat="49.31554296487157" lon="0.9675391640180936"><ele>97.0</ele><time>2026-03-22T17:14:13.999Z</time></trkpt><trkpt lat="49.31544382833382" lon="0.967648300933625"><ele>97.0</ele><time>2026-03-22T17:14:15.999Z</time></trkpt><trkpt lat="49.31541143553371" lon="0.9677796444624148"><ele>97.0</ele><time>2026-03-22T17:14:17.999Z</time></trkpt><trkpt lat="49.31533659872526" lon="0.9679093623483165"><ele>100.19999999999999</ele><time>2026-03-22T17:14:19.999Z</time></trkpt><trkpt lat="49.315279826060625" lon="0.9680042386591652"><ele>103.4</ele><time>2026-03-22T17:14:20.999Z</time></trkpt><trkpt lat="49.31520990322225" lon="0.9681200106193207"><ele>106.60000000000001</ele><time>2026-03-22T17:14:21.999Z</time></trkpt><trkpt lat="49.31514689037999" lon="0.9682229891700838"><ele>109.80000000000001</ele><time>2026-03-22T17:14:22.999Z</time></trkpt><trkpt lat="49.31504880737731" lon="0.9683109092388639"><ele>113.0</ele><time>2026-03-22T17:14:24.999Z</time></trkpt><trkpt lat="49.314979505244224" lon="0.968412375902874"><ele>113.5</ele><time>2026-03-22T17:14:25.999Z</time></trkpt><trkpt lat="49.314887795980404" lon="0.9685464743667428"><ele>114.0</ele><time>2026-03-22T17:14:26.999Z</time></trkpt><trkpt lat="49.31476739705333" lon="0.9687031072208151"><ele>114.5</ele><time>2026-03-22T17:14:27.999Z</time></trkpt><trkpt lat="49.31464725955334" lon="0.968868277893094"><ele>115.0</ele><time>2026-03-22T17:14:28.999Z</time></trkpt><trkpt lat="49.31454063058679" lon="0.9690312724962132"><ele>117.0</ele><time>2026-03-22T17:14:29.999Z</time></trkpt><trkpt lat="49.314447398154954" lon="0.9691691292062765"><ele>119.0</ele><time>2026-03-22T17:14:30.999Z</time></trkpt><trkpt lat="49.314357376807415" lon="0.9692838831449568"><ele>121.0</ele><time>2026-03-22T17:14:31.999Z</time></trkpt><trkpt lat="49.31425868754782" lon="0.9694055289678091"><ele>123.0</ele><time>2026-03-22T17:14:33.999Z</time></trkpt><trkpt lat="49.31417960008699" lon="0.9695192898097711"><ele>123.0</ele><time>2026-03-22T17:14:35.999Z</time></trkpt><trkpt lat="49.314115126545005" lon="0.9696080074807801"><ele>123.0</ele><time>2026-03-22T17:14:37.999Z</time></trkpt><trkpt lat="49.31405854241411" lon="0.9696896156900682"><ele>123.0</ele><time>2026-03-22T17:14:39.999Z</time></trkpt><trkpt lat="49.31398657244102" lon="0.96979873316756"><ele>123.0</ele><time>2026-03-22T17:14:42.999Z</time></trkpt><trkpt lat="49.31392771722437" lon="0.9698829317084544"><ele>123.0</ele><time>2026-03-22T17:14:44.999Z</time></trkpt><trkpt lat="49.31387761039856" lon="0.9699755272228431"><ele>123.0</ele><time>2026-03-22T17:14:46.999Z</time></trkpt><trkpt lat="49.31379630136235" lon="0.970064901436589"><ele>123.0</ele><time>2026-03-22T17:14:48.998Z</time></trkpt><trkpt lat="49.313741424998796" lon="0.970147371636195"><ele>123.0</ele><time>2026-03-22T17:14:50.998Z</time></trkpt><trkpt lat="49.31378341846174" lon="0.9700554624153847"><ele>123.0</ele><time>2026-03-22T17:14:59.998Z</time></trkpt><trkpt lat="49.31390350887867" lon="0.9698539506204079"><ele>123.0</ele><time>2026-03-22T17:15:01.998Z</time></trkpt><trkpt lat="49.31400094711798" lon="0.9697058807973694"><ele>123.0</ele><time>2026-03-22T17:15:02.998Z</time></trkpt><trkpt lat="49.31411606318773" lon="0.9695532715190712"><ele>123.0</ele><time>2026-03-22T17:15:03.998Z</time></trkpt><trkpt lat="49.314227195025246" lon="0.9694137234981928"><ele>123.0</ele><time>2026-03-22T17:15:04.998Z</time></trkpt><trkpt lat="49.314301188478055" lon="0.9692791148493711"><ele>123.0</ele><time>2026-03-22T17:15:05.998Z</time></trkpt><trkpt lat="49.314388436190015" lon="0.9691558269628062"><ele>123.0</ele><time>2026-03-22T17:15:06.998Z</time></trkpt><trkpt lat="49.3144690622506" lon="0.9690656826194639"><ele>123.00000000000001</ele><time>2026-03-22T17:15:07.998Z</time></trkpt><trkpt lat="49.31453292798231" lon="0.9689642874164992"><ele>123.00000000000001</ele><time>2026-03-22T17:15:08.998Z</time></trkpt><trkpt lat="49.314613610721736" lon="0.9688578479134757"><ele>123.0</ele><time>2026-03-22T17:15:09.998Z</time></trkpt><trkpt lat="49.31468979690272" lon="0.9687619367463619"><ele>123.0</ele><time>2026-03-22T17:15:11Z</time></trkpt><trkpt lat="49.31474468196626" lon="0.968681555292461"><ele>121.66666666666667</ele><time>2026-03-22T17:15:12Z</time></trkpt><trkpt lat="49.31480756765425" lon="0.9686260651575237"><ele>120.33333333333334</ele><time>2026-03-22T17:15:13Z</time></trkpt><trkpt lat="49.31487144366785" lon="0.9685379956997463"><ele>119.0</ele><time>2026-03-22T17:15:15Z</time></trkpt><trkpt lat="49.314927098282766" lon="0.9684867321078804"><ele>117.66666666666667</ele><time>2026-03-22T17:15:17Z</time></trkpt><trkpt lat="49.31497232399594" lon="0.9684044548658532"><ele>116.33333333333334</ele><time>2026-03-22T17:15:19Z</time></trkpt><trkpt lat="49.31503673771717" lon="0.9683027154673572"><ele>115.0</ele><time>2026-03-22T17:15:21Z</time></trkpt><trkpt lat="49.31510935905747" lon="0.9681995487827774"><ele>114.66666666666667</ele><time>2026-03-22T17:15:23Z</time></trkpt><trkpt lat="49.31517000716593" lon="0.9681132445740255"><ele>114.33333333333334</ele><time>2026-03-22T17:15:26Z</time></trkpt><trkpt lat="49.3152146664968" lon="0.9680381191343582"><ele>114.0</ele><time>2026-03-22T17:15:29Z</time></trkpt><trkpt lat="49.3152698442709" lon="0.9679646878518529"><ele>113.66666666666666</ele><time>2026-03-22T17:15:33Z</time></trkpt><trkpt lat="49.31532122476323" lon="0.967891450256047"><ele>113.33333333333333</ele><time>2026-03-22T17:15:36Z</time></trkpt><trkpt lat="49.31539898035396" lon="0.9677949763984658"><ele>113.0</ele><time>2026-03-22T17:15:40Z</time></trkpt><trkpt lat="49.315434064374614" lon="0.967704736178657"><ele>113.0</ele><time>2026-03-22T17:15:43Z</time></trkpt><trkpt lat="49.315491921375276" lon="0.9676064016227994"><ele>113.00000000000001</ele><time>2026-03-22T17:15:46Z</time></trkpt><trkpt lat="49.315577080929856" lon="0.9674954961429542"><ele>113.00000000000001</ele><time>2026-03-22T17:15:50Z</time></trkpt><trkpt lat="49.31564235772647" lon="0.9674047027179573"><ele>113.0</ele><time>2026-03-22T17:15:53Z</time></trkpt><trkpt lat="49.31568486977578" lon="0.9672980598689829"><ele>113.0</ele><time>2026-03-22T17:15:57Z</time></trkpt><trkpt lat="49.31575291363042" lon="0.9671961255251383"><ele>109.80000000000001</ele><time>2026-03-22T17:15:59Z</time></trkpt><trkpt lat="49.31582224141287" lon="0.9671352474394342"><ele>106.60000000000001</ele><time>2026-03-22T17:16:01Z</time></trkpt><trkpt lat="49.31590209853796" lon="0.9670544365026728"><ele>103.4</ele><time>2026-03-22T17:16:03.999Z</time></trkpt><trkpt lat="49.31596579702084" lon="0.9669497415340352"><ele>100.19999999999999</ele><time>2026-03-22T17:16:05.999Z</time></trkpt><trkpt lat="49.316068446202074" lon="0.9668467103185666"><ele>97.0</ele><time>2026-03-22T17:16:07.999Z</time></trkpt><trkpt lat="49.316124368214545" lon="0.966774230769168"><ele>97.0</ele><time>2026-03-22T17:16:08.999Z</time></trkpt><trkpt lat="49.31618878332578" lon="0.966700224733442"><ele>97.0</ele><time>2026-03-22T17:16:09.999Z</time></trkpt><trkpt lat="49.316277322777985" lon="0.9665626342829231"><ele>97.0</ele><time>2026-03-22T17:16:11.999Z</time></trkpt><trkpt lat="49.31633162616915" lon="0.9664987316718087"><ele>97.0</ele><time>2026-03-22T17:16:12.999Z</time></trkpt><trkpt lat="49.316392612647" lon="0.9664441479962633"><ele>97.0</ele><time>2026-03-22T17:16:13.999Z</time></trkpt><trkpt lat="49.316452942949965" lon="0.9662961971872588"><ele>98.50000000000001</ele><time>2026-03-22T17:16:15.999Z</time></trkpt><trkpt lat="49.31654465269245" lon="0.9662476403147235"><ele>100.0</ele><time>2026-03-22T17:16:18.999Z</time></trkpt><trkpt lat="49.31660792006564" lon="0.966196929698426"><ele>101.5</ele><time>2026-03-22T17:16:19.999Z</time></trkpt><trkpt lat="49.31669423526303" lon="0.9660681308875423"><ele>103.0</ele><time>2026-03-22T17:16:21.999Z</time></trkpt><trkpt lat="49.31670707010312" lon="0.9659723373293264"><ele>104.50000000000001</ele><time>2026-03-22T17:16:22.999Z</time></trkpt><trkpt lat="49.3167687977503" lon="0.9658675442834604"><ele>106.0</ele><time>2026-03-22T17:16:24.999Z</time></trkpt><trkpt lat="49.31686494178487" lon="0.9658230503139708"><ele>107.33333333333334</ele><time>2026-03-22T17:16:26.999Z</time></trkpt><trkpt lat="49.3169627505874" lon="0.9657791622224442"><ele>108.66666666666667</ele><time>2026-03-22T17:16:28.999Z</time></trkpt><trkpt lat="49.317028244686455" lon="0.965756166824731"><ele>110.0</ele><time>2026-03-22T17:16:30.999Z</time></trkpt><trkpt lat="49.31710103339689" lon="0.9657697191099438"><ele>111.33333333333334</ele><time>2026-03-22T17:16:32.999Z</time></trkpt><trkpt lat="49.31717646961181" lon="0.9658584351226766"><ele>112.66666666666667</ele><time>2026-03-22T17:16:34.999Z</time></trkpt><trkpt lat="49.31723949529575" lon="0.9659390218935033"><ele>114.0</ele><time>2026-03-22T17:16:36.999Z</time></trkpt><trkpt lat="49.31750624176875" lon="0.9662217191725891"><ele>114.2</ele><time>2026-03-22T17:16:37.999Z</time></trkpt><trkpt lat="49.317577535172504" lon="0.9663295244367349"><ele>114.4</ele><time>2026-03-22T17:16:38.999Z</time></trkpt><trkpt lat="49.31765748628876" lon="0.9664463268949576"><ele>114.6</ele><time>2026-03-22T17:16:39.999Z</time></trkpt><trkpt lat="49.317736325179304" lon="0.9665576300578989"><ele>114.8</ele><time>2026-03-22T17:16:40.999Z</time></trkpt><trkpt lat="49.31782375715556" lon="0.9666676658280896"><ele>115.0</ele><time>2026-03-22T17:16:41.999Z</time></trkpt><trkpt lat="49.31790612406059" lon="0.9667629992170933"><ele>114.33333333333334</ele><time>2026-03-22T17:16:42.999Z</time></trkpt><trkpt lat="49.317976177947855" lon="0.9668561860932157"><ele>113.66666666666667</ele><time>2026-03-22T17:16:43.999Z</time></trkpt><trkpt lat="49.31803509272541" lon="0.9669397559300461"><ele>113.0</ele><time>2026-03-22T17:16:44.999Z</time></trkpt><trkpt lat="49.318083166638964" lon="0.9670048737154732"><ele>112.33333333333334</ele><time>2026-03-22T17:16:45.999Z</time></trkpt><trkpt lat="49.31818054488469" lon="0.9671225914562562"><ele>111.66666666666667</ele><time>2026-03-22T17:16:47.999Z</time></trkpt><trkpt lat="49.31824696890261" lon="0.9671965481134221"><ele>111.0</ele><time>2026-03-22T17:16:48.999Z</time></trkpt><trkpt lat="49.31831501164065" lon="0.9672704997593772"><ele>111.0</ele><time>2026-03-22T17:16:49.999Z</time></trkpt><trkpt lat="49.318376035660506" lon="0.9673424364805173"><ele>111.0</ele><time>2026-03-22T17:16:50.999Z</time></trkpt><trkpt lat="49.318429168200204" lon="0.9674151882344054"><ele>111.0</ele><time>2026-03-22T17:16:51.998Z</time></trkpt><trkpt lat="49.318508375916295" lon="0.967530998743074"><ele>111.0</ele><time>2026-03-22T17:16:53.998Z</time></trkpt><trkpt lat="49.318575013850776" lon="0.9676497238558024"><ele>111.0</ele><time>2026-03-22T17:16:55.998Z</time></trkpt><trkpt lat="49.31863214465625" lon="0.9677527120979796"><ele>111.0</ele><time>2026-03-22T17:16:56.998Z</time></trkpt><trkpt lat="49.318693132934506" lon="0.9678778554278575"><ele>109.4</ele><time>2026-03-22T17:16:58.998Z</time></trkpt><trkpt lat="49.31873527487229" lon="0.9680152740781625"><ele>107.8</ele><time>2026-03-22T17:17:00.998Z</time></trkpt><trkpt lat="49.31881761270974" lon="0.9681333255571845"><ele>106.2</ele><time>2026-03-22T17:17:02.998Z</time></trkpt><trkpt lat="49.318859598782026" lon="0.9682898368988461"><ele>104.60000000000001</ele><time>2026-03-22T17:17:04.998Z</time></trkpt><trkpt lat="49.31890370234543" lon="0.9684365887072854"><ele>103.0</ele><time>2026-03-22T17:17:06.998Z</time></trkpt><trkpt lat="49.31895842023228" lon="0.9685455900705705"><ele>102.00000000000001</ele><time>2026-03-22T17:17:08.998Z</time></trkpt><trkpt lat="49.319050381390376" lon="0.9684857227977445"><ele>101.0</ele><time>2026-03-22T17:17:13.998Z</time></trkpt><trkpt lat="49.31910221117379" lon="0.9684168560553598"><ele>100.0</ele><time>2026-03-22T17:17:14.998Z</time></trkpt><trkpt lat="49.31919585635518" lon="0.9683625008202636"><ele>99.0</ele><time>2026-03-22T17:17:16Z</time></trkpt><trkpt lat="49.319290541674995" lon="0.9682920033458914"><ele>98.00000000000001</ele><time>2026-03-22T17:17:18Z</time></trkpt><trkpt lat="49.3193637876315" lon="0.9682669605454503"><ele>97.0</ele><time>2026-03-22T17:17:20Z</time></trkpt><trkpt lat="49.319441630529646" lon="0.9681429598957821"><ele>97.0</ele><time>2026-03-22T17:17:22Z</time></trkpt><trkpt lat="49.31952301181293" lon="0.9680109382264366"><ele>97.0</ele><time>2026-03-22T17:17:24Z</time></trkpt><trkpt lat="49.31962407149003" lon="0.9679228230926019"><ele>97.0</ele><time>2026-03-22T17:17:26Z</time></trkpt><trkpt lat="49.3197210760356" lon="0.9678318727086838"><ele>97.0</ele><time>2026-03-22T17:17:28Z</time></trkpt><trkpt lat="49.31982116422434" lon="0.9677678391698257"><ele>95.83333333333334</ele><time>2026-03-22T17:17:30Z</time></trkpt><trkpt lat="49.31988073226299" lon="0.9677134669022596"><ele>94.66666666666667</ele><time>2026-03-22T17:17:32Z</time></trkpt><trkpt lat="49.319955090646694" lon="0.9676430762610354"><ele>93.5</ele><time>2026-03-22T17:17:33Z</time></trkpt><trkpt lat="49.32004945262435" lon="0.9675780131848045"><ele>92.33333333333334</ele><time>2026-03-22T17:17:35Z</time></trkpt><trkpt lat="49.32011049571777" lon="0.9675230804523535"><ele>91.16666666666667</ele><time>2026-03-22T17:17:37Z</time></trkpt><trkpt lat="49.32019515470393" lon="0.9674463343560312"><ele>90.0</ele><time>2026-03-22T17:17:39Z</time></trkpt><trkpt lat="49.320265959975885" lon="0.9674179502269689"><ele>90.0</ele><time>2026-03-22T17:17:41Z</time></trkpt><trkpt lat="49.32032455346641" lon="0.9673625371631451"><ele>90.0</ele><time>2026-03-22T17:17:43Z</time></trkpt><trkpt lat="49.3203935143688" lon="0.9672831915441442"><ele>90.0</ele><time>2026-03-22T17:17:45Z</time></trkpt><trkpt lat="49.32047091264472" lon="0.9671671603853161"><ele>90.0</ele><time>2026-03-22T17:17:47Z</time></trkpt><trkpt lat="49.32054085597569" lon="0.9670685675028585"><ele>90.0</ele><time>2026-03-22T17:17:49Z</time></trkpt><trkpt lat="49.32060652715879" lon="0.9670322764779602"><ele>90.0</ele><time>2026-03-22T17:17:51Z</time></trkpt><trkpt lat="49.32068804388947" lon="0.9669559078167946"><ele>86.2</ele><time>2026-03-22T17:17:53Z</time></trkpt><trkpt lat="49.3207682315568" lon="0.9668679328760975"><ele>82.4</ele><time>2026-03-22T17:17:55Z</time></trkpt><trkpt lat="49.32085767208155" lon="0.9667936650004035"><ele>78.6</ele><time>2026-03-22T17:17:57Z</time></trkpt><trkpt lat="49.320941088352214" lon="0.9667135461587033"><ele>74.8</ele><time>2026-03-22T17:17:59Z</time></trkpt><trkpt lat="49.32101855012166" lon="0.9666512207385133"><ele>71.0</ele><time>2026-03-22T17:18:01Z</time></trkpt><trkpt lat="49.321100275633576" lon="0.9665977424194594"><ele>71.0</ele><time>2026-03-22T17:18:03Z</time></trkpt><trkpt lat="49.32116631550036" lon="0.9665449076907312"><ele>71.0</ele><time>2026-03-22T17:18:04.999Z</time></trkpt><trkpt lat="49.321240914342866" lon="0.9665039061568259"><ele>71.0</ele><time>2026-03-22T17:18:06.999Z</time></trkpt><trkpt lat="49.32129971935601" lon="0.966448818930627"><ele>71.0</ele><time>2026-03-22T17:18:08.999Z</time></trkpt><trkpt lat="49.321375815781224" lon="0.9663968008008296"><ele>71.0</ele><time>2026-03-22T17:18:10.999Z</time></trkpt><trkpt lat="49.32143673786013" lon="0.9663427590784782"><ele>71.0</ele><time>2026-03-22T17:18:11.999Z</time></trkpt><trkpt lat="49.32149109848934" lon="0.966284465301061"><ele>71.0</ele><time>2026-03-22T17:18:12.999Z</time></trkpt><trkpt lat="49.321586126084256" lon="0.9662057930388352"><ele>70.5</ele><time>2026-03-22T17:18:14.999Z</time></trkpt><trkpt lat="49.32165283778688" lon="0.9661502451574666"><ele>70.0</ele><time>2026-03-22T17:18:16.999Z</time></trkpt><trkpt lat="49.321651061932194" lon="0.965932627801262"><ele>69.5</ele><time>2026-03-22T17:18:18.999Z</time></trkpt><trkpt lat="49.32166398174847" lon="0.9657382063590217"><ele>69.0</ele><time>2026-03-22T17:18:19.999Z</time></trkpt><trkpt lat="49.3216366886432" lon="0.9655156914409855"><ele>69.0</ele><time>2026-03-22T17:18:20.999Z</time></trkpt><trkpt lat="49.321643810400815" lon="0.9653398138080701"><ele>69.0</ele><time>2026-03-22T17:18:21.999Z</time></trkpt><trkpt lat="49.32164048202751" lon="0.9651910978321432"><ele>69.0</ele><time>2026-03-22T17:18:22.999Z</time></trkpt><trkpt lat="49.32165000491199" lon="0.9650532689397759"><ele>69.0</ele><time>2026-03-22T17:18:23.999Z</time></trkpt><trkpt lat="49.32166091148397" lon="0.9649266627370315"><ele>69.0</ele><time>2026-03-22T17:18:24.999Z</time></trkpt><trkpt lat="49.321666976728494" lon="0.9647954760174802"><ele>68.8</ele><time>2026-03-22T17:18:25.999Z</time></trkpt><trkpt lat="49.32169127333521" lon="0.9646406247996068"><ele>68.60000000000001</ele><time>2026-03-22T17:18:26.999Z</time></trkpt><trkpt lat="49.3217386426979" lon="0.9644839948144484"><ele>68.4</ele><time>2026-03-22T17:18:27.999Z</time></trkpt><trkpt lat="49.321781357432045" lon="0.9643412984838166"><ele>68.2</ele><time>2026-03-22T17:18:28.999Z</time></trkpt><trkpt lat="49.321810331182704" lon="0.9641737805698739"><ele>68.0</ele><time>2026-03-22T17:18:29.999Z</time></trkpt><trkpt lat="49.32183123860091" lon="0.9640042939268987"><ele>67.75</ele><time>2026-03-22T17:18:30.999Z</time></trkpt><trkpt lat="49.3218638660424" lon="0.9637733532902679"><ele>67.5</ele><time>2026-03-22T17:18:31.999Z</time></trkpt><trkpt lat="49.32189848568107" lon="0.9635736593787383"><ele>67.25</ele><time>2026-03-22T17:18:32.999Z</time></trkpt><trkpt lat="49.32192267170469" lon="0.9633887391972472"><ele>67.0</ele><time>2026-03-22T17:18:33.999Z</time></trkpt><trkpt lat="49.32193678573811" lon="0.9631982004342207"><ele>67.2</ele><time>2026-03-22T17:18:34.999Z</time></trkpt><trkpt lat="49.3219358677356" lon="0.9630067276329064"><ele>67.4</ele><time>2026-03-22T17:18:35.999Z</time></trkpt><trkpt lat="49.321942704447615" lon="0.9628464141355956"><ele>67.6</ele><time>2026-03-22T17:18:36.999Z</time></trkpt><trkpt lat="49.32192543086708" lon="0.9627024965703478"><ele>67.8</ele><time>2026-03-22T17:18:37.999Z</time></trkpt><trkpt lat="49.32190926071311" lon="0.9625661768036357"><ele>68.0</ele><time>2026-03-22T17:18:38.999Z</time></trkpt><trkpt lat="49.321888060961705" lon="0.9624404452056217"><ele>68.0</ele><time>2026-03-22T17:18:39.999Z</time></trkpt><trkpt lat="49.321864278621646" lon="0.9623190402676546"><ele>68.0</ele><time>2026-03-22T17:18:40.999Z</time></trkpt><trkpt lat="49.32183892216756" lon="0.9621962249553824"><ele>68.0</ele><time>2026-03-22T17:18:41.999Z</time></trkpt><trkpt lat="49.32181394758458" lon="0.9620578549496689"><ele>68.0</ele><time>2026-03-22T17:18:42.999Z</time></trkpt><trkpt lat="49.32178445081929" lon="0.9619133342826136"><ele>68.0</ele><time>2026-03-22T17:18:43.999Z</time></trkpt><trkpt lat="49.321743222351046" lon="0.9617656398162185"><ele>68.6</ele><time>2026-03-22T17:18:44.999Z</time></trkpt><trkpt lat="49.3217216359392" lon="0.9616364142207304"><ele>69.19999999999999</ele><time>2026-03-22T17:18:45.999Z</time></trkpt><trkpt lat="49.321693455118805" lon="0.9614903433528313"><ele>69.8</ele><time>2026-03-22T17:18:46.999Z</time></trkpt><trkpt lat="49.321631308218464" lon="0.9613361170417859"><ele>70.39999999999999</ele><time>2026-03-22T17:18:47.999Z</time></trkpt><trkpt lat="49.32162331828182" lon="0.9611810905540669"><ele>71.0</ele><time>2026-03-22T17:18:48.999Z</time></trkpt><trkpt lat="49.321612228025565" lon="0.9610318821508652"><ele>71.0</ele><time>2026-03-22T17:18:49.999Z</time></trkpt><trkpt lat="49.32160815379365" lon="0.9609022683821733"><ele>71.0</ele><time>2026-03-22T17:18:50.999Z</time></trkpt><trkpt lat="49.321610577733345" lon="0.9607856331860082"><ele>71.0</ele><time>2026-03-22T17:18:51.999Z</time></trkpt><trkpt lat="49.32159631023812" lon="0.9606888966466824"><ele>71.0</ele><time>2026-03-22T17:18:52.998Z</time></trkpt><trkpt lat="49.32162037278389" lon="0.9605526354675855"><ele>71.0</ele><time>2026-03-22T17:18:54.998Z</time></trkpt><trkpt lat="49.321721918871724" lon="0.9603884857450434"><ele>71.0</ele><time>2026-03-22T17:18:56.998Z</time></trkpt><trkpt lat="49.32176940168288" lon="0.9602979954927574"><ele>71.0</ele><time>2026-03-22T17:18:57.998Z</time></trkpt><trkpt lat="49.32182716184927" lon="0.9602072953432633"><ele>71.0</ele><time>2026-03-22T17:18:58.998Z</time></trkpt><trkpt lat="49.32187239417404" lon="0.9601174171607268"><ele>71.0</ele><time>2026-03-22T17:18:59.998Z</time></trkpt><trkpt lat="49.32194702670837" lon="0.9600296320835714"><ele>71.0</ele><time>2026-03-22T17:19:00.998Z</time></trkpt><trkpt lat="49.32201253624119" lon="0.9599423259972436"><ele>71.0</ele><time>2026-03-22T17:19:01.998Z</time></trkpt><trkpt lat="49.32207993600977" lon="0.9598593443226819"><ele>70.8</ele><time>2026-03-22T17:19:02.998Z</time></trkpt><trkpt lat="49.3221536798481" lon="0.9597537343944886"><ele>70.6</ele><time>2026-03-22T17:19:03.998Z</time></trkpt><trkpt lat="49.32222942258953" lon="0.9596260021592727"><ele>70.4</ele><time>2026-03-22T17:19:04.998Z</time></trkpt><trkpt lat="49.32231329027163" lon="0.9594979093821704"><ele>70.2</ele><time>2026-03-22T17:19:05.998Z</time></trkpt><trkpt lat="49.322397967173345" lon="0.9594004497400275"><ele>70.0</ele><time>2026-03-22T17:19:06.998Z</time></trkpt><trkpt lat="49.32246587005821" lon="0.9592762055568512"><ele>71.5</ele><time>2026-03-22T17:19:07.998Z</time></trkpt><trkpt lat="49.322534985280406" lon="0.959126099176728"><ele>73.0</ele><time>2026-03-22T17:19:08.998Z</time></trkpt><trkpt lat="49.322606850634926" lon="0.9589506288784954"><ele>74.5</ele><time>2026-03-22T17:19:09.998Z</time></trkpt><trkpt lat="49.322665947591716" lon="0.9587489610952975"><ele>76.0</ele><time>2026-03-22T17:19:10.998Z</time></trkpt><trkpt lat="49.32271869134414" lon="0.9585732565374415"><ele>76.0</ele><time>2026-03-22T17:19:11.998Z</time></trkpt><trkpt lat="49.32275218934023" lon="0.958414445521994"><ele>76.0</ele><time>2026-03-22T17:19:12.998Z</time></trkpt><trkpt lat="49.32277988956399" lon="0.9582713787739936"><ele>76.0</ele><time>2026-03-22T17:19:13.998Z</time></trkpt><trkpt lat="49.32278499990797" lon="0.9581335701087115"><ele>76.0</ele><time>2026-03-22T17:19:14.998Z</time></trkpt><trkpt lat="49.32280660081677" lon="0.958033497115942"><ele>76.0</ele><time>2026-03-22T17:19:15.998Z</time></trkpt><trkpt lat="49.322826680923704" lon="0.9579084309317955"><ele>76.0</ele><time>2026-03-22T17:19:16.998Z</time></trkpt><trkpt lat="49.322841668263" lon="0.9577654241908111"><ele>75.83333333333333</ele><time>2026-03-22T17:19:17.998Z</time></trkpt><trkpt lat="49.322852322928256" lon="0.9576626718873666"><ele>75.66666666666666</ele><time>2026-03-22T17:19:18.998Z</time></trkpt><trkpt lat="49.322868505400436" lon="0.95755454072068"><ele>75.5</ele><time>2026-03-22T17:19:19.998Z</time></trkpt><trkpt lat="49.32288685021269" lon="0.957418000388804"><ele>75.33333333333333</ele><time>2026-03-22T17:19:20.998Z</time></trkpt><trkpt lat="49.322908019015316" lon="0.9573019834623754"><ele>75.16666666666667</ele><time>2026-03-22T17:19:22Z</time></trkpt><trkpt lat="49.32294767255395" lon="0.9571935618366838"><ele>75.0</ele><time>2026-03-22T17:19:23Z</time></trkpt><trkpt lat="49.32297610420711" lon="0.9570943954730365"><ele>75.33333333333333</ele><time>2026-03-22T17:19:24Z</time></trkpt><trkpt lat="49.32301917625219" lon="0.9569919982015088"><ele>75.66666666666667</ele><time>2026-03-22T17:19:25Z</time></trkpt><trkpt lat="49.32305473591776" lon="0.9568997525556995"><ele>76.0</ele><time>2026-03-22T17:19:26Z</time></trkpt><trkpt lat="49.323117323292415" lon="0.9567461176660866"><ele>76.33333333333334</ele><time>2026-03-22T17:19:28Z</time></trkpt><trkpt lat="49.32314954810617" lon="0.9566527957634998"><ele>76.66666666666667</ele><time>2026-03-22T17:19:29Z</time></trkpt><trkpt lat="49.323183532743215" lon="0.9565645045271964"><ele>77.0</ele><time>2026-03-22T17:19:30Z</time></trkpt><trkpt lat="49.323220748921344" lon="0.9564740161537417"><ele>78.66666666666667</ele><time>2026-03-22T17:19:31Z</time></trkpt><trkpt lat="49.323251328454596" lon="0.9563874910813052"><ele>80.33333333333334</ele><time>2026-03-22T17:19:32Z</time></trkpt><trkpt lat="49.32328132960459" lon="0.9562922971522575"><ele>82.0</ele><time>2026-03-22T17:19:33Z</time></trkpt><trkpt lat="49.32332003717007" lon="0.9561325244621942"><ele>83.66666666666667</ele><time>2026-03-22T17:19:35Z</time></trkpt><trkpt lat="49.32332478621639" lon="0.9560268135240367"><ele>85.33333333333333</ele><time>2026-03-22T17:19:36Z</time></trkpt><trkpt lat="49.32332717047719" lon="0.9559102240218463"><ele>87.0</ele><time>2026-03-22T17:19:37Z</time></trkpt><trkpt lat="49.32338042242001" lon="0.9558079914080033"><ele>87.0</ele><time>2026-03-22T17:19:38Z</time></trkpt><trkpt lat="49.3234038576274" lon="0.9556448137161551"><ele>87.0</ele><time>2026-03-22T17:19:40Z</time></trkpt><trkpt lat="49.3234182290859" lon="0.9554734712174262"><ele>87.0</ele><time>2026-03-22T17:19:42Z</time></trkpt><trkpt lat="49.32343400964534" lon="0.9553602066135827"><ele>87.0</ele><time>2026-03-22T17:19:44Z</time></trkpt><trkpt lat="49.32346973801212" lon="0.9552353207509158"><ele>87.0</ele><time>2026-03-22T17:19:47Z</time></trkpt><trkpt lat="49.323440133339794" lon="0.9553221651901417"><ele>87.0</ele><time>2026-03-22T17:19:54Z</time></trkpt><trkpt lat="49.32341577789458" lon="0.9554797439735975"><ele>87.0</ele><time>2026-03-22T17:19:57Z</time></trkpt><trkpt lat="49.323409300934834" lon="0.9556287398630807"><ele>87.0</ele><time>2026-03-22T17:19:59Z</time></trkpt><trkpt lat="49.32340215712629" lon="0.9557629397739017"><ele>87.0</ele><time>2026-03-22T17:20:01Z</time></trkpt><trkpt lat="49.323382922245436" lon="0.9558785428176455"><ele>87.0</ele><time>2026-03-22T17:20:04Z</time></trkpt><trkpt lat="49.323366663665475" lon="0.9560233048454558"><ele>87.0</ele><time>2026-03-22T17:20:06.999Z</time></trkpt><trkpt lat="49.323341596253165" lon="0.9561283508185623"><ele>87.0</ele><time>2026-03-22T17:20:09.999Z</time></trkpt><trkpt lat="49.32336837404058" lon="0.9560377399473878"><ele>87.0</ele><time>2026-03-22T17:20:14.999Z</time></trkpt><trkpt lat="49.32336851649101" lon="0.9559028011210925"><ele>87.0</ele><time>2026-03-22T17:20:17.999Z</time></trkpt><trkpt lat="49.32337385196657" lon="0.955790238306157"><ele>87.0</ele><time>2026-03-22T17:20:19.999Z</time></trkpt><trkpt lat="49.32340867971693" lon="0.9556820548377991"><ele>87.0</ele><time>2026-03-22T17:20:21.999Z</time></trkpt><trkpt lat="49.32342199798634" lon="0.9555234470731487"><ele>87.0</ele><time>2026-03-22T17:20:23.999Z</time></trkpt><trkpt lat="49.323413849245966" lon="0.955408036143998"><ele>87.0</ele><time>2026-03-22T17:20:25.999Z</time></trkpt><trkpt lat="49.3234482013574" lon="0.9555115369583196"><ele>87.0</ele><time>2026-03-22T17:20:32.999Z</time></trkpt><trkpt lat="49.32343476430578" lon="0.9556937148215647"><ele>87.0</ele><time>2026-03-22T17:20:34.999Z</time></trkpt><trkpt lat="49.323427025952476" lon="0.9558132098627804"><ele>87.0</ele><time>2026-03-22T17:20:36.999Z</time></trkpt><trkpt lat="49.32345793179005" lon="0.9559174154048973"><ele>87.0</ele><time>2026-03-22T17:20:38.999Z</time></trkpt><trkpt lat="49.323497520618695" lon="0.95604477209499"><ele>87.39999999999999</ele><time>2026-03-22T17:20:40.999Z</time></trkpt><trkpt lat="49.323562322786806" lon="0.9561623828643144"><ele>87.8</ele><time>2026-03-22T17:20:42.999Z</time></trkpt><trkpt lat="49.32360078395353" lon="0.9563347232995052"><ele>88.2</ele><time>2026-03-22T17:20:44.999Z</time></trkpt><trkpt lat="49.32366167417667" lon="0.9565123521317518"><ele>88.6</ele><time>2026-03-22T17:20:46.999Z</time></trkpt><trkpt lat="49.32369647974557" lon="0.9566077611077324"><ele>89.0</ele><time>2026-03-22T17:20:47.999Z</time></trkpt><trkpt lat="49.323721118885565" lon="0.9567027449168451"><ele>89.5</ele><time>2026-03-22T17:20:48.999Z</time></trkpt><trkpt lat="49.323759720269436" lon="0.9568152462539237"><ele>90.0</ele><time>2026-03-22T17:20:49.999Z</time></trkpt><trkpt lat="49.32380331912071" lon="0.9569385566219087"><ele>90.5</ele><time>2026-03-22T17:20:50.999Z</time></trkpt><trkpt lat="49.32384317463059" lon="0.9570390732797707"><ele>91.0</ele><time>2026-03-22T17:20:51.999Z</time></trkpt><trkpt lat="49.323883882067165" lon="0.9571784548739716"><ele>91.5</ele><time>2026-03-22T17:20:53.998Z</time></trkpt><trkpt lat="49.32393445281689" lon="0.9572942595790196"><ele>92.0</ele><time>2026-03-22T17:20:54.998Z</time></trkpt><trkpt lat="49.323974441776095" lon="0.9574218700466972"><ele>97.0</ele><time>2026-03-22T17:20:55.998Z</time></trkpt><trkpt lat="49.32402357032497" lon="0.957549265664358"><ele>102.0</ele><time>2026-03-22T17:20:56.998Z</time></trkpt><trkpt lat="49.32406102896223" lon="0.9576628057413287"><ele>107.0</ele><time>2026-03-22T17:20:57.998Z</time></trkpt><trkpt lat="49.324089140504704" lon="0.9577900504477274"><ele>112.0</ele><time>2026-03-22T17:20:58.998Z</time></trkpt><trkpt lat="49.324126121584634" lon="0.9579194144017076"><ele>116.99999999999999</ele><time>2026-03-22T17:20:59.998Z</time></trkpt><trkpt lat="49.324159646015836" lon="0.9580373777240394"><ele>122.0</ele><time>2026-03-22T17:21:00.998Z</time></trkpt><trkpt lat="49.324209055942646" lon="0.958150282070962"><ele>121.99999999999999</ele><time>2026-03-22T17:21:01.998Z</time></trkpt><trkpt lat="49.32424636500387" lon="0.9582450920021419"><ele>122.0</ele><time>2026-03-22T17:21:02.998Z</time></trkpt><trkpt lat="49.324275952615004" lon="0.9583687252208498"><ele>122.0</ele><time>2026-03-22T17:21:03.998Z</time></trkpt><trkpt lat="49.32430729883936" lon="0.9584757905565565"><ele>122.0</ele><time>2026-03-22T17:21:04.998Z</time></trkpt><trkpt lat="49.3243397656239" lon="0.9585678947243169"><ele>121.99999999999999</ele><time>2026-03-22T17:21:05.998Z</time></trkpt><trkpt lat="49.32440180783235" lon="0.9587083845653203"><ele>122.0</ele><time>2026-03-22T17:21:07.998Z</time></trkpt><trkpt lat="49.32444164452889" lon="0.9588271793702788"><ele>122.25</ele><time>2026-03-22T17:21:09.998Z</time></trkpt><trkpt lat="49.32443307401738" lon="0.9589255243303115"><ele>122.5</ele><time>2026-03-22T17:24:04Z</time></trkpt><trkpt lat="49.32450547969651" lon="0.9591090116069778"><ele>122.75</ele><time>2026-03-22T17:24:06Z</time></trkpt><trkpt lat="49.32456849863017" lon="0.9592769523788561"><ele>123.0</ele><time>2026-03-22T17:24:07Z</time></trkpt><trkpt lat="49.32463219552339" lon="0.9595193349354261"><ele>123.2</ele><time>2026-03-22T17:24:08Z</time></trkpt><trkpt lat="49.324688072494354" lon="0.9597122276795004"><ele>123.4</ele><time>2026-03-22T17:24:08.999Z</time></trkpt><trkpt lat="49.3247437272127" lon="0.9598706180358477"><ele>123.60000000000001</ele><time>2026-03-22T17:24:09.999Z</time></trkpt><trkpt lat="49.324786108154036" lon="0.9599950833045549"><ele>123.80000000000001</ele><time>2026-03-22T17:24:10.999Z</time></trkpt><trkpt lat="49.324829380591794" lon="0.9601161662477773"><ele>124.0</ele><time>2026-03-22T17:24:11.999Z</time></trkpt><trkpt lat="49.32486986731936" lon="0.9602343866868968"><ele>124.80000000000001</ele><time>2026-03-22T17:24:12.999Z</time></trkpt><trkpt lat="49.32492020557523" lon="0.9603656995254124"><ele>125.60000000000001</ele><time>2026-03-22T17:24:13.999Z</time></trkpt><trkpt lat="49.3249723200507" lon="0.9605109420818844"><ele>126.4</ele><time>2026-03-22T17:24:14.999Z</time></trkpt><trkpt lat="49.325015484249576" lon="0.960641410093251"><ele>127.2</ele><time>2026-03-22T17:24:15.999Z</time></trkpt><trkpt lat="49.32505993236552" lon="0.9607716329643717"><ele>128.0</ele><time>2026-03-22T17:24:16.999Z</time></trkpt><trkpt lat="49.32512010040461" lon="0.9609398881355681"><ele>128.0</ele><time>2026-03-22T17:24:17.999Z</time></trkpt><trkpt lat="49.32519138704191" lon="0.9611376831610283"><ele>128.0</ele><time>2026-03-22T17:24:18.999Z</time></trkpt><trkpt lat="49.325248472319856" lon="0.9613176010459021"><ele>128.0</ele><time>2026-03-22T17:24:19.999Z</time></trkpt><trkpt lat="49.32530155144733" lon="0.9614648440308765"><ele>128.0</ele><time>2026-03-22T17:24:20.999Z</time></trkpt><trkpt lat="49.32535303810665" lon="0.9616011232364519"><ele>127.80000000000001</ele><time>2026-03-22T17:24:21.999Z</time></trkpt><trkpt lat="49.32540163098852" lon="0.9617282412345987"><ele>127.60000000000001</ele><time>2026-03-22T17:24:22.999Z</time></trkpt><trkpt lat="49.32544924755484" lon="0.9618487817071913"><ele>127.39999999999999</ele><time>2026-03-22T17:24:23.999Z</time></trkpt><trkpt lat="49.32550049444346" lon="0.9619735698848236"><ele>127.19999999999999</ele><time>2026-03-22T17:24:24.999Z</time></trkpt><trkpt lat="49.32554847111532" lon="0.9621199390037051"><ele>127.0</ele><time>2026-03-22T17:24:25.999Z</time></trkpt><trkpt lat="49.3256063065333" lon="0.9623034658211236"><ele>126.0</ele><time>2026-03-22T17:24:26.999Z</time></trkpt><trkpt lat="49.325687596844624" lon="0.9625333033754477"><ele>125.0</ele><time>2026-03-22T17:24:27.999Z</time></trkpt><trkpt lat="49.325756973391535" lon="0.9627469472667415"><ele>124.0</ele><time>2026-03-22T17:24:28.999Z</time></trkpt><trkpt lat="49.32581227309274" lon="0.9629139902875091"><ele>123.0</ele><time>2026-03-22T17:24:29.999Z</time></trkpt><trkpt lat="49.325860322558604" lon="0.9630608085516967"><ele>123.0</ele><time>2026-03-22T17:24:30.999Z</time></trkpt><trkpt lat="49.32590055373642" lon="0.9631886893564601"><ele>123.0</ele><time>2026-03-22T17:24:31.999Z</time></trkpt><trkpt lat="49.32594156168752" lon="0.9633117855826535"><ele>123.0</ele><time>2026-03-22T17:24:32.999Z</time></trkpt><trkpt lat="49.325976928612945" lon="0.9634244575751634"><ele>123.0</ele><time>2026-03-22T17:24:33.999Z</time></trkpt><trkpt lat="49.32601247085861" lon="0.9635296303707733"><ele>123.0</ele><time>2026-03-22T17:24:34.999Z</time></trkpt><trkpt lat="49.32604363116137" lon="0.9636209968445617"><ele>123.0</ele><time>2026-03-22T17:24:35.999Z</time></trkpt><trkpt lat="49.326090483736614" lon="0.9637736648282569"><ele>122.80000000000001</ele><time>2026-03-22T17:24:37.999Z</time></trkpt><trkpt lat="49.326129154329614" lon="0.9638741950352446"><ele>122.60000000000001</ele><time>2026-03-22T17:24:39.999Z</time></trkpt><trkpt lat="49.326224788743296" lon="0.9638449579558441"><ele>122.39999999999999</ele><time>2026-03-22T17:24:41.999Z</time></trkpt><trkpt lat="49.326300266936514" lon="0.9638135290968946"><ele>122.19999999999999</ele><time>2026-03-22T17:24:42.999Z</time></trkpt><trkpt lat="49.32641888720776" lon="0.9637732619330207"><ele>122.0</ele><time>2026-03-22T17:24:43.999Z</time></trkpt><trkpt lat="49.326576208620764" lon="0.9637272971684797"><ele>120.66666666666666</ele><time>2026-03-22T17:24:44.999Z</time></trkpt><trkpt lat="49.32678372216847" lon="0.9636484198942555"><ele>119.33333333333334</ele><time>2026-03-22T17:24:45.999Z</time></trkpt><trkpt lat="49.326993601213005" lon="0.963585373367478"><ele>118.0</ele><time>2026-03-22T17:24:46.999Z</time></trkpt><trkpt lat="49.327212035260445" lon="0.9635205568590622"><ele>119.0</ele><time>2026-03-22T17:24:47.999Z</time></trkpt><trkpt lat="49.32741378904144" lon="0.9634466864483514"><ele>120.0</ele><time>2026-03-22T17:24:48.999Z</time></trkpt><trkpt lat="49.32759702613365" lon="0.9633725451953897"><ele>121.0</ele><time>2026-03-22T17:24:49.999Z</time></trkpt><trkpt lat="49.327749296881024" lon="0.9633275140884865"><ele>119.8</ele><time>2026-03-22T17:24:50.999Z</time></trkpt><trkpt lat="49.32788258290979" lon="0.9632955914897666"><ele>118.6</ele><time>2026-03-22T17:24:51.999Z</time></trkpt><trkpt lat="49.32798086559703" lon="0.963258225391812"><ele>117.4</ele><time>2026-03-22T17:24:52.999Z</time></trkpt><trkpt lat="49.32805939782221" lon="0.9632180692673129"><ele>116.2</ele><time>2026-03-22T17:24:53.999Z</time></trkpt><trkpt lat="49.32813904934435" lon="0.9630815266720175"><ele>115.0</ele><time>2026-03-22T17:24:55.998Z</time></trkpt><trkpt lat="49.328145551367314" lon="0.9629316205019351"><ele>114.33333333333334</ele><time>2026-03-22T17:24:57.998Z</time></trkpt><trkpt lat="49.32815611213357" lon="0.9628110958973276"><ele>113.66666666666667</ele><time>2026-03-22T17:24:59.998Z</time></trkpt><trkpt lat="49.328172371326914" lon="0.9626960436443479"><ele>113.0</ele><time>2026-03-22T17:25:01.998Z</time></trkpt><trkpt lat="49.32820951585339" lon="0.9626074908627066"><ele>112.33333333333334</ele><time>2026-03-22T17:25:03.998Z</time></trkpt><trkpt lat="49.328145830877396" lon="0.9626676170246982"><ele>111.66666666666667</ele><time>2026-03-22T17:25:07.998Z</time></trkpt><trkpt lat="49.32813389933221" lon="0.9628469934490851"><ele>111.0</ele><time>2026-03-22T17:25:09.998Z</time></trkpt><trkpt lat="49.32811443732875" lon="0.9630292633818207"><ele>111.0</ele><time>2026-03-22T17:25:11.998Z</time></trkpt><trkpt lat="49.32809054248474" lon="0.9631616247242872"><ele>111.0</ele><time>2026-03-22T17:25:12.998Z</time></trkpt><trkpt lat="49.328065806405654" lon="0.9632736051310818"><ele>111.0</ele><time>2026-03-22T17:25:13.998Z</time></trkpt><trkpt lat="49.328054147205044" lon="0.9633774649013049"><ele>111.0</ele><time>2026-03-22T17:25:14.998Z</time></trkpt><trkpt lat="49.32803104271212" lon="0.9634964906279884"><ele>111.0</ele><time>2026-03-22T17:25:15.998Z</time></trkpt><trkpt lat="49.3280145801721" lon="0.9636166142339523"><ele>111.0</ele><time>2026-03-22T17:25:16.998Z</time></trkpt><trkpt lat="49.328007864142705" lon="0.963796086365329"><ele>112.66666666666667</ele><time>2026-03-22T17:25:18.998Z</time></trkpt><trkpt lat="49.32798526993306" lon="0.9638900750571333"><ele>114.33333333333334</ele><time>2026-03-22T17:25:19.998Z</time></trkpt><trkpt lat="49.32797363118702" lon="0.963991674313545"><ele>116.0</ele><time>2026-03-22T17:25:20.998Z</time></trkpt><trkpt lat="49.32794399874828" lon="0.9641670567493954"><ele>117.66666666666667</ele><time>2026-03-22T17:25:22.998Z</time></trkpt><trkpt lat="49.327923929913425" lon="0.9642691933401072"><ele>119.33333333333334</ele><time>2026-03-22T17:25:23.998Z</time></trkpt><trkpt lat="49.32791374454006" lon="0.9643860731535083"><ele>121.0</ele><time>2026-03-22T17:25:24.998Z</time></trkpt><trkpt lat="49.32789932976642" lon="0.964521918132154"><ele>121.4</ele><time>2026-03-22T17:25:25.998Z</time></trkpt><trkpt lat="49.327896175607925" lon="0.9646645640701312"><ele>121.8</ele><time>2026-03-22T17:25:26.998Z</time></trkpt><trkpt lat="49.32788647051591" lon="0.9647855650136998"><ele>122.20000000000002</ele><time>2026-03-22T17:25:27.998Z</time></trkpt><trkpt lat="49.327862397100745" lon="0.9649739987728704"><ele>122.60000000000001</ele><time>2026-03-22T17:25:29.998Z</time></trkpt><trkpt lat="49.327838917896464" lon="0.9651270375840376"><ele>123.0</ele><time>2026-03-22T17:25:31.998Z</time></trkpt><trkpt lat="49.32781631789715" lon="0.9653130519323322"><ele>123.0</ele><time>2026-03-22T17:25:33.998Z</time></trkpt><trkpt lat="49.32780976363443" lon="0.9654190372884515"><ele>123.0</ele><time>2026-03-22T17:25:34.998Z</time></trkpt><trkpt lat="49.327787964670215" lon="0.9655485083270421"><ele>123.0</ele><time>2026-03-22T17:25:35.998Z</time></trkpt><trkpt lat="49.327763528303" lon="0.9656456392265867"><ele>123.0</ele><time>2026-03-22T17:25:36.998Z</time></trkpt><trkpt lat="49.32772912976752" lon="0.9658258213065058"><ele>123.0</ele><time>2026-03-22T17:25:38.998Z</time></trkpt><trkpt lat="49.32771007067342" lon="0.9659403776031792"><ele>123.0</ele><time>2026-03-22T17:25:40Z</time></trkpt><trkpt lat="49.32769980135191" lon="0.9660361786043787"><ele>122.60000000000001</ele><time>2026-03-22T17:25:41Z</time></trkpt><trkpt lat="49.32768616400221" lon="0.9661898695264797"><ele>122.20000000000002</ele><time>2026-03-22T17:25:43Z</time></trkpt><trkpt lat="49.32772682680984" lon="0.9663277306642796"><ele>121.8</ele><time>2026-03-22T17:25:45Z</time></trkpt><trkpt lat="49.32780377490548" lon="0.9663622311361698"><ele>121.4</ele><time>2026-03-22T17:25:47Z</time></trkpt><trkpt lat="49.32790911203121" lon="0.9664271043344477"><ele>121.0</ele><time>2026-03-22T17:25:49Z</time></trkpt><trkpt lat="49.32802654290565" lon="0.9664598811014141"><ele>120.33333333333334</ele><time>2026-03-22T17:25:51Z</time></trkpt><trkpt lat="49.32810511549191" lon="0.966497371503579"><ele>119.66666666666667</ele><time>2026-03-22T17:25:54Z</time></trkpt><trkpt lat="49.328184844493954" lon="0.966532608333888"><ele>119.0</ele><time>2026-03-22T17:25:55Z</time></trkpt><trkpt lat="49.32829105071178" lon="0.9665604206476508"><ele>118.33333333333334</ele><time>2026-03-22T17:25:56Z</time></trkpt><trkpt lat="49.32838574946909" lon="0.966589207838522"><ele>117.66666666666667</ele><time>2026-03-22T17:25:57Z</time></trkpt><trkpt lat="49.32846321348559" lon="0.9666115592429604"><ele>117.0</ele><time>2026-03-22T17:25:58Z</time></trkpt><trkpt lat="49.328538764991215" lon="0.9666481263568559"><ele>117.0</ele><time>2026-03-22T17:25:59Z</time></trkpt><trkpt lat="49.32861560126657" lon="0.9666723142860167"><ele>117.0</ele><time>2026-03-22T17:26:00Z</time></trkpt><trkpt lat="49.328699341291085" lon="0.9666836591676555"><ele>117.0</ele><time>2026-03-22T17:26:01Z</time></trkpt><trkpt lat="49.3287820127199" lon="0.9667027340759509"><ele>117.0</ele><time>2026-03-22T17:26:02Z</time></trkpt><trkpt lat="49.32887793681588" lon="0.9667250610985397"><ele>117.0</ele><time>2026-03-22T17:26:03Z</time></trkpt><trkpt lat="49.32896488369716" lon="0.9667415150991806"><ele>117.0</ele><time>2026-03-22T17:26:04Z</time></trkpt><trkpt lat="49.329056688871994" lon="0.9667599981720818"><ele>116.33333333333333</ele><time>2026-03-22T17:26:05Z</time></trkpt><trkpt lat="49.32914961705455" lon="0.9667834932362834"><ele>115.66666666666666</ele><time>2026-03-22T17:26:06Z</time></trkpt><trkpt lat="49.329227306773284" lon="0.966798111736177"><ele>115.0</ele><time>2026-03-22T17:26:07Z</time></trkpt><trkpt lat="49.32930501744213" lon="0.9668316091754853"><ele>114.33333333333333</ele><time>2026-03-22T17:26:08Z</time></trkpt><trkpt lat="49.329376734843606" lon="0.9668448693135235"><ele>113.66666666666666</ele><time>2026-03-22T17:26:09Z</time></trkpt><trkpt lat="49.32944955253421" lon="0.9668778599303333"><ele>113.0</ele><time>2026-03-22T17:26:10Z</time></trkpt><trkpt lat="49.32951064150413" lon="0.9669094346750704"><ele>112.99999999999999</ele><time>2026-03-22T17:26:11Z</time></trkpt><trkpt lat="49.329620856163814" lon="0.9669356389144521"><ele>113.0</ele><time>2026-03-22T17:26:12.999Z</time></trkpt><trkpt lat="49.329696835680096" lon="0.9669689221510395"><ele>113.0</ele><time>2026-03-22T17:26:13.999Z</time></trkpt><trkpt lat="49.329771381478324" lon="0.9669939232315"><ele>113.0</ele><time>2026-03-22T17:26:14.999Z</time></trkpt><trkpt lat="49.32984900153007" lon="0.9670223713037798"><ele>112.99999999999999</ele><time>2026-03-22T17:26:15.999Z</time></trkpt><trkpt lat="49.32992904007753" lon="0.967054569130366"><ele>113.0</ele><time>2026-03-22T17:26:16.999Z</time></trkpt><trkpt lat="49.329990984858945" lon="0.967077537309887"><ele>112.49999999999999</ele><time>2026-03-22T17:26:17.999Z</time></trkpt><trkpt lat="49.33006279748663" lon="0.9670927517834373"><ele>112.0</ele><time>2026-03-22T17:26:18.999Z</time></trkpt><trkpt lat="49.33012823907227" lon="0.967103710326094"><ele>111.5</ele><time>2026-03-22T17:26:19.999Z</time></trkpt><trkpt lat="49.33019502683498" lon="0.9671166600141716"><ele>111.0</ele><time>2026-03-22T17:26:20.999Z</time></trkpt><trkpt lat="49.3303075723005" lon="0.9671611962032529"><ele>110.49999999999999</ele><time>2026-03-22T17:26:22.999Z</time></trkpt><trkpt lat="49.3304003821872" lon="0.9671815376068941"><ele>110.0</ele><time>2026-03-22T17:26:24.999Z</time></trkpt><trkpt lat="49.33050626361216" lon="0.9672075798290892"><ele>108.99999999999999</ele><time>2026-03-22T17:26:26.999Z</time></trkpt><trkpt lat="49.33057140811722" lon="0.9672355727502064"><ele>108.0</ele><time>2026-03-22T17:26:27.999Z</time></trkpt><trkpt lat="49.33063201360501" lon="0.9672635654491502"><ele>107.0</ele><time>2026-03-22T17:26:28.999Z</time></trkpt><trkpt lat="49.33071801015318" lon="0.9672824734056845"><ele>106.0</ele><time>2026-03-22T17:26:29.999Z</time></trkpt><trkpt lat="49.330788657690604" lon="0.9673051244727775"><ele>104.99999999999999</ele><time>2026-03-22T17:26:30.999Z</time></trkpt><trkpt lat="49.330860569919075" lon="0.9673266390502424"><ele>104.0</ele><time>2026-03-22T17:26:31.999Z</time></trkpt><trkpt lat="49.33097598301676" lon="0.9673834429653528"><ele>103.99999999999999</ele><time>2026-03-22T17:26:33.999Z</time></trkpt><trkpt lat="49.33104511219511" lon="0.9674229321636172"><ele>104.0</ele><time>2026-03-22T17:26:34.999Z</time></trkpt><trkpt lat="49.33111596922435" lon="0.96745458036065"><ele>104.0</ele><time>2026-03-22T17:26:35.999Z</time></trkpt><trkpt lat="49.33117852551068" lon="0.9674776309976258"><ele>104.0</ele><time>2026-03-22T17:26:36.999Z</time></trkpt><trkpt lat="49.33124056779469" lon="0.9675079855162099"><ele>103.99999999999999</ele><time>2026-03-22T17:26:37.999Z</time></trkpt><trkpt lat="49.33133501328412" lon="0.9675462894697764"><ele>104.0</ele><time>2026-03-22T17:26:39.999Z</time></trkpt><trkpt lat="49.3314144234297" lon="0.9675548065039568"><ele>101.66666666666666</ele><time>2026-03-22T17:26:41.999Z</time></trkpt><trkpt lat="49.33151281631576" lon="0.9675966950917816"><ele>99.33333333333333</ele><time>2026-03-22T17:26:43.999Z</time></trkpt><trkpt lat="49.33158267502175" lon="0.9675658317767604"><ele>97.0</ele><time>2026-03-22T17:26:46.999Z</time></trkpt><trkpt lat="49.331653011527" lon="0.9675070610688737"><ele>94.66666666666666</ele><time>2026-03-22T17:26:49.999Z</time></trkpt><trkpt lat="49.331712504573304" lon="0.9674179377927923"><ele>92.33333333333333</ele><time>2026-03-22T17:26:52.999Z</time></trkpt><trkpt lat="49.33174754505293" lon="0.9673110473538374"><ele>90.0</ele><time>2026-03-22T17:26:54.999Z</time></trkpt><trkpt lat="49.33183152462884" lon="0.9671756300823267"><ele>90.0</ele><time>2026-03-22T17:26:56.999Z</time></trkpt><trkpt lat="49.3319118415559" lon="0.9670666450174645"><ele>90.0</ele><time>2026-03-22T17:26:58.999Z</time></trkpt><trkpt lat="49.33196284408035" lon="0.9669895979124022"><ele>90.0</ele><time>2026-03-22T17:27:00.998Z</time></trkpt><trkpt lat="49.332053643189674" lon="0.9669835003456121"><ele>90.0</ele><time>2026-03-22T17:27:03.998Z</time></trkpt><trkpt lat="49.33215232367407" lon="0.9670557877179102"><ele>90.0</ele><time>2026-03-22T17:27:05.998Z</time></trkpt><trkpt lat="49.332250765633006" lon="0.9671524163832047"><ele>85.66666666666667</ele><time>2026-03-22T17:27:07.998Z</time></trkpt><trkpt lat="49.332309656934164" lon="0.967242209703004"><ele>81.33333333333333</ele><time>2026-03-22T17:27:08.998Z</time></trkpt><trkpt lat="49.33238087154331" lon="0.9673210884215163"><ele>77.0</ele><time>2026-03-22T17:27:09.998Z</time></trkpt><trkpt lat="49.332445828252716" lon="0.9674365570966621"><ele>72.66666666666666</ele><time>2026-03-22T17:27:10.998Z</time></trkpt><trkpt lat="49.33249997722171" lon="0.9675515973737989"><ele>68.33333333333333</ele><time>2026-03-22T17:27:11.998Z</time></trkpt><trkpt lat="49.33254564591115" lon="0.9676302621936906"><ele>64.0</ele><time>2026-03-22T17:27:12.998Z</time></trkpt><trkpt lat="49.33259149918591" lon="0.9677292838919164"><ele>63.99999999999999</ele><time>2026-03-22T17:27:13.998Z</time></trkpt><trkpt lat="49.33264098902232" lon="0.9678269306950833"><ele>64.0</ele><time>2026-03-22T17:27:14.998Z</time></trkpt><trkpt lat="49.332692078936766" lon="0.9679664408381047"><ele>64.0</ele><time>2026-03-22T17:27:16.998Z</time></trkpt><trkpt lat="49.332725184580795" lon="0.968061786856838"><ele>64.0</ele><time>2026-03-22T17:27:18.998Z</time></trkpt><trkpt lat="49.33277581686104" lon="0.9681496656529935"><ele>63.99999999999999</ele><time>2026-03-22T17:27:20.998Z</time></trkpt><trkpt lat="49.33283806876" lon="0.9682354847477525"><ele>64.0</ele><time>2026-03-22T17:27:22.998Z</time></trkpt><trkpt lat="49.33290645330989" lon="0.9682664552058661"><ele>63.99999999999999</ele><time>2026-03-22T17:27:25.998Z</time></trkpt><trkpt lat="49.33296682888644" lon="0.9681756750692824"><ele>64.0</ele><time>2026-03-22T17:28:04Z</time></trkpt><trkpt lat="49.33298071908263" lon="0.9680587298603507"><ele>64.0</ele><time>2026-03-22T17:28:08Z</time></trkpt><trkpt lat="49.33297993001453" lon="0.9679547668728117"><ele>64.0</ele><time>2026-03-22T17:28:11Z</time></trkpt><trkpt lat="49.33297269453489" lon="0.9680683735294242"><ele>63.99999999999999</ele><time>2026-03-22T17:28:19.999Z</time></trkpt><trkpt lat="49.33300847524246" lon="0.9681881155497576"><ele>64.0</ele><time>2026-03-22T17:28:25.999Z</time></trkpt><trkpt lat="49.3330037920155" lon="0.9682935716902259"><ele>63.25</ele><time>2026-03-22T17:28:27.999Z</time></trkpt><trkpt lat="49.33300434527203" lon="0.9684620450776918"><ele>62.5</ele><time>2026-03-22T17:28:29.999Z</time></trkpt><trkpt lat="49.33297258723509" lon="0.9686903684171984"><ele>61.75</ele><time>2026-03-22T17:28:31.999Z</time></trkpt><trkpt lat="49.332921645455066" lon="0.9688763111238504"><ele>61.0</ele><time>2026-03-22T17:28:33.999Z</time></trkpt><trkpt lat="49.332883859455926" lon="0.9690437191213555"><ele>60.199999999999996</ele><time>2026-03-22T17:28:35.999Z</time></trkpt><trkpt lat="49.33288850059601" lon="0.9692042571891092"><ele>59.39999999999999</ele><time>2026-03-22T17:28:37.999Z</time></trkpt><trkpt lat="49.33287756734021" lon="0.969302295652708"><ele>58.6</ele><time>2026-03-22T17:28:38.999Z</time></trkpt><trkpt lat="49.332875618524945" lon="0.9694374905627557"><ele>57.8</ele><time>2026-03-22T17:28:40.999Z</time></trkpt><trkpt lat="49.332915018010205" lon="0.9695753528652059"><ele>57.0</ele><time>2026-03-22T17:28:42.999Z</time></trkpt><trkpt lat="49.33293606970491" lon="0.9697372093760577"><ele>57.0</ele><time>2026-03-22T17:28:44.999Z</time></trkpt><trkpt lat="49.332955529203886" lon="0.9699092351947681"><ele>57.0</ele><time>2026-03-22T17:28:46.999Z</time></trkpt><trkpt lat="49.33294638210751" lon="0.9700074479284282"><ele>57.0</ele><time>2026-03-22T17:28:47.999Z</time></trkpt><trkpt lat="49.33292367167875" lon="0.970172158563497"><ele>57.0</ele><time>2026-03-22T17:28:49.999Z</time></trkpt><trkpt lat="49.332899653601295" lon="0.9702628511606249"><ele>57.0</ele><time>2026-03-22T17:28:50.999Z</time></trkpt><trkpt lat="49.33287955377755" lon="0.9703549644864475"><ele>57.0</ele><time>2026-03-22T17:28:51.999Z</time></trkpt><trkpt lat="49.33285959687216" lon="0.9704537004610903"><ele>56.0</ele><time>2026-03-22T17:28:52.999Z</time></trkpt><trkpt lat="49.33279878438432" lon="0.9706139581974061"><ele>55.0</ele><time>2026-03-22T17:28:54.999Z</time></trkpt><trkpt lat="49.33275807987093" lon="0.9707074076309178"><ele>54.0</ele><time>2026-03-22T17:28:56.999Z</time></trkpt><trkpt lat="49.33271152572185" lon="0.9708280048067294"><ele>53.0</ele><time>2026-03-22T17:28:59.999Z</time></trkpt><trkpt lat="49.332658921479855" lon="0.9709471470465496"><ele>52.0</ele><time>2026-03-22T17:29:02.999Z</time></trkpt><trkpt lat="49.332620398241716" lon="0.9710463886944208"><ele>51.14285714285714</ele><time>2026-03-22T17:29:03.999Z</time></trkpt><trkpt lat="49.33257328641061" lon="0.9711559496341924"><ele>50.28571428571429</ele><time>2026-03-22T17:29:04.998Z</time></trkpt><trkpt lat="49.33253733228184" lon="0.971248954607815"><ele>49.42857142857143</ele><time>2026-03-22T17:29:05.998Z</time></trkpt><trkpt lat="49.33249183314779" lon="0.9713356015970748"><ele>48.57142857142857</ele><time>2026-03-22T17:29:06.998Z</time></trkpt><trkpt lat="49.33244769437269" lon="0.9714217684252145"><ele>47.71428571428571</ele><time>2026-03-22T17:29:07.998Z</time></trkpt><trkpt lat="49.33241304535005" lon="0.9715174731369065"><ele>46.85714285714286</ele><time>2026-03-22T17:29:08.998Z</time></trkpt><trkpt lat="49.332376002424645" lon="0.9716043394490482"><ele>46.0</ele><time>2026-03-22T17:29:09.998Z</time></trkpt><trkpt lat="49.33233814652916" lon="0.9716982539049615"><ele>45.16666666666667</ele><time>2026-03-22T17:29:10.998Z</time></trkpt><trkpt lat="49.33231455860567" lon="0.9717900691115322"><ele>44.333333333333336</ele><time>2026-03-22T17:29:11.998Z</time></trkpt><trkpt lat="49.33226917172372" lon="0.971880303127344"><ele>43.5</ele><time>2026-03-22T17:29:12.998Z</time></trkpt><trkpt lat="49.33223339824383" lon="0.9719611581159908"><ele>42.666666666666664</ele><time>2026-03-22T17:29:13.998Z</time></trkpt><trkpt lat="49.33216879568553" lon="0.9721130712677377"><ele>41.83333333333333</ele><time>2026-03-22T17:29:15.998Z</time></trkpt><trkpt lat="49.33213434229175" lon="0.9722015631289367"><ele>41.0</ele><time>2026-03-22T17:29:16.998Z</time></trkpt><trkpt lat="49.332094436283704" lon="0.9722980991648661"><ele>41.0</ele><time>2026-03-22T17:29:17.998Z</time></trkpt><trkpt lat="49.33204927227914" lon="0.9723791634557722"><ele>41.0</ele><time>2026-03-22T17:29:18.998Z</time></trkpt><trkpt lat="49.33201671156072" lon="0.9724798507441321"><ele>41.0</ele><time>2026-03-22T17:29:19.998Z</time></trkpt><trkpt lat="49.33195415249266" lon="0.9725737259049019"><ele>41.0</ele><time>2026-03-22T17:29:21.998Z</time></trkpt><trkpt lat="49.331871137900016" lon="0.9726768149679941"><ele>41.0</ele><time>2026-03-22T17:29:23.998Z</time></trkpt><trkpt lat="49.331818160390895" lon="0.9727432388465156"><ele>41.0</ele><time>2026-03-22T17:29:24.998Z</time></trkpt><trkpt lat="49.33176229032072" lon="0.9728247023164737"><ele>40.166666666666664</ele><time>2026-03-22T17:29:25.998Z</time></trkpt><trkpt lat="49.331691095000544" lon="0.9728830590815124"><ele>39.33333333333333</ele><time>2026-03-22T17:29:26.998Z</time></trkpt><trkpt lat="49.33159855979067" lon="0.9729248362288897"><ele>38.5</ele><time>2026-03-22T17:29:28.998Z</time></trkpt><trkpt lat="49.33153086632432" lon="0.9729974814173092"><ele>37.666666666666664</ele><time>2026-03-22T17:29:30.998Z</time></trkpt><trkpt lat="49.33147663621112" lon="0.9731525328789163"><ele>36.833333333333336</ele><time>2026-03-22T17:29:32.998Z</time></trkpt><trkpt lat="49.33142152112665" lon="0.9732127502270366"><ele>36.0</ele><time>2026-03-22T17:29:33.998Z</time></trkpt><trkpt lat="49.33133362868392" lon="0.97330652055036"><ele>35.166666666666664</ele><time>2026-03-22T17:29:35.998Z</time></trkpt><trkpt lat="49.33124076611605" lon="0.9734216985471714"><ele>34.333333333333336</ele><time>2026-03-22T17:29:37.998Z</time></trkpt><trkpt lat="49.331142600330715" lon="0.9734828944597529"><ele>33.5</ele><time>2026-03-22T17:29:39.998Z</time></trkpt><trkpt lat="49.33110192481829" lon="0.9735664646300937"><ele>32.66666666666667</ele><time>2026-03-22T17:29:40.998Z</time></trkpt><trkpt lat="49.331065723156485" lon="0.9736533446151879"><ele>31.833333333333336</ele><time>2026-03-22T17:29:41.998Z</time></trkpt><trkpt lat="49.33100902377058" lon="0.9737479596225282"><ele>31.0</ele><time>2026-03-22T17:29:42.998Z</time></trkpt><trkpt lat="49.330937248564204" lon="0.973802751755559"><ele>31.0</ele><time>2026-03-22T17:29:43.998Z</time></trkpt><trkpt lat="49.33086689772892" lon="0.97385649088712"><ele>31.0</ele><time>2026-03-22T17:29:44.998Z</time></trkpt><trkpt lat="49.330778405238604" lon="0.9738934561951186"><ele>31.0</ele><time>2026-03-22T17:29:46.998Z</time></trkpt><trkpt lat="49.33074566546292" lon="0.9740543759156579"><ele>31.0</ele><time>2026-03-22T17:29:48.998Z</time></trkpt><trkpt lat="49.3306798958987" lon="0.9741812914453813"><ele>31.0</ele><time>2026-03-22T17:29:52Z</time></trkpt><trkpt lat="49.33044016532972" lon="0.974433175147961"><ele>30.8</ele><time>2026-03-22T17:29:55Z</time></trkpt><trkpt lat="49.330502036935755" lon="0.9745763545667784"><ele>30.6</ele><time>2026-03-22T17:29:58Z</time></trkpt><trkpt lat="49.330552008619385" lon="0.9746849992302424"><ele>30.4</ele><time>2026-03-22T17:30:00Z</time></trkpt><trkpt lat="49.33059503667655" lon="0.9747701966192949"><ele>30.2</ele><time>2026-03-22T17:30:01Z</time></trkpt><trkpt lat="49.330710868175736" lon="0.9748313085848596"><ele>30.0</ele><time>2026-03-22T17:30:03Z</time></trkpt><trkpt lat="49.330815780655" lon="0.9748844576458994"><ele>31.2</ele><time>2026-03-22T17:30:05Z</time></trkpt><trkpt lat="49.330885971213945" lon="0.9749862797720825"><ele>32.4</ele><time>2026-03-22T17:30:07Z</time></trkpt><trkpt lat="49.33096866727513" lon="0.9751003715758483"><ele>33.6</ele><time>2026-03-22T17:30:09Z</time></trkpt><trkpt lat="49.33108953439372" lon="0.9752026573322384"><ele>34.8</ele><time>2026-03-22T17:30:11Z</time></trkpt><trkpt lat="49.33116507172414" lon="0.97527166036733"><ele>36.0</ele><time>2026-03-22T17:30:12Z</time></trkpt><trkpt lat="49.33123584398202" lon="0.975332051295669"><ele>37.166666666666664</ele><time>2026-03-22T17:30:13Z</time></trkpt><trkpt lat="49.331308927220014" lon="0.9753867221569475"><ele>38.333333333333336</ele><time>2026-03-22T17:30:14Z</time></trkpt><trkpt lat="49.331379095864705" lon="0.9754471026605263"><ele>39.5</ele><time>2026-03-22T17:30:15Z</time></trkpt><trkpt lat="49.331467009029694" lon="0.9755288510261981"><ele>40.66666666666667</ele><time>2026-03-22T17:30:16Z</time></trkpt><trkpt lat="49.33152072937613" lon="0.975581483818948"><ele>41.833333333333336</ele><time>2026-03-22T17:30:17Z</time></trkpt><trkpt lat="49.331581502371456" lon="0.9756572518354103"><ele>43.0</ele><time>2026-03-22T17:30:18Z</time></trkpt><trkpt lat="49.33166691315838" lon="0.975748833356622"><ele>44.8</ele><time>2026-03-22T17:30:19Z</time></trkpt><trkpt lat="49.3317517322548" lon="0.9758552842106509"><ele>46.599999999999994</ele><time>2026-03-22T17:30:20Z</time></trkpt><trkpt lat="49.33182887423667" lon="0.9759916420948821"><ele>48.400000000000006</ele><time>2026-03-22T17:30:20.999Z</time></trkpt><trkpt lat="49.33189287799872" lon="0.9760950497059208"><ele>50.2</ele><time>2026-03-22T17:30:21.999Z</time></trkpt><trkpt lat="49.33197472725285" lon="0.9762081363943711"><ele>52.0</ele><time>2026-03-22T17:30:22.999Z</time></trkpt><trkpt lat="49.33206617175021" lon="0.9763326316341491"><ele>52.0</ele><time>2026-03-22T17:30:23.999Z</time></trkpt><trkpt lat="49.33213363636448" lon="0.9764426882974542"><ele>52.0</ele><time>2026-03-22T17:30:24.999Z</time></trkpt><trkpt lat="49.33222152396131" lon="0.9765639101498642"><ele>52.0</ele><time>2026-03-22T17:30:25.999Z</time></trkpt><trkpt lat="49.33229565976004" lon="0.9766840200589784"><ele>52.0</ele><time>2026-03-22T17:30:26.999Z</time></trkpt><trkpt lat="49.3323877506299" lon="0.9767997100311758"><ele>52.0</ele><time>2026-03-22T17:30:27.999Z</time></trkpt><trkpt lat="49.3324546874963" lon="0.9769147240121845"><ele>51.83333333333333</ele><time>2026-03-22T17:30:28.999Z</time></trkpt><trkpt lat="49.33252274240227" lon="0.9770028535037194"><ele>51.666666666666664</ele><time>2026-03-22T17:30:29.999Z</time></trkpt><trkpt lat="49.33257815862476" lon="0.9770716441311138"><ele>51.5</ele><time>2026-03-22T17:30:30.999Z</time></trkpt><trkpt lat="49.332634488319044" lon="0.9771405173314462"><ele>51.33333333333333</ele><time>2026-03-22T17:30:31.999Z</time></trkpt><trkpt lat="49.33268620255425" lon="0.9772150991346592"><ele>51.166666666666664</ele><time>2026-03-22T17:30:32.999Z</time></trkpt><trkpt lat="49.33273510831885" lon="0.977323364912461"><ele>51.0</ele><time>2026-03-22T17:30:33.999Z</time></trkpt><trkpt lat="49.33277200627441" lon="0.9774482604378123"><ele>51.5</ele><time>2026-03-22T17:30:34.999Z</time></trkpt><trkpt lat="49.3328142416087" lon="0.9775615630960188"><ele>52.0</ele><time>2026-03-22T17:30:35.999Z</time></trkpt><trkpt lat="49.33285641501397" lon="0.977643875109055"><ele>52.5</ele><time>2026-03-22T17:30:36.999Z</time></trkpt><trkpt lat="49.332914689247104" lon="0.977748270408604"><ele>53.0</ele><time>2026-03-22T17:30:38.999Z</time></trkpt><trkpt lat="49.33289463316873" lon="0.9778677773295236"><ele>53.5</ele><time>2026-03-22T17:30:41.999Z</time></trkpt><trkpt lat="49.33290582924937" lon="0.9779740761707175"><ele>54.0</ele><time>2026-03-22T17:30:44.999Z</time></trkpt><trkpt lat="49.332977272929355" lon="0.9781060500949922"><ele>54.0</ele><time>2026-03-22T17:30:47.999Z</time></trkpt><trkpt lat="49.333017094018984" lon="0.9782110927684676"><ele>54.0</ele><time>2026-03-22T17:30:48.999Z</time></trkpt><trkpt lat="49.333060982380545" lon="0.9783355826839613"><ele>54.0</ele><time>2026-03-22T17:30:49.999Z</time></trkpt><trkpt lat="49.333111849357465" lon="0.9784613339759658"><ele>54.0</ele><time>2026-03-22T17:30:50.999Z</time></trkpt><trkpt lat="49.333127761580364" lon="0.9785903272163453"><ele>54.0</ele><time>2026-03-22T17:30:51.999Z</time></trkpt><trkpt lat="49.333154479926264" lon="0.9787204653513775"><ele>54.0</ele><time>2026-03-22T17:30:53.999Z</time></trkpt><trkpt lat="49.333163890847985" lon="0.9788675003731355"><ele>55.800000000000004</ele><time>2026-03-22T17:30:55.999Z</time></trkpt><trkpt lat="49.333155194222066" lon="0.9790688134507796"><ele>57.60000000000001</ele><time>2026-03-22T17:30:57.999Z</time></trkpt><trkpt lat="49.333157941616506" lon="0.979168420457737"><ele>59.4</ele><time>2026-03-22T17:30:58.999Z</time></trkpt><trkpt lat="49.333161805994045" lon="0.9793062240975653"><ele>61.2</ele><time>2026-03-22T17:30:59.999Z</time></trkpt><trkpt lat="49.33317037706112" lon="0.9794371512790478"><ele>63.0</ele><time>2026-03-22T17:31:00.999Z</time></trkpt><trkpt lat="49.33317732861404" lon="0.9795593480055751"><ele>64.0</ele><time>2026-03-22T17:31:01.999Z</time></trkpt><trkpt lat="49.333175543775134" lon="0.9797615788543049"><ele>65.0</ele><time>2026-03-22T17:31:03.999Z</time></trkpt><trkpt lat="49.33318636557508" lon="0.9799465275996865"><ele>66.0</ele><time>2026-03-22T17:31:05.999Z</time></trkpt><trkpt lat="49.33320305564591" lon="0.9800528349690267"><ele>67.0</ele><time>2026-03-22T17:31:06.998Z</time></trkpt><trkpt lat="49.3332187922684" lon="0.9801765153729777"><ele>68.0</ele><time>2026-03-22T17:31:07.998Z</time></trkpt><trkpt lat="49.333232620554945" lon="0.9803004145185844"><ele>69.2</ele><time>2026-03-22T17:31:08.998Z</time></trkpt><trkpt lat="49.3332338235734" lon="0.9804189688036268"><ele>70.4</ele><time>2026-03-22T17:31:09.998Z</time></trkpt><trkpt lat="49.33324358980589" lon="0.9805478022626456"><ele>71.60000000000001</ele><time>2026-03-22T17:31:10.998Z</time></trkpt><trkpt lat="49.33325729574058" lon="0.9806447040030828"><ele>72.8</ele><time>2026-03-22T17:31:11.998Z</time></trkpt><trkpt lat="49.33329293504127" lon="0.9808552335304171"><ele>74.0</ele><time>2026-03-22T17:31:13.998Z</time></trkpt><trkpt lat="49.33331576803611" lon="0.9809897414591884"><ele>75.16666666666667</ele><time>2026-03-22T17:31:15.998Z</time></trkpt><trkpt lat="49.33332838219032" lon="0.9811173205662027"><ele>76.33333333333334</ele><time>2026-03-22T17:31:18.998Z</time></trkpt><trkpt lat="49.33336937355326" lon="0.9811954733929082"><ele>77.5</ele><time>2026-03-22T17:31:20.998Z</time></trkpt><trkpt lat="49.3333988444174" lon="0.9813076242020944"><ele>78.66666666666667</ele><time>2026-03-22T17:31:22.998Z</time></trkpt><trkpt lat="49.33341432903393" lon="0.9814238542254029"><ele>79.83333333333333</ele><time>2026-03-22T17:31:23.998Z</time></trkpt><trkpt lat="49.33343223015182" lon="0.9815692189267153"><ele>81.0</ele><time>2026-03-22T17:31:24.998Z</time></trkpt><trkpt lat="49.333448860125785" lon="0.9816748448895258"><ele>82.0</ele><time>2026-03-22T17:31:25.998Z</time></trkpt><trkpt lat="49.333472740048535" lon="0.9818060745668472"><ele>83.0</ele><time>2026-03-22T17:31:27.998Z</time></trkpt><trkpt lat="49.33349632929187" lon="0.9819876756838876"><ele>84.0</ele><time>2026-03-22T17:31:29.998Z</time></trkpt><trkpt lat="49.333510863848254" lon="0.9821443343127116"><ele>85.0</ele><time>2026-03-22T17:31:31.998Z</time></trkpt><trkpt lat="49.333518110322046" lon="0.9822793231115019"><ele>86.0</ele><time>2026-03-22T17:31:33.998Z</time></trkpt><trkpt lat="49.33352304370515" lon="0.9824231852882256"><ele>88.0</ele><time>2026-03-22T17:31:35.998Z</time></trkpt><trkpt lat="49.33352754497198" lon="0.9825583640067329"><ele>90.0</ele><time>2026-03-22T17:31:38.998Z</time></trkpt><trkpt lat="49.333541648411796" lon="0.9826803699933819"><ele>92.0</ele><time>2026-03-22T17:31:40.998Z</time></trkpt><trkpt lat="49.33357535386603" lon="0.9827730614980043"><ele>94.0</ele><time>2026-03-22T17:31:42.998Z</time></trkpt><trkpt lat="49.33363801642534" lon="0.9828184773218783"><ele>95.99999999999999</ele><time>2026-03-22T17:31:43.998Z</time></trkpt><trkpt lat="49.33357086330577" lon="0.982895393617302"><ele>98.0</ele><time>2026-03-22T17:31:46.998Z</time></trkpt><trkpt lat="49.33349191104391" lon="0.9829212119843137"><ele>98.0</ele><time>2026-03-22T17:31:49.998Z</time></trkpt><trkpt lat="49.33334841420738" lon="0.9828811930892701"><ele>98.0</ele><time>2026-03-22T17:31:51.998Z</time></trkpt><trkpt lat="49.333284919730936" lon="0.9828606740932125"><ele>98.0</ele><time>2026-03-22T17:31:52.998Z</time></trkpt><trkpt lat="49.333199274351124" lon="0.9827921579032465"><ele>98.0</ele><time>2026-03-22T17:31:54.997Z</time></trkpt><trkpt lat="49.333151168526946" lon="0.9827015689528962"><ele>98.0</ele><time>2026-03-22T17:31:58Z</time></trkpt><trkpt lat="49.33311899676638" lon="0.982588692900932"><ele>101.0</ele><time>2026-03-22T17:32:00Z</time></trkpt><trkpt lat="49.332842837923835" lon="0.9821181798598722"><ele>104.0</ele><time>2026-03-22T17:32:03Z</time></trkpt><trkpt lat="49.332767933189565" lon="0.981972409827092"><ele>103.99999999999999</ele><time>2026-03-22T17:32:05Z</time></trkpt><trkpt lat="49.33271369616448" lon="0.9818912684588962"><ele>104.0</ele><time>2026-03-22T17:32:06Z</time></trkpt><trkpt lat="49.33267045044562" lon="0.9818153029011807"><ele>104.0</ele><time>2026-03-22T17:32:07Z</time></trkpt><trkpt lat="49.332627448170555" lon="0.9817438667041043"><ele>104.0</ele><time>2026-03-22T17:32:08Z</time></trkpt><trkpt lat="49.332586288289285" lon="0.9816668781681686"><ele>103.99999999999999</ele><time>2026-03-22T17:32:09Z</time></trkpt><trkpt lat="49.33254765496483" lon="0.9815851299311165"><ele>104.0</ele><time>2026-03-22T17:32:10Z</time></trkpt><trkpt lat="49.33246174820262" lon="0.9814461344601331"><ele>105.6</ele><time>2026-03-22T17:32:12Z</time></trkpt><trkpt lat="49.332410402463516" lon="0.9813728720203075"><ele>107.2</ele><time>2026-03-22T17:32:13Z</time></trkpt><trkpt lat="49.33233939020837" lon="0.9812448839100417"><ele>108.79999999999998</ele><time>2026-03-22T17:32:15Z</time></trkpt><trkpt lat="49.33226650978481" lon="0.9810954510701809"><ele>110.39999999999999</ele><time>2026-03-22T17:32:17Z</time></trkpt><trkpt lat="49.332224595896136" lon="0.9809586400846434"><ele>112.0</ele><time>2026-03-22T17:32:19Z</time></trkpt><trkpt lat="49.33215811859498" lon="0.9809257084688411"><ele>112.0</ele><time>2026-03-22T17:32:22Z</time></trkpt><trkpt lat="49.332078631397486" lon="0.9808924241494988"><ele>112.0</ele><time>2026-03-22T17:32:24Z</time></trkpt><trkpt lat="49.332014483294415" lon="0.9808983771718188"><ele>112.0</ele><time>2026-03-22T17:32:24.999Z</time></trkpt><trkpt lat="49.33194574142879" lon="0.9808879554345528"><ele>112.0</ele><time>2026-03-22T17:32:25.999Z</time></trkpt><trkpt lat="49.33186942354961" lon="0.9808879451395783"><ele>112.0</ele><time>2026-03-22T17:32:27.999Z</time></trkpt><trkpt lat="49.33180389342767" lon="0.9808478353649607"><ele>112.0</ele><time>2026-03-22T17:32:30.999Z</time></trkpt><trkpt lat="49.331754076458566" lon="0.9807540699939368"><ele>112.0</ele><time>2026-03-22T17:32:33.999Z</time></trkpt><trkpt lat="49.33171866641576" lon="0.9806674922535208"><ele>110.39999999999999</ele><time>2026-03-22T17:32:34.999Z</time></trkpt><trkpt lat="49.331688850172334" lon="0.980578241805188"><ele>108.79999999999998</ele><time>2026-03-22T17:32:35.999Z</time></trkpt><trkpt lat="49.33162342982608" lon="0.9804238999496462"><ele>107.2</ele><time>2026-03-22T17:32:37.999Z</time></trkpt><trkpt lat="49.33157810093231" lon="0.9802958757549283"><ele>105.6</ele><time>2026-03-22T17:32:40.999Z</time></trkpt><trkpt lat="49.331529386483574" lon="0.9801235074660021"><ele>104.0</ele><time>2026-03-22T17:32:43.999Z</time></trkpt><trkpt lat="49.33148650074291" lon="0.9800205551923068"><ele>102.0</ele><time>2026-03-22T17:32:45.999Z</time></trkpt><trkpt lat="49.33145133364618" lon="0.9799059472948705"><ele>100.0</ele><time>2026-03-22T17:32:47.999Z</time></trkpt><trkpt lat="49.331410569992684" lon="0.9798174924182462"><ele>98.0</ele><time>2026-03-22T17:32:49.999Z</time></trkpt><trkpt lat="49.331350457842944" lon="0.9797671681656149"><ele>96.0</ele><time>2026-03-22T17:32:51.999Z</time></trkpt><trkpt lat="49.331274176106504" lon="0.9797697588958026"><ele>94.0</ele><time>2026-03-22T17:32:54.999Z</time></trkpt><trkpt lat="49.33121106144069" lon="0.9797767726239911"><ele>92.0</ele><time>2026-03-22T17:32:56.999Z</time></trkpt><trkpt lat="49.33116592238395" lon="0.9798608018554891"><ele>90.0</ele><time>2026-03-22T17:32:59.999Z</time></trkpt><trkpt lat="49.3311641757147" lon="0.9800126318056297"><ele>92.5</ele><time>2026-03-22T17:33:03.999Z</time></trkpt><trkpt lat="49.33116680953089" lon="0.9801242719913177"><ele>95.0</ele><time>2026-03-22T17:33:05.999Z</time></trkpt><trkpt lat="49.33113219617033" lon="0.9802343197293475"><ele>97.5</ele><time>2026-03-22T17:33:08.999Z</time></trkpt><trkpt lat="49.33116716054115" lon="0.9803540691343178"><ele>100.0</ele><time>2026-03-22T17:33:10.999Z</time></trkpt><trkpt lat="49.33121824743828" lon="0.9804627399477454"><ele>102.5</ele><time>2026-03-22T17:33:12.998Z</time></trkpt><trkpt lat="49.331220455098496" lon="0.9806292811514822"><ele>105.0</ele><time>2026-03-22T17:33:14.998Z</time></trkpt><trkpt lat="49.331193890443245" lon="0.980806773541815"><ele>106.6</ele><time>2026-03-22T17:33:16.998Z</time></trkpt><trkpt lat="49.33117532081369" lon="0.980972384372021"><ele>108.2</ele><time>2026-03-22T17:33:18.998Z</time></trkpt><trkpt lat="49.33115754728685" lon="0.9811515762328599"><ele>109.80000000000001</ele><time>2026-03-22T17:33:20.998Z</time></trkpt><trkpt lat="49.331104007801684" lon="0.9812818545060434"><ele>111.4</ele><time>2026-03-22T17:33:23.998Z</time></trkpt><trkpt lat="49.33106790791014" lon="0.9813793098888414"><ele>113.0</ele><time>2026-03-22T17:33:25.998Z</time></trkpt><trkpt lat="49.33101781761317" lon="0.9815245028372179"><ele>113.0</ele><time>2026-03-22T17:33:27.998Z</time></trkpt><trkpt lat="49.33099535806314" lon="0.9816817925259138"><ele>113.00000000000001</ele><time>2026-03-22T17:33:29.998Z</time></trkpt><trkpt lat="49.33101486875731" lon="0.9818685553205557"><ele>113.00000000000001</ele><time>2026-03-22T17:33:31.998Z</time></trkpt><trkpt lat="49.33102163870075" lon="0.9819879947230447"><ele>113.0</ele><time>2026-03-22T17:33:32.998Z</time></trkpt><trkpt lat="49.33101935639726" lon="0.9820976834267088"><ele>113.0</ele><time>2026-03-22T17:33:33.998Z</time></trkpt><trkpt lat="49.331011851231025" lon="0.9822403120310684"><ele>113.83333333333333</ele><time>2026-03-22T17:33:34.998Z</time></trkpt><trkpt lat="49.331017004798866" lon="0.9823810053779682"><ele>114.66666666666666</ele><time>2026-03-22T17:33:35.998Z</time></trkpt><trkpt lat="49.331017633309855" lon="0.982493718264137"><ele>115.5</ele><time>2026-03-22T17:33:36.998Z</time></trkpt><trkpt lat="49.33100821715782" lon="0.9826434071888817"><ele>116.33333333333334</ele><time>2026-03-22T17:33:38.998Z</time></trkpt><trkpt lat="49.33096237362193" lon="0.9827365776390489"><ele>117.16666666666667</ele><time>2026-03-22T17:33:42.998Z</time></trkpt><trkpt lat="49.330989452050595" lon="0.9828519484522965"><ele>118.0</ele><time>2026-03-22T17:33:46.998Z</time></trkpt><trkpt lat="49.33097198760365" lon="0.9829702181263565"><ele>118.00000000000001</ele><time>2026-03-22T17:33:50.998Z</time></trkpt><trkpt lat="49.33097693450519" lon="0.9831574686828891"><ele>118.0</ele><time>2026-03-22T17:33:52.998Z</time></trkpt><trkpt lat="49.331011295440106" lon="0.9832733870031263"><ele>118.0</ele><time>2026-03-22T17:33:54.998Z</time></trkpt><trkpt lat="49.33106264501131" lon="0.9833888104962678"><ele>118.0</ele><time>2026-03-22T17:33:56.998Z</time></trkpt><trkpt lat="49.33108549485182" lon="0.9834960341095762"><ele>118.00000000000001</ele><time>2026-03-22T17:33:58.997Z</time></trkpt><trkpt lat="49.33110129019419" lon="0.9835896852811925"><ele>118.0</ele><time>2026-03-22T17:34:00.997Z</time></trkpt><trkpt lat="49.331048047316365" lon="0.9836498132790762"><ele>118.16666666666667</ele><time>2026-03-22T17:34:04Z</time></trkpt><trkpt lat="49.33097776408178" lon="0.9837355153207143"><ele>118.33333333333334</ele><time>2026-03-22T17:39:54.998Z</time></trkpt><trkpt lat="49.33090703211086" lon="0.9837560038142459"><ele>118.5</ele><time>2026-03-22T17:41:09.999Z</time></trkpt><trkpt lat="49.33095209851405" lon="0.9838766790590031"><ele>118.66666666666666</ele><time>2026-03-22T17:41:12.999Z</time></trkpt><trkpt lat="49.3309898816466" lon="0.9839767312021611"><ele>118.83333333333333</ele><time>2026-03-22T17:41:15.999Z</time></trkpt><trkpt lat="49.330950300596726" lon="0.9840746434036277"><ele>119.0</ele><time>2026-03-22T17:41:19.998Z</time></trkpt><trkpt lat="49.33093195999525" lon="0.9841854726455368"><ele>119.0</ele><time>2026-03-22T17:41:22.998Z</time></trkpt><trkpt lat="49.330956492541404" lon="0.9843282288711099"><ele>119.0</ele><time>2026-03-22T17:41:25.998Z</time></trkpt><trkpt lat="49.330996369386575" lon="0.9844111207253455"><ele>119.0</ele><time>2026-03-22T17:41:27.998Z</time></trkpt><trkpt lat="49.33102746519222" lon="0.9845010110343354"><ele>119.0</ele><time>2026-03-22T17:41:29.998Z</time></trkpt><trkpt lat="49.33102647489549" lon="0.9846065184478228"><ele>119.0</ele><time>2026-03-22T17:41:31.998Z</time></trkpt><trkpt lat="49.33102447476288" lon="0.9847041824183628"><ele>119.0</ele><time>2026-03-22T17:41:33.998Z</time></trkpt><trkpt lat="49.33101231510337" lon="0.98481614978453"><ele>119.0</ele><time>2026-03-22T17:41:36.998Z</time></trkpt><trkpt lat="49.33097091083676" lon="0.9849138308920853"><ele>119.33333333333333</ele><time>2026-03-22T17:41:39.998Z</time></trkpt><trkpt lat="49.33094767420461" lon="0.9850439020204924"><ele>119.66666666666666</ele><time>2026-03-22T17:41:42.998Z</time></trkpt><trkpt lat="49.33092780101018" lon="0.9851647422246402"><ele>120.0</ele><time>2026-03-22T17:41:45.998Z</time></trkpt><trkpt lat="49.33093383743679" lon="0.9852678003765942"><ele>120.33333333333334</ele><time>2026-03-22T17:41:47.998Z</time></trkpt><trkpt lat="49.330898563468615" lon="0.985372385624945"><ele>120.66666666666667</ele><time>2026-03-22T17:41:49.998Z</time></trkpt><trkpt lat="49.33088487017607" lon="0.9854718684020948"><ele>121.0</ele><time>2026-03-22T17:41:50.998Z</time></trkpt><trkpt lat="49.33085106927885" lon="0.9856159371929633"><ele>121.00000000000001</ele><time>2026-03-22T17:41:52.998Z</time></trkpt><trkpt lat="49.330818876150715" lon="0.9857420889884062"><ele>121.0</ele><time>2026-03-22T17:41:55.998Z</time></trkpt><trkpt lat="49.33081765755834" lon="0.9858726630054203"><ele>121.0</ele><time>2026-03-22T17:41:58.998Z</time></trkpt><trkpt lat="49.33081257442614" lon="0.9859819024409985"><ele>121.0</ele><time>2026-03-22T17:42:00.998Z</time></trkpt><trkpt lat="49.33081537218571" lon="0.9860847967580201"><ele>121.00000000000001</ele><time>2026-03-22T17:42:02.998Z</time></trkpt><trkpt lat="49.33081941736634" lon="0.9861940354219684"><ele>121.0</ele><time>2026-03-22T17:42:04.998Z</time></trkpt><trkpt lat="49.33086012405969" lon="0.986314798822572"><ele>120.83333333333334</ele><time>2026-03-22T17:42:08.998Z</time></trkpt><trkpt lat="49.330854820259624" lon="0.9864501547777669"><ele>120.66666666666667</ele><time>2026-03-22T17:42:11.997Z</time></trkpt><trkpt lat="49.330841029761025" lon="0.9865772361516059"><ele>120.5</ele><time>2026-03-22T17:42:13.997Z</time></trkpt><trkpt lat="49.33084215234009" lon="0.986717915777695"><ele>120.33333333333334</ele><time>2026-03-22T17:42:15.997Z</time></trkpt><trkpt lat="49.330833890698976" lon="0.986829927517686"><ele>120.16666666666667</ele><time>2026-03-22T17:42:17.997Z</time></trkpt><trkpt lat="49.330855836966066" lon="0.9869372508040432"><ele>120.0</ele><time>2026-03-22T17:42:19.997Z</time></trkpt><trkpt lat="49.330846792861756" lon="0.9870522077394921"><ele>120.4</ele><time>2026-03-22T17:42:21.997Z</time></trkpt><trkpt lat="49.330821288597676" lon="0.9871457565451318"><ele>120.8</ele><time>2026-03-22T17:42:23.997Z</time></trkpt><trkpt lat="49.33076826043763" lon="0.9872427239639449"><ele>121.19999999999999</ele><time>2026-03-22T17:42:25.997Z</time></trkpt><trkpt lat="49.330708057021006" lon="0.9873365769893387"><ele>121.6</ele><time>2026-03-22T17:42:27.999Z</time></trkpt><trkpt lat="49.33058780286807" lon="0.9874362298938058"><ele>122.0</ele><time>2026-03-22T17:42:29.999Z</time></trkpt><trkpt lat="49.330497667856015" lon="0.9875019054942455"><ele>123.19999999999999</ele><time>2026-03-22T17:42:30.999Z</time></trkpt><trkpt lat="49.330414898547794" lon="0.987587600142556"><ele>124.39999999999999</ele><time>2026-03-22T17:42:31.999Z</time></trkpt><trkpt lat="49.33030962334671" lon="0.9876668567137784"><ele>125.60000000000001</ele><time>2026-03-22T17:42:32.999Z</time></trkpt><trkpt lat="49.33020864878733" lon="0.9877525677703933"><ele>126.80000000000001</ele><time>2026-03-22T17:42:33.999Z</time></trkpt><trkpt lat="49.33011373674385" lon="0.9878238773133574"><ele>128.0</ele><time>2026-03-22T17:42:34.999Z</time></trkpt><trkpt lat="49.330014823618626" lon="0.9878985451347928"><ele>127.99999999999999</ele><time>2026-03-22T17:42:35.999Z</time></trkpt><trkpt lat="49.329934964910684" lon="0.9879690653196415"><ele>128.0</ele><time>2026-03-22T17:42:36.999Z</time></trkpt><trkpt lat="49.32988253550395" lon="0.9880261571107258"><ele>128.0</ele><time>2026-03-22T17:42:37.999Z</time></trkpt><trkpt lat="49.32981541320827" lon="0.9880835591256407"><ele>128.0</ele><time>2026-03-22T17:42:38.999Z</time></trkpt><trkpt lat="49.329723026260034" lon="0.9881372305276116"><ele>127.99999999999999</ele><time>2026-03-22T17:42:39.999Z</time></trkpt><trkpt lat="49.329658320350916" lon="0.9881852964752849"><ele>128.0</ele><time>2026-03-22T17:42:40.999Z</time></trkpt><trkpt lat="49.32957557100209" lon="0.988257060536069"><ele>127.99999999999999</ele><time>2026-03-22T17:42:42.999Z</time></trkpt><trkpt lat="49.32951913171672" lon="0.98830299456429"><ele>128.0</ele><time>2026-03-22T17:42:44.999Z</time></trkpt><trkpt lat="49.32945530365077" lon="0.9883003413636238"><ele>128.0</ele><time>2026-03-22T17:42:47.999Z</time></trkpt><trkpt lat="49.32957908740112" lon="0.9882775070994682"><ele>128.0</ele><time>2026-03-22T17:44:19.998Z</time></trkpt><trkpt lat="49.329641290604044" lon="0.9882287625130882"><ele>127.99999999999999</ele><time>2026-03-22T17:44:20.998Z</time></trkpt><trkpt lat="49.32972377694551" lon="0.9881569451893923"><ele>128.0</ele><time>2026-03-22T17:44:21.998Z</time></trkpt><trkpt lat="49.329808815096136" lon="0.9881076323131267"><ele>127.99999999999999</ele><time>2026-03-22T17:44:22.998Z</time></trkpt><trkpt lat="49.32987285174591" lon="0.9880545816175206"><ele>128.0</ele><time>2026-03-22T17:44:23.998Z</time></trkpt><trkpt lat="49.32994607696495" lon="0.9880010703752133"><ele>128.0</ele><time>2026-03-22T17:44:24.998Z</time></trkpt><trkpt lat="49.33002120280156" lon="0.9879366216758833"><ele>128.0</ele><time>2026-03-22T17:44:25.998Z</time></trkpt><trkpt lat="49.33010084329641" lon="0.9878749438013871"><ele>127.99999999999999</ele><time>2026-03-22T17:44:26.997Z</time></trkpt><trkpt lat="49.33017179213813" lon="0.9878026078139812"><ele>128.0</ele><time>2026-03-22T17:44:27.997Z</time></trkpt><trkpt lat="49.3302418245175" lon="0.9877344898639094"><ele>127.99999999999999</ele><time>2026-03-22T17:44:28.997Z</time></trkpt><trkpt lat="49.33030974669451" lon="0.9876836010938105"><ele>128.0</ele><time>2026-03-22T17:44:29.997Z</time></trkpt><trkpt lat="49.330366006875" lon="0.9876312642927522"><ele>128.0</ele><time>2026-03-22T17:44:30.997Z</time></trkpt><trkpt lat="49.33042526868081" lon="0.9875691435596616"><ele>128.0</ele><time>2026-03-22T17:44:31.997Z</time></trkpt><trkpt lat="49.330499653366154" lon="0.9875016044954906"><ele>127.99999999999999</ele><time>2026-03-22T17:44:33Z</time></trkpt><trkpt lat="49.33055725809896" lon="0.9874531677071892"><ele>128.0</ele><time>2026-03-22T17:44:34Z</time></trkpt><trkpt lat="49.3306630577866" lon="0.9873948146798551"><ele>126.80000000000001</ele><time>2026-03-22T17:44:36Z</time></trkpt><trkpt lat="49.3307468915476" lon="0.9873297476671945"><ele>125.60000000000001</ele><time>2026-03-22T17:44:38Z</time></trkpt><trkpt lat="49.33087752042718" lon="0.9872582496567767"><ele>124.39999999999999</ele><time>2026-03-22T17:44:40Z</time></trkpt><trkpt lat="49.33094311216521" lon="0.9872151788079082"><ele>123.19999999999999</ele><time>2026-03-22T17:44:41Z</time></trkpt><trkpt lat="49.33102059290371" lon="0.987170969566628"><ele>122.0</ele><time>2026-03-22T17:44:42Z</time></trkpt><trkpt lat="49.331101338021725" lon="0.9871076625002203"><ele>122.0</ele><time>2026-03-22T17:44:43Z</time></trkpt><trkpt lat="49.33119433882934" lon="0.9870165167456685"><ele>121.99999999999999</ele><time>2026-03-22T17:44:44Z</time></trkpt><trkpt lat="49.33130465794041" lon="0.9869420824964192"><ele>121.99999999999999</ele><time>2026-03-22T17:44:45Z</time></trkpt><trkpt lat="49.33139208879796" lon="0.9868962243168206"><ele>122.0</ele><time>2026-03-22T17:44:46Z</time></trkpt><trkpt lat="49.33146938047662" lon="0.9868396723698708"><ele>122.0</ele><time>2026-03-22T17:44:47Z</time></trkpt><trkpt lat="49.33153337958743" lon="0.9867740720129354"><ele>122.39999999999999</ele><time>2026-03-22T17:44:48Z</time></trkpt><trkpt lat="49.33160388254208" lon="0.9866965588677091"><ele>122.79999999999998</ele><time>2026-03-22T17:44:49Z</time></trkpt><trkpt lat="49.33170545817866" lon="0.9866086882833065"><ele>123.2</ele><time>2026-03-22T17:44:50Z</time></trkpt><trkpt lat="49.33180696236104" lon="0.9865240184180593"><ele>123.6</ele><time>2026-03-22T17:44:51Z</time></trkpt><trkpt lat="49.33189737881384" lon="0.9864482979804783"><ele>124.0</ele><time>2026-03-22T17:44:52Z</time></trkpt><trkpt lat="49.33197518189223" lon="0.986381321530623"><ele>124.0</ele><time>2026-03-22T17:44:53Z</time></trkpt><trkpt lat="49.332031928825046" lon="0.9863351946247478"><ele>124.0</ele><time>2026-03-22T17:44:53.999Z</time></trkpt><trkpt lat="49.33209826773169" lon="0.9862885645708"><ele>124.0</ele><time>2026-03-22T17:44:54.999Z</time></trkpt><trkpt lat="49.33218979109922" lon="0.9862190658689886"><ele>124.0</ele><time>2026-03-22T17:44:55.999Z</time></trkpt><trkpt lat="49.33229339169046" lon="0.9861391052500099"><ele>124.0</ele><time>2026-03-22T17:44:56.999Z</time></trkpt><trkpt lat="49.33237788144727" lon="0.9860702071122919"><ele>124.6</ele><time>2026-03-22T17:44:57.999Z</time></trkpt><trkpt lat="49.332472462289594" lon="0.9859890803492114"><ele>125.2</ele><time>2026-03-22T17:44:58.999Z</time></trkpt><trkpt lat="49.33256575708987" lon="0.9859089148512629"><ele>125.79999999999998</ele><time>2026-03-22T17:44:59.999Z</time></trkpt><trkpt lat="49.332629581754865" lon="0.9858540727391787"><ele>126.39999999999999</ele><time>2026-03-22T17:45:00.999Z</time></trkpt><trkpt lat="49.332693431670606" lon="0.9858025426818688"><ele>127.0</ele><time>2026-03-22T17:45:01.999Z</time></trkpt><trkpt lat="49.33277378629866" lon="0.9857430202239686"><ele>127.16666666666667</ele><time>2026-03-22T17:45:02.999Z</time></trkpt><trkpt lat="49.33285796274094" lon="0.9856823169487259"><ele>127.33333333333334</ele><time>2026-03-22T17:45:03.999Z</time></trkpt><trkpt lat="49.332935432281964" lon="0.9856304757147625"><ele>127.5</ele><time>2026-03-22T17:45:04.999Z</time></trkpt><trkpt lat="49.33300140374778" lon="0.9855990412867696"><ele>127.66666666666666</ele><time>2026-03-22T17:45:05.999Z</time></trkpt><trkpt lat="49.33310811219984" lon="0.9855496634518468"><ele>127.83333333333333</ele><time>2026-03-22T17:45:07.999Z</time></trkpt><trkpt lat="49.333194588225396" lon="0.9855126325509055"><ele>128.0</ele><time>2026-03-22T17:45:09.999Z</time></trkpt><trkpt lat="49.33327195968631" lon="0.9854933024540857"><ele>128.20000000000002</ele><time>2026-03-22T17:45:11.999Z</time></trkpt><trkpt lat="49.333330974146115" lon="0.9856130953620158"><ele>128.4</ele><time>2026-03-22T17:45:14.999Z</time></trkpt><trkpt lat="49.333359292564964" lon="0.985703291027769"><ele>128.60000000000002</ele><time>2026-03-22T17:45:16.999Z</time></trkpt><trkpt lat="49.33339379649866" lon="0.985813184491943"><ele>128.8</ele><time>2026-03-22T17:45:17.999Z</time></trkpt><trkpt lat="49.333458349226824" lon="0.9860187629233984"><ele>129.0</ele><time>2026-03-22T17:45:20.999Z</time></trkpt><trkpt lat="49.33349377006746" lon="0.9861325290464047"><ele>129.0</ele><time>2026-03-22T17:45:23.999Z</time></trkpt><trkpt lat="49.333459281374346" lon="0.9860217568320438"><ele>129.0</ele><time>2026-03-22T17:45:29.999Z</time></trkpt><trkpt lat="49.33341676044352" lon="0.9858863235653378"><ele>129.0</ele><time>2026-03-22T17:45:32.999Z</time></trkpt><trkpt lat="49.333371061509084" lon="0.985740774751883"><ele>129.0</ele><time>2026-03-22T17:45:34.999Z</time></trkpt><trkpt lat="49.33336219491244" lon="0.9856086227862915"><ele>129.0</ele><time>2026-03-22T17:45:37.999Z</time></trkpt><trkpt lat="49.33354650328031" lon="0.9854745356621761"><ele>129.0</ele><time>2026-03-22T17:45:38.999Z</time></trkpt><trkpt lat="49.333602045907334" lon="0.985422584389891"><ele>129.0</ele><time>2026-03-22T17:45:39.999Z</time></trkpt><trkpt lat="49.33368707762417" lon="0.9853078171539328"><ele>129.0</ele><time>2026-03-22T17:45:41.999Z</time></trkpt><trkpt lat="49.33375621127829" lon="0.985273741640763"><ele>129.0</ele><time>2026-03-22T17:45:42.999Z</time></trkpt><trkpt lat="49.333817959067424" lon="0.9852152261899149"><ele>129.0</ele><time>2026-03-22T17:45:43.999Z</time></trkpt><trkpt lat="49.333953967873654" lon="0.9851413081679553"><ele>129.2</ele><time>2026-03-22T17:45:45.998Z</time></trkpt><trkpt lat="49.334044206549095" lon="0.9850715573316656"><ele>129.4</ele><time>2026-03-22T17:45:46.998Z</time></trkpt><trkpt lat="49.33414184756216" lon="0.985012656347975"><ele>129.6</ele><time>2026-03-22T17:45:47.998Z</time></trkpt><trkpt lat="49.334211903645894" lon="0.9849649824913088"><ele>129.8</ele><time>2026-03-22T17:45:48.998Z</time></trkpt><trkpt lat="49.33427246337332" lon="0.9849157842127846"><ele>130.0</ele><time>2026-03-22T17:45:49.998Z</time></trkpt><trkpt lat="49.33439174045839" lon="0.9848268602764231"><ele>128.4</ele><time>2026-03-22T17:45:51.998Z</time></trkpt><trkpt lat="49.33449450880489" lon="0.9847558265519873"><ele>126.8</ele><time>2026-03-22T17:45:53.998Z</time></trkpt><trkpt lat="49.334582214647334" lon="0.9847134747250696"><ele>125.19999999999999</ele><time>2026-03-22T17:45:55.998Z</time></trkpt><trkpt lat="49.33464226946489" lon="0.984656402912162"><ele>123.6</ele><time>2026-03-22T17:45:58.998Z</time></trkpt><trkpt lat="49.3347294811066" lon="0.9845572234765916"><ele>122.0</ele><time>2026-03-22T17:46:01.998Z</time></trkpt><trkpt lat="49.33479241517049" lon="0.9844832970249333"><ele>121.33333333333333</ele><time>2026-03-22T17:46:04.998Z</time></trkpt><trkpt lat="49.33511469083204" lon="0.9843309645535175"><ele>120.66666666666666</ele><time>2026-03-22T17:46:06.998Z</time></trkpt><trkpt lat="49.33520704399969" lon="0.9842799385719558"><ele>120.0</ele><time>2026-03-22T17:46:08.998Z</time></trkpt><trkpt lat="49.335275960670785" lon="0.9842231640552338"><ele>119.16666666666667</ele><time>2026-03-22T17:46:10.998Z</time></trkpt><trkpt lat="49.33533125598368" lon="0.984168984099851"><ele>118.33333333333334</ele><time>2026-03-22T17:46:12.998Z</time></trkpt><trkpt lat="49.33538412851727" lon="0.9841109274508819"><ele>117.5</ele><time>2026-03-22T17:46:14.998Z</time></trkpt><trkpt lat="49.335451559779955" lon="0.984048092782962"><ele>116.66666666666667</ele><time>2026-03-22T17:46:16.998Z</time></trkpt><trkpt lat="49.3355440522515" lon="0.9839977409275217"><ele>115.83333333333334</ele><time>2026-03-22T17:46:18.998Z</time></trkpt><trkpt lat="49.33564985187699" lon="0.9839328580456537"><ele>115.0</ele><time>2026-03-22T17:46:20.998Z</time></trkpt><trkpt lat="49.33571434407628" lon="0.9838893975606354"><ele>115.0</ele><time>2026-03-22T17:46:21.998Z</time></trkpt><trkpt lat="49.33578909592627" lon="0.9838393406030054"><ele>115.0</ele><time>2026-03-22T17:46:22.998Z</time></trkpt><trkpt lat="49.3358764383366" lon="0.983773951519266"><ele>115.0</ele><time>2026-03-22T17:46:23.998Z</time></trkpt><trkpt lat="49.33596901014398" lon="0.9836813084143088"><ele>115.0</ele><time>2026-03-22T17:46:24.998Z</time></trkpt><trkpt lat="49.33607208248797" lon="0.9836116319623691"><ele>115.0</ele><time>2026-03-22T17:46:25.998Z</time></trkpt><trkpt lat="49.336174912342706" lon="0.9835405716106015"><ele>115.0</ele><time>2026-03-22T17:46:26.998Z</time></trkpt><trkpt lat="49.336259362331525" lon="0.9834722954098666"><ele>115.0</ele><time>2026-03-22T17:46:27.998Z</time></trkpt><trkpt lat="49.33632407936216" lon="0.9834320582460679"><ele>115.0</ele><time>2026-03-22T17:46:28.998Z</time></trkpt><trkpt lat="49.33640419503036" lon="0.9833966996534828"><ele>115.0</ele><time>2026-03-22T17:46:29.998Z</time></trkpt><trkpt lat="49.33646270616527" lon="0.983335874848662"><ele>115.0</ele><time>2026-03-22T17:46:30.998Z</time></trkpt><trkpt lat="49.33660494402751" lon="0.9832642047003572"><ele>118.0</ele><time>2026-03-22T17:46:32.998Z</time></trkpt><trkpt lat="49.33668928245868" lon="0.9831938524933423"><ele>121.0</ele><time>2026-03-22T17:46:33.998Z</time></trkpt><trkpt lat="49.33680559042765" lon="0.9831094253414694"><ele>124.0</ele><time>2026-03-22T17:46:34.998Z</time></trkpt><trkpt lat="49.33691285047588" lon="0.9830415092743883"><ele>127.0</ele><time>2026-03-22T17:46:35.998Z</time></trkpt><trkpt lat="49.33704480580767" lon="0.9829839528995736"><ele>127.00000000000001</ele><time>2026-03-22T17:46:36.998Z</time></trkpt><trkpt lat="49.337150185430815" lon="0.9829011367489114"><ele>127.0</ele><time>2026-03-22T17:46:37.998Z</time></trkpt><trkpt lat="49.33721260298641" lon="0.9828865595092773"><ele>127.0</ele><time>2026-03-22T17:46:39Z</time></trkpt><trkpt lat="49.33718597231002" lon="0.9827609193005057"><ele>127.0</ele><time>2026-03-22T17:46:42Z</time></trkpt><trkpt lat="49.33716524757069" lon="0.9826279037461737"><ele>127.00000000000001</ele><time>2026-03-22T17:46:44Z</time></trkpt><trkpt lat="49.337138510085005" lon="0.982512661357518"><ele>127.0</ele><time>2026-03-22T17:46:47Z</time></trkpt><trkpt lat="49.33710007044085" lon="0.9823179540986261"><ele>127.33333333333334</ele><time>2026-03-22T17:47:44.999Z</time></trkpt><trkpt lat="49.337072167676965" lon="0.9822203754546934"><ele>127.66666666666667</ele><time>2026-03-22T17:47:45.999Z</time></trkpt><trkpt lat="49.337057584614726" lon="0.9821232202696794"><ele>128.0</ele><time>2026-03-22T17:47:46.999Z</time></trkpt><trkpt lat="49.33700142864495" lon="0.9820193860990424"><ele>128.33333333333334</ele><time>2026-03-22T17:47:47.999Z</time></trkpt><trkpt lat="49.336968176581884" lon="0.981936180119883"><ele>128.66666666666666</ele><time>2026-03-22T17:47:48.999Z</time></trkpt><trkpt lat="49.33692085898219" lon="0.9818048466235447"><ele>129.0</ele><time>2026-03-22T17:47:49.999Z</time></trkpt><trkpt lat="49.336891708675026" lon="0.9816999018009899"><ele>129.8</ele><time>2026-03-22T17:47:50.999Z</time></trkpt><trkpt lat="49.33685109443263" lon="0.9815877875650869"><ele>130.60000000000002</ele><time>2026-03-22T17:47:51.999Z</time></trkpt><trkpt lat="49.336786427072816" lon="0.9814355257725382"><ele>131.4</ele><time>2026-03-22T17:47:53.998Z</time></trkpt><trkpt lat="49.33673289364769" lon="0.9812793145581544"><ele>132.20000000000002</ele><time>2026-03-22T17:47:55.998Z</time></trkpt><trkpt lat="49.33668779349901" lon="0.9811416145674418"><ele>133.0</ele><time>2026-03-22T17:47:57.998Z</time></trkpt><trkpt lat="49.33662534057981" lon="0.9809778676848347"><ele>133.0</ele><time>2026-03-22T17:47:59.998Z</time></trkpt><trkpt lat="49.336594450994916" lon="0.9808835836908726"><ele>133.0</ele><time>2026-03-22T17:48:00.998Z</time></trkpt><trkpt lat="49.33656379722154" lon="0.9807886478455096"><ele>133.0</ele><time>2026-03-22T17:48:01.998Z</time></trkpt><trkpt lat="49.33650977432118" lon="0.9806339291669376"><ele>133.0</ele><time>2026-03-22T17:48:03.998Z</time></trkpt><trkpt lat="49.336462141557234" lon="0.9804795882313336"><ele>133.0</ele><time>2026-03-22T17:48:05.998Z</time></trkpt><trkpt lat="49.33641572164205" lon="0.9803346918255358"><ele>131.8</ele><time>2026-03-22T17:48:07.998Z</time></trkpt><trkpt lat="49.336357657374556" lon="0.9801875922685314"><ele>130.60000000000002</ele><time>2026-03-22T17:48:09.998Z</time></trkpt><trkpt lat="49.336325593474" lon="0.9800783085885175"><ele>129.39999999999998</ele><time>2026-03-22T17:48:10.998Z</time></trkpt><trkpt lat="49.33627039227894" lon="0.9799242858155652"><ele>128.2</ele><time>2026-03-22T17:48:12.998Z</time></trkpt><trkpt lat="49.336214444614555" lon="0.9797835673302413"><ele>127.0</ele><time>2026-03-22T17:48:14.998Z</time></trkpt><trkpt lat="49.33616386737847" lon="0.9796307600280012"><ele>127.0</ele><time>2026-03-22T17:48:16.998Z</time></trkpt><trkpt lat="49.33610566990288" lon="0.9794841964787171"><ele>126.99999999999999</ele><time>2026-03-22T17:48:18.998Z</time></trkpt><trkpt lat="49.336055367418325" lon="0.9793314342258818"><ele>126.99999999999999</ele><time>2026-03-22T17:48:20.998Z</time></trkpt><trkpt lat="49.33601795415505" lon="0.9791970119932487"><ele>127.0</ele><time>2026-03-22T17:48:22.998Z</time></trkpt><trkpt lat="49.33597210162267" lon="0.9790621923676271"><ele>127.0</ele><time>2026-03-22T17:48:24.998Z</time></trkpt><trkpt lat="49.335937453221675" lon="0.9789238129935267"><ele>126.19999999999999</ele><time>2026-03-22T17:48:26.998Z</time></trkpt><trkpt lat="49.33591216416752" lon="0.978793143062453"><ele>125.39999999999999</ele><time>2026-03-22T17:48:28.998Z</time></trkpt><trkpt lat="49.33590590362223" lon="0.9786539761718523"><ele>124.60000000000001</ele><time>2026-03-22T17:48:30.998Z</time></trkpt><trkpt lat="49.33593166108092" lon="0.978529883242746"><ele>123.80000000000001</ele><time>2026-03-22T17:48:32.998Z</time></trkpt><trkpt lat="49.33597386702002" lon="0.9784028984122082"><ele>123.0</ele><time>2026-03-22T17:48:34.998Z</time></trkpt><trkpt lat="49.33603579522884" lon="0.9782904988509912"><ele>122.33333333333333</ele><time>2026-03-22T17:48:36.998Z</time></trkpt><trkpt lat="49.33611149818693" lon="0.9782025321074308"><ele>121.66666666666666</ele><time>2026-03-22T17:48:38.998Z</time></trkpt><trkpt lat="49.33618693798728" lon="0.9781391621637052"><ele>121.0</ele><time>2026-03-22T17:48:40.998Z</time></trkpt><trkpt lat="49.336256168132216" lon="0.9781136737357122"><ele>120.33333333333333</ele><time>2026-03-22T17:48:42.998Z</time></trkpt><trkpt lat="49.336351920690944" lon="0.978101209477821"><ele>119.66666666666666</ele><time>2026-03-22T17:48:45Z</time></trkpt><trkpt lat="49.33644527680823" lon="0.9781190406578029"><ele>119.0</ele><time>2026-03-22T17:48:47Z</time></trkpt><trkpt lat="49.336522552684" lon="0.9781455792803495"><ele>119.0</ele><time>2026-03-22T17:48:49Z</time></trkpt><trkpt lat="49.336611488073586" lon="0.9781588958375298"><ele>119.0</ele><time>2026-03-22T17:48:51Z</time></trkpt><trkpt lat="49.3366913744015" lon="0.9781662615610021"><ele>119.0</ele><time>2026-03-22T17:48:53Z</time></trkpt><trkpt lat="49.33680032967545" lon="0.9781822437360498"><ele>119.0</ele><time>2026-03-22T17:48:55Z</time></trkpt><trkpt lat="49.336931595853464" lon="0.9781983288854149"><ele>119.0</ele><time>2026-03-22T17:48:57Z</time></trkpt><trkpt lat="49.33705008054667" lon="0.978202086173243"><ele>118.99999999999999</ele><time>2026-03-22T17:48:58Z</time></trkpt><trkpt lat="49.337149600875534" lon="0.978211631727729"><ele>119.0</ele><time>2026-03-22T17:48:59Z</time></trkpt><trkpt lat="49.337233174858554" lon="0.9782014243867951"><ele>119.0</ele><time>2026-03-22T17:49:00Z</time></trkpt><trkpt lat="49.337300867400685" lon="0.9782042330781224"><ele>119.0</ele><time>2026-03-22T17:49:01Z</time></trkpt><trkpt lat="49.337409467609824" lon="0.9782022188927029"><ele>118.99999999999999</ele><time>2026-03-22T17:49:03Z</time></trkpt><trkpt lat="49.33747296576815" lon="0.9781839330622121"><ele>119.0</ele><time>2026-03-22T17:49:04Z</time></trkpt><trkpt lat="49.33753762433915" lon="0.978134549316948"><ele>118.33333333333333</ele><time>2026-03-22T17:49:05Z</time></trkpt><trkpt lat="49.337581598847365" lon="0.9780591603863937"><ele>117.66666666666666</ele><time>2026-03-22T17:49:06Z</time></trkpt><trkpt lat="49.337611174095194" lon="0.9779695000623889"><ele>117.0</ele><time>2026-03-22T17:49:07Z</time></trkpt><trkpt lat="49.337628647105774" lon="0.9778684602537058"><ele>116.33333333333334</ele><time>2026-03-22T17:49:08Z</time></trkpt><trkpt lat="49.33767430204258" lon="0.977705915689006"><ele>115.66666666666667</ele><time>2026-03-22T17:49:09.999Z</time></trkpt><trkpt lat="49.33769988588357" lon="0.9775483298766016"><ele>115.0</ele><time>2026-03-22T17:49:11.999Z</time></trkpt><trkpt lat="49.33772021681555" lon="0.9774205480840484"><ele>114.83333333333334</ele><time>2026-03-22T17:49:13.999Z</time></trkpt><trkpt lat="49.3377207168277" lon="0.9773201879527391"><ele>114.66666666666667</ele><time>2026-03-22T17:49:14.999Z</time></trkpt><trkpt lat="49.33773586709482" lon="0.9771814268731909"><ele>114.5</ele><time>2026-03-22T17:49:15.999Z</time></trkpt><trkpt lat="49.33774650249853" lon="0.9770428066500665"><ele>114.33333333333334</ele><time>2026-03-22T17:49:16.999Z</time></trkpt><trkpt lat="49.33773423918418" lon="0.9769108551928267"><ele>114.16666666666667</ele><time>2026-03-22T17:49:17.999Z</time></trkpt><trkpt lat="49.337696668258744" lon="0.9767854280196039"><ele>114.0</ele><time>2026-03-22T17:49:18.999Z</time></trkpt><trkpt lat="49.337630046291785" lon="0.976675342434933"><ele>114.0</ele><time>2026-03-22T17:49:19.999Z</time></trkpt><trkpt lat="49.33754759051952" lon="0.9765895164992947"><ele>114.0</ele><time>2026-03-22T17:49:20.999Z</time></trkpt><trkpt lat="49.33746836680012" lon="0.9765176664752051"><ele>114.0</ele><time>2026-03-22T17:49:21.999Z</time></trkpt><trkpt lat="49.33739840090698" lon="0.976441007766113"><ele>114.0</ele><time>2026-03-22T17:49:22.999Z</time></trkpt><trkpt lat="49.33734372200742" lon="0.9763461644323977"><ele>114.0</ele><time>2026-03-22T17:49:23.999Z</time></trkpt><trkpt lat="49.33731464478773" lon="0.9762399620043684"><ele>114.0</ele><time>2026-03-22T17:49:24.999Z</time></trkpt><trkpt lat="49.337302641722175" lon="0.976130854722015"><ele>114.0</ele><time>2026-03-22T17:49:25.999Z</time></trkpt><trkpt lat="49.33729895824857" lon="0.9760080471227657"><ele>113.99999999999999</ele><time>2026-03-22T17:49:26.999Z</time></trkpt><trkpt lat="49.33732893131512" lon="0.9758956791270158"><ele>114.0</ele><time>2026-03-22T17:49:27.999Z</time></trkpt><trkpt lat="49.33737760470013" lon="0.9758128939402536"><ele>114.0</ele><time>2026-03-22T17:49:28.999Z</time></trkpt><trkpt lat="49.337433772464955" lon="0.9757516138064685"><ele>113.99999999999999</ele><time>2026-03-22T17:49:29.999Z</time></trkpt><trkpt lat="49.33749897683261" lon="0.9757273697882741"><ele>114.0</ele><time>2026-03-22T17:49:30.999Z</time></trkpt><trkpt lat="49.33757310959928" lon="0.975707444696408"><ele>114.0</ele><time>2026-03-22T17:49:31.999Z</time></trkpt><trkpt lat="49.33767191522788" lon="0.9756751002355497"><ele>114.16666666666667</ele><time>2026-03-22T17:49:32.999Z</time></trkpt><trkpt lat="49.337761341110415" lon="0.9756336321449652"><ele>114.33333333333334</ele><time>2026-03-22T17:49:33.999Z</time></trkpt><trkpt lat="49.337838561359675" lon="0.9756247702088235"><ele>114.5</ele><time>2026-03-22T17:49:35.999Z</time></trkpt><trkpt lat="49.33791234594348" lon="0.9756324092367281"><ele>114.66666666666667</ele><time>2026-03-22T17:49:38.999Z</time></trkpt><trkpt lat="49.337841857723596" lon="0.9755528419500484"><ele>114.83333333333334</ele><time>2026-03-22T17:49:41.999Z</time></trkpt><trkpt lat="49.33778145917452" lon="0.9756140288046442"><ele>115.0</ele><time>2026-03-22T17:49:43.999Z</time></trkpt><trkpt lat="49.33772659277048" lon="0.9756671077957457"><ele>115.00000000000001</ele><time>2026-03-22T17:49:45.999Z</time></trkpt><trkpt lat="49.33763510902764" lon="0.9756865198864432"><ele>115.0</ele><time>2026-03-22T17:49:47.999Z</time></trkpt><trkpt lat="49.33755217088415" lon="0.9757108410738756"><ele>115.0</ele><time>2026-03-22T17:49:49.999Z</time></trkpt><trkpt lat="49.33747240723394" lon="0.9757499864491147"><ele>115.0</ele><time>2026-03-22T17:49:51.999Z</time></trkpt><trkpt lat="49.33739959466161" lon="0.9758175792240439"><ele>115.00000000000001</ele><time>2026-03-22T17:49:53.999Z</time></trkpt><trkpt lat="49.33734036085574" lon="0.975905763709919"><ele>115.0</ele><time>2026-03-22T17:49:55.999Z</time></trkpt><trkpt lat="49.33730085017962" lon="0.9760246150457628"><ele>114.8</ele><time>2026-03-22T17:49:57.998Z</time></trkpt><trkpt lat="49.33728137115665" lon="0.9762104847000901"><ele>114.6</ele><time>2026-03-22T17:49:59.998Z</time></trkpt><trkpt lat="49.337338463476975" lon="0.9763625851873982"><ele>114.4</ele><time>2026-03-22T17:50:01.998Z</time></trkpt><trkpt lat="49.33743505118443" lon="0.9764999438716576"><ele>114.2</ele><time>2026-03-22T17:50:03.998Z</time></trkpt><trkpt lat="49.33750358073859" lon="0.9765641224534594"><ele>114.0</ele><time>2026-03-22T17:50:04.998Z</time></trkpt><trkpt lat="49.33756922663426" lon="0.9766297479268041"><ele>113.66666666666667</ele><time>2026-03-22T17:50:05.998Z</time></trkpt><trkpt lat="49.337627302737324" lon="0.9767005888415072"><ele>113.33333333333334</ele><time>2026-03-22T17:50:06.998Z</time></trkpt><trkpt lat="49.3376854919527" lon="0.9767864909571687"><ele>113.0</ele><time>2026-03-22T17:50:07.998Z</time></trkpt><trkpt lat="49.3377270721587" lon="0.9768752269057971"><ele>112.66666666666667</ele><time>2026-03-22T17:50:08.998Z</time></trkpt><trkpt lat="49.33775746799643" lon="0.9769613262113244"><ele>112.33333333333334</ele><time>2026-03-22T17:50:09.998Z</time></trkpt><trkpt lat="49.33776085421118" lon="0.9771583314441968"><ele>112.0</ele><time>2026-03-22T17:50:11.998Z</time></trkpt><trkpt lat="49.33774548529078" lon="0.977255557163752"><ele>112.0</ele><time>2026-03-22T17:50:12.998Z</time></trkpt><trkpt lat="49.33773295946904" lon="0.9773582830241901"><ele>111.99999999999999</ele><time>2026-03-22T17:50:13.998Z</time></trkpt><trkpt lat="49.337715326854585" lon="0.9774939153816092"><ele>111.99999999999999</ele><time>2026-03-22T17:50:14.998Z</time></trkpt><trkpt lat="49.33769005616794" lon="0.9776417387245702"><ele>112.0</ele><time>2026-03-22T17:50:15.998Z</time></trkpt><trkpt lat="49.33768070120148" lon="0.977800991447868"><ele>112.0</ele><time>2026-03-22T17:50:16.998Z</time></trkpt><trkpt lat="49.33763826579535" lon="0.9779234993370487"><ele>112.50000000000001</ele><time>2026-03-22T17:50:17.998Z</time></trkpt><trkpt lat="49.337614634163806" lon="0.9780358752112479"><ele>113.0</ele><time>2026-03-22T17:50:18.998Z</time></trkpt><trkpt lat="49.33757276241542" lon="0.9781489819598822"><ele>113.5</ele><time>2026-03-22T17:50:19.998Z</time></trkpt><trkpt lat="49.33751994700891" lon="0.9782382670018664"><ele>114.0</ele><time>2026-03-22T17:50:20.998Z</time></trkpt><trkpt lat="49.337457469091376" lon="0.9782915203200279"><ele>114.50000000000001</ele><time>2026-03-22T17:50:21.998Z</time></trkpt><trkpt lat="49.33736474660063" lon="0.9783025812085029"><ele>115.0</ele><time>2026-03-22T17:50:22.998Z</time></trkpt><trkpt lat="49.337245015368985" lon="0.9782860774447235"><ele>116.0</ele><time>2026-03-22T17:50:23.998Z</time></trkpt><trkpt lat="49.33712092461713" lon="0.9782934083566909"><ele>117.0</ele><time>2026-03-22T17:50:24.998Z</time></trkpt><trkpt lat="49.33698185383809" lon="0.9782797855079294"><ele>118.0</ele><time>2026-03-22T17:50:25.998Z</time></trkpt><trkpt lat="49.3368276907816" lon="0.9782603217921091"><ele>119.0</ele><time>2026-03-22T17:50:26.998Z</time></trkpt><trkpt lat="49.336673604449835" lon="0.9782188349988844"><ele>119.0</ele><time>2026-03-22T17:50:27.998Z</time></trkpt><trkpt lat="49.33656804471092" lon="0.9781996392889993"><ele>119.0</ele><time>2026-03-22T17:50:28.998Z</time></trkpt><trkpt lat="49.33646267925045" lon="0.9781768838082746"><ele>119.0</ele><time>2026-03-22T17:50:29.998Z</time></trkpt><trkpt lat="49.33637691575553" lon="0.9781481055702668"><ele>119.0</ele><time>2026-03-22T17:50:30.998Z</time></trkpt><trkpt lat="49.336299722881385" lon="0.9781244731020539"><ele>119.0</ele><time>2026-03-22T17:50:31.998Z</time></trkpt><trkpt lat="49.33621049541633" lon="0.9781270892025017"><ele>119.66666666666666</ele><time>2026-03-22T17:50:32.998Z</time></trkpt><trkpt lat="49.33612571478422" lon="0.9782024597424472"><ele>120.33333333333333</ele><time>2026-03-22T17:50:34.998Z</time></trkpt><trkpt lat="49.336069323863434" lon="0.9782623520558016"><ele>121.0</ele><time>2026-03-22T17:50:35.998Z</time></trkpt><trkpt lat="49.335992129405305" lon="0.9783993091366422"><ele>121.66666666666666</ele><time>2026-03-22T17:50:37.998Z</time></trkpt><trkpt lat="49.33596266604898" lon="0.9784932193171076"><ele>122.33333333333333</ele><time>2026-03-22T17:50:38.998Z</time></trkpt><trkpt lat="49.33594010991123" lon="0.9785922418115268"><ele>123.0</ele><time>2026-03-22T17:50:39.998Z</time></trkpt><trkpt lat="49.33593397051191" lon="0.9786946269221275"><ele>123.00000000000001</ele><time>2026-03-22T17:50:40.998Z</time></trkpt><trkpt lat="49.33593888944662" lon="0.9787977551350472"><ele>123.0</ele><time>2026-03-22T17:50:41.998Z</time></trkpt><trkpt lat="49.33595292561101" lon="0.978896326780354"><ele>123.00000000000001</ele><time>2026-03-22T17:50:42.998Z</time></trkpt><trkpt lat="49.335971724028546" lon="0.9790073551061994"><ele>123.00000000000001</ele><time>2026-03-22T17:50:43.998Z</time></trkpt><trkpt lat="49.335992457793566" lon="0.9791111776324927"><ele>123.0</ele><time>2026-03-22T17:50:44.998Z</time></trkpt><trkpt lat="49.33602471816545" lon="0.9792199756725177"><ele>123.00000000000001</ele><time>2026-03-22T17:50:45.998Z</time></trkpt><trkpt lat="49.33605352596645" lon="0.9793520015761565"><ele>123.00000000000001</ele><time>2026-03-22T17:50:46.998Z</time></trkpt><trkpt lat="49.33608899680513" lon="0.9794687327628444"><ele>123.2</ele><time>2026-03-22T17:50:47.997Z</time></trkpt><trkpt lat="49.33613199817195" lon="0.9795912486237706"><ele>123.4</ele><time>2026-03-22T17:50:49Z</time></trkpt><trkpt lat="49.33617970085038" lon="0.9797490627966269"><ele>123.60000000000001</ele><time>2026-03-22T17:50:50Z</time></trkpt><trkpt lat="49.33624452842776" lon="0.9799245742973111"><ele>123.80000000000001</ele><time>2026-03-22T17:50:51Z</time></trkpt><trkpt lat="49.336270770343724" lon="0.9800565762935226"><ele>124.0</ele><time>2026-03-22T17:50:52Z</time></trkpt><trkpt lat="49.33633322361732" lon="0.9801924177844537"><ele>125.80000000000001</ele><time>2026-03-22T17:50:53Z</time></trkpt><trkpt lat="49.33640463465639" lon="0.980354442162273"><ele>127.60000000000001</ele><time>2026-03-22T17:50:54Z</time></trkpt><trkpt lat="49.33645602866314" lon="0.9805244076805485"><ele>129.4</ele><time>2026-03-22T17:50:55Z</time></trkpt><trkpt lat="49.33650912923915" lon="0.9806608133067609"><ele>131.20000000000002</ele><time>2026-03-22T17:50:56Z</time></trkpt><trkpt lat="49.33655919394184" lon="0.9807769166411487"><ele>133.0</ele><time>2026-03-22T17:50:57Z</time></trkpt><trkpt lat="49.336596403828274" lon="0.9808769726025687"><ele>133.0</ele><time>2026-03-22T17:50:58Z</time></trkpt><trkpt lat="49.336632661001666" lon="0.9809819285689808"><ele>133.0</ele><time>2026-03-22T17:50:59Z</time></trkpt><trkpt lat="49.33667723612632" lon="0.98107284091518"><ele>133.0</ele><time>2026-03-22T17:51:00Z</time></trkpt><trkpt lat="49.33671647076733" lon="0.9811644177271853"><ele>133.0</ele><time>2026-03-22T17:51:01Z</time></trkpt><trkpt lat="49.33674785935534" lon="0.981252349682624"><ele>133.0</ele><time>2026-03-22T17:51:02Z</time></trkpt><trkpt lat="49.336809199797734" lon="0.9814645057867712"><ele>133.0</ele><time>2026-03-22T17:51:04Z</time></trkpt><trkpt lat="49.33684971642307" lon="0.9816160814312629"><ele>132.0</ele><time>2026-03-22T17:51:05Z</time></trkpt><trkpt lat="49.33688778601047" lon="0.9817384374111012"><ele>131.0</ele><time>2026-03-22T17:51:06Z</time></trkpt><trkpt lat="49.33695389804919" lon="0.9819641902822343"><ele>130.0</ele><time>2026-03-22T17:51:08Z</time></trkpt><trkpt lat="49.33699878638807" lon="0.9821144198537561"><ele>129.0</ele><time>2026-03-22T17:51:09Z</time></trkpt><trkpt lat="49.33704651339039" lon="0.9822593252190418"><ele>129.0</ele><time>2026-03-22T17:51:10Z</time></trkpt><trkpt lat="49.33708120912025" lon="0.9823685837424639"><ele>129.0</ele><time>2026-03-22T17:51:11Z</time></trkpt><trkpt lat="49.33711901010014" lon="0.9824707547332082"><ele>129.0</ele><time>2026-03-22T17:51:12Z</time></trkpt><trkpt lat="49.33714311263029" lon="0.9825692195625507"><ele>129.0</ele><time>2026-03-22T17:51:12.999Z</time></trkpt><trkpt lat="49.33719192407999" lon="0.982706400869668"><ele>129.0</ele><time>2026-03-22T17:51:14.999Z</time></trkpt><trkpt lat="49.33719394551679" lon="0.9828117405129502"><ele>129.0</ele><time>2026-03-22T17:51:16.999Z</time></trkpt><trkpt lat="49.33713404491927" lon="0.9829074342479246"><ele>128.6</ele><time>2026-03-22T17:51:18.999Z</time></trkpt><trkpt lat="49.33707384126311" lon="0.9829403782990488"><ele>128.2</ele><time>2026-03-22T17:51:19.999Z</time></trkpt><trkpt lat="49.33696688925028" lon="0.9830283344217352"><ele>127.79999999999998</ele><time>2026-03-22T17:51:21.999Z</time></trkpt><trkpt lat="49.33687578519857" lon="0.9831169646086831"><ele>127.39999999999999</ele><time>2026-03-22T17:51:23.999Z</time></trkpt><trkpt lat="49.33677903766794" lon="0.9831702389043662"><ele>127.0</ele><time>2026-03-22T17:51:25.999Z</time></trkpt><trkpt lat="49.33670335591795" lon="0.9832337119471187"><ele>127.00000000000001</ele><time>2026-03-22T17:51:27.999Z</time></trkpt><trkpt lat="49.336634824003404" lon="0.9832668527823701"><ele>127.0</ele><time>2026-03-22T17:51:29.999Z</time></trkpt><trkpt lat="49.33654990202465" lon="0.9832994279947106"><ele>127.0</ele><time>2026-03-22T17:51:32.999Z</time></trkpt><trkpt lat="49.336493784392665" lon="0.9833707002118863"><ele>127.0</ele><time>2026-03-22T17:51:35.999Z</time></trkpt><trkpt lat="49.33640857295542" lon="0.9834159984578299"><ele>127.00000000000001</ele><time>2026-03-22T17:51:39.999Z</time></trkpt><trkpt lat="49.33634406298761" lon="0.9834536398976788"><ele>127.0</ele><time>2026-03-22T17:51:41.999Z</time></trkpt><trkpt lat="49.33623734105278" lon="0.983524378824724"><ele>124.6</ele><time>2026-03-22T17:51:45Z</time></trkpt><trkpt lat="49.336138147975745" lon="0.9836041069074144"><ele>122.19999999999999</ele><time>2026-03-22T17:51:47Z</time></trkpt><trkpt lat="49.33603950377455" lon="0.9836733206185411"><ele>119.8</ele><time>2026-03-22T17:51:49Z</time></trkpt><trkpt lat="49.3359691508515" lon="0.9837387253479883"><ele>117.4</ele><time>2026-03-22T17:51:50Z</time></trkpt><trkpt lat="49.33587910429245" lon="0.983800193809568"><ele>115.0</ele><time>2026-03-22T17:51:51Z</time></trkpt><trkpt lat="49.3358036023752" lon="0.9838449311128782"><ele>115.0</ele><time>2026-03-22T17:51:52Z</time></trkpt><trkpt lat="49.335707325513944" lon="0.9839037589436423"><ele>115.0</ele><time>2026-03-22T17:51:53Z</time></trkpt><trkpt lat="49.33559536709129" lon="0.9839942103031807"><ele>115.0</ele><time>2026-03-22T17:51:54Z</time></trkpt><trkpt lat="49.33551718915952" lon="0.9840609608981785"><ele>115.0</ele><time>2026-03-22T17:51:55Z</time></trkpt><trkpt lat="49.33544991980189" lon="0.9841044761400128"><ele>115.0</ele><time>2026-03-22T17:51:56Z</time></trkpt><trkpt lat="49.335362674824204" lon="0.9841718014732216"><ele>116.0</ele><time>2026-03-22T17:51:57Z</time></trkpt><trkpt lat="49.33528521040251" lon="0.984241053129509"><ele>117.0</ele><time>2026-03-22T17:51:58Z</time></trkpt><trkpt lat="49.3351935278453" lon="0.9843422182479367"><ele>118.0</ele><time>2026-03-22T17:51:59.999Z</time></trkpt><trkpt lat="49.33512337984343" lon="0.9843898829981045"><ele>119.0</ele><time>2026-03-22T17:52:00.999Z</time></trkpt><trkpt lat="49.33502599772893" lon="0.9843955891356438"><ele>120.0</ele><time>2026-03-22T17:52:02.999Z</time></trkpt><trkpt lat="49.33495249251779" lon="0.9844418605559485"><ele>120.0</ele><time>2026-03-22T17:52:03.999Z</time></trkpt><trkpt lat="49.3348994351605" lon="0.9844951552711882"><ele>120.0</ele><time>2026-03-22T17:52:04.999Z</time></trkpt><trkpt lat="49.33483557386488" lon="0.9845583183182813"><ele>120.0</ele><time>2026-03-22T17:52:07.999Z</time></trkpt><trkpt lat="49.33467552233641" lon="0.9846968956607322"><ele>120.0</ele><time>2026-03-22T17:52:10.999Z</time></trkpt><trkpt lat="49.33461439346433" lon="0.9847507521097574"><ele>120.0</ele><time>2026-03-22T17:52:11.999Z</time></trkpt><trkpt lat="49.33453852716522" lon="0.9847980572244062"><ele>120.4</ele><time>2026-03-22T17:52:12.999Z</time></trkpt><trkpt lat="49.334448762915116" lon="0.9848697975235149"><ele>120.8</ele><time>2026-03-22T17:52:13.999Z</time></trkpt><trkpt lat="49.33434413122463" lon="0.9849475349617605"><ele>121.19999999999999</ele><time>2026-03-22T17:52:14.999Z</time></trkpt><trkpt lat="49.33424225435305" lon="0.985010201905817"><ele>121.6</ele><time>2026-03-22T17:52:15.999Z</time></trkpt><trkpt lat="49.33413493148265" lon="0.9850725319153193"><ele>122.0</ele><time>2026-03-22T17:52:16.999Z</time></trkpt><trkpt lat="49.33404544237072" lon="0.9851256800109769"><ele>123.16666666666666</ele><time>2026-03-22T17:52:17.999Z</time></trkpt><trkpt lat="49.333952024835455" lon="0.9851776734048096"><ele>124.33333333333333</ele><time>2026-03-22T17:52:18.999Z</time></trkpt><trkpt lat="49.333855329179805" lon="0.9852252271909709"><ele>125.5</ele><time>2026-03-22T17:52:19.999Z</time></trkpt><trkpt lat="49.33377654977637" lon="0.9852700310233989"><ele>126.66666666666666</ele><time>2026-03-22T17:52:20.999Z</time></trkpt><trkpt lat="49.333704082921614" lon="0.9853272331411902"><ele>127.83333333333333</ele><time>2026-03-22T17:52:21.999Z</time></trkpt><trkpt lat="49.33363153560333" lon="0.985383834564695"><ele>129.0</ele><time>2026-03-22T17:52:22.999Z</time></trkpt><trkpt lat="49.3335530433742" lon="0.9854475105431529"><ele>129.0</ele><time>2026-03-22T17:52:23.999Z</time></trkpt><trkpt lat="49.33348729419372" lon="0.9855060412021801"><ele>129.0</ele><time>2026-03-22T17:52:24.999Z</time></trkpt><trkpt lat="49.33339744796092" lon="0.9856004422117626"><ele>129.0</ele><time>2026-03-22T17:52:26.999Z</time></trkpt><trkpt lat="49.3333384503388" lon="0.985660933620857"><ele>129.0</ele><time>2026-03-22T17:52:29.999Z</time></trkpt><trkpt lat="49.33334961982859" lon="0.9857630133138734"><ele>129.0</ele><time>2026-03-22T17:53:17Z</time></trkpt><trkpt lat="49.333383560603714" lon="0.9856797245609337"><ele>129.0</ele><time>2026-03-22T17:53:37Z</time></trkpt><trkpt lat="49.33342862462107" lon="0.985609368084867"><ele>129.0</ele><time>2026-03-22T17:53:39Z</time></trkpt><trkpt lat="49.33350422944865" lon="0.9855170534290556"><ele>129.0</ele><time>2026-03-22T17:53:42Z</time></trkpt><trkpt lat="49.33356818286034" lon="0.9853938728086825"><ele>129.0</ele><time>2026-03-22T17:53:44Z</time></trkpt><trkpt lat="49.333643219030584" lon="0.98530944021965"><ele>129.0</ele><time>2026-03-22T17:53:46Z</time></trkpt><trkpt lat="49.33370277951695" lon="0.9852570595461083"><ele>129.0</ele><time>2026-03-22T17:53:48Z</time></trkpt><trkpt lat="49.333758734693156" lon="0.9852092207953885"><ele>129.0</ele><time>2026-03-22T17:53:50Z</time></trkpt><trkpt lat="49.33382986980433" lon="0.9851946817787726"><ele>129.2</ele><time>2026-03-22T17:53:53Z</time></trkpt><trkpt lat="49.333925745857556" lon="0.9851509080886592"><ele>129.4</ele><time>2026-03-22T17:54:48.999Z</time></trkpt><trkpt lat="49.33405319419199" lon="0.9850858521770819"><ele>129.6</ele><time>2026-03-22T17:54:52.998Z</time></trkpt><trkpt lat="49.33413954074155" lon="0.9850245060207431"><ele>129.8</ele><time>2026-03-22T17:54:53.998Z</time></trkpt><trkpt lat="49.334240416474564" lon="0.9849658158339908"><ele>130.0</ele><time>2026-03-22T17:54:54.998Z</time></trkpt><trkpt lat="49.33430559644545" lon="0.9849224361261355"><ele>128.4</ele><time>2026-03-22T17:54:55.998Z</time></trkpt><trkpt lat="49.334420907432474" lon="0.9848371831951753"><ele>126.8</ele><time>2026-03-22T17:54:57.998Z</time></trkpt><trkpt lat="49.33451498336603" lon="0.9847739483206126"><ele>125.19999999999999</ele><time>2026-03-22T17:54:59.998Z</time></trkpt><trkpt lat="49.33458279170235" lon="0.9847141876487804"><ele>123.6</ele><time>2026-03-22T17:55:02.001Z</time></trkpt><trkpt lat="49.3346426779234" lon="0.9846527064067253"><ele>122.0</ele><time>2026-03-22T17:55:04.001Z</time></trkpt><trkpt lat="49.334759523383184" lon="0.9845643255799619"><ele>121.66666666666666</ele><time>2026-03-22T17:55:06.001Z</time></trkpt><trkpt lat="49.334824986230785" lon="0.9845071421021153"><ele>121.33333333333333</ele><time>2026-03-22T17:55:07.001Z</time></trkpt><trkpt lat="49.334897167313926" lon="0.9844769586272765"><ele>121.0</ele><time>2026-03-22T17:55:08.001Z</time></trkpt><trkpt lat="49.33497217615319" lon="0.9844217712109631"><ele>120.66666666666666</ele><time>2026-03-22T17:55:09.001Z</time></trkpt><trkpt lat="49.33503578957475" lon="0.9843896703786227"><ele>120.33333333333333</ele><time>2026-03-22T17:55:10.001Z</time></trkpt><trkpt lat="49.33515435403368" lon="0.9843188536518531"><ele>120.0</ele><time>2026-03-22T17:55:12.001Z</time></trkpt><trkpt lat="49.335233471826974" lon="0.9842427837335935"><ele>119.0</ele><time>2026-03-22T17:55:14.001Z</time></trkpt><trkpt lat="49.33531183819754" lon="0.9841698461305333"><ele>118.0</ele><time>2026-03-22T17:55:16.001Z</time></trkpt><trkpt lat="49.33542890591584" lon="0.9840984045583694"><ele>117.0</ele><time>2026-03-22T17:55:18.001Z</time></trkpt><trkpt lat="49.335496750430735" lon="0.9840488998270767"><ele>116.0</ele><time>2026-03-22T17:55:19Z</time></trkpt><trkpt lat="49.33557252864568" lon="0.9839996787306392"><ele>115.0</ele><time>2026-03-22T17:55:20Z</time></trkpt><trkpt lat="49.33565742007255" lon="0.9839474221503259"><ele>115.00000000000001</ele><time>2026-03-22T17:55:21Z</time></trkpt><trkpt lat="49.335735206300896" lon="0.9838906326587207"><ele>115.0</ele><time>2026-03-22T17:55:22Z</time></trkpt><trkpt lat="49.335799181813854" lon="0.9838294853531504"><ele>115.0</ele><time>2026-03-22T17:55:23Z</time></trkpt><trkpt lat="49.33587162505043" lon="0.9837634863078544"><ele>115.0</ele><time>2026-03-22T17:55:24Z</time></trkpt><trkpt lat="49.33595129103074" lon="0.983694049097226"><ele>115.00000000000001</ele><time>2026-03-22T17:55:25Z</time></trkpt><trkpt lat="49.33603114455123" lon="0.9836148203618797"><ele>115.0</ele><time>2026-03-22T17:55:26Z</time></trkpt><trkpt lat="49.33611629609611" lon="0.9835401361928586"><ele>115.0</ele><time>2026-03-22T17:55:27Z</time></trkpt><trkpt lat="49.3361944072874" lon="0.9834789010381219"><ele>115.0</ele><time>2026-03-22T17:55:28Z</time></trkpt><trkpt lat="49.336280360791925" lon="0.9834432040663373"><ele>115.0</ele><time>2026-03-22T17:55:29Z</time></trkpt><trkpt lat="49.33637656363898" lon="0.9834034343759752"><ele>115.0</ele><time>2026-03-22T17:55:30Z</time></trkpt><trkpt lat="49.33646380289927" lon="0.9833521876454094"><ele>115.0</ele><time>2026-03-22T17:55:31Z</time></trkpt><trkpt lat="49.33654826637841" lon="0.9833104605625109"><ele>117.4</ele><time>2026-03-22T17:55:32Z</time></trkpt><trkpt lat="49.33663347954023" lon="0.9832467379738552"><ele>119.8</ele><time>2026-03-22T17:55:33Z</time></trkpt><trkpt lat="49.33673743684772" lon="0.9831661085744077"><ele>122.19999999999999</ele><time>2026-03-22T17:55:34Z</time></trkpt><trkpt lat="49.33682295378641" lon="0.9830788308743978"><ele>124.6</ele><time>2026-03-22T17:55:35Z</time></trkpt><trkpt lat="49.33691792487169" lon="0.982996258833377"><ele>127.0</ele><time>2026-03-22T17:55:36Z</time></trkpt><trkpt lat="49.33700602703543" lon="0.9829398596110472"><ele>127.00000000000001</ele><time>2026-03-22T17:55:37Z</time></trkpt><trkpt lat="49.337066283764834" lon="0.9828966423261968"><ele>127.0</ele><time>2026-03-22T17:55:38Z</time></trkpt><trkpt lat="49.33714347343394" lon="0.9828325181177774"><ele>127.0</ele><time>2026-03-22T17:55:40Z</time></trkpt><trkpt lat="49.337184405474815" lon="0.9827361659812609"><ele>127.0</ele><time>2026-03-22T17:55:43Z</time></trkpt><trkpt lat="49.33711295769626" lon="0.9828046076038462"><ele>127.00000000000001</ele><time>2026-03-22T17:55:47Z</time></trkpt><trkpt lat="49.337054594303886" lon="0.9828980195857371"><ele>127.0</ele><time>2026-03-22T17:55:50Z</time></trkpt><trkpt lat="49.33697377062546" lon="0.982979130660767"><ele>127.0</ele><time>2026-03-22T17:55:52Z</time></trkpt><trkpt lat="49.33686837380845" lon="0.9830371253984826"><ele>126.99999999999999</ele><time>2026-03-22T17:55:54Z</time></trkpt><trkpt lat="49.3367637145482" lon="0.9831263199050323"><ele>126.99999999999999</ele><time>2026-03-22T17:55:56Z</time></trkpt><trkpt lat="49.33668540507643" lon="0.9831918815323422"><ele>127.0</ele><time>2026-03-22T17:55:58Z</time></trkpt><trkpt lat="49.33661627675719" lon="0.9832468124645508"><ele>127.0</ele><time>2026-03-22T17:56:00Z</time></trkpt><trkpt lat="49.336553933860245" lon="0.9833119885004863"><ele>126.6</ele><time>2026-03-22T17:56:02Z</time></trkpt><trkpt lat="49.336472402378426" lon="0.9833844792917875"><ele>126.19999999999999</ele><time>2026-03-22T17:56:04.999Z</time></trkpt><trkpt lat="49.33639652162827" lon="0.9834311831201028"><ele>125.8</ele><time>2026-03-22T17:56:06.999Z</time></trkpt><trkpt lat="49.33630842949543" lon="0.9834944950420422"><ele>125.4</ele><time>2026-03-22T17:56:08.999Z</time></trkpt><trkpt lat="49.33619406952256" lon="0.983580413185274"><ele>125.0</ele><time>2026-03-22T17:56:10.999Z</time></trkpt><trkpt lat="49.33611163853454" lon="0.98363197753933"><ele>123.0</ele><time>2026-03-22T17:56:11.999Z</time></trkpt><trkpt lat="49.336024076897274" lon="0.9837119488266794"><ele>121.0</ele><time>2026-03-22T17:56:12.999Z</time></trkpt><trkpt lat="49.335944479115575" lon="0.9837769096996981"><ele>119.0</ele><time>2026-03-22T17:56:13.999Z</time></trkpt><trkpt lat="49.33585333348889" lon="0.9838681034511398"><ele>117.0</ele><time>2026-03-22T17:56:14.999Z</time></trkpt><trkpt lat="49.33576432670016" lon="0.9839246291350701"><ele>115.0</ele><time>2026-03-22T17:56:15.999Z</time></trkpt><trkpt lat="49.3356768216707" lon="0.9839858174962579"><ele>115.00000000000001</ele><time>2026-03-22T17:56:16.999Z</time></trkpt><trkpt lat="49.335588168071546" lon="0.9840228757877845"><ele>115.0</ele><time>2026-03-22T17:56:17.999Z</time></trkpt><trkpt lat="49.33550811598236" lon="0.9840748521494145"><ele>115.0</ele><time>2026-03-22T17:56:18.999Z</time></trkpt><trkpt lat="49.33540699682323" lon="0.9841223546486351"><ele>115.0</ele><time>2026-03-22T17:56:19.999Z</time></trkpt><trkpt lat="49.33535317156271" lon="0.9842014219797465"><ele>115.00000000000001</ele><time>2026-03-22T17:56:20.999Z</time></trkpt><trkpt lat="49.33529172931004" lon="0.9842678705971676"><ele>115.0</ele><time>2026-03-22T17:56:21.999Z</time></trkpt><trkpt lat="49.33523594917736" lon="0.984314691245078"><ele>115.83333333333334</ele><time>2026-03-22T17:56:22.999Z</time></trkpt><trkpt lat="49.33516865874914" lon="0.9843566981813752"><ele>116.66666666666667</ele><time>2026-03-22T17:56:23.999Z</time></trkpt><trkpt lat="49.33510882989945" lon="0.9843996754247105"><ele>117.5</ele><time>2026-03-22T17:56:24.999Z</time></trkpt><trkpt lat="49.33503947660499" lon="0.9844327613893532"><ele>118.33333333333334</ele><time>2026-03-22T17:56:25.999Z</time></trkpt><trkpt lat="49.3349762471459" lon="0.9844832368904131"><ele>119.16666666666667</ele><time>2026-03-22T17:56:26.999Z</time></trkpt><trkpt lat="49.33491069489261" lon="0.9845294768913401"><ele>120.0</ele><time>2026-03-22T17:56:27.999Z</time></trkpt><trkpt lat="49.33479193566551" lon="0.9846077627780875"><ele>120.5</ele><time>2026-03-22T17:56:29.999Z</time></trkpt><trkpt lat="49.33469367699417" lon="0.9846651891481859"><ele>121.0</ele><time>2026-03-22T17:56:31.999Z</time></trkpt><trkpt lat="49.33460632907701" lon="0.9847336144029779"><ele>121.5</ele><time>2026-03-22T17:56:33.999Z</time></trkpt><trkpt lat="49.33450620488006" lon="0.984797195932596"><ele>122.0</ele><time>2026-03-22T17:56:35.999Z</time></trkpt><trkpt lat="49.33405164730979" lon="0.9851055940748176"><ele>123.16666666666666</ele><time>2026-03-22T17:56:39.999Z</time></trkpt><trkpt lat="49.33395606737964" lon="0.9851785225329057"><ele>124.33333333333333</ele><time>2026-03-22T17:56:40.999Z</time></trkpt><trkpt lat="49.33389610286543" lon="0.985220750630127"><ele>125.5</ele><time>2026-03-22T17:56:41.999Z</time></trkpt><trkpt lat="49.333821062446695" lon="0.9852408708204915"><ele>126.66666666666666</ele><time>2026-03-22T18:00:23.999Z</time></trkpt><trkpt lat="49.33375254763873" lon="0.9852959273664521"><ele>127.83333333333333</ele><time>2026-03-22T18:00:25.999Z</time></trkpt><trkpt lat="49.33366839328434" lon="0.9853570002992819"><ele>129.0</ele><time>2026-03-22T18:00:28.999Z</time></trkpt><trkpt lat="49.33356982146203" lon="0.9854650950059479"><ele>129.0</ele><time>2026-03-22T18:00:30.999Z</time></trkpt><trkpt lat="49.33350745798057" lon="0.9855320198884153"><ele>129.0</ele><time>2026-03-22T18:00:31.999Z</time></trkpt><trkpt lat="49.3334325838492" lon="0.9855822529028734"><ele>129.0</ele><time>2026-03-22T18:00:34.999Z</time></trkpt><trkpt lat="49.33336502537796" lon="0.9855247243095304"><ele>129.0</ele><time>2026-03-22T18:00:37.999Z</time></trkpt><trkpt lat="49.33331122968661" lon="0.985427522098553"><ele>129.0</ele><time>2026-03-22T18:00:40.999Z</time></trkpt><trkpt lat="49.33327128252148" lon="0.985305980067744"><ele>129.0</ele><time>2026-03-22T18:00:43.999Z</time></trkpt><trkpt lat="49.33325351858183" lon="0.9852078464471233"><ele>129.0</ele><time>2026-03-22T18:00:46.999Z</time></trkpt><trkpt lat="49.33320237415444" lon="0.9851288648214438"><ele>129.0</ele><time>2026-03-22T18:00:48.999Z</time></trkpt><trkpt lat="49.3331341527633" lon="0.9849836338079855"><ele>129.0</ele><time>2026-03-22T18:00:50.999Z</time></trkpt><trkpt lat="49.33304736056365" lon="0.9848332327855441"><ele>129.0</ele><time>2026-03-22T18:00:52.999Z</time></trkpt><trkpt lat="49.33302271593909" lon="0.984732563960072"><ele>129.0</ele><time>2026-03-22T18:00:53.999Z</time></trkpt><trkpt lat="49.33298947062575" lon="0.9846048917699561"><ele>128.8</ele><time>2026-03-22T18:00:54.999Z</time></trkpt><trkpt lat="49.332954521298475" lon="0.984487387703868"><ele>128.60000000000002</ele><time>2026-03-22T18:00:55.999Z</time></trkpt><trkpt lat="49.33293195297076" lon="0.9843869320142269"><ele>128.4</ele><time>2026-03-22T18:00:56.999Z</time></trkpt><trkpt lat="49.332892777705126" lon="0.9842989030321939"><ele>128.20000000000002</ele><time>2026-03-22T18:00:57.999Z</time></trkpt><trkpt lat="49.3328555801997" lon="0.9841301920182858"><ele>128.0</ele><time>2026-03-22T18:00:59.998Z</time></trkpt><trkpt lat="49.33279373757913" lon="0.9839479776518132"><ele>127.16666666666666</ele><time>2026-03-22T18:01:01.998Z</time></trkpt><trkpt lat="49.332741957059746" lon="0.9838208390734723"><ele>126.33333333333333</ele><time>2026-03-22T18:01:02.998Z</time></trkpt><trkpt lat="49.33270214196793" lon="0.9837175248167211"><ele>125.5</ele><time>2026-03-22T18:01:03.998Z</time></trkpt><trkpt lat="49.33266639526883" lon="0.9836293671027777"><ele>124.66666666666666</ele><time>2026-03-22T18:01:04.998Z</time></trkpt><trkpt lat="49.332606199181704" lon="0.9835343672197124"><ele>123.83333333333333</ele><time>2026-03-22T18:01:06.998Z</time></trkpt><trkpt lat="49.33262066527371" lon="0.9833864902542334"><ele>123.0</ele><time>2026-03-22T18:01:08.998Z</time></trkpt><trkpt lat="49.33258309747907" lon="0.9832703622108779"><ele>121.4</ele><time>2026-03-22T18:01:12.998Z</time></trkpt><trkpt lat="49.3325376513056" lon="0.9831517073152573"><ele>119.80000000000001</ele><time>2026-03-22T18:01:14.998Z</time></trkpt><trkpt lat="49.33251411464112" lon="0.9830549435991663"><ele>118.2</ele><time>2026-03-22T18:01:15.998Z</time></trkpt><trkpt lat="49.33244682448853" lon="0.9828773975746703"><ele>116.6</ele><time>2026-03-22T18:01:17.998Z</time></trkpt><trkpt lat="49.332404384409216" lon="0.9827553007527747"><ele>115.0</ele><time>2026-03-22T18:01:19Z</time></trkpt><trkpt lat="49.33236116703728" lon="0.9826105427103279"><ele>115.66666666666667</ele><time>2026-03-22T18:01:20Z</time></trkpt><trkpt lat="49.3323320977907" lon="0.9824839080501462"><ele>116.33333333333334</ele><time>2026-03-22T18:01:21Z</time></trkpt><trkpt lat="49.332301547266376" lon="0.982342920564497"><ele>117.0</ele><time>2026-03-22T18:01:22Z</time></trkpt><trkpt lat="49.332264257641455" lon="0.9822203659308325"><ele>117.66666666666666</ele><time>2026-03-22T18:01:23Z</time></trkpt><trkpt lat="49.332228967227884" lon="0.9821067956589595"><ele>118.33333333333333</ele><time>2026-03-22T18:01:24Z</time></trkpt><trkpt lat="49.332186332921495" lon="0.9819910568378842"><ele>119.0</ele><time>2026-03-22T18:01:25Z</time></trkpt><trkpt lat="49.33215018020541" lon="0.9818451510167849"><ele>118.99999999999999</ele><time>2026-03-22T18:01:26Z</time></trkpt><trkpt lat="49.332102447204825" lon="0.9817128971757657"><ele>119.0</ele><time>2026-03-22T18:01:27Z</time></trkpt><trkpt lat="49.332091446209304" lon="0.9815936212276895"><ele>119.0</ele><time>2026-03-22T18:01:28Z</time></trkpt><trkpt lat="49.33206274695121" lon="0.9814974250778826"><ele>119.0</ele><time>2026-03-22T18:01:29Z</time></trkpt><trkpt lat="49.332033319406634" lon="0.9813885396491971"><ele>118.99999999999999</ele><time>2026-03-22T18:01:30Z</time></trkpt><trkpt lat="49.33198230020036" lon="0.9812187912555285"><ele>119.0</ele><time>2026-03-22T18:01:32Z</time></trkpt><trkpt lat="49.331955013903695" lon="0.9811094594212585"><ele>117.83333333333333</ele><time>2026-03-22T18:01:34Z</time></trkpt><trkpt lat="49.33192365627408" lon="0.9809943552242338"><ele>116.66666666666666</ele><time>2026-03-22T18:01:36Z</time></trkpt><trkpt lat="49.3318770126992" lon="0.9808996944851085"><ele>115.5</ele><time>2026-03-22T18:01:38Z</time></trkpt><trkpt lat="49.331831691716" lon="0.9807653961901802"><ele>114.33333333333334</ele><time>2026-03-22T18:01:40Z</time></trkpt><trkpt lat="49.331786681963365" lon="0.980650116218094"><ele>113.16666666666667</ele><time>2026-03-22T18:01:42Z</time></trkpt><trkpt lat="49.331758647264586" lon="0.9805585071042727"><ele>112.0</ele><time>2026-03-22T18:01:44Z</time></trkpt><trkpt lat="49.331549898594716" lon="0.9801349565065649"><ele>110.66666666666667</ele><time>2026-03-22T18:01:45Z</time></trkpt><trkpt lat="49.331503060767986" lon="0.9800438461488512"><ele>109.33333333333334</ele><time>2026-03-22T18:01:46Z</time></trkpt><trkpt lat="49.33144022583668" lon="0.9798972054063552"><ele>108.0</ele><time>2026-03-22T18:01:48Z</time></trkpt><trkpt lat="49.33140329992651" lon="0.9797886413292227"><ele>106.66666666666666</ele><time>2026-03-22T18:01:50Z</time></trkpt><trkpt lat="49.33135970113698" lon="0.9796837997328637"><ele>105.33333333333333</ele><time>2026-03-22T18:01:53Z</time></trkpt><trkpt lat="49.33133067329232" lon="0.9795857070318118"><ele>104.0</ele><time>2026-03-22T18:01:55Z</time></trkpt><trkpt lat="49.331309465689685" lon="0.979407626404561"><ele>101.2</ele><time>2026-03-22T18:02:00Z</time></trkpt><trkpt lat="49.33126329753298" lon="0.9793032049549248"><ele>98.4</ele><time>2026-03-22T18:02:03Z</time></trkpt><trkpt lat="49.33125665460211" lon="0.9791984562718716"><ele>95.6</ele><time>2026-03-22T18:02:11.999Z</time></trkpt><trkpt lat="49.331216350820576" lon="0.9790851396681302"><ele>92.8</ele><time>2026-03-22T18:02:29.999Z</time></trkpt><trkpt lat="49.331099310483665" lon="0.9789840566289096"><ele>90.0</ele><time>2026-03-22T18:02:31.999Z</time></trkpt><trkpt lat="49.33101818603297" lon="0.9789770050672247"><ele>90.0</ele><time>2026-03-22T18:02:32.999Z</time></trkpt><trkpt lat="49.330939805139955" lon="0.9789987091398786"><ele>90.0</ele><time>2026-03-22T18:02:33.999Z</time></trkpt><trkpt lat="49.330871457906824" lon="0.9790510247817239"><ele>90.0</ele><time>2026-03-22T18:02:34.999Z</time></trkpt><trkpt lat="49.33081620615556" lon="0.9791315272294735"><ele>90.0</ele><time>2026-03-22T18:02:35.999Z</time></trkpt><trkpt lat="49.330770961660505" lon="0.9792142469019504"><ele>90.0</ele><time>2026-03-22T18:02:36.999Z</time></trkpt><trkpt lat="49.330708588203265" lon="0.979345553507733"><ele>90.0</ele><time>2026-03-22T18:02:38.999Z</time></trkpt><trkpt lat="49.33066218054994" lon="0.97944217117101"><ele>90.0</ele><time>2026-03-22T18:02:41.999Z</time></trkpt><trkpt lat="49.330741711381656" lon="0.9793683422926674"><ele>90.0</ele><time>2026-03-22T18:02:44.999Z</time></trkpt><trkpt lat="49.33076888911841" lon="0.979256161842518"><ele>90.0</ele><time>2026-03-22T18:02:45.999Z</time></trkpt><trkpt lat="49.33083691279745" lon="0.9791262700784318"><ele>90.0</ele><time>2026-03-22T18:02:46.999Z</time></trkpt><trkpt lat="49.330910628904476" lon="0.9790409338586757"><ele>90.0</ele><time>2026-03-22T18:02:47.999Z</time></trkpt><trkpt lat="49.33097775438742" lon="0.97899818059944"><ele>90.0</ele><time>2026-03-22T18:02:48.999Z</time></trkpt><trkpt lat="49.33104262942633" lon="0.9789932301751052"><ele>90.0</ele><time>2026-03-22T18:02:49.999Z</time></trkpt><trkpt lat="49.33110897149047" lon="0.9790117317958834"><ele>90.0</ele><time>2026-03-22T18:02:50.999Z</time></trkpt><trkpt lat="49.3312053253264" lon="0.97907651071156"><ele>90.0</ele><time>2026-03-22T18:02:52.999Z</time></trkpt><trkpt lat="49.33125433649628" lon="0.9792432853964859"><ele>90.0</ele><time>2026-03-22T18:02:54.999Z</time></trkpt><trkpt lat="49.33128760470489" lon="0.9793636882089072"><ele>90.0</ele><time>2026-03-22T18:02:55.999Z</time></trkpt><trkpt lat="49.33132509500428" lon="0.9794922415151615"><ele>90.0</ele><time>2026-03-22T18:02:56.999Z</time></trkpt><trkpt lat="49.33136305529448" lon="0.9796141718073949"><ele>90.0</ele><time>2026-03-22T18:02:57.998Z</time></trkpt><trkpt lat="49.33139734508986" lon="0.9797164415269104"><ele>90.0</ele><time>2026-03-22T18:02:58.998Z</time></trkpt><trkpt lat="49.33144423355843" lon="0.9798449434151842"><ele>90.0</ele><time>2026-03-22T18:02:59.998Z</time></trkpt><trkpt lat="49.33148338481804" lon="0.979946424694931"><ele>90.0</ele><time>2026-03-22T18:03:00.998Z</time></trkpt><trkpt lat="49.33151318773145" lon="0.9800545466340285"><ele>90.0</ele><time>2026-03-22T18:03:01.998Z</time></trkpt><trkpt lat="49.33156653289354" lon="0.9801776851384433"><ele>92.33333333333333</ele><time>2026-03-22T18:03:02.998Z</time></trkpt><trkpt lat="49.331606284966036" lon="0.9802613925645017"><ele>94.66666666666666</ele><time>2026-03-22T18:03:03.998Z</time></trkpt><trkpt lat="49.33164971297486" lon="0.9803730888902398"><ele>97.0</ele><time>2026-03-22T18:03:04.998Z</time></trkpt><trkpt lat="49.33170314241956" lon="0.980512785756212"><ele>99.33333333333333</ele><time>2026-03-22T18:03:05.998Z</time></trkpt><trkpt lat="49.331749741432745" lon="0.9806349598430328"><ele>101.66666666666666</ele><time>2026-03-22T18:03:06.998Z</time></trkpt><trkpt lat="49.33179141141832" lon="0.9807631826762141"><ele>104.0</ele><time>2026-03-22T18:03:07.998Z</time></trkpt><trkpt lat="49.33183722376365" lon="0.9808954649877965"><ele>105.6</ele><time>2026-03-22T18:03:08.998Z</time></trkpt><trkpt lat="49.33186298212128" lon="0.9810580890863146"><ele>107.2</ele><time>2026-03-22T18:03:10.998Z</time></trkpt><trkpt lat="49.33189211554786" lon="0.9811581641746446"><ele>108.79999999999998</ele><time>2026-03-22T18:03:11.998Z</time></trkpt><trkpt lat="49.33192492769559" lon="0.9812823515650098"><ele>110.39999999999999</ele><time>2026-03-22T18:03:12.998Z</time></trkpt><trkpt lat="49.33198074345709" lon="0.9814084683936495"><ele>112.0</ele><time>2026-03-22T18:03:14.998Z</time></trkpt><trkpt lat="49.3320248550179" lon="0.9815449568453533"><ele>113.39999999999999</ele><time>2026-03-22T18:03:16.998Z</time></trkpt><trkpt lat="49.33207810061216" lon="0.9817574845161282"><ele>114.79999999999998</ele><time>2026-03-22T18:03:18.998Z</time></trkpt><trkpt lat="49.33210966695914" lon="0.9819022492922679"><ele>116.2</ele><time>2026-03-22T18:03:20.998Z</time></trkpt><trkpt lat="49.33214216613964" lon="0.9820111196741187"><ele>117.6</ele><time>2026-03-22T18:03:22.998Z</time></trkpt><trkpt lat="49.33217229227193" lon="0.9821070254055974"><ele>119.0</ele><time>2026-03-22T18:03:25Z</time></trkpt><trkpt lat="49.3321758048353" lon="0.9822308970137413"><ele>115.0</ele><time>2026-03-22T18:03:28Z</time></trkpt><trkpt lat="49.33257613261124" lon="0.9829220868067365"><ele>115.0</ele><time>2026-03-22T18:03:32Z</time></trkpt><trkpt lat="49.33258167747659" lon="0.9830483895409315"><ele>115.0</ele><time>2026-03-22T18:03:34Z</time></trkpt><trkpt lat="49.332608332407354" lon="0.9832234408249487"><ele>115.0</ele><time>2026-03-22T18:03:36Z</time></trkpt><trkpt lat="49.33264416931294" lon="0.9833778630461696"><ele>115.0</ele><time>2026-03-22T18:03:37Z</time></trkpt><trkpt lat="49.332687843546836" lon="0.9835240154032635"><ele>115.0</ele><time>2026-03-22T18:03:38Z</time></trkpt><trkpt lat="49.33273675505504" lon="0.983674701307817"><ele>116.6</ele><time>2026-03-22T18:03:39Z</time></trkpt><trkpt lat="49.332776123110534" lon="0.983797059309485"><ele>118.2</ele><time>2026-03-22T18:03:40Z</time></trkpt><trkpt lat="49.33280888422417" lon="0.9839320040717362"><ele>119.80000000000001</ele><time>2026-03-22T18:03:41Z</time></trkpt><trkpt lat="49.33285235556505" lon="0.9840731069988693"><ele>121.4</ele><time>2026-03-22T18:03:42Z</time></trkpt><trkpt lat="49.33291872730822" lon="0.9842816823060926"><ele>123.0</ele><time>2026-03-22T18:03:43Z</time></trkpt><trkpt lat="49.33299291935182" lon="0.9845045433502556"><ele>122.0</ele><time>2026-03-22T18:03:44Z</time></trkpt><trkpt lat="49.333070499618636" lon="0.9847398437386166"><ele>121.0</ele><time>2026-03-22T18:03:45Z</time></trkpt><trkpt lat="49.33314914679472" lon="0.9849328837643553"><ele>120.0</ele><time>2026-03-22T18:03:46Z</time></trkpt><trkpt lat="49.33298890827269" lon="0.9847812928611727"><ele>121.6</ele><time>2026-03-22T18:03:47Z</time></trkpt><trkpt lat="49.33304063710912" lon="0.9849163863971901"><ele>123.2</ele><time>2026-03-22T18:03:48Z</time></trkpt><trkpt lat="49.33309403721163" lon="0.9850260408535542"><ele>124.80000000000001</ele><time>2026-03-22T18:03:49Z</time></trkpt><trkpt lat="49.33316639584664" lon="0.9851664966515974"><ele>126.4</ele><time>2026-03-22T18:03:50Z</time></trkpt><trkpt lat="49.33321564033461" lon="0.9852863332865092"><ele>128.0</ele><time>2026-03-22T18:03:51Z</time></trkpt><trkpt lat="49.333257577677394" lon="0.9854463607577338"><ele>128.20000000000002</ele><time>2026-03-22T18:03:52Z</time></trkpt><trkpt lat="49.33328357632522" lon="0.9855345426071662"><ele>128.4</ele><time>2026-03-22T18:03:53Z</time></trkpt><trkpt lat="49.33315543581119" lon="0.9852923326464342"><ele>128.60000000000002</ele><time>2026-03-22T18:03:54Z</time></trkpt><trkpt lat="49.33321648727107" lon="0.9853535515053813"><ele>128.8</ele><time>2026-03-22T18:03:56Z</time></trkpt><trkpt lat="49.33326510277277" lon="0.9854438660605574"><ele>129.0</ele><time>2026-03-22T18:03:58Z</time></trkpt><trkpt lat="49.33333440216825" lon="0.9855395474030029"><ele>129.0</ele><time>2026-03-22T18:04:01Z</time></trkpt><trkpt lat="49.333384004503095" lon="0.9856146380225568"><ele>129.0</ele><time>2026-03-22T18:04:31.999Z</time></trkpt><trkpt lat="49.33350537616049" lon="0.9855642339746417"><ele>129.0</ele><time>2026-03-22T18:04:34.999Z</time></trkpt><trkpt lat="49.33365787263938" lon="0.9854759078522305"><ele>129.0</ele><time>2026-03-22T18:04:36.999Z</time></trkpt><trkpt lat="49.333714764312234" lon="0.9853711864981411"><ele>129.0</ele><time>2026-03-22T18:04:38.999Z</time></trkpt><trkpt lat="49.33378525560137" lon="0.985300639506901"><ele>129.0</ele><time>2026-03-22T18:04:40.999Z</time></trkpt><trkpt lat="49.33385283562466" lon="0.9852341848108642"><ele>129.0</ele><time>2026-03-22T18:04:44.999Z</time></trkpt><trkpt lat="49.33392087483437" lon="0.9852104373281776"><ele>129.0</ele><time>2026-03-22T18:04:55.999Z</time></trkpt><trkpt lat="49.333982677415236" lon="0.9851694238526992"><ele>129.0</ele><time>2026-03-22T18:10:39.999Z</time></trkpt><trkpt lat="49.33391205660833" lon="0.9850578410782733"><ele>129.0</ele><time>2026-03-22T18:11:11.999Z</time></trkpt><trkpt lat="49.33388065282624" lon="0.9851470667199659"><ele>129.0</ele><time>2026-03-22T18:11:14.999Z</time></trkpt><trkpt lat="49.3338201606103" lon="0.9852210461546776"><ele>129.0</ele><time>2026-03-22T18:11:17.999Z</time></trkpt><trkpt lat="49.33374295053346" lon="0.9852786280028113"><ele>129.0</ele><time>2026-03-22T18:11:19.999Z</time></trkpt><trkpt lat="49.333682460488895" lon="0.9853323119054197"><ele>129.0</ele><time>2026-03-22T18:11:21.998Z</time></trkpt><trkpt lat="49.33360074455467" lon="0.9853993175169383"><ele>129.0</ele><time>2026-03-22T18:11:23.998Z</time></trkpt><trkpt lat="49.333528718384564" lon="0.9854811068425615"><ele>129.0</ele><time>2026-03-22T18:11:25.998Z</time></trkpt><trkpt lat="49.333446434839026" lon="0.9855611247697724"><ele>129.0</ele><time>2026-03-22T18:11:28.998Z</time></trkpt><trkpt lat="49.33336891348755" lon="0.9855505594153826"><ele>129.0</ele><time>2026-03-22T18:11:31.998Z</time></trkpt><trkpt lat="49.33328884482909" lon="0.9854662467428407"><ele>129.0</ele><time>2026-03-22T18:12:07Z</time></trkpt><trkpt lat="49.33326194507887" lon="0.9853499653032162"><ele>129.0</ele><time>2026-03-22T18:12:09Z</time></trkpt><trkpt lat="49.33323593938545" lon="0.9852261694790139"><ele>129.0</ele><time>2026-03-22T18:12:11Z</time></trkpt><trkpt lat="49.3332060422216" lon="0.9851189402307989"><ele>129.0</ele><time>2026-03-22T18:12:12Z</time></trkpt><trkpt lat="49.333146154023645" lon="0.9849566938221641"><ele>128.75</ele><time>2026-03-22T18:12:13Z</time></trkpt><trkpt lat="49.33308306590873" lon="0.9847744156890956"><ele>128.5</ele><time>2026-03-22T18:12:14Z</time></trkpt><trkpt lat="49.333030782840325" lon="0.9846268131905703"><ele>128.25</ele><time>2026-03-22T18:12:15Z</time></trkpt><trkpt lat="49.33298022919893" lon="0.9844887158220911"><ele>128.0</ele><time>2026-03-22T18:12:16Z</time></trkpt><trkpt lat="49.332924633064195" lon="0.9843374969068112"><ele>126.75</ele><time>2026-03-22T18:12:17Z</time></trkpt><trkpt lat="49.33287238960066" lon="0.984158598976363"><ele>125.5</ele><time>2026-03-22T18:12:18Z</time></trkpt><trkpt lat="49.33281462997162" lon="0.9839958449347486"><ele>124.25</ele><time>2026-03-22T18:12:19Z</time></trkpt><trkpt lat="49.33276328474188" lon="0.983830595527845"><ele>123.0</ele><time>2026-03-22T18:12:20Z</time></trkpt><trkpt lat="49.33271636914175" lon="0.9837191956592519"><ele>123.0</ele><time>2026-03-22T18:12:21Z</time></trkpt><trkpt lat="49.332670707653975" lon="0.983591515216716"><ele>123.0</ele><time>2026-03-22T18:12:22Z</time></trkpt><trkpt lat="49.33263255546586" lon="0.9834808425148491"><ele>123.0</ele><time>2026-03-22T18:12:23Z</time></trkpt><trkpt lat="49.33259889333224" lon="0.9833879710270931"><ele>123.0</ele><time>2026-03-22T18:12:24Z</time></trkpt><trkpt lat="49.33256735354971" lon="0.9833019508546991"><ele>123.0</ele><time>2026-03-22T18:12:25Z</time></trkpt><trkpt lat="49.33253060555933" lon="0.9831605352671322"><ele>123.0</ele><time>2026-03-22T18:12:27Z</time></trkpt><trkpt lat="49.332485657241634" lon="0.9829956101260005"><ele>121.66666666666667</ele><time>2026-03-22T18:12:29Z</time></trkpt><trkpt lat="49.33242915817712" lon="0.9828481238241159"><ele>120.33333333333334</ele><time>2026-03-22T18:12:31Z</time></trkpt><trkpt lat="49.332387221251814" lon="0.9827335458050115"><ele>119.0</ele><time>2026-03-22T18:12:33Z</time></trkpt><trkpt lat="49.33236451073265" lon="0.9826206714836826"><ele>117.66666666666667</ele><time>2026-03-22T18:12:36Z</time></trkpt><trkpt lat="49.33238438289475" lon="0.9825268472199715"><ele>116.33333333333334</ele><time>2026-03-22T18:13:37.998Z</time></trkpt><trkpt lat="49.332447779337386" lon="0.9824551799322818"><ele>115.0</ele><time>2026-03-22T18:13:42.998Z</time></trkpt><trkpt lat="49.33251674776756" lon="0.9823769585163463"><ele>113.16666666666667</ele><time>2026-03-22T18:13:46.998Z</time></trkpt><trkpt lat="49.33259305597103" lon="0.9823131817102907"><ele>111.33333333333334</ele><time>2026-03-22T18:13:50.998Z</time></trkpt><trkpt lat="49.33265434852813" lon="0.9823607159796472"><ele>109.5</ele><time>2026-03-22T18:13:53.998Z</time></trkpt><trkpt lat="49.3327411702418" lon="0.9823180232524543"><ele>107.66666666666666</ele><time>2026-03-22T18:13:57Z</time></trkpt><trkpt lat="49.332796932562005" lon="0.9822605564440947"><ele>105.83333333333333</ele><time>2026-03-22T18:14:01Z</time></trkpt><trkpt lat="49.3328801122493" lon="0.9822217699360168"><ele>104.0</ele><time>2026-03-22T18:14:05Z</time></trkpt><trkpt lat="49.33294177155748" lon="0.9821871602226286"><ele>102.5</ele><time>2026-03-22T18:14:08Z</time></trkpt><trkpt lat="49.333080093196344" lon="0.9822250301773806"><ele>101.0</ele><time>2026-03-22T18:14:34Z</time></trkpt><trkpt lat="49.33316571967154" lon="0.9824218468316935"><ele>99.5</ele><time>2026-03-22T18:14:36Z</time></trkpt><trkpt lat="49.333225857449776" lon="0.9825460795070582"><ele>98.0</ele><time>2026-03-22T18:14:37Z</time></trkpt><trkpt lat="49.33329826121525" lon="0.9826367278046291"><ele>98.0</ele><time>2026-03-22T18:14:38Z</time></trkpt><trkpt lat="49.33336208880586" lon="0.9826773849581433"><ele>98.0</ele><time>2026-03-22T18:14:39Z</time></trkpt><trkpt lat="49.333427922173364" lon="0.982691370312593"><ele>98.0</ele><time>2026-03-22T18:14:40Z</time></trkpt><trkpt lat="49.3335207519365" lon="0.982678794924108"><ele>98.0</ele><time>2026-03-22T18:14:42Z</time></trkpt><trkpt lat="49.33355474701187" lon="0.9825943524932118"><ele>98.0</ele><time>2026-03-22T18:14:43.999Z</time></trkpt><trkpt lat="49.333544753949575" lon="0.9824876021587496"><ele>98.0</ele><time>2026-03-22T18:14:45.999Z</time></trkpt><trkpt lat="49.333533939919896" lon="0.9823798272005193"><ele>98.0</ele><time>2026-03-22T18:14:46.999Z</time></trkpt><trkpt lat="49.33354303969652" lon="0.9822727914587133"><ele>95.0</ele><time>2026-03-22T18:14:47.999Z</time></trkpt><trkpt lat="49.33372853407213" lon="0.9821929027920314"><ele>92.0</ele><time>2026-03-22T18:14:48.999Z</time></trkpt><trkpt lat="49.333728370927055" lon="0.9820821804361592"><ele>89.0</ele><time>2026-03-22T18:14:51.999Z</time></trkpt><trkpt lat="49.33372434490668" lon="0.9818998213419141"><ele>86.0</ele><time>2026-03-22T18:14:53.999Z</time></trkpt><trkpt lat="49.33372201732056" lon="0.9817468236107513"><ele>85.16666666666667</ele><time>2026-03-22T18:14:55.999Z</time></trkpt><trkpt lat="49.33372104820661" lon="0.981591593911843"><ele>84.33333333333334</ele><time>2026-03-22T18:14:57.999Z</time></trkpt><trkpt lat="49.33372266697493" lon="0.981448130831655"><ele>83.5</ele><time>2026-03-22T18:14:59.999Z</time></trkpt><trkpt lat="49.333729228974015" lon="0.9813342583379371"><ele>82.66666666666667</ele><time>2026-03-22T18:15:01.999Z</time></trkpt><trkpt lat="49.333693358566315" lon="0.9812489326019886"><ele>81.83333333333333</ele><time>2026-03-22T18:15:04.999Z</time></trkpt><trkpt lat="49.33374541731798" lon="0.981166850310664"><ele>81.0</ele><time>2026-03-22T18:15:07.999Z</time></trkpt><trkpt lat="49.33376062344213" lon="0.9810298830217044"><ele>74.0</ele><time>2026-03-22T18:15:09.999Z</time></trkpt><trkpt lat="49.33328804838846" lon="0.9808439179399062"><ele>74.0</ele><time>2026-03-22T18:15:10.999Z</time></trkpt><trkpt lat="49.33326449185742" lon="0.9807335268494414"><ele>74.0</ele><time>2026-03-22T18:15:13.999Z</time></trkpt><trkpt lat="49.33326064319161" lon="0.9806334369409684"><ele>74.0</ele><time>2026-03-22T18:15:15.999Z</time></trkpt><trkpt lat="49.333287102215024" lon="0.9804992658953124"><ele>74.0</ele><time>2026-03-22T18:15:18.999Z</time></trkpt><trkpt lat="49.33324864023396" lon="0.9802889116189989"><ele>74.0</ele><time>2026-03-22T18:15:21.999Z</time></trkpt><trkpt lat="49.33325171349273" lon="0.9801890635604844"><ele>74.0</ele><time>2026-03-22T18:15:22.999Z</time></trkpt><trkpt lat="49.33320264024388" lon="0.979974754769316"><ele>72.8</ele><time>2026-03-22T18:15:23.999Z</time></trkpt><trkpt lat="49.33316900901728" lon="0.9798467943758679"><ele>71.60000000000001</ele><time>2026-03-22T18:15:25.999Z</time></trkpt><trkpt lat="49.33314097791903" lon="0.9796763460565724"><ele>70.4</ele><time>2026-03-22T18:15:27.999Z</time></trkpt><trkpt lat="49.33313461769038" lon="0.9794992731518696"><ele>69.2</ele><time>2026-03-22T18:15:29.999Z</time></trkpt><trkpt lat="49.33314495913725" lon="0.9793436094520604"><ele>68.0</ele><time>2026-03-22T18:15:31.998Z</time></trkpt><trkpt lat="49.33314605115837" lon="0.9792219233036886"><ele>67.0</ele><time>2026-03-22T18:15:32.998Z</time></trkpt><trkpt lat="49.33315533398257" lon="0.9791246054235996"><ele>66.0</ele><time>2026-03-22T18:15:33.998Z</time></trkpt><trkpt lat="49.33317773431814" lon="0.9789432861025247"><ele>65.0</ele><time>2026-03-22T18:15:35.998Z</time></trkpt><trkpt lat="49.33318470290952" lon="0.978836635616279"><ele>64.0</ele><time>2026-03-22T18:15:36.998Z</time></trkpt><trkpt lat="49.33311957450285" lon="0.9787232062137519"><ele>63.0</ele><time>2026-03-22T18:15:38.998Z</time></trkpt><trkpt lat="49.33306126574069" lon="0.9785754207952087"><ele>63.333333333333336</ele><time>2026-03-22T18:15:40.998Z</time></trkpt><trkpt lat="49.33303937152944" lon="0.9783952553532421"><ele>63.66666666666667</ele><time>2026-03-22T18:15:42.998Z</time></trkpt><trkpt lat="49.333006052158694" lon="0.9782527068892958"><ele>64.0</ele><time>2026-03-22T18:15:43.998Z</time></trkpt><trkpt lat="49.33295000335065" lon="0.9781606598398994"><ele>64.33333333333334</ele><time>2026-03-22T18:15:46.998Z</time></trkpt><trkpt lat="49.33288503080447" lon="0.9780930858592369"><ele>64.66666666666667</ele><time>2026-03-22T18:15:50.998Z</time></trkpt><trkpt lat="49.332877336700946" lon="0.9779960507334523"><ele>65.0</ele><time>2026-03-22T18:15:53.998Z</time></trkpt><trkpt lat="49.332900766305265" lon="0.9778877100262351"><ele>62.25</ele><time>2026-03-22T18:15:56.998Z</time></trkpt><trkpt lat="49.33289298528106" lon="0.9777733837226255"><ele>59.5</ele><time>2026-03-22T18:15:59.998Z</time></trkpt><trkpt lat="49.33278212978833" lon="0.9774585136321885"><ele>56.75</ele><time>2026-03-22T18:16:02Z</time></trkpt><trkpt lat="49.33273989478308" lon="0.9773442258338754"><ele>54.0</ele><time>2026-03-22T18:16:03Z</time></trkpt><trkpt lat="49.33269866227607" lon="0.9772483704592045"><ele>53.400000000000006</ele><time>2026-03-22T18:16:04Z</time></trkpt><trkpt lat="49.33263803410405" lon="0.9771579927910586"><ele>52.800000000000004</ele><time>2026-03-22T18:16:05Z</time></trkpt><trkpt lat="49.33257445410234" lon="0.9770671340679635"><ele>52.2</ele><time>2026-03-22T18:16:06Z</time></trkpt><trkpt lat="49.3325038547318" lon="0.9769587989008742"><ele>51.599999999999994</ele><time>2026-03-22T18:16:07Z</time></trkpt><trkpt lat="49.332428230403146" lon="0.9768486913828373"><ele>51.0</ele><time>2026-03-22T18:16:08Z</time></trkpt><trkpt lat="49.33233322431288" lon="0.976726492979423"><ele>51.25</ele><time>2026-03-22T18:16:09Z</time></trkpt><trkpt lat="49.33222788986982" lon="0.9765793917297684"><ele>51.5</ele><time>2026-03-22T18:16:10Z</time></trkpt><trkpt lat="49.332135418485194" lon="0.9764504800423482"><ele>51.75</ele><time>2026-03-22T18:16:11Z</time></trkpt><trkpt lat="49.33203737456072" lon="0.9763224641887792"><ele>52.0</ele><time>2026-03-22T18:16:12Z</time></trkpt><trkpt lat="49.331944238235934" lon="0.9762065040921302"><ele>52.0</ele><time>2026-03-22T18:16:13Z</time></trkpt><trkpt lat="49.331857227004186" lon="0.9760839036196409"><ele>52.0</ele><time>2026-03-22T18:16:14Z</time></trkpt><trkpt lat="49.33175512048839" lon="0.9759557433266828"><ele>52.0</ele><time>2026-03-22T18:16:16Z</time></trkpt><trkpt lat="49.33171020649979" lon="0.9758854202489159"><ele>52.0</ele><time>2026-03-22T18:16:17Z</time></trkpt><trkpt lat="49.33160495349325" lon="0.9757585654826711"><ele>52.0</ele><time>2026-03-22T18:16:19Z</time></trkpt><trkpt lat="49.33150232436237" lon="0.9755525240247501"><ele>50.6</ele><time>2026-03-22T18:16:20Z</time></trkpt><trkpt lat="49.331446431852605" lon="0.9754849792055152"><ele>49.2</ele><time>2026-03-22T18:16:21Z</time></trkpt><trkpt lat="49.33136585682689" lon="0.9754015098614468"><ele>47.8</ele><time>2026-03-22T18:16:22Z</time></trkpt><trkpt lat="49.331284866577214" lon="0.9753226867854793"><ele>46.4</ele><time>2026-03-22T18:16:23Z</time></trkpt><trkpt lat="49.33116167500897" lon="0.9752533338431"><ele>45.0</ele><time>2026-03-22T18:16:25Z</time></trkpt><trkpt lat="49.331094776717826" lon="0.9752214720431676"><ele>44.6</ele><time>2026-03-22T18:16:26Z</time></trkpt><trkpt lat="49.331038147528865" lon="0.9751651474939393"><ele>44.2</ele><time>2026-03-22T18:16:27Z</time></trkpt><trkpt lat="49.33094121103244" lon="0.9750570185383364"><ele>43.8</ele><time>2026-03-22T18:16:29Z</time></trkpt><trkpt lat="49.33086353961034" lon="0.9749877009207324"><ele>43.4</ele><time>2026-03-22T18:16:31Z</time></trkpt><trkpt lat="49.33079558588888" lon="0.97487586885658"><ele>43.0</ele><time>2026-03-22T18:16:33Z</time></trkpt><trkpt lat="49.33072169939062" lon="0.9748283175496987"><ele>41.833333333333336</ele><time>2026-03-22T18:16:34Z</time></trkpt><trkpt lat="49.33065825174664" lon="0.974795987833617"><ele>40.66666666666667</ele><time>2026-03-22T18:16:35Z</time></trkpt><trkpt lat="49.330573956020395" lon="0.9747072978849837"><ele>39.5</ele><time>2026-03-22T18:16:37Z</time></trkpt><trkpt lat="49.33054101449293" lon="0.9746227934382157"><ele>38.333333333333336</ele><time>2026-03-22T18:16:38Z</time></trkpt><trkpt lat="49.33050026360618" lon="0.9744774178788176"><ele>37.166666666666664</ele><time>2026-03-22T18:16:39Z</time></trkpt><trkpt lat="49.33043027220593" lon="0.974387670491617"><ele>36.0</ele><time>2026-03-22T18:16:40Z</time></trkpt><trkpt lat="49.330355631856186" lon="0.9742823974459619"><ele>34.5</ele><time>2026-03-22T18:16:41Z</time></trkpt><trkpt lat="49.33025085969346" lon="0.9742075529083855"><ele>33.0</ele><time>2026-03-22T18:16:42Z</time></trkpt><trkpt lat="49.330137598150216" lon="0.9741511094327163"><ele>31.5</ele><time>2026-03-22T18:16:43Z</time></trkpt><trkpt lat="49.32999645014076" lon="0.9741035879232979"><ele>30.0</ele><time>2026-03-22T18:16:44Z</time></trkpt><trkpt lat="49.32984121959925" lon="0.9740424218244146"><ele>29.0</ele><time>2026-03-22T18:16:45Z</time></trkpt><trkpt lat="49.32965557773051" lon="0.9739741334240548"><ele>28.0</ele><time>2026-03-22T18:16:46Z</time></trkpt><trkpt lat="49.329442853855575" lon="0.9739080238766238"><ele>27.0</ele><time>2026-03-22T18:16:47Z</time></trkpt><trkpt lat="49.329215446650075" lon="0.9738497870487323"><ele>27.0</ele><time>2026-03-22T18:16:47.999Z</time></trkpt><trkpt lat="49.32895971106245" lon="0.9737550448918059"><ele>27.0</ele><time>2026-03-22T18:16:48.999Z</time></trkpt><trkpt lat="49.32871774729981" lon="0.9736842143912927"><ele>28.666666666666664</ele><time>2026-03-22T18:16:49.999Z</time></trkpt><trkpt lat="49.32850227443676" lon="0.9736313296103826"><ele>30.333333333333332</ele><time>2026-03-22T18:16:50.999Z</time></trkpt><trkpt lat="49.32831529600253" lon="0.9735758435829287"><ele>32.0</ele><time>2026-03-22T18:16:51.999Z</time></trkpt><trkpt lat="49.32814970004276" lon="0.9735306010886382"><ele>32.75</ele><time>2026-03-22T18:16:52.999Z</time></trkpt><trkpt lat="49.32799087145463" lon="0.9734984460784638"><ele>33.5</ele><time>2026-03-22T18:16:53.999Z</time></trkpt><trkpt lat="49.3278485175766" lon="0.9734774876581651"><ele>34.25</ele><time>2026-03-22T18:16:54.999Z</time></trkpt><trkpt lat="49.32772111865201" lon="0.9734816284136217"><ele>35.0</ele><time>2026-03-22T18:16:55.999Z</time></trkpt><trkpt lat="49.327623659698105" lon="0.9735106744712175"><ele>35.0</ele><time>2026-03-22T18:16:56.999Z</time></trkpt><trkpt lat="49.32752141149526" lon="0.9735767327362538"><ele>35.0</ele><time>2026-03-22T18:16:57.999Z</time></trkpt><trkpt lat="49.32741240195926" lon="0.9737246122329206"><ele>35.0</ele><time>2026-03-22T18:16:58.999Z</time></trkpt><trkpt lat="49.32729381115196" lon="0.973894235421358"><ele>35.0</ele><time>2026-03-22T18:16:59.999Z</time></trkpt><trkpt lat="49.32719459138815" lon="0.97407728108539"><ele>32.666666666666664</ele><time>2026-03-22T18:17:00.999Z</time></trkpt><trkpt lat="49.32712317476085" lon="0.9742840900678121"><ele>30.333333333333336</ele><time>2026-03-22T18:17:01.999Z</time></trkpt><trkpt lat="49.32704481333108" lon="0.9745323255814043"><ele>28.0</ele><time>2026-03-22T18:17:02.999Z</time></trkpt><trkpt lat="49.32697564402519" lon="0.9747633397107243"><ele>28.0</ele><time>2026-03-22T18:17:03.999Z</time></trkpt><trkpt lat="49.326943332069334" lon="0.9749891930411027"><ele>28.0</ele><time>2026-03-22T18:17:04.999Z</time></trkpt><trkpt lat="49.326913969187316" lon="0.9751824615481409"><ele>28.0</ele><time>2026-03-22T18:17:05.999Z</time></trkpt><trkpt lat="49.32690001520413" lon="0.9753722163490304"><ele>28.0</ele><time>2026-03-22T18:17:06.999Z</time></trkpt><trkpt lat="49.32688381513107" lon="0.9755619321004062"><ele>28.2</ele><time>2026-03-22T18:17:07.999Z</time></trkpt><trkpt lat="49.32686413388117" lon="0.9757287180797378"><ele>28.4</ele><time>2026-03-22T18:17:08.999Z</time></trkpt><trkpt lat="49.326874690179025" lon="0.9758803971048284"><ele>28.599999999999998</ele><time>2026-03-22T18:17:09.999Z</time></trkpt><trkpt lat="49.326897814037586" lon="0.9760077747620488"><ele>28.799999999999997</ele><time>2026-03-22T18:17:10.999Z</time></trkpt><trkpt lat="49.32691279521154" lon="0.9761066229912571"><ele>29.0</ele><time>2026-03-22T18:17:11.999Z</time></trkpt><trkpt lat="49.32689848543882" lon="0.9762593270937453"><ele>28.5</ele><time>2026-03-22T18:17:13.999Z</time></trkpt><trkpt lat="49.326780960950344" lon="0.976326525531023"><ele>28.0</ele><time>2026-03-22T18:17:15.999Z</time></trkpt><trkpt lat="49.326680825683376" lon="0.9763708091471558"><ele>27.5</ele><time>2026-03-22T18:17:16.999Z</time></trkpt><trkpt lat="49.326535396205706" lon="0.9764005761239187"><ele>27.0</ele><time>2026-03-22T18:17:17.999Z</time></trkpt><trkpt lat="49.32636924985981" lon="0.976463737062059"><ele>29.333333333333336</ele><time>2026-03-22T18:17:18.999Z</time></trkpt><trkpt lat="49.326193900018055" lon="0.9765088958546362"><ele>31.666666666666668</ele><time>2026-03-22T18:17:19.999Z</time></trkpt><trkpt lat="49.32603814912286" lon="0.9765434420434137"><ele>34.0</ele><time>2026-03-22T18:17:20.999Z</time></trkpt><trkpt lat="49.32590113838193" lon="0.9765782980393275"><ele>34.0</ele><time>2026-03-22T18:17:21.999Z</time></trkpt><trkpt lat="49.325795286584174" lon="0.9766005963267484"><ele>34.0</ele><time>2026-03-22T18:17:22.999Z</time></trkpt><trkpt lat="49.32569710394423" lon="0.9765990622771457"><ele>34.0</ele><time>2026-03-22T18:17:23.999Z</time></trkpt><trkpt lat="49.3255939392243" lon="0.9765736222046005"><ele>34.0</ele><time>2026-03-22T18:17:24.999Z</time></trkpt><trkpt lat="49.325482855981264" lon="0.9765356097830035"><ele>34.0</ele><time>2026-03-22T18:17:25.999Z</time></trkpt><trkpt lat="49.32535017236421" lon="0.9764660323231137"><ele>35.5</ele><time>2026-03-22T18:17:26.999Z</time></trkpt><trkpt lat="49.325222620021464" lon="0.9763472681523739"><ele>37.0</ele><time>2026-03-22T18:17:27.999Z</time></trkpt><trkpt lat="49.32513431142009" lon="0.9762317150330777"><ele>38.5</ele><time>2026-03-22T18:17:28.999Z</time></trkpt><trkpt lat="49.32504417877195" lon="0.9761345516640797"><ele>40.0</ele><time>2026-03-22T18:17:29.999Z</time></trkpt><trkpt lat="49.32497377413278" lon="0.9760255544985842"><ele>40.0</ele><time>2026-03-22T18:17:30.999Z</time></trkpt><trkpt lat="49.32488621655437" lon="0.9758737048558892"><ele>40.0</ele><time>2026-03-22T18:17:31.999Z</time></trkpt><trkpt lat="49.324798809153215" lon="0.9756882741267511"><ele>40.0</ele><time>2026-03-22T18:17:32.999Z</time></trkpt><trkpt lat="49.324732675866" lon="0.9755108598563347"><ele>40.0</ele><time>2026-03-22T18:17:33.999Z</time></trkpt><trkpt lat="49.32467335870845" lon="0.9753563205778557"><ele>41.2</ele><time>2026-03-22T18:17:34.998Z</time></trkpt><trkpt lat="49.32461428081728" lon="0.9752222122619593"><ele>42.4</ele><time>2026-03-22T18:17:35.998Z</time></trkpt><trkpt lat="49.32455610187969" lon="0.9751054558589249"><ele>43.599999999999994</ele><time>2026-03-22T18:17:36.998Z</time></trkpt><trkpt lat="49.3244970635963" lon="0.9749924372959041"><ele>44.8</ele><time>2026-03-22T18:17:37.998Z</time></trkpt><trkpt lat="49.3244429610376" lon="0.9749109213831805"><ele>46.0</ele><time>2026-03-22T18:17:38.998Z</time></trkpt><trkpt lat="49.32438439278222" lon="0.9748311008961422"><ele>46.0</ele><time>2026-03-22T18:17:39.998Z</time></trkpt><trkpt lat="49.32431578990243" lon="0.9747234940679994"><ele>46.0</ele><time>2026-03-22T18:17:40.998Z</time></trkpt><trkpt lat="49.324242037319856" lon="0.9746066883451444"><ele>46.0</ele><time>2026-03-22T18:17:41.998Z</time></trkpt><trkpt lat="49.324172563924584" lon="0.974483341364295"><ele>46.0</ele><time>2026-03-22T18:17:42.998Z</time></trkpt><trkpt lat="49.32410155827486" lon="0.9744377126024716"><ele>46.0</ele><time>2026-03-22T18:17:43.998Z</time></trkpt><trkpt lat="49.32398274630252" lon="0.9744159991114625"><ele>46.4</ele><time>2026-03-22T18:17:44.998Z</time></trkpt><trkpt lat="49.323893602150854" lon="0.9744174702734002"><ele>46.8</ele><time>2026-03-22T18:17:45.998Z</time></trkpt><trkpt lat="49.32377344067534" lon="0.9744008777556069"><ele>47.199999999999996</ele><time>2026-03-22T18:17:46.998Z</time></trkpt><trkpt lat="49.32367764335954" lon="0.9743417148280163"><ele>47.599999999999994</ele><time>2026-03-22T18:17:47.998Z</time></trkpt><trkpt lat="49.32356538707607" lon="0.9742248421033732"><ele>48.0</ele><time>2026-03-22T18:17:48.998Z</time></trkpt><trkpt lat="49.32343083809882" lon="0.9740673608484377"><ele>48.0</ele><time>2026-03-22T18:17:49.998Z</time></trkpt><trkpt lat="49.32328374936882" lon="0.973870316656055"><ele>48.0</ele><time>2026-03-22T18:17:50.998Z</time></trkpt><trkpt lat="49.32311709032267" lon="0.9737150776267066"><ele>48.0</ele><time>2026-03-22T18:17:51.998Z</time></trkpt><trkpt lat="49.32292785339884" lon="0.9735884468767918"><ele>49.5</ele><time>2026-03-22T18:17:52.998Z</time></trkpt><trkpt lat="49.32271341014019" lon="0.9734847614919278"><ele>51.0</ele><time>2026-03-22T18:17:53.998Z</time></trkpt><trkpt lat="49.322499757067945" lon="0.9733727997050382"><ele>50.5</ele><time>2026-03-22T18:17:54.998Z</time></trkpt><trkpt lat="49.3222679308815" lon="0.9732633864875478"><ele>50.0</ele><time>2026-03-22T18:17:55.998Z</time></trkpt><trkpt lat="49.32200618338872" lon="0.9731287378961807"><ele>51.0</ele><time>2026-03-22T18:17:56.998Z</time></trkpt><trkpt lat="49.321758615323596" lon="0.9729735791839738"><ele>52.0</ele><time>2026-03-22T18:17:57.998Z</time></trkpt><trkpt lat="49.321534159342804" lon="0.9728503591272051"><ele>54.33333333333333</ele><time>2026-03-22T18:17:58.998Z</time></trkpt><trkpt lat="49.32134590158668" lon="0.9727507439640383"><ele>56.66666666666667</ele><time>2026-03-22T18:17:59.998Z</time></trkpt><trkpt lat="49.32117203917572" lon="0.9726771105354479"><ele>59.0</ele><time>2026-03-22T18:18:00.998Z</time></trkpt><trkpt lat="49.32100304417614" lon="0.9726317782537612"><ele>59.0</ele><time>2026-03-22T18:18:01.998Z</time></trkpt><trkpt lat="49.320830362231646" lon="0.9726349250099434"><ele>59.0</ele><time>2026-03-22T18:18:02.998Z</time></trkpt><trkpt lat="49.32065798170619" lon="0.9726354297310954"><ele>59.0</ele><time>2026-03-22T18:18:03.998Z</time></trkpt><trkpt lat="49.32049329721287" lon="0.9726481224285727"><ele>61.25</ele><time>2026-03-22T18:18:04.998Z</time></trkpt><trkpt lat="49.32035376734932" lon="0.9726452398304265"><ele>63.5</ele><time>2026-03-22T18:18:05.998Z</time></trkpt><trkpt lat="49.32023568109075" lon="0.9726389355870143"><ele>65.75</ele><time>2026-03-22T18:18:07Z</time></trkpt><trkpt lat="49.32013689252903" lon="0.9726074732917809"><ele>68.0</ele><time>2026-03-22T18:18:08Z</time></trkpt><trkpt lat="49.320039488763726" lon="0.9725439333458041"><ele>67.66666666666667</ele><time>2026-03-22T18:18:09Z</time></trkpt><trkpt lat="49.31991446070358" lon="0.9724616847984046"><ele>67.33333333333333</ele><time>2026-03-22T18:18:10Z</time></trkpt><trkpt lat="49.319773935770634" lon="0.9723608053831533"><ele>67.0</ele><time>2026-03-22T18:18:11Z</time></trkpt><trkpt lat="49.31961881838032" lon="0.9722534719040036"><ele>67.0</ele><time>2026-03-22T18:18:12Z</time></trkpt><trkpt lat="49.3194561896909" lon="0.9721444954562054"><ele>67.0</ele><time>2026-03-22T18:18:13Z</time></trkpt><trkpt lat="49.31933099490922" lon="0.9720291120184403"><ele>67.0</ele><time>2026-03-22T18:18:14Z</time></trkpt><trkpt lat="49.319210224332814" lon="0.9718944563388249"><ele>67.0</ele><time>2026-03-22T18:18:15Z</time></trkpt><trkpt lat="49.319068447433594" lon="0.971724443407829"><ele>67.0</ele><time>2026-03-22T18:18:16Z</time></trkpt><trkpt lat="49.318905592354135" lon="0.9715315218470048"><ele>67.0</ele><time>2026-03-22T18:18:17Z</time></trkpt><trkpt lat="49.318776510214825" lon="0.9713775016124111"><ele>67.75</ele><time>2026-03-22T18:18:18Z</time></trkpt><trkpt lat="49.31867465837579" lon="0.9712335251481117"><ele>68.5</ele><time>2026-03-22T18:18:19Z</time></trkpt><trkpt lat="49.31858240685533" lon="0.9710713845334542"><ele>69.25</ele><time>2026-03-22T18:18:20Z</time></trkpt><trkpt lat="49.31847668968337" lon="0.9708708598298537"><ele>70.0</ele><time>2026-03-22T18:18:21Z</time></trkpt><trkpt lat="49.31835550884968" lon="0.9706280652708115"><ele>70.0</ele><time>2026-03-22T18:18:22Z</time></trkpt><trkpt lat="49.318238994930695" lon="0.9703687103362864"><ele>70.0</ele><time>2026-03-22T18:18:23Z</time></trkpt><trkpt lat="49.31811482610125" lon="0.9700887797464326"><ele>70.0</ele><time>2026-03-22T18:18:24Z</time></trkpt><trkpt lat="49.31798058185665" lon="0.9698046757492429"><ele>76.0</ele><time>2026-03-22T18:18:25Z</time></trkpt><trkpt lat="49.317833166642366" lon="0.9695005243659125"><ele>82.0</ele><time>2026-03-22T18:18:26Z</time></trkpt><trkpt lat="49.317692840219735" lon="0.9692311500368221"><ele>80.33333333333333</ele><time>2026-03-22T18:18:27Z</time></trkpt><trkpt lat="49.317558079199095" lon="0.9690186797835528"><ele>78.66666666666667</ele><time>2026-03-22T18:18:28Z</time></trkpt><trkpt lat="49.31744312415745" lon="0.968850350742355"><ele>77.0</ele><time>2026-03-22T18:18:29Z</time></trkpt><trkpt lat="49.317332150554584" lon="0.9687134908495958"><ele>80.66666666666667</ele><time>2026-03-22T18:18:30Z</time></trkpt><trkpt lat="49.31721640094834" lon="0.9685540230986397"><ele>84.33333333333333</ele><time>2026-03-22T18:18:31Z</time></trkpt><trkpt lat="49.317100500098675" lon="0.9683903433420845"><ele>88.0</ele><time>2026-03-22T18:18:32Z</time></trkpt><trkpt lat="49.31698365869172" lon="0.9682019663540595"><ele>88.0</ele><time>2026-03-22T18:18:33Z</time></trkpt><trkpt lat="49.31686389583484" lon="0.9679985867964851"><ele>88.0</ele><time>2026-03-22T18:18:34Z</time></trkpt><trkpt lat="49.31675243507312" lon="0.9677953795140906"><ele>88.0</ele><time>2026-03-22T18:18:35Z</time></trkpt><trkpt lat="49.31665828109078" lon="0.9676215540317901"><ele>89.0</ele><time>2026-03-22T18:18:36Z</time></trkpt><trkpt lat="49.31656034045463" lon="0.9674817662210573"><ele>90.0</ele><time>2026-03-22T18:18:37Z</time></trkpt><trkpt lat="49.31644542247388" lon="0.9673304107957705"><ele>91.0</ele><time>2026-03-22T18:18:38Z</time></trkpt><trkpt lat="49.316305519252786" lon="0.9671666041537126"><ele>92.5</ele><time>2026-03-22T18:18:39Z</time></trkpt><trkpt lat="49.31617431595887" lon="0.9670299271645686"><ele>94.0</ele><time>2026-03-22T18:18:40Z</time></trkpt><trkpt lat="49.31607780923865" lon="0.9669071132350834"><ele>95.5</ele><time>2026-03-22T18:18:41Z</time></trkpt><trkpt lat="49.3159903568375" lon="0.966795077600539"><ele>97.0</ele><time>2026-03-22T18:18:42Z</time></trkpt><trkpt lat="49.31588730273267" lon="0.9666649621547819"><ele>97.33333333333334</ele><time>2026-03-22T18:18:43Z</time></trkpt><trkpt lat="49.315757539807144" lon="0.9665370564245949"><ele>97.66666666666666</ele><time>2026-03-22T18:18:44Z</time></trkpt><trkpt lat="49.31561879637054" lon="0.9664467499779469"><ele>98.0</ele><time>2026-03-22T18:18:45Z</time></trkpt><trkpt lat="49.31547857838312" lon="0.9663576581665311"><ele>99.0</ele><time>2026-03-22T18:18:46Z</time></trkpt><trkpt lat="49.315283792139084" lon="0.9662653606029015"><ele>100.0</ele><time>2026-03-22T18:18:47Z</time></trkpt><trkpt lat="49.31508968086261" lon="0.9661737229517638"><ele>101.0</ele><time>2026-03-22T18:18:48Z</time></trkpt><trkpt lat="49.314881060948295" lon="0.9660794646618682"><ele>105.5</ele><time>2026-03-22T18:18:49Z</time></trkpt><trkpt lat="49.314637005374095" lon="0.9659957593026729"><ele>110.0</ele><time>2026-03-22T18:18:50Z</time></trkpt><trkpt lat="49.31439635258776" lon="0.9659426403331323"><ele>110.0</ele><time>2026-03-22T18:18:51Z</time></trkpt><trkpt lat="49.31419608859623" lon="0.9659070803315258"><ele>110.0</ele><time>2026-03-22T18:18:52Z</time></trkpt><trkpt lat="49.314016956600234" lon="0.9658545359952169"><ele>110.0</ele><time>2026-03-22T18:18:52.999Z</time></trkpt><trkpt lat="49.31381723494846" lon="0.965774492207374"><ele>110.33333333333333</ele><time>2026-03-22T18:18:53.999Z</time></trkpt><trkpt lat="49.31362515612024" lon="0.9656787363068943"><ele>110.66666666666666</ele><time>2026-03-22T18:18:54.999Z</time></trkpt><trkpt lat="49.31345848248763" lon="0.9655928947538224"><ele>111.0</ele><time>2026-03-22T18:18:55.999Z</time></trkpt><trkpt lat="49.31331046985671" lon="0.9655086524309224"><ele>111.0</ele><time>2026-03-22T18:18:56.999Z</time></trkpt><trkpt lat="49.31318073565302" lon="0.9654269940349768"><ele>111.0</ele><time>2026-03-22T18:18:57.999Z</time></trkpt><trkpt lat="49.313053897364355" lon="0.9653330638022769"><ele>111.0</ele><time>2026-03-22T18:18:58.999Z</time></trkpt><trkpt lat="49.312944964576374" lon="0.9652464176016173"><ele>111.0</ele><time>2026-03-22T18:18:59.999Z</time></trkpt><trkpt lat="49.31284372607689" lon="0.9651692774792451"><ele>112.4</ele><time>2026-03-22T18:19:00.999Z</time></trkpt><trkpt lat="49.31274454002833" lon="0.9650801998754178"><ele>113.8</ele><time>2026-03-22T18:19:01.999Z</time></trkpt><trkpt lat="49.31266450088673" lon="0.9650111956026548"><ele>115.20000000000002</ele><time>2026-03-22T18:19:02.999Z</time></trkpt><trkpt lat="49.31258544624989" lon="0.9649087704402577"><ele>116.60000000000001</ele><time>2026-03-22T18:19:03.999Z</time></trkpt><trkpt lat="49.31249849427598" lon="0.9647805803370401"><ele>118.0</ele><time>2026-03-22T18:19:04.999Z</time></trkpt><trkpt lat="49.31242399904866" lon="0.9646128073144836"><ele>118.0</ele><time>2026-03-22T18:19:05.999Z</time></trkpt><trkpt lat="49.31235507422187" lon="0.9644392987839334"><ele>118.0</ele><time>2026-03-22T18:19:06.999Z</time></trkpt><trkpt lat="49.31229652206051" lon="0.9642579464787243"><ele>118.0</ele><time>2026-03-22T18:19:07.999Z</time></trkpt><trkpt lat="49.31224085125236" lon="0.9640678202507227"><ele>118.0</ele><time>2026-03-22T18:19:08.999Z</time></trkpt><trkpt lat="49.31215315254477" lon="0.9638604354056927"><ele>118.33333333333334</ele><time>2026-03-22T18:19:09.999Z</time></trkpt><trkpt lat="49.312032314928956" lon="0.9636496235415908"><ele>118.66666666666666</ele><time>2026-03-22T18:19:10.999Z</time></trkpt><trkpt lat="49.3118842626857" lon="0.9634285653527621"><ele>119.0</ele><time>2026-03-22T18:19:11.999Z</time></trkpt><trkpt lat="49.311746947155875" lon="0.9632101228888206"><ele>119.25</ele><time>2026-03-22T18:19:12.999Z</time></trkpt><trkpt lat="49.31163321804979" lon="0.9630256051055356"><ele>119.5</ele><time>2026-03-22T18:19:13.999Z</time></trkpt><trkpt lat="49.31154592823762" lon="0.9628467770950538"><ele>119.75</ele><time>2026-03-22T18:19:14.999Z</time></trkpt><trkpt lat="49.31144245183315" lon="0.9627169137158262"><ele>120.0</ele><time>2026-03-22T18:19:15.999Z</time></trkpt><trkpt lat="49.311333360722266" lon="0.9626261727197143"><ele>120.0</ele><time>2026-03-22T18:19:16.999Z</time></trkpt><trkpt lat="49.31121876823815" lon="0.9625571944958434"><ele>120.0</ele><time>2026-03-22T18:19:17.999Z</time></trkpt><trkpt lat="49.31112533564491" lon="0.9624927975561803"><ele>120.0</ele><time>2026-03-22T18:19:18.999Z</time></trkpt><trkpt lat="49.31105079316999" lon="0.9624394724649977"><ele>120.0</ele><time>2026-03-22T18:19:19.999Z</time></trkpt><trkpt lat="49.31098713084146" lon="0.9623989555794629"><ele>120.0</ele><time>2026-03-22T18:19:20.999Z</time></trkpt><trkpt lat="49.310884650357316" lon="0.9623224807367261"><ele>119.2</ele><time>2026-03-22T18:19:22.999Z</time></trkpt><trkpt lat="49.31083346031898" lon="0.9622213424250887"><ele>118.4</ele><time>2026-03-22T18:19:24.999Z</time></trkpt><trkpt lat="49.31083753425551" lon="0.9620750923055054"><ele>117.6</ele><time>2026-03-22T18:19:26.999Z</time></trkpt><trkpt lat="49.31088828350065" lon="0.9619162968222007"><ele>116.8</ele><time>2026-03-22T18:19:29.999Z</time></trkpt><trkpt lat="49.31091210875438" lon="0.9617966298167243"><ele>116.0</ele><time>2026-03-22T18:19:30.999Z</time></trkpt><trkpt lat="49.310962685924714" lon="0.9616381112707231"><ele>115.19999999999999</ele><time>2026-03-22T18:19:31.999Z</time></trkpt><trkpt lat="49.31099716883318" lon="0.9614526917608253"><ele>114.39999999999999</ele><time>2026-03-22T18:19:32.999Z</time></trkpt><trkpt lat="49.31101190154093" lon="0.9613060795847829"><ele>113.6</ele><time>2026-03-22T18:19:33.999Z</time></trkpt><trkpt lat="49.31100726557091" lon="0.9611720274201969"><ele>112.8</ele><time>2026-03-22T18:19:34.999Z</time></trkpt><trkpt lat="49.31098421823811" lon="0.9610595060606633"><ele>112.0</ele><time>2026-03-22T18:19:35.999Z</time></trkpt><trkpt lat="49.31093882821079" lon="0.9609690571641916"><ele>112.0</ele><time>2026-03-22T18:19:36.999Z</time></trkpt><trkpt lat="49.31086857560994" lon="0.960898153565083"><ele>111.99999999999999</ele><time>2026-03-22T18:19:37.999Z</time></trkpt><trkpt lat="49.310774861849076" lon="0.9608398042675795"><ele>111.99999999999999</ele><time>2026-03-22T18:19:38.999Z</time></trkpt><trkpt lat="49.3106883200531" lon="0.9608036871010033"><ele>112.0</ele><time>2026-03-22T18:19:39.999Z</time></trkpt><trkpt lat="49.31062113022611" lon="0.960772948838722"><ele>112.0</ele><time>2026-03-22T18:19:40.998Z</time></trkpt><trkpt lat="49.31054187634563" lon="0.960660926636324"><ele>112.0</ele><time>2026-03-22T18:19:42.998Z</time></trkpt><trkpt lat="49.310507695653456" lon="0.9605336291578233"><ele>111.99999999999999</ele><time>2026-03-22T18:19:44.998Z</time></trkpt><trkpt lat="49.31051085271654" lon="0.9604196608340826"><ele>111.99999999999999</ele><time>2026-03-22T18:19:46.998Z</time></trkpt><trkpt lat="49.31054494416305" lon="0.960301217192408"><ele>112.0</ele><time>2026-03-22T18:19:47.998Z</time></trkpt><trkpt lat="49.310578704013594" lon="0.9601216878030753"><ele>112.0</ele><time>2026-03-22T18:19:48.998Z</time></trkpt><trkpt lat="49.310601091737" lon="0.9599053704611382"><ele>113.0</ele><time>2026-03-22T18:19:49.998Z</time></trkpt><trkpt lat="49.31062245583866" lon="0.959670272050071"><ele>114.0</ele><time>2026-03-22T18:19:50.998Z</time></trkpt><trkpt lat="49.31064644180677" lon="0.9594599982006291"><ele>115.0</ele><time>2026-03-22T18:19:51.998Z</time></trkpt><trkpt lat="49.31066461918535" lon="0.9593099695074145"><ele>116.0</ele><time>2026-03-22T18:19:52.998Z</time></trkpt><trkpt lat="49.31066452807478" lon="0.9591903345696996"><ele>116.19999999999999</ele><time>2026-03-22T18:19:53.998Z</time></trkpt><trkpt lat="49.31063488559023" lon="0.9590933397050643"><ele>116.39999999999999</ele><time>2026-03-22T18:19:54.998Z</time></trkpt><trkpt lat="49.3105922078868" lon="0.9590064724596136"><ele>116.6</ele><time>2026-03-22T18:19:55.998Z</time></trkpt><trkpt lat="49.31052627882397" lon="0.9589395586366608"><ele>116.8</ele><time>2026-03-22T18:19:56.998Z</time></trkpt><trkpt lat="49.310432075601604" lon="0.9588613462051426"><ele>117.0</ele><time>2026-03-22T18:19:57.998Z</time></trkpt><trkpt lat="49.31032131393606" lon="0.9587448367197183"><ele>117.0</ele><time>2026-03-22T18:19:58.998Z</time></trkpt><trkpt lat="49.31020185339142" lon="0.9586068498180407"><ele>117.0</ele><time>2026-03-22T18:19:59.998Z</time></trkpt><trkpt lat="49.31010228277012" lon="0.9584701582297952"><ele>117.0</ele><time>2026-03-22T18:20:00.998Z</time></trkpt><trkpt lat="49.31001579502334" lon="0.9583620066500151"><ele>117.0</ele><time>2026-03-22T18:20:01.998Z</time></trkpt><trkpt lat="49.309933842983106" lon="0.9582932882025827"><ele>117.39999999999999</ele><time>2026-03-22T18:20:02.998Z</time></trkpt><trkpt lat="49.30985226535972" lon="0.9582562089137107"><ele>117.79999999999998</ele><time>2026-03-22T18:20:03.998Z</time></trkpt><trkpt lat="49.30977446861613" lon="0.9582461259406229"><ele>118.2</ele><time>2026-03-22T18:20:04.998Z</time></trkpt><trkpt lat="49.30967348976563" lon="0.9582418962010142"><ele>118.6</ele><time>2026-03-22T18:20:06.998Z</time></trkpt><trkpt lat="49.30957958171272" lon="0.9582282926286084"><ele>119.0</ele><time>2026-03-22T18:20:08.998Z</time></trkpt><trkpt lat="49.30948863412859" lon="0.9582429200638393"><ele>119.75</ele><time>2026-03-22T18:20:09.998Z</time></trkpt><trkpt lat="49.309399491392355" lon="0.958254121230172"><ele>120.5</ele><time>2026-03-22T18:20:10.998Z</time></trkpt><trkpt lat="49.30928025672297" lon="0.9582619819055971"><ele>121.25</ele><time>2026-03-22T18:20:11.998Z</time></trkpt><trkpt lat="49.3091219816058" lon="0.9582375727568512"><ele>122.0</ele><time>2026-03-22T18:20:13Z</time></trkpt><trkpt lat="49.308939001807616" lon="0.95818126021428"><ele>123.0</ele><time>2026-03-22T18:20:14Z</time></trkpt><trkpt lat="49.30873785026961" lon="0.9581033862549223"><ele>124.0</ele><time>2026-03-22T18:20:15Z</time></trkpt><trkpt lat="49.30851572409692" lon="0.9580201495494185"><ele>125.0</ele><time>2026-03-22T18:20:16Z</time></trkpt><trkpt lat="49.30828830636397" lon="0.9579319227959333"><ele>126.0</ele><time>2026-03-22T18:20:17Z</time></trkpt><trkpt lat="49.30805282289449" lon="0.9578224211617271"><ele>127.0</ele><time>2026-03-22T18:20:18Z</time></trkpt><trkpt lat="49.30784808614734" lon="0.9577213872427482"><ele>127.0</ele><time>2026-03-22T18:20:19Z</time></trkpt><trkpt lat="49.30766745914617" lon="0.9576436030781221"><ele>127.0</ele><time>2026-03-22T18:20:20Z</time></trkpt><trkpt lat="49.30750920189668" lon="0.9575729706592487"><ele>127.0</ele><time>2026-03-22T18:20:21Z</time></trkpt><trkpt lat="49.307374286128905" lon="0.9575160808885126"><ele>127.19999999999999</ele><time>2026-03-22T18:20:22Z</time></trkpt><trkpt lat="49.307265361033494" lon="0.9574435823741982"><ele>127.39999999999999</ele><time>2026-03-22T18:20:23Z</time></trkpt><trkpt lat="49.30715836727909" lon="0.957391952270904"><ele>127.60000000000001</ele><time>2026-03-22T18:20:24Z</time></trkpt><trkpt lat="49.30705454415512" lon="0.9573502749078335"><ele>127.80000000000001</ele><time>2026-03-22T18:20:25Z</time></trkpt><trkpt lat="49.30697128555774" lon="0.957277906191339"><ele>128.0</ele><time>2026-03-22T18:20:26Z</time></trkpt><trkpt lat="49.306908320610404" lon="0.9571969853546827"><ele>127.99999999999999</ele><time>2026-03-22T18:20:27Z</time></trkpt><trkpt lat="49.30685850679464" lon="0.9571141597155257"><ele>128.0</ele><time>2026-03-22T18:20:28Z</time></trkpt><trkpt lat="49.306826617435746" lon="0.9570295539649701"><ele>128.0</ele><time>2026-03-22T18:20:29Z</time></trkpt><trkpt lat="49.30681745131612" lon="0.9569324517288775"><ele>128.0</ele><time>2026-03-22T18:20:30Z</time></trkpt><trkpt lat="49.30682673280666" lon="0.9568207998978316"><ele>127.99999999999999</ele><time>2026-03-22T18:20:31Z</time></trkpt><trkpt lat="49.306840004084634" lon="0.9566856775799197"><ele>128.0</ele><time>2026-03-22T18:20:32Z</time></trkpt><trkpt lat="49.30684838528966" lon="0.9565449131426498"><ele>128.0</ele><time>2026-03-22T18:20:33Z</time></trkpt><trkpt lat="49.30684899414758" lon="0.9564179944134309"><ele>128.0</ele><time>2026-03-22T18:20:34Z</time></trkpt><trkpt lat="49.30684505164315" lon="0.9563099915806643"><ele>128.0</ele><time>2026-03-22T18:20:35Z</time></trkpt><trkpt lat="49.30685818767733" lon="0.9561881463875305"><ele>128.0</ele><time>2026-03-22T18:20:37Z</time></trkpt><trkpt lat="49.306710736159324" lon="0.9561779171487079"><ele>128.0</ele><time>2026-03-22T18:20:38Z</time></trkpt><trkpt lat="49.30662712815909" lon="0.9561608247231743"><ele>128.0</ele><time>2026-03-22T18:20:39Z</time></trkpt><trkpt lat="49.30656020706994" lon="0.9561625609815199"><ele>128.0</ele><time>2026-03-22T18:20:40Z</time></trkpt><trkpt lat="49.30649721262105" lon="0.9561641953658417"><ele>128.0</ele><time>2026-03-22T18:20:41Z</time></trkpt><trkpt lat="49.30645961870407" lon="0.9564316869446358"><ele>128.0</ele><time>2026-03-22T18:20:42Z</time></trkpt><trkpt lat="49.30641268403306" lon="0.9565722584559053"><ele>128.0</ele><time>2026-03-22T18:20:43Z</time></trkpt><trkpt lat="49.30639262502583" lon="0.956749976558547"><ele>128.33333333333331</ele><time>2026-03-22T18:20:44Z</time></trkpt><trkpt lat="49.306378043053535" lon="0.9569615003934021"><ele>128.66666666666666</ele><time>2026-03-22T18:20:45Z</time></trkpt><trkpt lat="49.30635993063729" lon="0.9572245771622381"><ele>129.0</ele><time>2026-03-22T18:20:46Z</time></trkpt><trkpt lat="49.306340031045806" lon="0.9575103058999784"><ele>129.0</ele><time>2026-03-22T18:20:47Z</time></trkpt><trkpt lat="49.306324338372924" lon="0.9578640553452746"><ele>129.0</ele><time>2026-03-22T18:20:48Z</time></trkpt><trkpt lat="49.306281492975884" lon="0.9582252378958436"><ele>129.0</ele><time>2026-03-22T18:20:49Z</time></trkpt><trkpt lat="49.306248104612685" lon="0.9585995214342719"><ele>129.0</ele><time>2026-03-22T18:20:50Z</time></trkpt><trkpt lat="49.30621685119836" lon="0.958929084305703"><ele>128.33333333333334</ele><time>2026-03-22T18:20:51Z</time></trkpt><trkpt lat="49.3061838695765" lon="0.9592291905682536"><ele>127.66666666666667</ele><time>2026-03-22T18:20:52Z</time></trkpt><trkpt lat="49.30614073561296" lon="0.9595010546478594"><ele>127.0</ele><time>2026-03-22T18:20:53Z</time></trkpt><trkpt lat="49.306088587732106" lon="0.9597500223816557"><ele>127.0</ele><time>2026-03-22T18:20:54Z</time></trkpt><trkpt lat="49.306030486270274" lon="0.9599930362067138"><ele>127.0</ele><time>2026-03-22T18:20:55Z</time></trkpt><trkpt lat="49.30595695184935" lon="0.9602685126191104"><ele>127.0</ele><time>2026-03-22T18:20:56Z</time></trkpt><trkpt lat="49.30586381040904" lon="0.9605720312534566"><ele>127.33333333333334</ele><time>2026-03-22T18:20:57Z</time></trkpt><trkpt lat="49.30581181754718" lon="0.9608845006760051"><ele>127.66666666666666</ele><time>2026-03-22T18:20:57.999Z</time></trkpt><trkpt lat="49.305726474849365" lon="0.9611368475705009"><ele>128.0</ele><time>2026-03-22T18:20:58.999Z</time></trkpt><trkpt lat="49.305626171664116" lon="0.9613576665588174"><ele>127.33333333333333</ele><time>2026-03-22T18:20:59.999Z</time></trkpt><trkpt lat="49.30556352742785" lon="0.9615885203453337"><ele>126.66666666666666</ele><time>2026-03-22T18:21:00.999Z</time></trkpt><trkpt lat="49.305490423251385" lon="0.9617956986005568"><ele>126.0</ele><time>2026-03-22T18:21:01.999Z</time></trkpt><trkpt lat="49.305420713865146" lon="0.9619900607700793"><ele>126.0</ele><time>2026-03-22T18:21:02.999Z</time></trkpt><trkpt lat="49.30535637270631" lon="0.9621848306772325"><ele>126.0</ele><time>2026-03-22T18:21:03.999Z</time></trkpt><trkpt lat="49.3052931690068" lon="0.9623644121174048"><ele>126.0</ele><time>2026-03-22T18:21:04.999Z</time></trkpt><trkpt lat="49.30523030417483" lon="0.9625450777127106"><ele>126.0</ele><time>2026-03-22T18:21:05.999Z</time></trkpt><trkpt lat="49.30515719851725" lon="0.9627095581877924"><ele>126.19999999999999</ele><time>2026-03-22T18:21:06.999Z</time></trkpt><trkpt lat="49.30510255305194" lon="0.9628584532627307"><ele>126.39999999999999</ele><time>2026-03-22T18:21:07.999Z</time></trkpt><trkpt lat="49.305061111515876" lon="0.9630152546852092"><ele>126.6</ele><time>2026-03-22T18:21:08.999Z</time></trkpt><trkpt lat="49.30501117424623" lon="0.9631468745315526"><ele>126.8</ele><time>2026-03-22T18:21:09.999Z</time></trkpt><trkpt lat="49.30496607559493" lon="0.9632530414234369"><ele>127.0</ele><time>2026-03-22T18:21:10.999Z</time></trkpt><trkpt lat="49.30491587788544" lon="0.9633695305957731"><ele>127.0</ele><time>2026-03-22T18:21:12.999Z</time></trkpt><trkpt lat="49.3048736508908" lon="0.96344230091304"><ele>127.0</ele><time>2026-03-22T18:21:14.999Z</time></trkpt><trkpt lat="49.30479034674034" lon="0.9633956919246497"><ele>127.0</ele><time>2026-03-22T18:21:16.999Z</time></trkpt><trkpt lat="49.3047138419453" lon="0.9631626652421105"><ele>127.0</ele><time>2026-03-22T18:21:18.999Z</time></trkpt><trkpt lat="49.30462393531618" lon="0.9629502775774074"><ele>127.33333333333334</ele><time>2026-03-22T18:21:19.999Z</time></trkpt><trkpt lat="49.304533808986086" lon="0.9626903824539007"><ele>127.66666666666666</ele><time>2026-03-22T18:21:20.999Z</time></trkpt><trkpt lat="49.30444366170142" lon="0.9624139564696248"><ele>128.0</ele><time>2026-03-22T18:21:21.999Z</time></trkpt><trkpt lat="49.304343098965056" lon="0.9621004877716881"><ele>127.33333333333333</ele><time>2026-03-22T18:21:22.999Z</time></trkpt><trkpt lat="49.30425650202378" lon="0.9618032189159117"><ele>126.66666666666666</ele><time>2026-03-22T18:21:23.999Z</time></trkpt><trkpt lat="49.304166578142585" lon="0.9615766199541671"><ele>126.0</ele><time>2026-03-22T18:21:24.999Z</time></trkpt><trkpt lat="49.30407555148683" lon="0.9613956925838706"><ele>125.75</ele><time>2026-03-22T18:21:25.999Z</time></trkpt><trkpt lat="49.30400626152562" lon="0.9612781207300808"><ele>125.5</ele><time>2026-03-22T18:21:26.999Z</time></trkpt><trkpt lat="49.30395364810447" lon="0.9612101681209426"><ele>125.25</ele><time>2026-03-22T18:21:27.999Z</time></trkpt><trkpt lat="49.30379348350749" lon="0.9611686869584163"><ele>125.0</ele><time>2026-03-22T18:21:29.999Z</time></trkpt><trkpt lat="49.30364055214033" lon="0.9611418329562448"><ele>125.0</ele><time>2026-03-22T18:21:30.999Z</time></trkpt><trkpt lat="49.303477061844234" lon="0.9611252076101737"><ele>125.0</ele><time>2026-03-22T18:21:31.999Z</time></trkpt><trkpt lat="49.30332609296182" lon="0.9611151635831233"><ele>125.0</ele><time>2026-03-22T18:21:32.999Z</time></trkpt><trkpt lat="49.30320556222024" lon="0.9610783339195381"><ele>125.0</ele><time>2026-03-22T18:21:33.999Z</time></trkpt><trkpt lat="49.30309233074418" lon="0.9610181187865722"><ele>124.0</ele><time>2026-03-22T18:21:34.999Z</time></trkpt><trkpt lat="49.302968156549895" lon="0.9609341309971894"><ele>123.0</ele><time>2026-03-22T18:21:35.999Z</time></trkpt><trkpt lat="49.30284563198929" lon="0.9608676952738049"><ele>122.0</ele><time>2026-03-22T18:21:36.999Z</time></trkpt><trkpt lat="49.30273994577031" lon="0.9607740233882641"><ele>121.0</ele><time>2026-03-22T18:21:37.999Z</time></trkpt><trkpt lat="49.302643362995695" lon="0.9607020076322916"><ele>121.0</ele><time>2026-03-22T18:21:38.999Z</time></trkpt><trkpt lat="49.30255130301165" lon="0.960639985016643"><ele>121.0</ele><time>2026-03-22T18:21:39.999Z</time></trkpt><trkpt lat="49.30246256928352" lon="0.9605829318049711"><ele>121.0</ele><time>2026-03-22T18:21:40.999Z</time></trkpt><trkpt lat="49.302376023920736" lon="0.9605338018680163"><ele>121.0</ele><time>2026-03-22T18:21:41.999Z</time></trkpt><trkpt lat="49.302294278190516" lon="0.9604913650669071"><ele>121.0</ele><time>2026-03-22T18:21:42.999Z</time></trkpt><trkpt lat="49.302217187998735" lon="0.9604579999214665"><ele>120.33333333333334</ele><time>2026-03-22T18:21:43.999Z</time></trkpt><trkpt lat="49.30213857164391" lon="0.9604286267538088"><ele>119.66666666666667</ele><time>2026-03-22T18:21:44.998Z</time></trkpt><trkpt lat="49.30206141488625" lon="0.9604087901592951"><ele>119.0</ele><time>2026-03-22T18:21:45.998Z</time></trkpt><trkpt lat="49.3019882401107" lon="0.9603868380766194"><ele>118.33333333333334</ele><time>2026-03-22T18:21:46.998Z</time></trkpt><trkpt lat="49.30189146758463" lon="0.9603604791739019"><ele>117.66666666666667</ele><time>2026-03-22T18:21:48.998Z</time></trkpt><trkpt lat="49.30181999762432" lon="0.9603503372137904"><ele>117.0</ele><time>2026-03-22T18:21:51.998Z</time></trkpt><trkpt lat="49.30171273619391" lon="0.9604032700138302"><ele>117.0</ele><time>2026-03-22T18:21:53.998Z</time></trkpt><trkpt lat="49.301652549611205" lon="0.9605232864635652"><ele>117.0</ele><time>2026-03-22T18:21:54.998Z</time></trkpt><trkpt lat="49.30155111104494" lon="0.9606817135716098"><ele>117.0</ele><time>2026-03-22T18:21:55.998Z</time></trkpt><trkpt lat="49.30142620884057" lon="0.9608979496848609"><ele>117.0</ele><time>2026-03-22T18:21:56.998Z</time></trkpt><trkpt lat="49.301304067092595" lon="0.9611168370460079"><ele>116.0</ele><time>2026-03-22T18:21:57.998Z</time></trkpt><trkpt lat="49.30118125704387" lon="0.9613352108249624"><ele>115.0</ele><time>2026-03-22T18:21:58.998Z</time></trkpt><trkpt lat="49.30107999253748" lon="0.9614850528656355"><ele>114.0</ele><time>2026-03-22T18:21:59.998Z</time></trkpt><trkpt lat="49.301005672986506" lon="0.9616331219527953"><ele>114.5</ele><time>2026-03-22T18:22:00.998Z</time></trkpt><trkpt lat="49.30095233240056" lon="0.9617571258237099"><ele>115.0</ele><time>2026-03-22T18:22:01.998Z</time></trkpt><trkpt lat="49.300927888325745" lon="0.961868711617436"><ele>115.5</ele><time>2026-03-22T18:22:02.998Z</time></trkpt><trkpt lat="49.300871471700866" lon="0.9619229843922198"><ele>116.0</ele><time>2026-03-22T18:22:03.998Z</time></trkpt><trkpt lat="49.30080614747726" lon="0.961925526063863"><ele>116.5</ele><time>2026-03-22T18:22:04.998Z</time></trkpt><trkpt lat="49.3007135818078" lon="0.9618919106927618"><ele>117.0</ele><time>2026-03-22T18:22:05.998Z</time></trkpt><trkpt lat="49.30059594867744" lon="0.9618327335315869"><ele>117.33333333333334</ele><time>2026-03-22T18:22:06.998Z</time></trkpt><trkpt lat="49.30044589545215" lon="0.9617632485984057"><ele>117.66666666666667</ele><time>2026-03-22T18:22:07.998Z</time></trkpt><trkpt lat="49.300266335238206" lon="0.9616838481338748"><ele>118.0</ele><time>2026-03-22T18:22:08.998Z</time></trkpt><trkpt lat="49.300069082892435" lon="0.9615961375714112"><ele>118.5</ele><time>2026-03-22T18:22:09.998Z</time></trkpt><trkpt lat="49.299859880616204" lon="0.9615004313070823"><ele>119.0</ele><time>2026-03-22T18:22:10.998Z</time></trkpt><trkpt lat="49.299632484841105" lon="0.9613984110357984"><ele>120.33333333333333</ele><time>2026-03-22T18:22:11.998Z</time></trkpt><trkpt lat="49.29940930137978" lon="0.9612986198032427"><ele>121.66666666666666</ele><time>2026-03-22T18:22:12.998Z</time></trkpt><trkpt lat="49.29921263404005" lon="0.9612090356418239"><ele>123.0</ele><time>2026-03-22T18:22:13.998Z</time></trkpt><trkpt lat="49.29904369359314" lon="0.9611325940692662"><ele>123.75</ele><time>2026-03-22T18:22:14.998Z</time></trkpt><trkpt lat="49.298889487602324" lon="0.9610638565112951"><ele>124.5</ele><time>2026-03-22T18:22:15.998Z</time></trkpt><trkpt lat="49.29876589302636" lon="0.961005917319957"><ele>125.25</ele><time>2026-03-22T18:22:16.998Z</time></trkpt><trkpt lat="49.298667383341886" lon="0.9609577038055052"><ele>126.0</ele><time>2026-03-22T18:22:17.998Z</time></trkpt><trkpt lat="49.2985794498021" lon="0.9609108129141755"><ele>126.0</ele><time>2026-03-22T18:22:19Z</time></trkpt><trkpt lat="49.298508370817764" lon="0.9608738257711273"><ele>126.0</ele><time>2026-03-22T18:22:20Z</time></trkpt><trkpt lat="49.29840916201207" lon="0.96083095882475"><ele>126.0</ele><time>2026-03-22T18:22:22Z</time></trkpt><trkpt lat="49.298262757756255" lon="0.9610730319252511"><ele>126.0</ele><time>2026-03-22T18:22:24Z</time></trkpt><trkpt lat="49.298179927853894" lon="0.9612561501804228"><ele>127.0</ele><time>2026-03-22T18:22:25Z</time></trkpt><trkpt lat="49.298081000887265" lon="0.9614799785766093"><ele>128.0</ele><time>2026-03-22T18:22:26Z</time></trkpt><trkpt lat="49.29796706743536" lon="0.9617469086805711"><ele>129.0</ele><time>2026-03-22T18:22:27Z</time></trkpt><trkpt lat="49.297845979829106" lon="0.9620387485489114"><ele>129.0</ele><time>2026-03-22T18:22:28Z</time></trkpt><trkpt lat="49.29772216775892" lon="0.9623590212223259"><ele>129.0</ele><time>2026-03-22T18:22:29Z</time></trkpt><trkpt lat="49.297613809711684" lon="0.9627125144171976"><ele>128.5</ele><time>2026-03-22T18:22:30Z</time></trkpt><trkpt lat="49.29748041531677" lon="0.9630753838122921"><ele>128.0</ele><time>2026-03-22T18:22:31Z</time></trkpt><trkpt lat="49.297385871743764" lon="0.9634675588473658"><ele>128.0</ele><time>2026-03-22T18:22:32Z</time></trkpt><trkpt lat="49.29727955324389" lon="0.9638691891239786"><ele>128.0</ele><time>2026-03-22T18:22:33Z</time></trkpt><trkpt lat="49.29717649753563" lon="0.9642804203099864"><ele>128.5</ele><time>2026-03-22T18:22:34Z</time></trkpt><trkpt lat="49.297074744165144" lon="0.9647012306982303"><ele>129.0</ele><time>2026-03-22T18:22:35Z</time></trkpt><trkpt lat="49.29697972385851" lon="0.9650839555274795"><ele>129.0</ele><time>2026-03-22T18:22:36Z</time></trkpt><trkpt lat="49.296904839019454" lon="0.9654136082837174"><ele>129.0</ele><time>2026-03-22T18:22:37Z</time></trkpt><trkpt lat="49.29684816383692" lon="0.965689834063434"><ele>129.0</ele><time>2026-03-22T18:22:38Z</time></trkpt><trkpt lat="49.2967900824387" lon="0.9659158140850824"><ele>129.0</ele><time>2026-03-22T18:22:39Z</time></trkpt><trkpt lat="49.29674664962287" lon="0.9661135963614229"><ele>129.0</ele><time>2026-03-22T18:22:40Z</time></trkpt><trkpt lat="49.29670096953212" lon="0.9663005696763145"><ele>129.0</ele><time>2026-03-22T18:22:41Z</time></trkpt><trkpt lat="49.296655590678625" lon="0.9665045286264597"><ele>129.0</ele><time>2026-03-22T18:22:42Z</time></trkpt><trkpt lat="49.296614255160435" lon="0.9667956030736885"><ele>129.0</ele><time>2026-03-22T18:22:43Z</time></trkpt><trkpt lat="49.29655857387307" lon="0.9671431410201532"><ele>129.0</ele><time>2026-03-22T18:22:44Z</time></trkpt><trkpt lat="49.29653710694682" lon="0.9675142678007056"><ele>128.0</ele><time>2026-03-22T18:22:45Z</time></trkpt><trkpt lat="49.29650363979929" lon="0.9679019513388226"><ele>127.0</ele><time>2026-03-22T18:22:46Z</time></trkpt><trkpt lat="49.29644848180012" lon="0.9683219685687731"><ele>126.5</ele><time>2026-03-22T18:22:47Z</time></trkpt><trkpt lat="49.29642901463707" lon="0.9687590565855354"><ele>126.0</ele><time>2026-03-22T18:22:48Z</time></trkpt><trkpt lat="49.296376161418756" lon="0.9691796839176438"><ele>126.0</ele><time>2026-03-22T18:22:49Z</time></trkpt><trkpt lat="49.296339843924976" lon="0.9695532019621641"><ele>126.0</ele><time>2026-03-22T18:22:50Z</time></trkpt><trkpt lat="49.29631130843601" lon="0.96986860661385"><ele>125.25</ele><time>2026-03-22T18:22:51Z</time></trkpt><trkpt lat="49.29628819821787" lon="0.9701300119557442"><ele>124.5</ele><time>2026-03-22T18:22:52Z</time></trkpt><trkpt lat="49.29627041900778" lon="0.9703507980796213"><ele>123.75</ele><time>2026-03-22T18:22:53Z</time></trkpt><trkpt lat="49.29625662399309" lon="0.9705290365798809"><ele>123.0</ele><time>2026-03-22T18:22:54Z</time></trkpt><trkpt lat="49.296243263736365" lon="0.9706711326177999"><ele>123.0</ele><time>2026-03-22T18:22:55Z</time></trkpt><trkpt lat="49.29623689368728" lon="0.970775362964152"><ele>123.00000000000001</ele><time>2026-03-22T18:22:56Z</time></trkpt><trkpt lat="49.29619625321738" lon="0.9708532467253912"><ele>123.00000000000001</ele><time>2026-03-22T18:22:57Z</time></trkpt><trkpt lat="49.296125110915625" lon="0.9709326063308036"><ele>123.0</ele><time>2026-03-22T18:22:58Z</time></trkpt><trkpt lat="49.29601136005652" lon="0.9710277535883296"><ele>123.0</ele><time>2026-03-22T18:22:59Z</time></trkpt><trkpt lat="49.295919386954495" lon="0.9711898285340314"><ele>122.75</ele><time>2026-03-22T18:23:00Z</time></trkpt><trkpt lat="49.295799359450136" lon="0.9712920383452623"><ele>122.5</ele><time>2026-03-22T18:23:01Z</time></trkpt><trkpt lat="49.295679317660685" lon="0.9713701302886523"><ele>122.25</ele><time>2026-03-22T18:23:02Z</time></trkpt><trkpt lat="49.29558402007494" lon="0.9714389261691064"><ele>122.0</ele><time>2026-03-22T18:23:02.999Z</time></trkpt><trkpt lat="49.295496731960085" lon="0.9714969200455822"><ele>121.8</ele><time>2026-03-22T18:23:03.999Z</time></trkpt><trkpt lat="49.29541052631756" lon="0.971519813294239"><ele>121.6</ele><time>2026-03-22T18:23:04.999Z</time></trkpt><trkpt lat="49.29531943578515" lon="0.9714892238166418"><ele>121.39999999999999</ele><time>2026-03-22T18:23:05.999Z</time></trkpt><trkpt lat="49.295215562377734" lon="0.9714227946287131"><ele>121.19999999999999</ele><time>2026-03-22T18:23:06.999Z</time></trkpt><trkpt lat="49.29512438319469" lon="0.9713113547203387"><ele>121.0</ele><time>2026-03-22T18:23:07.999Z</time></trkpt><trkpt lat="49.29504047921568" lon="0.9712325512286084"><ele>121.0</ele><time>2026-03-22T18:23:08.999Z</time></trkpt><trkpt lat="49.294958594958636" lon="0.9711440904524044"><ele>121.0</ele><time>2026-03-22T18:23:09.999Z</time></trkpt><trkpt lat="49.294871524657644" lon="0.9710658041928399"><ele>121.0</ele><time>2026-03-22T18:23:10.999Z</time></trkpt><trkpt lat="49.29477731530727" lon="0.9709867830816735"><ele>121.0</ele><time>2026-03-22T18:23:11.999Z</time></trkpt><trkpt lat="49.294678306382295" lon="0.9709287986066389"><ele>121.0</ele><time>2026-03-22T18:23:12.999Z</time></trkpt><trkpt lat="49.294567283028975" lon="0.9709158524098623"><ele>120.25</ele><time>2026-03-22T18:23:13.999Z</time></trkpt><trkpt lat="49.29445460077843" lon="0.9709475695813834"><ele>119.5</ele><time>2026-03-22T18:23:14.999Z</time></trkpt><trkpt lat="49.294340431248855" lon="0.9710189641190194"><ele>118.75</ele><time>2026-03-22T18:23:15.999Z</time></trkpt><trkpt lat="49.294219407880455" lon="0.9711005393632917"><ele>118.0</ele><time>2026-03-22T18:23:16.999Z</time></trkpt><trkpt lat="49.29410076398118" lon="0.9711689933896812"><ele>118.00000000000001</ele><time>2026-03-22T18:23:17.999Z</time></trkpt><trkpt lat="49.293992563436" lon="0.9712227791403382"><ele>118.0</ele><time>2026-03-22T18:23:18.999Z</time></trkpt><trkpt lat="49.293902253822665" lon="0.9712710305120699"><ele>118.0</ele><time>2026-03-22T18:23:19.999Z</time></trkpt><trkpt lat="49.29383055716905" lon="0.9713208837376933"><ele>118.0</ele><time>2026-03-22T18:23:20.999Z</time></trkpt><trkpt lat="49.29377411721195" lon="0.9713683204301466"><ele>118.00000000000001</ele><time>2026-03-22T18:23:21.999Z</time></trkpt><trkpt lat="49.29369532867563" lon="0.9714292655761232"><ele>118.0</ele><time>2026-03-22T18:23:23.999Z</time></trkpt><trkpt lat="49.29363308020111" lon="0.971478726883202"><ele>118.0</ele><time>2026-03-22T18:23:24.999Z</time></trkpt><trkpt lat="49.29355529684308" lon="0.9715349336791926"><ele>118.00000000000001</ele><time>2026-03-22T18:23:25.999Z</time></trkpt><trkpt lat="49.29346744579858" lon="0.9715968056375998"><ele>118.00000000000001</ele><time>2026-03-22T18:23:26.999Z</time></trkpt><trkpt lat="49.293381902781654" lon="0.9716668978367524"><ele>118.0</ele><time>2026-03-22T18:23:27.999Z</time></trkpt><trkpt lat="49.29330149795965" lon="0.9717269218576651"><ele>118.0</ele><time>2026-03-22T18:23:28.999Z</time></trkpt><trkpt lat="49.2932201727866" lon="0.9717889602154596"><ele>118.00000000000001</ele><time>2026-03-22T18:23:29.999Z</time></trkpt><trkpt lat="49.29314162380308" lon="0.9718478780142908"><ele>118.0</ele><time>2026-03-22T18:23:30.999Z</time></trkpt><trkpt lat="49.293072978127896" lon="0.9719013468155677"><ele>118.0</ele><time>2026-03-22T18:23:31.999Z</time></trkpt><trkpt lat="49.293008087725646" lon="0.9719579652162936"><ele>118.0</ele><time>2026-03-22T18:23:32.999Z</time></trkpt><trkpt lat="49.292949400618994" lon="0.9719986268322127"><ele>118.00000000000001</ele><time>2026-03-22T18:23:33.999Z</time></trkpt><trkpt lat="49.29284796234845" lon="0.9720562766379126"><ele>118.0</ele><time>2026-03-22T18:23:35.999Z</time></trkpt><trkpt lat="49.29278532433056" lon="0.9720662491031952"><ele>118.0</ele><time>2026-03-22T18:23:37.999Z</time></trkpt><trkpt lat="49.292770473254244" lon="0.9723031836417876"><ele>118.00000000000001</ele><time>2026-03-22T18:23:39.999Z</time></trkpt><trkpt lat="49.29278223847676" lon="0.9724053061182591"><ele>118.00000000000001</ele><time>2026-03-22T18:23:40.999Z</time></trkpt><trkpt lat="49.29279910237553" lon="0.9725150151544744"><ele>118.0</ele><time>2026-03-22T18:23:41.999Z</time></trkpt><trkpt lat="49.29284437371797" lon="0.9726644812546005"><ele>118.0</ele><time>2026-03-22T18:23:43.999Z</time></trkpt><trkpt lat="49.292881733774166" lon="0.9727853302900177"><ele>117.85714285714286</ele><time>2026-03-22T18:23:45.999Z</time></trkpt><trkpt lat="49.29286828992762" lon="0.9728863298373035"><ele>117.71428571428572</ele><time>2026-03-22T18:23:47.999Z</time></trkpt><trkpt lat="49.292800309788205" lon="0.9728733622099904"><ele>117.57142857142858</ele><time>2026-03-22T18:24:14.998Z</time></trkpt><trkpt lat="49.292736148344964" lon="0.9729612909602681"><ele>117.42857142857143</ele><time>2026-03-22T18:24:46Z</time></trkpt><trkpt lat="49.29267326643549" lon="0.9729716760817136"><ele>117.2857142857143</ele><time>2026-03-22T18:25:05.999Z</time></trkpt><trkpt lat="49.29275239214235" lon="0.9729584639288434"><ele>117.14285714285715</ele><time>2026-03-22T18:25:32.999Z</time></trkpt><trkpt lat="49.29281265081874" lon="0.9730024659675083"><ele>117.0</ele><time>2026-03-22T18:25:34.999Z</time></trkpt><trkpt lat="49.29267945240144" lon="0.972925843232581"><ele>117.0</ele><time>2026-03-22T18:27:01.022Z</time></trkpt><trkpt lat="49.292758102730446" lon="0.9730443088838059"><ele>117.0</ele><time>2026-03-22T18:27:31Z</time></trkpt><trkpt lat="49.29277127477495" lon="0.9729466657968004"><ele>117.0</ele><time>2026-03-22T18:29:12.998Z</time></trkpt><trkpt lat="49.29281668812641" lon="0.9728796773961574"><ele>117.0</ele><time>2026-03-22T18:29:40.999Z</time></trkpt><trkpt lat="49.29290129329417" lon="0.9728535673303542"><ele>117.0</ele><time>2026-03-22T18:30:03.999Z</time></trkpt><trkpt lat="49.29295340103168" lon="0.9729554273022661"><ele>117.0</ele><time>2026-03-22T18:30:05.999Z</time></trkpt><trkpt lat="49.293004992482" lon="0.9730569328170204"><ele>116.75</ele><time>2026-03-22T18:30:07.999Z</time></trkpt><trkpt lat="49.293105405157185" lon="0.9730845889112371"><ele>116.5</ele><time>2026-03-22T18:30:09.999Z</time></trkpt><trkpt lat="49.293222290855795" lon="0.9730665187475824"><ele>116.25</ele><time>2026-03-22T18:30:11.999Z</time></trkpt><trkpt lat="49.29334292931984" lon="0.9730454791901356"><ele>116.0</ele><time>2026-03-22T18:30:13.999Z</time></trkpt><trkpt lat="49.29346504849772" lon="0.9730410608012434"><ele>115.99999999999999</ele><time>2026-03-22T18:30:15.999Z</time></trkpt><trkpt lat="49.293576544309914" lon="0.9731223464015015"><ele>116.0</ele><time>2026-03-22T18:30:17.999Z</time></trkpt><trkpt lat="49.29363410307827" lon="0.973179290070829"><ele>116.0</ele><time>2026-03-22T18:30:18.999Z</time></trkpt><trkpt lat="49.29369113154893" lon="0.9732323793644586"><ele>116.0</ele><time>2026-03-22T18:30:19.999Z</time></trkpt><trkpt lat="49.293745047081536" lon="0.9732929423330091"><ele>115.99999999999999</ele><time>2026-03-22T18:30:20.999Z</time></trkpt><trkpt lat="49.29379277419583" lon="0.9733656644449029"><ele>116.0</ele><time>2026-03-22T18:30:21.999Z</time></trkpt><trkpt lat="49.29384729135554" lon="0.973426152855673"><ele>116.19999999999999</ele><time>2026-03-22T18:30:22.999Z</time></trkpt><trkpt lat="49.29389050583693" lon="0.9735014748493016"><ele>116.39999999999999</ele><time>2026-03-22T18:30:23.999Z</time></trkpt><trkpt lat="49.293932623282906" lon="0.9735740993188827"><ele>116.6</ele><time>2026-03-22T18:30:24.999Z</time></trkpt><trkpt lat="49.29401160374334" lon="0.9736997129867769"><ele>116.8</ele><time>2026-03-22T18:30:26.999Z</time></trkpt><trkpt lat="49.29409680559291" lon="0.9737844831882358"><ele>117.0</ele><time>2026-03-22T18:30:28.999Z</time></trkpt><trkpt lat="49.294219456279755" lon="0.973742315364436"><ele>116.71428571428572</ele><time>2026-03-22T18:30:30.998Z</time></trkpt><trkpt lat="49.294282585909286" lon="0.9737163397532986"><ele>116.42857142857144</ele><time>2026-03-22T18:30:31.998Z</time></trkpt><trkpt lat="49.29434394820217" lon="0.9736827750261159"><ele>116.14285714285714</ele><time>2026-03-22T18:30:32.998Z</time></trkpt><trkpt lat="49.29441210647174" lon="0.973670028322576"><ele>115.85714285714286</ele><time>2026-03-22T18:30:33.998Z</time></trkpt><trkpt lat="49.294483382769094" lon="0.973629456630437"><ele>115.57142857142857</ele><time>2026-03-22T18:30:34.998Z</time></trkpt><trkpt lat="49.294549731527425" lon="0.9735585785786101"><ele>115.28571428571428</ele><time>2026-03-22T18:30:35.998Z</time></trkpt><trkpt lat="49.29461825972878" lon="0.9735144165403209"><ele>114.99999999999999</ele><time>2026-03-22T18:30:36.998Z</time></trkpt><trkpt lat="49.29468174537675" lon="0.9734678241810386"><ele>115.00000000000001</ele><time>2026-03-22T18:30:37.998Z</time></trkpt><trkpt lat="49.29473963178314" lon="0.9734162200507974"><ele>115.0</ele><time>2026-03-22T18:30:38.998Z</time></trkpt><trkpt lat="49.29479173205053" lon="0.9733603047506415"><ele>115.0</ele><time>2026-03-22T18:30:39.998Z</time></trkpt><trkpt lat="49.294886384090056" lon="0.9732487475566625"><ele>115.0</ele><time>2026-03-22T18:30:41.998Z</time></trkpt><trkpt lat="49.294962910446706" lon="0.9731132838367758"><ele>115.00000000000001</ele><time>2026-03-22T18:30:43.998Z</time></trkpt><trkpt lat="49.294951641968176" lon="0.9730024117033846"><ele>115.0</ele><time>2026-03-22T18:30:44.998Z</time></trkpt><trkpt lat="49.29494642270915" lon="0.9728967769019367"><ele>115.33333333333334</ele><time>2026-03-22T18:30:45.998Z</time></trkpt><trkpt lat="49.29494013613004" lon="0.9727850136672012"><ele>115.66666666666667</ele><time>2026-03-22T18:30:46.998Z</time></trkpt><trkpt lat="49.29492937057105" lon="0.9726798861391037"><ele>116.0</ele><time>2026-03-22T18:30:47.998Z</time></trkpt><trkpt lat="49.294918360554156" lon="0.9725815835713083"><ele>116.33333333333334</ele><time>2026-03-22T18:30:48.998Z</time></trkpt><trkpt lat="49.294906992779204" lon="0.9723888861216442"><ele>116.66666666666667</ele><time>2026-03-22T18:30:50.998Z</time></trkpt><trkpt lat="49.29490136972983" lon="0.9722808434795579"><ele>117.0</ele><time>2026-03-22T18:30:51.998Z</time></trkpt><trkpt lat="49.294913062331595" lon="0.9721707420423259"><ele>117.33333333333333</ele><time>2026-03-22T18:30:52.998Z</time></trkpt><trkpt lat="49.294957041174435" lon="0.972080599074206"><ele>117.66666666666666</ele><time>2026-03-22T18:30:53.998Z</time></trkpt><trkpt lat="49.29499396855902" lon="0.9719878254510703"><ele>118.0</ele><time>2026-03-22T18:30:54.998Z</time></trkpt><trkpt lat="49.29502907560728" lon="0.971902504926655"><ele>118.33333333333333</ele><time>2026-03-22T18:30:55.998Z</time></trkpt><trkpt lat="49.29507933564291" lon="0.9717350859399391"><ele>118.66666666666666</ele><time>2026-03-22T18:30:57.998Z</time></trkpt><trkpt lat="49.295132646643474" lon="0.9716147157159776"><ele>119.0</ele><time>2026-03-22T18:30:59.998Z</time></trkpt><trkpt lat="49.29517039687555" lon="0.971517319205391"><ele>119.4</ele><time>2026-03-22T18:31:01.998Z</time></trkpt><trkpt lat="49.295238036607955" lon="0.9714538598031531"><ele>119.80000000000001</ele><time>2026-03-22T18:31:03.998Z</time></trkpt><trkpt lat="49.29533943277193" lon="0.9715194082092787"><ele>120.19999999999999</ele><time>2026-03-22T18:31:05.998Z</time></trkpt><trkpt lat="49.295459682805905" lon="0.971541555973432"><ele>120.6</ele><time>2026-03-22T18:31:07.998Z</time></trkpt><trkpt lat="49.295524961777964" lon="0.9715194481150234"><ele>121.0</ele><time>2026-03-22T18:31:08.998Z</time></trkpt><trkpt lat="49.29559351331814" lon="0.9714784673396716"><ele>121.16666666666667</ele><time>2026-03-22T18:31:09.998Z</time></trkpt><trkpt lat="49.29566451789662" lon="0.9714242740022704"><ele>121.33333333333334</ele><time>2026-03-22T18:31:10.998Z</time></trkpt><trkpt lat="49.29573718988987" lon="0.9713653268919547"><ele>121.5</ele><time>2026-03-22T18:31:11.998Z</time></trkpt><trkpt lat="49.295809461548444" lon="0.9713085557999128"><ele>121.66666666666666</ele><time>2026-03-22T18:31:12.998Z</time></trkpt><trkpt lat="49.295876827338375" lon="0.971258460922321"><ele>121.83333333333333</ele><time>2026-03-22T18:31:13.998Z</time></trkpt><trkpt lat="49.295937962176275" lon="0.9712132248919881"><ele>122.0</ele><time>2026-03-22T18:31:14.998Z</time></trkpt><trkpt lat="49.296045902356816" lon="0.9711310715218824"><ele>121.99999999999999</ele><time>2026-03-22T18:31:16.998Z</time></trkpt><trkpt lat="49.29610757828665" lon="0.9711099995333184"><ele>122.0</ele><time>2026-03-22T18:31:17.998Z</time></trkpt><trkpt lat="49.29617436510469" lon="0.9711118579524728"><ele>121.99999999999999</ele><time>2026-03-22T18:31:18.998Z</time></trkpt><trkpt lat="49.29623977984865" lon="0.9710919263055544"><ele>121.99999999999999</ele><time>2026-03-22T18:31:20Z</time></trkpt><trkpt lat="49.296304914430415" lon="0.9710825059253846"><ele>122.0</ele><time>2026-03-22T18:31:21Z</time></trkpt><trkpt lat="49.29635872312556" lon="0.971149160717125"><ele>121.99999999999999</ele><time>2026-03-22T18:31:22Z</time></trkpt><trkpt lat="49.296431964715225" lon="0.9712054886036382"><ele>121.99999999999999</ele><time>2026-03-22T18:31:23Z</time></trkpt><trkpt lat="49.296504114755294" lon="0.9712915258751479"><ele>122.19999999999999</ele><time>2026-03-22T18:31:24Z</time></trkpt><trkpt lat="49.29658008818517" lon="0.9713748307567569"><ele>122.39999999999999</ele><time>2026-03-22T18:31:25Z</time></trkpt><trkpt lat="49.29664460129272" lon="0.9714778154342741"><ele>122.60000000000001</ele><time>2026-03-22T18:31:26Z</time></trkpt><trkpt lat="49.29673220739574" lon="0.9715473260489274"><ele>122.80000000000001</ele><time>2026-03-22T18:31:27Z</time></trkpt><trkpt lat="49.2968134222226" lon="0.9716429766633635"><ele>123.0</ele><time>2026-03-22T18:31:28Z</time></trkpt><trkpt lat="49.29689845277697" lon="0.9717415449529996"><ele>123.0</ele><time>2026-03-22T18:31:29Z</time></trkpt><trkpt lat="49.29698687776747" lon="0.9718452997060301"><ele>123.0</ele><time>2026-03-22T18:31:30Z</time></trkpt><trkpt lat="49.29708012230039" lon="0.9719511796413174"><ele>123.0</ele><time>2026-03-22T18:31:31Z</time></trkpt><trkpt lat="49.297177331784475" lon="0.9720561439462543"><ele>123.0</ele><time>2026-03-22T18:31:32Z</time></trkpt><trkpt lat="49.29728017171961" lon="0.9721583635938568"><ele>122.5</ele><time>2026-03-22T18:31:33Z</time></trkpt><trkpt lat="49.297387809935785" lon="0.972258714127726"><ele>122.0</ele><time>2026-03-22T18:31:34Z</time></trkpt><trkpt lat="49.29750075521869" lon="0.9723558661571644"><ele>121.5</ele><time>2026-03-22T18:31:35Z</time></trkpt><trkpt lat="49.29761928842544" lon="0.9724481437541503"><ele>121.0</ele><time>2026-03-22T18:31:36Z</time></trkpt><trkpt lat="49.297741836947274" lon="0.9725404236537524"><ele>120.75</ele><time>2026-03-22T18:31:37Z</time></trkpt><trkpt lat="49.29786994029826" lon="0.9726288923672801"><ele>120.5</ele><time>2026-03-22T18:31:38Z</time></trkpt><trkpt lat="49.29800043657728" lon="0.9727165397165075"><ele>120.25</ele><time>2026-03-22T18:31:39Z</time></trkpt><trkpt lat="49.298136158406464" lon="0.9728010219061146"><ele>120.0</ele><time>2026-03-22T18:31:40Z</time></trkpt><trkpt lat="49.29827399874977" lon="0.9728918106581802"><ele>120.0</ele><time>2026-03-22T18:31:41Z</time></trkpt><trkpt lat="49.29841314771014" lon="0.9729874253036233"><ele>120.0</ele><time>2026-03-22T18:31:42Z</time></trkpt><trkpt lat="49.29855283159732" lon="0.9730825909381073"><ele>120.0</ele><time>2026-03-22T18:31:43Z</time></trkpt><trkpt lat="49.29869079943989" lon="0.9731799098102604"><ele>120.0</ele><time>2026-03-22T18:31:44Z</time></trkpt><trkpt lat="49.298829638519514" lon="0.9732839695836376"><ele>120.0</ele><time>2026-03-22T18:31:45Z</time></trkpt><trkpt lat="49.29896653004939" lon="0.9733869398063014"><ele>120.0</ele><time>2026-03-22T18:31:46Z</time></trkpt><trkpt lat="49.29909894110928" lon="0.9734879542054433"><ele>119.25</ele><time>2026-03-22T18:31:47Z</time></trkpt><trkpt lat="49.29922679241452" lon="0.9735884814990161"><ele>118.5</ele><time>2026-03-22T18:31:48Z</time></trkpt><trkpt lat="49.299352445831005" lon="0.9736855497388116"><ele>117.75</ele><time>2026-03-22T18:31:49Z</time></trkpt><trkpt lat="49.29947304631733" lon="0.9737886408676365"><ele>117.0</ele><time>2026-03-22T18:31:50Z</time></trkpt><trkpt lat="49.299585504762675" lon="0.9738945614030573"><ele>117.0</ele><time>2026-03-22T18:31:51Z</time></trkpt><trkpt lat="49.29969040239282" lon="0.9740008842403877"><ele>117.0</ele><time>2026-03-22T18:31:52Z</time></trkpt><trkpt lat="49.29979130481035" lon="0.974107150854214"><ele>117.0</ele><time>2026-03-22T18:31:53Z</time></trkpt><trkpt lat="49.29988624107584" lon="0.9742105834550102"><ele>117.0</ele><time>2026-03-22T18:31:54Z</time></trkpt><trkpt lat="49.29997733389312" lon="0.9743137471540881"><ele>118.19999999999999</ele><time>2026-03-22T18:31:55Z</time></trkpt><trkpt lat="49.30006725288168" lon="0.9744144976202197"><ele>119.39999999999999</ele><time>2026-03-22T18:31:56Z</time></trkpt><trkpt lat="49.30015756387519" lon="0.9745135083111671"><ele>120.60000000000001</ele><time>2026-03-22T18:31:56.999Z</time></trkpt><trkpt lat="49.30024836644791" lon="0.9746069112218599"><ele>121.80000000000001</ele><time>2026-03-22T18:31:57.999Z</time></trkpt><trkpt lat="49.30033670931353" lon="0.9746942056825642"><ele>123.0</ele><time>2026-03-22T18:31:58.999Z</time></trkpt><trkpt lat="49.3004140387154" lon="0.9747964180235418"><ele>123.0</ele><time>2026-03-22T18:31:59.999Z</time></trkpt><trkpt lat="49.30050530030419" lon="0.974845882966365"><ele>123.00000000000001</ele><time>2026-03-22T18:32:00.999Z</time></trkpt><trkpt lat="49.300582913675626" lon="0.9749131456463203"><ele>123.00000000000001</ele><time>2026-03-22T18:32:01.999Z</time></trkpt><trkpt lat="49.300658546515415" lon="0.9749792844676433"><ele>123.0</ele><time>2026-03-22T18:32:02.999Z</time></trkpt><trkpt lat="49.30073070421082" lon="0.9750556164718928"><ele>123.0</ele><time>2026-03-22T18:32:03.999Z</time></trkpt><trkpt lat="49.30081680276625" lon="0.9751178065343593"><ele>124.2</ele><time>2026-03-22T18:32:04.999Z</time></trkpt><trkpt lat="49.30090947837277" lon="0.975156676804669"><ele>125.4</ele><time>2026-03-22T18:32:05.999Z</time></trkpt><trkpt lat="49.30100758317727" lon="0.9752045383649637"><ele>126.60000000000001</ele><time>2026-03-22T18:32:06.999Z</time></trkpt><trkpt lat="49.301110980055164" lon="0.9752637305387922"><ele>127.80000000000001</ele><time>2026-03-22T18:32:07.999Z</time></trkpt><trkpt lat="49.30122094273921" lon="0.9753316172501026"><ele>129.0</ele><time>2026-03-22T18:32:08.999Z</time></trkpt><trkpt lat="49.30133928576589" lon="0.9754033264368487"><ele>129.0</ele><time>2026-03-22T18:32:09.999Z</time></trkpt><trkpt lat="49.301466375659075" lon="0.9754772323722859"><ele>129.0</ele><time>2026-03-22T18:32:10.999Z</time></trkpt><trkpt lat="49.30159916274346" lon="0.9755442637022542"><ele>129.0</ele><time>2026-03-22T18:32:11.999Z</time></trkpt><trkpt lat="49.30173508610343" lon="0.9756066070609276"><ele>129.0</ele><time>2026-03-22T18:32:12.999Z</time></trkpt><trkpt lat="49.301877527849655" lon="0.9756659320635812"><ele>129.0</ele><time>2026-03-22T18:32:13.999Z</time></trkpt><trkpt lat="49.30202800785736" lon="0.9757069522475837"><ele>129.0</ele><time>2026-03-22T18:32:14.999Z</time></trkpt><trkpt lat="49.3021821402354" lon="0.9757354948742242"><ele>129.0</ele><time>2026-03-22T18:32:15.999Z</time></trkpt><trkpt lat="49.302338292368205" lon="0.9757483418386431"><ele>128.66666666666666</ele><time>2026-03-22T18:32:16.999Z</time></trkpt><trkpt lat="49.30249300098354" lon="0.9757548196605789"><ele>128.33333333333331</ele><time>2026-03-22T18:32:17.999Z</time></trkpt><trkpt lat="49.30264356192584" lon="0.97576606979648"><ele>128.0</ele><time>2026-03-22T18:32:18.999Z</time></trkpt><trkpt lat="49.302791496488425" lon="0.9757825873987725"><ele>128.0</ele><time>2026-03-22T18:32:19.999Z</time></trkpt><trkpt lat="49.302935204188" lon="0.9758061991489455"><ele>128.0</ele><time>2026-03-22T18:32:20.999Z</time></trkpt><trkpt lat="49.303075052952366" lon="0.9758320249643206"><ele>128.0</ele><time>2026-03-22T18:32:21.999Z</time></trkpt><trkpt lat="49.30321236826887" lon="0.9758601702619282"><ele>128.0</ele><time>2026-03-22T18:32:22.999Z</time></trkpt><trkpt lat="49.3033504692164" lon="0.9758923613495626"><ele>128.5</ele><time>2026-03-22T18:32:23.999Z</time></trkpt><trkpt lat="49.30348426539541" lon="0.9759345643708784"><ele>129.0</ele><time>2026-03-22T18:32:24.999Z</time></trkpt><trkpt lat="49.303617932036765" lon="0.9759901808854785"><ele>129.5</ele><time>2026-03-22T18:32:25.999Z</time></trkpt><trkpt lat="49.30374816448233" lon="0.9760562907770095"><ele>130.0</ele><time>2026-03-22T18:32:26.999Z</time></trkpt><trkpt lat="49.30387680802697" lon="0.9761397589344987"><ele>129.75</ele><time>2026-03-22T18:32:27.999Z</time></trkpt><trkpt lat="49.30400039098413" lon="0.9762432547517845"><ele>129.5</ele><time>2026-03-22T18:32:28.999Z</time></trkpt><trkpt lat="49.30411549549369" lon="0.9763545104708107"><ele>129.25</ele><time>2026-03-22T18:32:29.999Z</time></trkpt><trkpt lat="49.304223195303884" lon="0.9764772862122405"><ele>129.0</ele><time>2026-03-22T18:32:30.999Z</time></trkpt><trkpt lat="49.30433256679426" lon="0.9766065720403687"><ele>129.0</ele><time>2026-03-22T18:32:31.999Z</time></trkpt><trkpt lat="49.30444186580332" lon="0.9767420207565042"><ele>129.0</ele><time>2026-03-22T18:32:32.999Z</time></trkpt><trkpt lat="49.30455320736442" lon="0.976877162324739"><ele>129.0</ele><time>2026-03-22T18:32:33.999Z</time></trkpt><trkpt lat="49.30466781556265" lon="0.9770102513275429"><ele>129.0</ele><time>2026-03-22T18:32:34.999Z</time></trkpt><trkpt lat="49.3047903626655" lon="0.9771303446767459"><ele>128.0</ele><time>2026-03-22T18:32:35.999Z</time></trkpt><trkpt lat="49.30491359868861" lon="0.9772551259134693"><ele>127.0</ele><time>2026-03-22T18:32:36.999Z</time></trkpt><trkpt lat="49.305040189090384" lon="0.97738122584025"><ele>126.0</ele><time>2026-03-22T18:32:37.999Z</time></trkpt><trkpt lat="49.305170381433705" lon="0.9775067799205351"><ele>126.33333333333334</ele><time>2026-03-22T18:32:38.999Z</time></trkpt><trkpt lat="49.30529742281548" lon="0.9776475907247325"><ele>126.66666666666667</ele><time>2026-03-22T18:32:39.999Z</time></trkpt><trkpt lat="49.30541792457374" lon="0.9778052017485752"><ele>127.0</ele><time>2026-03-22T18:32:40.999Z</time></trkpt><trkpt lat="49.30553015886289" lon="0.977977940722137"><ele>126.66666666666667</ele><time>2026-03-22T18:32:41.999Z</time></trkpt><trkpt lat="49.30563297554539" lon="0.9781610023191915"><ele>126.33333333333334</ele><time>2026-03-22T18:32:42.999Z</time></trkpt><trkpt lat="49.30573892711313" lon="0.9783470946840328"><ele>126.0</ele><time>2026-03-22T18:32:43.999Z</time></trkpt><trkpt lat="49.30585298289139" lon="0.9785220100535504"><ele>126.0</ele><time>2026-03-22T18:32:44.999Z</time></trkpt><trkpt lat="49.305979638665086" lon="0.978680916249391"><ele>126.0</ele><time>2026-03-22T18:32:45.999Z</time></trkpt><trkpt lat="49.30612173218457" lon="0.9788107878401383"><ele>126.0</ele><time>2026-03-22T18:32:46.999Z</time></trkpt><trkpt lat="49.30627293521495" lon="0.978922685394101"><ele>126.0</ele><time>2026-03-22T18:32:47.999Z</time></trkpt><trkpt lat="49.30642686315037" lon="0.9790311461451852"><ele>126.0</ele><time>2026-03-22T18:32:48.999Z</time></trkpt><trkpt lat="49.30658367086976" lon="0.9791392928855395"><ele>126.0</ele><time>2026-03-22T18:32:49.998Z</time></trkpt><trkpt lat="49.30673765881588" lon="0.9792437780111475"><ele>126.66666666666666</ele><time>2026-03-22T18:32:50.998Z</time></trkpt><trkpt lat="49.30688797266434" lon="0.9793417956425394"><ele>127.33333333333333</ele><time>2026-03-22T18:32:51.998Z</time></trkpt><trkpt lat="49.307030365512354" lon="0.9794350300135657"><ele>128.0</ele><time>2026-03-22T18:32:52.998Z</time></trkpt><trkpt lat="49.307163402272685" lon="0.9795316566052432"><ele>127.5</ele><time>2026-03-22T18:32:53.998Z</time></trkpt><trkpt lat="49.30728630737264" lon="0.9796456083907092"><ele>127.0</ele><time>2026-03-22T18:32:54.998Z</time></trkpt><trkpt lat="49.30740324017922" lon="0.9797658185838899"><ele>126.5</ele><time>2026-03-22T18:32:55.998Z</time></trkpt><trkpt lat="49.307510011905045" lon="0.9798815071599463"><ele>126.0</ele><time>2026-03-22T18:32:56.998Z</time></trkpt><trkpt lat="49.30761382279679" lon="0.9799867360587597"><ele>125.5</ele><time>2026-03-22T18:32:57.998Z</time></trkpt><trkpt lat="49.30772169196317" lon="0.98005417639733"><ele>125.0</ele><time>2026-03-22T18:32:58.998Z</time></trkpt><trkpt lat="49.307842023780395" lon="0.9800829233113698"><ele>124.5</ele><time>2026-03-22T18:32:59.998Z</time></trkpt><trkpt lat="49.307962801044916" lon="0.9800586938457889"><ele>124.0</ele><time>2026-03-22T18:33:00.998Z</time></trkpt><trkpt lat="49.308084809328214" lon="0.9799883545672323"><ele>124.0</ele><time>2026-03-22T18:33:01.998Z</time></trkpt><trkpt lat="49.30820107859765" lon="0.9798938203381972"><ele>124.0</ele><time>2026-03-22T18:33:02.998Z</time></trkpt><trkpt lat="49.308305411482955" lon="0.979759127214374"><ele>124.0</ele><time>2026-03-22T18:33:03.998Z</time></trkpt><trkpt lat="49.308407378251964" lon="0.9796138228042306"><ele>124.0</ele><time>2026-03-22T18:33:04.998Z</time></trkpt><trkpt lat="49.30850686778111" lon="0.9794699608962417"><ele>124.0</ele><time>2026-03-22T18:33:05.998Z</time></trkpt><trkpt lat="49.30860566355728" lon="0.9793266949126302"><ele>124.0</ele><time>2026-03-22T18:33:06.998Z</time></trkpt><trkpt lat="49.30871091104385" lon="0.9792017032961183"><ele>124.0</ele><time>2026-03-22T18:33:07.998Z</time></trkpt><trkpt lat="49.30881898968101" lon="0.9790981901230056"><ele>124.0</ele><time>2026-03-22T18:33:08.998Z</time></trkpt><trkpt lat="49.30893549067145" lon="0.9790172681889833"><ele>122.5</ele><time>2026-03-22T18:33:09.998Z</time></trkpt><trkpt lat="49.30906618254441" lon="0.9789662944334794"><ele>121.0</ele><time>2026-03-22T18:33:10.998Z</time></trkpt><trkpt lat="49.30920774363228" lon="0.9789332986105931"><ele>119.5</ele><time>2026-03-22T18:33:11.998Z</time></trkpt><trkpt lat="49.30935488942033" lon="0.978922425491413"><ele>118.0</ele><time>2026-03-22T18:33:12.998Z</time></trkpt><trkpt lat="49.30950590332411" lon="0.9789271308351267"><ele>118.0</ele><time>2026-03-22T18:33:13.998Z</time></trkpt><trkpt lat="49.30966056170793" lon="0.9789489723502581"><ele>118.0</ele><time>2026-03-22T18:33:14.998Z</time></trkpt><trkpt lat="49.309817590248535" lon="0.9789919623782792"><ele>118.0</ele><time>2026-03-22T18:33:15.998Z</time></trkpt><trkpt lat="49.30997370820238" lon="0.9790436153503226"><ele>117.66666666666667</ele><time>2026-03-22T18:33:16.998Z</time></trkpt><trkpt lat="49.310126862865204" lon="0.9791119568226557"><ele>117.33333333333334</ele><time>2026-03-22T18:33:17.998Z</time></trkpt><trkpt lat="49.31027751795522" lon="0.9792048978946308"><ele>117.0</ele><time>2026-03-22T18:33:18.998Z</time></trkpt><trkpt lat="49.31042575700373" lon="0.9793108246642221"><ele>117.0</ele><time>2026-03-22T18:33:19.998Z</time></trkpt><trkpt lat="49.31055586947518" lon="0.9794525284945083"><ele>117.0</ele><time>2026-03-22T18:33:20.998Z</time></trkpt><trkpt lat="49.31066984669198" lon="0.9796265326580542"><ele>117.0</ele><time>2026-03-22T18:33:21.998Z</time></trkpt><trkpt lat="49.31074708870741" lon="0.9798517919553712"><ele>115.66666666666666</ele><time>2026-03-22T18:33:22.998Z</time></trkpt><trkpt lat="49.31083507397846" lon="0.9800751479706283"><ele>114.33333333333333</ele><time>2026-03-22T18:33:23.998Z</time></trkpt><trkpt lat="49.31090215162697" lon="0.9803279332619916"><ele>113.0</ele><time>2026-03-22T18:33:24.998Z</time></trkpt><trkpt lat="49.31097727738508" lon="0.9805798005712949"><ele>113.0</ele><time>2026-03-22T18:33:26Z</time></trkpt><trkpt lat="49.3110516580623" lon="0.9808349940958937"><ele>113.0</ele><time>2026-03-22T18:33:27Z</time></trkpt><trkpt lat="49.31112328506312" lon="0.981092034325656"><ele>113.0</ele><time>2026-03-22T18:33:28Z</time></trkpt><trkpt lat="49.31119543916415" lon="0.9813467042721437"><ele>113.33333333333333</ele><time>2026-03-22T18:33:29Z</time></trkpt><trkpt lat="49.311268315383806" lon="0.9815999094115475"><ele>113.66666666666666</ele><time>2026-03-22T18:33:30Z</time></trkpt><trkpt lat="49.31134657502996" lon="0.9818474951625858"><ele>114.0</ele><time>2026-03-22T18:33:31Z</time></trkpt><trkpt lat="49.3114331174787" lon="0.9820869624805586"><ele>112.0</ele><time>2026-03-22T18:33:32Z</time></trkpt><trkpt lat="49.311528194282076" lon="0.9823172961727143"><ele>110.0</ele><time>2026-03-22T18:33:33Z</time></trkpt><trkpt lat="49.31163462743595" lon="0.9825382286543689"><ele>108.0</ele><time>2026-03-22T18:33:34Z</time></trkpt><trkpt lat="49.311754137757745" lon="0.9827490769225626"><ele>108.0</ele><time>2026-03-22T18:33:35Z</time></trkpt><trkpt lat="49.31188454537185" lon="0.9829484084237265"><ele>108.0</ele><time>2026-03-22T18:33:36Z</time></trkpt><trkpt lat="49.312022661285134" lon="0.9831440243352849"><ele>108.0</ele><time>2026-03-22T18:33:37Z</time></trkpt><trkpt lat="49.31216740677142" lon="0.9833365636894009"><ele>105.0</ele><time>2026-03-22T18:33:38Z</time></trkpt><trkpt lat="49.312317871418" lon="0.9835271741008795"><ele>102.0</ele><time>2026-03-22T18:33:39Z</time></trkpt><trkpt lat="49.31247097130609" lon="0.9837200355901845"><ele>99.0</ele><time>2026-03-22T18:33:40Z</time></trkpt><trkpt lat="49.312624091828155" lon="0.9839180636801786"><ele>99.0</ele><time>2026-03-22T18:33:41Z</time></trkpt><trkpt lat="49.312774822307986" lon="0.9841195891288568"><ele>99.0</ele><time>2026-03-22T18:33:42Z</time></trkpt><trkpt lat="49.312918443654254" lon="0.9843253000813206"><ele>99.0</ele><time>2026-03-22T18:33:43Z</time></trkpt><trkpt lat="49.31306039508899" lon="0.9845377764004987"><ele>97.33333333333333</ele><time>2026-03-22T18:33:44Z</time></trkpt><trkpt lat="49.31319953123458" lon="0.9847552009218256"><ele>95.66666666666666</ele><time>2026-03-22T18:33:45Z</time></trkpt><trkpt lat="49.313336836209686" lon="0.9849687053145486"><ele>94.0</ele><time>2026-03-22T18:33:46Z</time></trkpt><trkpt lat="49.313475095107684" lon="0.9851698264391696"><ele>94.0</ele><time>2026-03-22T18:33:47Z</time></trkpt><trkpt lat="49.313617622650035" lon="0.9853476029857368"><ele>94.0</ele><time>2026-03-22T18:33:48Z</time></trkpt><trkpt lat="49.313760297995536" lon="0.9855068827007141"><ele>94.0</ele><time>2026-03-22T18:33:49Z</time></trkpt><trkpt lat="49.3139043032066" lon="0.9856583214385373"><ele>93.5</ele><time>2026-03-22T18:33:50Z</time></trkpt><trkpt lat="49.314036511412425" lon="0.9857919937305001"><ele>93.0</ele><time>2026-03-22T18:33:51Z</time></trkpt><trkpt lat="49.31414211556133" lon="0.9859123144348607"><ele>92.5</ele><time>2026-03-22T18:33:52Z</time></trkpt><trkpt lat="49.31425711604" lon="0.985994654335564"><ele>92.0</ele><time>2026-03-22T18:33:53Z</time></trkpt><trkpt lat="49.31442334263061" lon="0.9860500577878565"><ele>92.0</ele><time>2026-03-22T18:33:54Z</time></trkpt><trkpt lat="49.314577255962774" lon="0.9860566387635872"><ele>92.0</ele><time>2026-03-22T18:33:55Z</time></trkpt><trkpt lat="49.31471734598185" lon="0.9860955410527484"><ele>92.0</ele><time>2026-03-22T18:33:56Z</time></trkpt><trkpt lat="49.314845222368334" lon="0.9861448345941844"><ele>92.0</ele><time>2026-03-22T18:33:57Z</time></trkpt><trkpt lat="49.31496791977166" lon="0.9861758811594232"><ele>90.25</ele><time>2026-03-22T18:33:58Z</time></trkpt><trkpt lat="49.31509573001458" lon="0.9862025618272999"><ele>88.5</ele><time>2026-03-22T18:33:59Z</time></trkpt><trkpt lat="49.31524290273725" lon="0.9862267095390977"><ele>86.75</ele><time>2026-03-22T18:34:00Z</time></trkpt><trkpt lat="49.31540937291931" lon="0.9861945626854235"><ele>85.0</ele><time>2026-03-22T18:34:01Z</time></trkpt><trkpt lat="49.315535835844926" lon="0.9862139791520933"><ele>82.25</ele><time>2026-03-22T18:34:02Z</time></trkpt><trkpt lat="49.315660835079775" lon="0.986294169671075"><ele>79.5</ele><time>2026-03-22T18:34:03Z</time></trkpt><trkpt lat="49.31576872603451" lon="0.9863760931483739"><ele>76.75</ele><time>2026-03-22T18:34:04Z</time></trkpt><trkpt lat="49.31587220587185" lon="0.9864818621963287"><ele>74.0</ele><time>2026-03-22T18:34:05Z</time></trkpt><trkpt lat="49.31595497647813" lon="0.986611787479443"><ele>75.25</ele><time>2026-03-22T18:34:06Z</time></trkpt><trkpt lat="49.316036842340495" lon="0.98675591266399"><ele>76.5</ele><time>2026-03-22T18:34:07Z</time></trkpt><trkpt lat="49.316108068856416" lon="0.98690685061841"><ele>77.75</ele><time>2026-03-22T18:34:08Z</time></trkpt><trkpt lat="49.316182222464334" lon="0.9870751941031707"><ele>79.0</ele><time>2026-03-22T18:34:09Z</time></trkpt><trkpt lat="49.316259494472064" lon="0.987252969663601"><ele>79.0</ele><time>2026-03-22T18:34:09.999Z</time></trkpt><trkpt lat="49.31635246428362" lon="0.9873897013394662"><ele>79.0</ele><time>2026-03-22T18:34:10.999Z</time></trkpt><trkpt lat="49.316435054389665" lon="0.9875464612492403"><ele>79.0</ele><time>2026-03-22T18:34:11.999Z</time></trkpt><trkpt lat="49.316540382352954" lon="0.9876763846103657"><ele>79.0</ele><time>2026-03-22T18:34:12.999Z</time></trkpt><trkpt lat="49.31664489177187" lon="0.9878233783549834"><ele>74.66666666666666</ele><time>2026-03-22T18:34:13.999Z</time></trkpt><trkpt lat="49.31675660099548" lon="0.9879694159357691"><ele>70.33333333333333</ele><time>2026-03-22T18:34:14.999Z</time></trkpt><trkpt lat="49.316878513533574" lon="0.9881082422224866"><ele>66.0</ele><time>2026-03-22T18:34:15.999Z</time></trkpt><trkpt lat="49.317003053101736" lon="0.9882401655811808"><ele>63.5</ele><time>2026-03-22T18:34:16.999Z</time></trkpt><trkpt lat="49.31712939905019" lon="0.9883613849024296"><ele>61.0</ele><time>2026-03-22T18:34:17.999Z</time></trkpt><trkpt lat="49.31725989721469" lon="0.9884814707864693"><ele>58.5</ele><time>2026-03-22T18:34:18.999Z</time></trkpt><trkpt lat="49.31738213249968" lon="0.9886020516485018"><ele>56.0</ele><time>2026-03-22T18:34:19.999Z</time></trkpt><trkpt lat="49.317486949611116" lon="0.9887501793767681"><ele>55.25</ele><time>2026-03-22T18:34:20.999Z</time></trkpt><trkpt lat="49.3175859083311" lon="0.9888774512904381"><ele>54.5</ele><time>2026-03-22T18:34:21.999Z</time></trkpt><trkpt lat="49.31767523193855" lon="0.9890249820724987"><ele>53.75</ele><time>2026-03-22T18:34:22.999Z</time></trkpt><trkpt lat="49.31771376865862" lon="0.9892227509624192"><ele>53.0</ele><time>2026-03-22T18:34:23.999Z</time></trkpt><trkpt lat="49.31775704096629" lon="0.9894107538550091"><ele>52.0</ele><time>2026-03-22T18:34:24.999Z</time></trkpt><trkpt lat="49.31780447437041" lon="0.9895840111997104"><ele>51.0</ele><time>2026-03-22T18:34:25.999Z</time></trkpt><trkpt lat="49.31782667009053" lon="0.9897879741475702"><ele>50.0</ele><time>2026-03-22T18:34:26.999Z</time></trkpt><trkpt lat="49.317862822236584" lon="0.9899791245182785"><ele>49.0</ele><time>2026-03-22T18:34:27.999Z</time></trkpt><trkpt lat="49.317901843213065" lon="0.9901717780620011"><ele>48.5</ele><time>2026-03-22T18:34:28.999Z</time></trkpt><trkpt lat="49.317950884432946" lon="0.9903453006645191"><ele>48.0</ele><time>2026-03-22T18:34:29.999Z</time></trkpt><trkpt lat="49.31800801023629" lon="0.9905049856271821"><ele>47.5</ele><time>2026-03-22T18:34:30.999Z</time></trkpt><trkpt lat="49.318084185018854" lon="0.9906434983948138"><ele>47.0</ele><time>2026-03-22T18:34:31.999Z</time></trkpt><trkpt lat="49.318163580921166" lon="0.9907605810049537"><ele>45.0</ele><time>2026-03-22T18:34:32.999Z</time></trkpt><trkpt lat="49.31825797092752" lon="0.9908325228243589"><ele>43.0</ele><time>2026-03-22T18:34:33.999Z</time></trkpt><trkpt lat="49.318372647901334" lon="0.9908000100256494"><ele>41.0</ele><time>2026-03-22T18:34:34.999Z</time></trkpt><trkpt lat="49.318482861226364" lon="0.9907151649227884"><ele>39.0</ele><time>2026-03-22T18:34:35.999Z</time></trkpt><trkpt lat="49.31857191715367" lon="0.990579339097534"><ele>39.0</ele><time>2026-03-22T18:34:36.999Z</time></trkpt><trkpt lat="49.31864817694759" lon="0.9904414483642142"><ele>39.0</ele><time>2026-03-22T18:34:37.999Z</time></trkpt><trkpt lat="49.318736713237094" lon="0.9903286071863696"><ele>39.0</ele><time>2026-03-22T18:34:38.999Z</time></trkpt><trkpt lat="49.31882276701942" lon="0.9902310855187424"><ele>39.0</ele><time>2026-03-22T18:34:39.999Z</time></trkpt><trkpt lat="49.318907743513265" lon="0.9901243352334964"><ele>38.0</ele><time>2026-03-22T18:34:40.999Z</time></trkpt><trkpt lat="49.31898155067267" lon="0.9899252027118128"><ele>37.0</ele><time>2026-03-22T18:34:41.999Z</time></trkpt><trkpt lat="49.31904667018189" lon="0.9897517431582504"><ele>36.0</ele><time>2026-03-22T18:34:42.999Z</time></trkpt><trkpt lat="49.319090507814416" lon="0.9895401925347865"><ele>35.0</ele><time>2026-03-22T18:34:43.999Z</time></trkpt><trkpt lat="49.31912449147352" lon="0.989321674642616"><ele>35.0</ele><time>2026-03-22T18:34:44.999Z</time></trkpt><trkpt lat="49.31916672165885" lon="0.989147558550567"><ele>35.0</ele><time>2026-03-22T18:34:45.999Z</time></trkpt><trkpt lat="49.31921332997161" lon="0.988987413101718"><ele>35.0</ele><time>2026-03-22T18:34:46.999Z</time></trkpt><trkpt lat="49.31926431112529" lon="0.9888329323333184"><ele>35.0</ele><time>2026-03-22T18:34:47.999Z</time></trkpt><trkpt lat="49.31932283709" lon="0.9887140544102615"><ele>35.0</ele><time>2026-03-22T18:34:48.999Z</time></trkpt><trkpt lat="49.31940282303219" lon="0.9886062453358756"><ele>35.0</ele><time>2026-03-22T18:34:49.999Z</time></trkpt><trkpt lat="49.3194841432266" lon="0.9885684641373957"><ele>35.0</ele><time>2026-03-22T18:34:50.999Z</time></trkpt><trkpt lat="49.31956376835682" lon="0.9885622689277725"><ele>35.0</ele><time>2026-03-22T18:34:51.999Z</time></trkpt><trkpt lat="49.319643292625614" lon="0.9885896789159733"><ele>35.0</ele><time>2026-03-22T18:34:52.999Z</time></trkpt><trkpt lat="49.319721696591" lon="0.9886500756441031"><ele>35.0</ele><time>2026-03-22T18:34:53.999Z</time></trkpt><trkpt lat="49.319774467930905" lon="0.9887743621177404"><ele>35.0</ele><time>2026-03-22T18:34:54.999Z</time></trkpt><trkpt lat="49.31980335874998" lon="0.9889230023994505"><ele>35.0</ele><time>2026-03-22T18:34:55.999Z</time></trkpt><trkpt lat="49.319798986914755" lon="0.9890765176278643"><ele>35.0</ele><time>2026-03-22T18:34:56.999Z</time></trkpt><trkpt lat="49.31975864273827" lon="0.9892337087758788"><ele>35.0</ele><time>2026-03-22T18:34:57.999Z</time></trkpt><trkpt lat="49.3196849692763" lon="0.9893765982821707"><ele>35.0</ele><time>2026-03-22T18:34:58.999Z</time></trkpt><trkpt lat="49.31960957574974" lon="0.9895055642119335"><ele>35.0</ele><time>2026-03-22T18:34:59.999Z</time></trkpt><trkpt lat="49.31954261584133" lon="0.9896305553967095"><ele>35.0</ele><time>2026-03-22T18:35:00.998Z</time></trkpt><trkpt lat="49.319463419091065" lon="0.9897777916965999"><ele>35.0</ele><time>2026-03-22T18:35:01.998Z</time></trkpt><trkpt lat="49.31937794213971" lon="0.9899208821617022"><ele>35.0</ele><time>2026-03-22T18:35:02.998Z</time></trkpt><trkpt lat="49.31929335567159" lon="0.9900694606163872"><ele>35.0</ele><time>2026-03-22T18:35:03.998Z</time></trkpt><trkpt lat="49.31922480984169" lon="0.9902405487371324"><ele>32.25</ele><time>2026-03-22T18:35:04.998Z</time></trkpt><trkpt lat="49.31916597911847" lon="0.990415775160086"><ele>29.5</ele><time>2026-03-22T18:35:05.998Z</time></trkpt><trkpt lat="49.319115889592716" lon="0.990593160802298"><ele>26.75</ele><time>2026-03-22T18:35:06.998Z</time></trkpt><trkpt lat="49.31906094547836" lon="0.9907690376791722"><ele>24.0</ele><time>2026-03-22T18:35:07.998Z</time></trkpt><trkpt lat="49.31900340348912" lon="0.9909406637408572"><ele>25.25</ele><time>2026-03-22T18:35:08.998Z</time></trkpt><trkpt lat="49.318942544499144" lon="0.9911106837329899"><ele>26.5</ele><time>2026-03-22T18:35:09.998Z</time></trkpt><trkpt lat="49.31887243444029" lon="0.9912716321280397"><ele>27.75</ele><time>2026-03-22T18:35:10.998Z</time></trkpt><trkpt lat="49.318792094052064" lon="0.9914222609139913"><ele>29.0</ele><time>2026-03-22T18:35:11.998Z</time></trkpt><trkpt lat="49.318706127894906" lon="0.9915679035839341"><ele>26.5</ele><time>2026-03-22T18:35:12.998Z</time></trkpt><trkpt lat="49.31862419547448" lon="0.9917097777756834"><ele>24.0</ele><time>2026-03-22T18:35:13.998Z</time></trkpt><trkpt lat="49.31854889201479" lon="0.9918452339194093"><ele>21.5</ele><time>2026-03-22T18:35:14.998Z</time></trkpt><trkpt lat="49.31849029117478" lon="0.9919816937252781"><ele>19.0</ele><time>2026-03-22T18:35:15.998Z</time></trkpt><trkpt lat="49.31845332900396" lon="0.992131642563998"><ele>19.0</ele><time>2026-03-22T18:35:16.998Z</time></trkpt><trkpt lat="49.31844283979769" lon="0.9922920168908904"><ele>19.0</ele><time>2026-03-22T18:35:17.998Z</time></trkpt><trkpt lat="49.31843443965014" lon="0.9924407568804097"><ele>19.0</ele><time>2026-03-22T18:35:18.998Z</time></trkpt><trkpt lat="49.31842454572665" lon="0.9925713485880708"><ele>19.0</ele><time>2026-03-22T18:35:19.998Z</time></trkpt><trkpt lat="49.3184037480464" lon="0.9926906390704145"><ele>19.0</ele><time>2026-03-22T18:35:20.998Z</time></trkpt><trkpt lat="49.31837090586929" lon="0.9928100733195471"><ele>18.333333333333332</ele><time>2026-03-22T18:35:21.998Z</time></trkpt><trkpt lat="49.31833993619721" lon="0.9929386740823821"><ele>17.666666666666664</ele><time>2026-03-22T18:35:22.998Z</time></trkpt><trkpt lat="49.31831631034759" lon="0.993069055805994"><ele>17.0</ele><time>2026-03-22T18:35:23.998Z</time></trkpt><trkpt lat="49.318307371466396" lon="0.9931956969513016"><ele>16.333333333333332</ele><time>2026-03-22T18:35:24.998Z</time></trkpt><trkpt lat="49.31832969167728" lon="0.9933101321147669"><ele>15.666666666666666</ele><time>2026-03-22T18:35:25.998Z</time></trkpt><trkpt lat="49.31838765308106" lon="0.9934101572210092"><ele>15.0</ele><time>2026-03-22T18:35:26.998Z</time></trkpt><trkpt lat="49.31846189539186" lon="0.9934989490126339"><ele>15.0</ele><time>2026-03-22T18:35:27.998Z</time></trkpt><trkpt lat="49.3185070094758" lon="0.9936196736456636"><ele>15.0</ele><time>2026-03-22T18:35:28.998Z</time></trkpt><trkpt lat="49.31852274389923" lon="0.9937668423437385"><ele>15.0</ele><time>2026-03-22T18:35:29.998Z</time></trkpt><trkpt lat="49.318559826593905" lon="0.9938780838812908"><ele>15.0</ele><time>2026-03-22T18:35:31Z</time></trkpt><trkpt lat="49.31863770885323" lon="0.9939361092564122"><ele>15.0</ele><time>2026-03-22T18:35:32Z</time></trkpt><trkpt lat="49.31872346174555" lon="0.9939328988050664"><ele>15.0</ele><time>2026-03-22T18:35:33Z</time></trkpt><trkpt lat="49.31879629316533" lon="0.9938988396063954"><ele>15.0</ele><time>2026-03-22T18:35:34Z</time></trkpt><trkpt lat="49.318851885545136" lon="0.9938388801917848"><ele>15.0</ele><time>2026-03-22T18:35:35Z</time></trkpt><trkpt lat="49.31889311356821" lon="0.9937532033776814"><ele>15.0</ele><time>2026-03-22T18:35:36Z</time></trkpt><trkpt lat="49.31893370328595" lon="0.9936589408127059"><ele>15.0</ele><time>2026-03-22T18:35:37Z</time></trkpt><trkpt lat="49.31900282759275" lon="0.9935931714649574"><ele>15.0</ele><time>2026-03-22T18:35:38Z</time></trkpt><trkpt lat="49.319092979044925" lon="0.9935836355278492"><ele>15.0</ele><time>2026-03-22T18:35:39Z</time></trkpt><trkpt lat="49.31917006430947" lon="0.9935875942034469"><ele>15.4</ele><time>2026-03-22T18:35:40Z</time></trkpt><trkpt lat="49.319234160304276" lon="0.9935288907600253"><ele>15.8</ele><time>2026-03-22T18:35:41Z</time></trkpt><trkpt lat="49.319289145658075" lon="0.9934175425164253"><ele>16.2</ele><time>2026-03-22T18:35:42Z</time></trkpt><trkpt lat="49.319340143393696" lon="0.9932815434324692"><ele>16.6</ele><time>2026-03-22T18:35:43Z</time></trkpt><trkpt lat="49.31940444692539" lon="0.9931416733842903"><ele>17.0</ele><time>2026-03-22T18:35:44Z</time></trkpt><trkpt lat="49.319477478325865" lon="0.9930044675893478"><ele>17.0</ele><time>2026-03-22T18:35:45Z</time></trkpt><trkpt lat="49.31954987482395" lon="0.9928755876778044"><ele>17.0</ele><time>2026-03-22T18:35:46Z</time></trkpt><trkpt lat="49.31963046837265" lon="0.9927473268542748"><ele>17.0</ele><time>2026-03-22T18:35:47Z</time></trkpt><trkpt lat="49.319717512724004" lon="0.9926142484531137"><ele>17.0</ele><time>2026-03-22T18:35:48Z</time></trkpt><trkpt lat="49.31981268137348" lon="0.9924811333392081"><ele>19.5</ele><time>2026-03-22T18:35:49Z</time></trkpt><trkpt lat="49.31991380724597" lon="0.9923441220425622"><ele>22.0</ele><time>2026-03-22T18:35:50Z</time></trkpt><trkpt lat="49.3200172168296" lon="0.9922059603212419"><ele>24.5</ele><time>2026-03-22T18:35:51Z</time></trkpt><trkpt lat="49.320125035247955" lon="0.9920960350430175"><ele>27.0</ele><time>2026-03-22T18:35:52Z</time></trkpt><trkpt lat="49.32021609883328" lon="0.9919727796524461"><ele>27.0</ele><time>2026-03-22T18:35:53Z</time></trkpt><trkpt lat="49.32030637946229" lon="0.9918460317520155"><ele>27.0</ele><time>2026-03-22T18:35:54Z</time></trkpt><trkpt lat="49.32039406533928" lon="0.9917183096408246"><ele>27.0</ele><time>2026-03-22T18:35:55Z</time></trkpt><trkpt lat="49.320479204506235" lon="0.9915880393049072"><ele>27.0</ele><time>2026-03-22T18:35:56Z</time></trkpt><trkpt lat="49.320550789815236" lon="0.991437583164451"><ele>29.25</ele><time>2026-03-22T18:35:57Z</time></trkpt><trkpt lat="49.32063220642722" lon="0.9912991505048915"><ele>31.5</ele><time>2026-03-22T18:35:58Z</time></trkpt><trkpt lat="49.32073063309526" lon="0.9911626754450824"><ele>33.75</ele><time>2026-03-22T18:35:59Z</time></trkpt><trkpt lat="49.32080205348894" lon="0.9909907905061818"><ele>36.0</ele><time>2026-03-22T18:36:00Z</time></trkpt><trkpt lat="49.320885128157265" lon="0.9908327361373338"><ele>36.0</ele><time>2026-03-22T18:36:01Z</time></trkpt><trkpt lat="49.32096562114071" lon="0.9906692009560134"><ele>36.0</ele><time>2026-03-22T18:36:02Z</time></trkpt><trkpt lat="49.321042423461535" lon="0.9905051331471009"><ele>36.0</ele><time>2026-03-22T18:36:03Z</time></trkpt><trkpt lat="49.32111655648431" lon="0.9903344545258294"><ele>36.0</ele><time>2026-03-22T18:36:04Z</time></trkpt><trkpt lat="49.321191201896674" lon="0.9901644016441102"><ele>33.5</ele><time>2026-03-22T18:36:05Z</time></trkpt><trkpt lat="49.32125880424601" lon="0.9899868813134667"><ele>31.0</ele><time>2026-03-22T18:36:06Z</time></trkpt><trkpt lat="49.3213210049015" lon="0.989807572769031"><ele>28.5</ele><time>2026-03-22T18:36:07Z</time></trkpt><trkpt lat="49.32137889792667" lon="0.9896490652949637"><ele>26.0</ele><time>2026-03-22T18:36:08Z</time></trkpt><trkpt lat="49.32143237488501" lon="0.9894798346402749"><ele>32.0</ele><time>2026-03-22T18:36:09Z</time></trkpt><trkpt lat="49.32147794268768" lon="0.9893018184162229"><ele>38.0</ele><time>2026-03-22T18:36:10Z</time></trkpt><trkpt lat="49.32152301816419" lon="0.9891181203402075"><ele>44.0</ele><time>2026-03-22T18:36:11Z</time></trkpt><trkpt lat="49.321566778852755" lon="0.9889334943228627"><ele>50.0</ele><time>2026-03-22T18:36:11.999Z</time></trkpt><trkpt lat="49.321609797519386" lon="0.9887453505693229"><ele>50.0</ele><time>2026-03-22T18:36:12.999Z</time></trkpt><trkpt lat="49.32164811790038" lon="0.9885511269005726"><ele>50.0</ele><time>2026-03-22T18:36:13.999Z</time></trkpt><trkpt lat="49.32169652631959" lon="0.9883605359057432"><ele>50.0</ele><time>2026-03-22T18:36:14.999Z</time></trkpt><trkpt lat="49.32173792354903" lon="0.9881842036333722"><ele>50.0</ele><time>2026-03-22T18:36:15.999Z</time></trkpt><trkpt lat="49.32177533112376" lon="0.9880127889299056"><ele>49.0</ele><time>2026-03-22T18:36:16.999Z</time></trkpt><trkpt lat="49.32180939912397" lon="0.9878584529309776"><ele>48.0</ele><time>2026-03-22T18:36:17.999Z</time></trkpt><trkpt lat="49.32184325198929" lon="0.9877128432788095"><ele>47.0</ele><time>2026-03-22T18:36:18.999Z</time></trkpt><trkpt lat="49.321886008458776" lon="0.9875821299240158"><ele>46.0</ele><time>2026-03-22T18:36:19.999Z</time></trkpt><trkpt lat="49.321942589839175" lon="0.9874665662806361"><ele>45.0</ele><time>2026-03-22T18:36:20.999Z</time></trkpt><trkpt lat="49.32201842989017" lon="0.9873800395604975"><ele>43.0</ele><time>2026-03-22T18:36:21.999Z</time></trkpt><trkpt lat="49.322110846083916" lon="0.9873356284852758"><ele>41.0</ele><time>2026-03-22T18:36:22.999Z</time></trkpt><trkpt lat="49.32219810262697" lon="0.9873574522669003"><ele>39.0</ele><time>2026-03-22T18:36:23.999Z</time></trkpt><trkpt lat="49.322297288594434" lon="0.9873880370823339"><ele>37.0</ele><time>2026-03-22T18:36:24.999Z</time></trkpt><trkpt lat="49.32239545414511" lon="0.9873881243119144"><ele>35.0</ele><time>2026-03-22T18:36:25.999Z</time></trkpt><trkpt lat="49.32247383655335" lon="0.9873728454796248"><ele>38.666666666666664</ele><time>2026-03-22T18:36:26.999Z</time></trkpt><trkpt lat="49.32254720534335" lon="0.9873125314346255"><ele>42.33333333333333</ele><time>2026-03-22T18:36:27.999Z</time></trkpt><trkpt lat="49.32260620079677" lon="0.9872274771170307"><ele>46.0</ele><time>2026-03-22T18:36:28.999Z</time></trkpt><trkpt lat="49.32264502916751" lon="0.9871390649562262"><ele>49.666666666666664</ele><time>2026-03-22T18:36:29.999Z</time></trkpt><trkpt lat="49.32264443548266" lon="0.9870136880014649"><ele>53.333333333333336</ele><time>2026-03-22T18:36:30.999Z</time></trkpt><trkpt lat="49.3226149757534" lon="0.9868801440171762"><ele>57.0</ele><time>2026-03-22T18:36:31.999Z</time></trkpt><trkpt lat="49.322551788591355" lon="0.9867621211313992"><ele>57.0</ele><time>2026-03-22T18:36:32.999Z</time></trkpt><trkpt lat="49.322483139697795" lon="0.9866427759444157"><ele>57.0</ele><time>2026-03-22T18:36:33.999Z</time></trkpt><trkpt lat="49.322402081033445" lon="0.9865408259439058"><ele>57.0</ele><time>2026-03-22T18:36:34.999Z</time></trkpt><trkpt lat="49.32233408130953" lon="0.9864187321627697"><ele>57.0</ele><time>2026-03-22T18:36:35.999Z</time></trkpt><trkpt lat="49.32226330912665" lon="0.9863031074031662"><ele>57.0</ele><time>2026-03-22T18:36:36.999Z</time></trkpt><trkpt lat="49.322199753040266" lon="0.986178475336251"><ele>55.0</ele><time>2026-03-22T18:36:37.999Z</time></trkpt><trkpt lat="49.322160399067556" lon="0.9860467925018167"><ele>53.0</ele><time>2026-03-22T18:36:38.999Z</time></trkpt><trkpt lat="49.32212757938032" lon="0.9858975380147229"><ele>51.0</ele><time>2026-03-22T18:36:39.999Z</time></trkpt><trkpt lat="49.32211101498863" lon="0.9857390714327467"><ele>49.0</ele><time>2026-03-22T18:36:40.999Z</time></trkpt><trkpt lat="49.32212609894402" lon="0.9855796794306638"><ele>47.0</ele><time>2026-03-22T18:36:41.999Z</time></trkpt><trkpt lat="49.32216543861607" lon="0.9854223667109644"><ele>47.0</ele><time>2026-03-22T18:36:42.999Z</time></trkpt><trkpt lat="49.3222171829291" lon="0.9852625907920124"><ele>47.0</ele><time>2026-03-22T18:36:43.999Z</time></trkpt><trkpt lat="49.32226953221852" lon="0.985132374409994"><ele>47.0</ele><time>2026-03-22T18:36:44.999Z</time></trkpt><trkpt lat="49.32231657740891" lon="0.9850062077676189"><ele>47.0</ele><time>2026-03-22T18:36:45.999Z</time></trkpt><trkpt lat="49.32238565256433" lon="0.9848708767900268"><ele>47.0</ele><time>2026-03-22T18:36:46.999Z</time></trkpt><trkpt lat="49.32245580303268" lon="0.984737008873359"><ele>49.0</ele><time>2026-03-22T18:36:47.999Z</time></trkpt><trkpt lat="49.3225294863503" lon="0.9845983700477241"><ele>51.0</ele><time>2026-03-22T18:36:48.999Z</time></trkpt><trkpt lat="49.3226034263006" lon="0.9844588186275853"><ele>53.0</ele><time>2026-03-22T18:36:49.999Z</time></trkpt><trkpt lat="49.32267092476263" lon="0.9843325903726748"><ele>55.0</ele><time>2026-03-22T18:36:50.999Z</time></trkpt><trkpt lat="49.322742679416876" lon="0.9842224062394958"><ele>57.0</ele><time>2026-03-22T18:36:51.999Z</time></trkpt><trkpt lat="49.322824616720695" lon="0.9840766482342195"><ele>57.0</ele><time>2026-03-22T18:36:52.999Z</time></trkpt><trkpt lat="49.322905176200116" lon="0.9839389058773188"><ele>57.0</ele><time>2026-03-22T18:36:53.999Z</time></trkpt><trkpt lat="49.32299020413374" lon="0.9838066741056789"><ele>57.0</ele><time>2026-03-22T18:36:54.999Z</time></trkpt><trkpt lat="49.32307615834848" lon="0.9836792430218045"><ele>57.0</ele><time>2026-03-22T18:36:55.999Z</time></trkpt><trkpt lat="49.323157134283214" lon="0.9835643593574741"><ele>57.8</ele><time>2026-03-22T18:36:56.999Z</time></trkpt><trkpt lat="49.323240598145425" lon="0.9834670848192374"><ele>58.6</ele><time>2026-03-22T18:36:57.999Z</time></trkpt><trkpt lat="49.323322813551876" lon="0.9833734177382671"><ele>59.39999999999999</ele><time>2026-03-22T18:36:58.999Z</time></trkpt><trkpt lat="49.323416859389994" lon="0.9832919625709181"><ele>60.199999999999996</ele><time>2026-03-22T18:36:59.999Z</time></trkpt><trkpt lat="49.32351771441803" lon="0.98322443737567"><ele>61.0</ele><time>2026-03-22T18:37:00.998Z</time></trkpt><trkpt lat="49.32362896290264" lon="0.9831865159200489"><ele>61.0</ele><time>2026-03-22T18:37:01.998Z</time></trkpt><trkpt lat="49.32373814096108" lon="0.9831619110943297"><ele>61.0</ele><time>2026-03-22T18:37:02.998Z</time></trkpt><trkpt lat="49.32385180736456" lon="0.9831892240432081"><ele>61.0</ele><time>2026-03-22T18:37:03.998Z</time></trkpt><trkpt lat="49.32396698874936" lon="0.983212576014946"><ele>61.0</ele><time>2026-03-22T18:37:04.998Z</time></trkpt><trkpt lat="49.324088019928666" lon="0.983222620198394"><ele>61.75</ele><time>2026-03-22T18:37:05.998Z</time></trkpt><trkpt lat="49.324212080363495" lon="0.9832605962559919"><ele>62.5</ele><time>2026-03-22T18:37:06.998Z</time></trkpt><trkpt lat="49.32433831945584" lon="0.9832917277875872"><ele>63.25</ele><time>2026-03-22T18:37:07.998Z</time></trkpt><trkpt lat="49.324470293174635" lon="0.983314816288949"><ele>64.0</ele><time>2026-03-22T18:37:08.998Z</time></trkpt><trkpt lat="49.32460475322644" lon="0.9833525581676784"><ele>64.25</ele><time>2026-03-22T18:37:09.998Z</time></trkpt><trkpt lat="49.32474632365104" lon="0.9833503572865462"><ele>64.5</ele><time>2026-03-22T18:37:10.998Z</time></trkpt><trkpt lat="49.32488576498349" lon="0.983337844178008"><ele>64.75</ele><time>2026-03-22T18:37:11.998Z</time></trkpt><trkpt lat="49.325027899244766" lon="0.9833193787399109"><ele>65.0</ele><time>2026-03-22T18:37:12.998Z</time></trkpt><trkpt lat="49.32516890142724" lon="0.9833124139657378"><ele>65.0</ele><time>2026-03-22T18:37:13.998Z</time></trkpt><trkpt lat="49.32531583328419" lon="0.9833123827656337"><ele>65.0</ele><time>2026-03-22T18:37:14.998Z</time></trkpt><trkpt lat="49.32545887393501" lon="0.9833170282958174"><ele>65.0</ele><time>2026-03-22T18:37:15.998Z</time></trkpt><trkpt lat="49.32560297190618" lon="0.9833212331669207"><ele>65.0</ele><time>2026-03-22T18:37:16.998Z</time></trkpt><trkpt lat="49.325741352437745" lon="0.9833231882742027"><ele>66.5</ele><time>2026-03-22T18:37:17.998Z</time></trkpt><trkpt lat="49.3258757091268" lon="0.9833181358219669"><ele>68.0</ele><time>2026-03-22T18:37:18.998Z</time></trkpt><trkpt lat="49.32601188351375" lon="0.9832883356453117"><ele>69.5</ele><time>2026-03-22T18:37:19.998Z</time></trkpt><trkpt lat="49.32613824162111" lon="0.9832303309957454"><ele>71.0</ele><time>2026-03-22T18:37:20.998Z</time></trkpt><trkpt lat="49.32625563771268" lon="0.9831314405872675"><ele>71.0</ele><time>2026-03-22T18:37:21.998Z</time></trkpt><trkpt lat="49.32637333211352" lon="0.9830435035565164"><ele>71.0</ele><time>2026-03-22T18:37:22.998Z</time></trkpt><trkpt lat="49.326488344698674" lon="0.9829503724968144"><ele>71.0</ele><time>2026-03-22T18:37:23.998Z</time></trkpt><trkpt lat="49.32659959751744" lon="0.982865034322783"><ele>71.0</ele><time>2026-03-22T18:37:24.998Z</time></trkpt><trkpt lat="49.32671313794561" lon="0.9828135221241604"><ele>73.19999999999999</ele><time>2026-03-22T18:37:25.998Z</time></trkpt><trkpt lat="49.32681630490647" lon="0.9827630587564512"><ele>75.39999999999999</ele><time>2026-03-22T18:37:26.998Z</time></trkpt><trkpt lat="49.32692356584621" lon="0.9827086088397056"><ele>77.6</ele><time>2026-03-22T18:37:27.998Z</time></trkpt><trkpt lat="49.32702318170804" lon="0.9826285960867601"><ele>79.8</ele><time>2026-03-22T18:37:28.998Z</time></trkpt><trkpt lat="49.32712654355106" lon="0.9825519854744503"><ele>82.0</ele><time>2026-03-22T18:37:29.998Z</time></trkpt><trkpt lat="49.32721987346949" lon="0.9824449519452201"><ele>82.25</ele><time>2026-03-22T18:37:30.998Z</time></trkpt><trkpt lat="49.32730774828054" lon="0.9823167548055362"><ele>82.5</ele><time>2026-03-22T18:37:31.998Z</time></trkpt><trkpt lat="49.32739326773696" lon="0.9821650934319072"><ele>82.75</ele><time>2026-03-22T18:37:32.998Z</time></trkpt><trkpt lat="49.3274861088203" lon="0.982010604678663"><ele>83.0</ele><time>2026-03-22T18:37:33.998Z</time></trkpt><trkpt lat="49.327581540602985" lon="0.9818419876065573"><ele>77.0</ele><time>2026-03-22T18:37:34.998Z</time></trkpt><trkpt lat="49.32768129429965" lon="0.9816745598362284"><ele>71.0</ele><time>2026-03-22T18:37:35.998Z</time></trkpt><trkpt lat="49.3277862921342" lon="0.9814967011568374"><ele>65.0</ele><time>2026-03-22T18:37:37Z</time></trkpt><trkpt lat="49.327890694411344" lon="0.9813126036712416"><ele>65.0</ele><time>2026-03-22T18:37:38Z</time></trkpt><trkpt lat="49.327998440593994" lon="0.98112583159775"><ele>65.0</ele><time>2026-03-22T18:37:39Z</time></trkpt><trkpt lat="49.32810597531055" lon="0.9809368604986585"><ele>65.0</ele><time>2026-03-22T18:37:40Z</time></trkpt><trkpt lat="49.32821129960839" lon="0.9807549547779082"><ele>67.5</ele><time>2026-03-22T18:37:41Z</time></trkpt><trkpt lat="49.328311424415304" lon="0.9805786748276341"><ele>70.0</ele><time>2026-03-22T18:37:42Z</time></trkpt><trkpt lat="49.328408560157506" lon="0.980407490940708"><ele>72.5</ele><time>2026-03-22T18:37:43Z</time></trkpt><trkpt lat="49.32850146377854" lon="0.9802479880992142"><ele>75.0</ele><time>2026-03-22T18:37:44Z</time></trkpt><trkpt lat="49.32858261790475" lon="0.9801095220835804"><ele>72.8</ele><time>2026-03-22T18:37:45Z</time></trkpt><trkpt lat="49.3286569559649" lon="0.979986069275081"><ele>70.6</ele><time>2026-03-22T18:37:46Z</time></trkpt><trkpt lat="49.328723861982716" lon="0.9798829084956255"><ele>68.4</ele><time>2026-03-22T18:37:47Z</time></trkpt><trkpt lat="49.32879968011507" lon="0.979820400685728"><ele>66.2</ele><time>2026-03-22T18:37:48Z</time></trkpt><trkpt lat="49.3288807772627" lon="0.9797972432047993"><ele>64.0</ele><time>2026-03-22T18:37:49Z</time></trkpt><trkpt lat="49.32895536711976" lon="0.9798656254028941"><ele>63.99999999999999</ele><time>2026-03-22T18:37:50Z</time></trkpt><trkpt lat="49.32901483139689" lon="0.9799403229227358"><ele>64.0</ele><time>2026-03-22T18:37:51Z</time></trkpt><trkpt lat="49.32903176913748" lon="0.9800500660415163"><ele>64.0</ele><time>2026-03-22T18:37:52Z</time></trkpt><trkpt lat="49.32904240055031" lon="0.9801731961223359"><ele>64.0</ele><time>2026-03-22T18:37:53Z</time></trkpt><trkpt lat="49.32904315531388" lon="0.9803110168604947"><ele>63.99999999999999</ele><time>2026-03-22T18:37:54Z</time></trkpt><trkpt lat="49.32904589561511" lon="0.9804640604652292"><ele>64.0</ele><time>2026-03-22T18:37:55Z</time></trkpt><trkpt lat="49.32904827237736" lon="0.9806314600586507"><ele>65.60000000000001</ele><time>2026-03-22T18:37:56Z</time></trkpt><trkpt lat="49.32905385343103" lon="0.9807918709988379"><ele>67.2</ele><time>2026-03-22T18:37:57Z</time></trkpt><trkpt lat="49.32906330927469" lon="0.9809425432819971"><ele>68.80000000000001</ele><time>2026-03-22T18:37:58Z</time></trkpt><trkpt lat="49.32908117282154" lon="0.9810889760065314"><ele>70.4</ele><time>2026-03-22T18:37:59Z</time></trkpt><trkpt lat="49.32910773612252" lon="0.9812320946407677"><ele>72.0</ele><time>2026-03-22T18:38:00Z</time></trkpt><trkpt lat="49.329143610425405" lon="0.9813800632426934"><ele>74.6</ele><time>2026-03-22T18:38:01Z</time></trkpt><trkpt lat="49.32917873505856" lon="0.9815177480280545"><ele>77.2</ele><time>2026-03-22T18:38:02Z</time></trkpt><trkpt lat="49.32921384978607" lon="0.9816540539680861"><ele>79.8</ele><time>2026-03-22T18:38:03Z</time></trkpt><trkpt lat="49.329247080180274" lon="0.9817830453869798"><ele>82.4</ele><time>2026-03-22T18:38:04Z</time></trkpt><trkpt lat="49.32928202671775" lon="0.9819093915518874"><ele>85.0</ele><time>2026-03-22T18:38:05Z</time></trkpt><trkpt lat="49.329316937253786" lon="0.982028378886677"><ele>86.83333333333333</ele><time>2026-03-22T18:38:06Z</time></trkpt><trkpt lat="49.32935704455047" lon="0.9821426235042193"><ele>88.66666666666666</ele><time>2026-03-22T18:38:07Z</time></trkpt><trkpt lat="49.32940708194268" lon="0.9822428691806899"><ele>90.5</ele><time>2026-03-22T18:38:08Z</time></trkpt><trkpt lat="49.32949730935927" lon="0.9822723031811965"><ele>92.33333333333333</ele><time>2026-03-22T18:38:09Z</time></trkpt><trkpt lat="49.32956567115714" lon="0.9823049001909073"><ele>94.16666666666667</ele><time>2026-03-22T18:38:10Z</time></trkpt><trkpt lat="49.32962303984285" lon="0.982386691986026"><ele>96.0</ele><time>2026-03-22T18:38:12Z</time></trkpt><trkpt lat="49.32957134853573" lon="0.9824427375534545"><ele>96.0</ele><time>2026-03-22T18:38:13Z</time></trkpt><trkpt lat="49.329631574096986" lon="0.9822457798870612"><ele>96.0</ele><time>2026-03-22T18:38:46.999Z</time></trkpt><trkpt lat="49.32969715809667" lon="0.9820905951736737"><ele>96.0</ele><time>2026-03-22T18:38:48.999Z</time></trkpt><trkpt lat="49.329728986901316" lon="0.9819770114447864"><ele>96.0</ele><time>2026-03-22T18:38:49.999Z</time></trkpt><trkpt lat="49.32975192430495" lon="0.9818538080798681"><ele>96.0</ele><time>2026-03-22T18:38:50.999Z</time></trkpt><trkpt lat="49.32978082733137" lon="0.9817135927716726"><ele>94.25</ele><time>2026-03-22T18:38:51.999Z</time></trkpt><trkpt lat="49.32981783626019" lon="0.9815496864377772"><ele>92.5</ele><time>2026-03-22T18:38:52.999Z</time></trkpt><trkpt lat="49.32986017142699" lon="0.9813814654365021"><ele>90.75</ele><time>2026-03-22T18:38:53.999Z</time></trkpt><trkpt lat="49.32990124554815" lon="0.9812136087561388"><ele>89.0</ele><time>2026-03-22T18:38:54.999Z</time></trkpt><trkpt lat="49.329942476232006" lon="0.9810431257298982"><ele>89.0</ele><time>2026-03-22T18:38:55.999Z</time></trkpt><trkpt lat="49.329981985151576" lon="0.9808786342502598"><ele>89.0</ele><time>2026-03-22T18:38:56.999Z</time></trkpt><trkpt lat="49.33002582663312" lon="0.9807173752218243"><ele>89.0</ele><time>2026-03-22T18:38:57.999Z</time></trkpt><trkpt lat="49.33008578762052" lon="0.9805587630540484"><ele>89.0</ele><time>2026-03-22T18:38:58.999Z</time></trkpt><trkpt lat="49.330161590016765" lon="0.9804054820797163"><ele>85.75</ele><time>2026-03-22T18:38:59.999Z</time></trkpt><trkpt lat="49.33024385639052" lon="0.9802485076687883"><ele>82.5</ele><time>2026-03-22T18:39:00.999Z</time></trkpt><trkpt lat="49.330332350828606" lon="0.9800881908591298"><ele>79.25</ele><time>2026-03-22T18:39:01.999Z</time></trkpt><trkpt lat="49.33041788690472" lon="0.9799202095155667"><ele>76.0</ele><time>2026-03-22T18:39:02.999Z</time></trkpt><trkpt lat="49.33049947856849" lon="0.9797513718783653"><ele>75.25</ele><time>2026-03-22T18:39:03.999Z</time></trkpt><trkpt lat="49.33058402331498" lon="0.9795909456817125"><ele>74.5</ele><time>2026-03-22T18:39:04.999Z</time></trkpt><trkpt lat="49.33066237792804" lon="0.9794340429434174"><ele>73.75</ele><time>2026-03-22T18:39:05.998Z</time></trkpt><trkpt lat="49.3307395446928" lon="0.979282287661045"><ele>73.0</ele><time>2026-03-22T18:39:06.998Z</time></trkpt><trkpt lat="49.33081520560825" lon="0.9791462231976512"><ele>73.0</ele><time>2026-03-22T18:39:07.998Z</time></trkpt><trkpt lat="49.33089339372132" lon="0.9790390060646463"><ele>73.0</ele><time>2026-03-22T18:39:08.998Z</time></trkpt><trkpt lat="49.33098888006008" lon="0.9790055647886292"><ele>73.0</ele><time>2026-03-22T18:39:09.998Z</time></trkpt><trkpt lat="49.331072011374005" lon="0.9790266490326867"><ele>73.0</ele><time>2026-03-22T18:39:10.998Z</time></trkpt><trkpt lat="49.33114851294944" lon="0.9790789087448324"><ele>73.0</ele><time>2026-03-22T18:39:11.998Z</time></trkpt><trkpt lat="49.33123170936406" lon="0.9791569938008191"><ele>76.25</ele><time>2026-03-22T18:39:12.998Z</time></trkpt><trkpt lat="49.33131871910096" lon="0.9792519589159541"><ele>79.5</ele><time>2026-03-22T18:39:13.998Z</time></trkpt><trkpt lat="49.33141240580992" lon="0.9793551234150292"><ele>82.75</ele><time>2026-03-22T18:39:14.998Z</time></trkpt><trkpt lat="49.33150594221929" lon="0.9794536690622904"><ele>86.0</ele><time>2026-03-22T18:39:15.998Z</time></trkpt><trkpt lat="49.33160277450096" lon="0.9795546960288527"><ele>86.0</ele><time>2026-03-22T18:39:16.998Z</time></trkpt><trkpt lat="49.3317007706003" lon="0.9796569372306008"><ele>86.0</ele><time>2026-03-22T18:39:17.998Z</time></trkpt><trkpt lat="49.33179752790329" lon="0.979759696496793"><ele>86.0</ele><time>2026-03-22T18:39:18.998Z</time></trkpt><trkpt lat="49.33189461325615" lon="0.9798684912213286"><ele>86.0</ele><time>2026-03-22T18:39:19.998Z</time></trkpt><trkpt lat="49.33198661337923" lon="0.9799819967129583"><ele>85.6</ele><time>2026-03-22T18:39:20.998Z</time></trkpt><trkpt lat="49.33207075691366" lon="0.9800947748192516"><ele>85.19999999999999</ele><time>2026-03-22T18:39:21.998Z</time></trkpt><trkpt lat="49.33215087194946" lon="0.9802056011844"><ele>84.80000000000001</ele><time>2026-03-22T18:39:22.998Z</time></trkpt><trkpt lat="49.33222688055696" lon="0.9803139226375472"><ele>84.4</ele><time>2026-03-22T18:39:23.998Z</time></trkpt><trkpt lat="49.332296690671825" lon="0.9804210047318684"><ele>84.0</ele><time>2026-03-22T18:39:24.998Z</time></trkpt><trkpt lat="49.33236703788139" lon="0.9805358572987026"><ele>84.0</ele><time>2026-03-22T18:39:25.998Z</time></trkpt><trkpt lat="49.33243580741236" lon="0.9806484753974376"><ele>84.0</ele><time>2026-03-22T18:39:26.998Z</time></trkpt><trkpt lat="49.33250395351625" lon="0.9807605430981239"><ele>84.0</ele><time>2026-03-22T18:39:27.998Z</time></trkpt><trkpt lat="49.332570164829264" lon="0.9808706475009249"><ele>84.0</ele><time>2026-03-22T18:39:28.998Z</time></trkpt><trkpt lat="49.33263167584141" lon="0.9809824027003003"><ele>84.0</ele><time>2026-03-22T18:39:29.998Z</time></trkpt><trkpt lat="49.332688595167795" lon="0.9811015632259504"><ele>85.80000000000001</ele><time>2026-03-22T18:39:30.998Z</time></trkpt><trkpt lat="49.33274419301196" lon="0.9812265354071843"><ele>87.60000000000001</ele><time>2026-03-22T18:39:31.998Z</time></trkpt><trkpt lat="49.33279556324318" lon="0.9813505178044211"><ele>89.4</ele><time>2026-03-22T18:39:32.998Z</time></trkpt><trkpt lat="49.33284120981824" lon="0.9814745822057875"><ele>91.2</ele><time>2026-03-22T18:39:33.998Z</time></trkpt><trkpt lat="49.332878972345" lon="0.9815982872269732"><ele>93.0</ele><time>2026-03-22T18:39:34.998Z</time></trkpt><trkpt lat="49.332911308947146" lon="0.9817219651469972"><ele>91.83333333333333</ele><time>2026-03-22T18:39:35.998Z</time></trkpt><trkpt lat="49.33293982995349" lon="0.9818341108492452"><ele>90.66666666666667</ele><time>2026-03-22T18:39:36.998Z</time></trkpt><trkpt lat="49.332965822680606" lon="0.9819337716837014"><ele>89.5</ele><time>2026-03-22T18:39:37.998Z</time></trkpt><trkpt lat="49.3330043561595" lon="0.9820811506039187"><ele>88.33333333333334</ele><time>2026-03-22T18:39:39.998Z</time></trkpt><trkpt lat="49.3330470791569" lon="0.9821765706787974"><ele>87.16666666666667</ele><time>2026-03-22T18:41:34.998Z</time></trkpt><trkpt lat="49.33307585954764" lon="0.9822724572729443"><ele>86.0</ele><time>2026-03-22T18:41:36.998Z</time></trkpt><trkpt lat="49.333102188072175" lon="0.9824122203636201"><ele>88.0</ele><time>2026-03-22T18:41:38.998Z</time></trkpt><trkpt lat="49.33318064451633" lon="0.9825662154888194"><ele>90.0</ele><time>2026-03-22T18:41:40.998Z</time></trkpt><trkpt lat="49.33323479642313" lon="0.9826346263237712"><ele>92.0</ele><time>2026-03-22T18:41:41.998Z</time></trkpt><trkpt lat="49.33329304723624" lon="0.9826841198806077"><ele>94.0</ele><time>2026-03-22T18:41:42.998Z</time></trkpt><trkpt lat="49.333360990058004" lon="0.9827150941340613"><ele>95.99999999999999</ele><time>2026-03-22T18:41:43.998Z</time></trkpt><trkpt lat="49.33343492445983" lon="0.9827314032289127"><ele>98.0</ele><time>2026-03-22T18:41:44.998Z</time></trkpt><trkpt lat="49.33350294025553" lon="0.982730202721971"><ele>97.99999999999999</ele><time>2026-03-22T18:41:45.998Z</time></trkpt><trkpt lat="49.33356558819451" lon="0.9826976942935484"><ele>98.0</ele><time>2026-03-22T18:41:46.998Z</time></trkpt><trkpt lat="49.333627897341124" lon="0.982667927980605"><ele>98.0</ele><time>2026-03-22T18:41:49Z</time></trkpt><trkpt lat="49.33365820214317" lon="0.9825795033812713"><ele>98.0</ele><time>2026-03-22T18:41:54Z</time></trkpt><trkpt lat="49.33360197986907" lon="0.9826720002373118"><ele>97.99999999999999</ele><time>2026-03-22T18:42:07Z</time></trkpt><trkpt lat="49.33367337681018" lon="0.9826948077209595"><ele>98.0</ele><time>2026-03-22T18:42:10Z</time></trkpt><trkpt lat="49.33331980502201" lon="0.98264562473168"><ele>97.99999999999999</ele><time>2026-03-22T18:42:11Z</time></trkpt><trkpt lat="49.333252364876536" lon="0.9825900023527008"><ele>98.0</ele><time>2026-03-22T18:42:12Z</time></trkpt><trkpt lat="49.333187319715606" lon="0.9825112665049306"><ele>98.0</ele><time>2026-03-22T18:42:13Z</time></trkpt><trkpt lat="49.33313165422946" lon="0.982405404932548"><ele>98.0</ele><time>2026-03-22T18:42:14Z</time></trkpt><trkpt lat="49.333092215699544" lon="0.9822785039721094"><ele>97.99999999999999</ele><time>2026-03-22T18:42:15Z</time></trkpt><trkpt lat="49.3330507061592" lon="0.9821375700570976"><ele>98.0</ele><time>2026-03-22T18:42:16Z</time></trkpt><trkpt lat="49.3330150802767" lon="0.9819944248117173"><ele>97.0</ele><time>2026-03-22T18:42:17Z</time></trkpt><trkpt lat="49.33297848143176" lon="0.9818430708907367"><ele>96.0</ele><time>2026-03-22T18:42:18Z</time></trkpt><trkpt lat="49.3329380644442" lon="0.9816960800196548"><ele>95.0</ele><time>2026-03-22T18:42:19Z</time></trkpt><trkpt lat="49.33289833669405" lon="0.9815489703286275"><ele>94.0</ele><time>2026-03-22T18:42:20Z</time></trkpt><trkpt lat="49.332852754429894" lon="0.9814010343193269"><ele>93.0</ele><time>2026-03-22T18:42:20.999Z</time></trkpt><trkpt lat="49.33279928211234" lon="0.9812519912095461"><ele>93.0</ele><time>2026-03-22T18:42:21.999Z</time></trkpt><trkpt lat="49.332737112463406" lon="0.9811046582080872"><ele>93.0</ele><time>2026-03-22T18:42:22.999Z</time></trkpt><trkpt lat="49.33266551861137" lon="0.9809626137350619"><ele>93.0</ele><time>2026-03-22T18:42:23.999Z</time></trkpt><trkpt lat="49.332587702394505" lon="0.9808250408577367"><ele>93.0</ele><time>2026-03-22T18:42:24.999Z</time></trkpt><trkpt lat="49.332502200157435" lon="0.9806895199549162"><ele>90.75</ele><time>2026-03-22T18:42:25.999Z</time></trkpt><trkpt lat="49.33241780943553" lon="0.9805560387405431"><ele>88.5</ele><time>2026-03-22T18:42:26.999Z</time></trkpt><trkpt lat="49.33233584468219" lon="0.9804248672208186"><ele>86.25</ele><time>2026-03-22T18:42:27.999Z</time></trkpt><trkpt lat="49.33225621091679" lon="0.9802950713431584"><ele>84.0</ele><time>2026-03-22T18:42:28.999Z</time></trkpt><trkpt lat="49.33217334978559" lon="0.9801732053230634"><ele>84.5</ele><time>2026-03-22T18:42:29.999Z</time></trkpt><trkpt lat="49.33208876312344" lon="0.9800548509465549"><ele>85.0</ele><time>2026-03-22T18:42:30.999Z</time></trkpt><trkpt lat="49.33200177794329" lon="0.9799412147709416"><ele>85.5</ele><time>2026-03-22T18:42:31.999Z</time></trkpt><trkpt lat="49.33191184465423" lon="0.9798337584592126"><ele>86.0</ele><time>2026-03-22T18:42:32.999Z</time></trkpt><trkpt lat="49.33182189747463" lon="0.979728201791541"><ele>86.0</ele><time>2026-03-22T18:42:33.999Z</time></trkpt><trkpt lat="49.331732101516074" lon="0.9796271716974556"><ele>86.0</ele><time>2026-03-22T18:42:34.999Z</time></trkpt><trkpt lat="49.331642455296816" lon="0.9795315541113582"><ele>86.0</ele><time>2026-03-22T18:42:35.999Z</time></trkpt><trkpt lat="49.33155492159247" lon="0.9794409053463325"><ele>86.0</ele><time>2026-03-22T18:42:36.999Z</time></trkpt><trkpt lat="49.331469949566156" lon="0.9793466570163222"><ele>86.0</ele><time>2026-03-22T18:42:37.999Z</time></trkpt><trkpt lat="49.33138531244188" lon="0.9792540877577505"><ele>83.83333333333334</ele><time>2026-03-22T18:42:38.999Z</time></trkpt><trkpt lat="49.33130379057676" lon="0.9791663598481951"><ele>81.66666666666667</ele><time>2026-03-22T18:42:39.999Z</time></trkpt><trkpt lat="49.33122598627463" lon="0.9790846857321228"><ele>79.5</ele><time>2026-03-22T18:42:40.999Z</time></trkpt><trkpt lat="49.33114581991892" lon="0.9790220152003469"><ele>77.33333333333333</ele><time>2026-03-22T18:42:41.999Z</time></trkpt><trkpt lat="49.33106562670521" lon="0.9789873004144983"><ele>75.16666666666666</ele><time>2026-03-22T18:42:42.999Z</time></trkpt><trkpt lat="49.33098476500091" lon="0.9789870792393697"><ele>73.0</ele><time>2026-03-22T18:42:43.999Z</time></trkpt><trkpt lat="49.33090737860012" lon="0.9790222306425852"><ele>73.0</ele><time>2026-03-22T18:42:44.999Z</time></trkpt><trkpt lat="49.33082686069726" lon="0.9790696076654476"><ele>73.0</ele><time>2026-03-22T18:42:45.999Z</time></trkpt><trkpt lat="49.33075999154284" lon="0.9791785838669815"><ele>73.0</ele><time>2026-03-22T18:42:46.999Z</time></trkpt><trkpt lat="49.330696423093464" lon="0.9792966810673057"><ele>73.0</ele><time>2026-03-22T18:42:47.999Z</time></trkpt><trkpt lat="49.33063032254918" lon="0.9794244610836063"><ele>73.0</ele><time>2026-03-22T18:42:48.999Z</time></trkpt><trkpt lat="49.33056016402881" lon="0.9795627129608732"><ele>73.75</ele><time>2026-03-22T18:42:49.999Z</time></trkpt><trkpt lat="49.33048785898371" lon="0.9797051947995792"><ele>74.5</ele><time>2026-03-22T18:42:50.999Z</time></trkpt><trkpt lat="49.33041550725511" lon="0.9798477686549772"><ele>75.25</ele><time>2026-03-22T18:42:51.999Z</time></trkpt><trkpt lat="49.33033976810704" lon="0.9799970176136081"><ele>76.0</ele><time>2026-03-22T18:42:52.999Z</time></trkpt><trkpt lat="49.33026509369603" lon="0.9801441351599204"><ele>76.0</ele><time>2026-03-22T18:42:53.999Z</time></trkpt><trkpt lat="49.330192342621146" lon="0.9802891508892907"><ele>76.0</ele><time>2026-03-22T18:42:54.999Z</time></trkpt><trkpt lat="49.33012097680458" lon="0.9804322553757434"><ele>76.0</ele><time>2026-03-22T18:42:55.999Z</time></trkpt><trkpt lat="49.33005455252399" lon="0.9805730784634632"><ele>76.0</ele><time>2026-03-22T18:42:56.999Z</time></trkpt><trkpt lat="49.32999563837" lon="0.9807189952744249"><ele>78.6</ele><time>2026-03-22T18:42:57.999Z</time></trkpt><trkpt lat="49.329946800627084" lon="0.98086863926408"><ele>81.19999999999999</ele><time>2026-03-22T18:42:58.999Z</time></trkpt><trkpt lat="49.32990486495232" lon="0.9810246537002428"><ele>83.80000000000001</ele><time>2026-03-22T18:42:59.999Z</time></trkpt><trkpt lat="49.329866013286114" lon="0.9811813273989874"><ele>86.4</ele><time>2026-03-22T18:43:00.999Z</time></trkpt><trkpt lat="49.329829332622914" lon="0.9813370758921751"><ele>89.0</ele><time>2026-03-22T18:43:01.999Z</time></trkpt><trkpt lat="49.32979438003806" lon="0.9814884819898628"><ele>89.0</ele><time>2026-03-22T18:43:02.999Z</time></trkpt><trkpt lat="49.329760450153984" lon="0.9816354577965078"><ele>89.0</ele><time>2026-03-22T18:43:03.999Z</time></trkpt><trkpt lat="49.329727770252404" lon="0.981777019110924"><ele>89.0</ele><time>2026-03-22T18:43:04.999Z</time></trkpt><trkpt lat="49.32969881960388" lon="0.9819036602259394"><ele>89.0</ele><time>2026-03-22T18:43:05.999Z</time></trkpt><trkpt lat="49.329674289432134" lon="0.982015356945041"><ele>89.0</ele><time>2026-03-22T18:43:06.999Z</time></trkpt><trkpt lat="49.329646973044035" lon="0.9821110487152748"><ele>89.0</ele><time>2026-03-22T18:43:07.999Z</time></trkpt><trkpt lat="49.32956316698076" lon="0.982231798776513"><ele>88.33333333333334</ele><time>2026-03-22T18:43:09.998Z</time></trkpt><trkpt lat="49.329497268620884" lon="0.9822236401319557"><ele>87.66666666666667</ele><time>2026-03-22T18:43:10.998Z</time></trkpt><trkpt lat="49.329429164075854" lon="0.9821864412591372"><ele>87.0</ele><time>2026-03-22T18:43:11.998Z</time></trkpt><trkpt lat="49.32936948009217" lon="0.982092093886133"><ele>86.33333333333333</ele><time>2026-03-22T18:43:12.998Z</time></trkpt><trkpt lat="49.329327007260254" lon="0.981961069032886"><ele>85.66666666666666</ele><time>2026-03-22T18:43:13.998Z</time></trkpt><trkpt lat="49.32929981069936" lon="0.9818114870700684"><ele>85.0</ele><time>2026-03-22T18:43:14.998Z</time></trkpt><trkpt lat="49.329260421575725" lon="0.981657519746162"><ele>85.0</ele><time>2026-03-22T18:43:15.998Z</time></trkpt><trkpt lat="49.32921971076826" lon="0.9815060439450546"><ele>85.0</ele><time>2026-03-22T18:43:16.998Z</time></trkpt><trkpt lat="49.329174147939696" lon="0.9813436958166749"><ele>85.0</ele><time>2026-03-22T18:43:17.998Z</time></trkpt><trkpt lat="49.32913322437044" lon="0.981173539385035"><ele>85.0</ele><time>2026-03-22T18:43:18.998Z</time></trkpt><trkpt lat="49.32909931122098" lon="0.9809921290991787"><ele>81.75</ele><time>2026-03-22T18:43:19.998Z</time></trkpt><trkpt lat="49.32908123450915" lon="0.9808138634711697"><ele>78.5</ele><time>2026-03-22T18:43:20.998Z</time></trkpt><trkpt lat="49.32907612408074" lon="0.9806346270847599"><ele>75.25</ele><time>2026-03-22T18:43:21.998Z</time></trkpt><trkpt lat="49.32907864393411" lon="0.9804585048413287"><ele>72.0</ele><time>2026-03-22T18:43:22.998Z</time></trkpt><trkpt lat="49.32908278469101" lon="0.9802975805860413"><ele>72.0</ele><time>2026-03-22T18:43:23.998Z</time></trkpt><trkpt lat="49.329082253110876" lon="0.980149586185098"><ele>72.0</ele><time>2026-03-22T18:43:24.998Z</time></trkpt><trkpt lat="49.32906365768238" lon="0.9800162395431686"><ele>72.0</ele><time>2026-03-22T18:43:25.998Z</time></trkpt><trkpt lat="49.32901727787893" lon="0.9798967598267228"><ele>72.0</ele><time>2026-03-22T18:43:26.998Z</time></trkpt><trkpt lat="49.32894714568762" lon="0.9798062394668363"><ele>72.0</ele><time>2026-03-22T18:43:27.998Z</time></trkpt><trkpt lat="49.328852685613825" lon="0.9797794588588525"><ele>72.6</ele><time>2026-03-22T18:43:28.998Z</time></trkpt><trkpt lat="49.32876091767063" lon="0.9798303707874765"><ele>73.2</ele><time>2026-03-22T18:43:29.998Z</time></trkpt><trkpt lat="49.32868284308529" lon="0.9799175791888834"><ele>73.8</ele><time>2026-03-22T18:43:30.998Z</time></trkpt><trkpt lat="49.328597678354924" lon="0.9800179444794987"><ele>74.4</ele><time>2026-03-22T18:43:31.998Z</time></trkpt><trkpt lat="49.32852147045859" lon="0.9801492322643204"><ele>75.0</ele><time>2026-03-22T18:43:32.998Z</time></trkpt><trkpt lat="49.32843912366044" lon="0.9802915155337966"><ele>75.0</ele><time>2026-03-22T18:43:33.998Z</time></trkpt><trkpt lat="49.32834937329232" lon="0.980445463962857"><ele>75.0</ele><time>2026-03-22T18:43:34.998Z</time></trkpt><trkpt lat="49.32825285262359" lon="0.9806110254295333"><ele>75.0</ele><time>2026-03-22T18:43:35.998Z</time></trkpt><trkpt lat="49.32815181481474" lon="0.9807850295918967"><ele>75.0</ele><time>2026-03-22T18:43:36.998Z</time></trkpt><trkpt lat="49.32805270407764" lon="0.980957772877743"><ele>71.66666666666667</ele><time>2026-03-22T18:43:37.998Z</time></trkpt><trkpt lat="49.327949047850076" lon="0.9811384386172397"><ele>68.33333333333334</ele><time>2026-03-22T18:43:38.998Z</time></trkpt><trkpt lat="49.327841379249264" lon="0.9813260976956565"><ele>65.0</ele><time>2026-03-22T18:43:39.998Z</time></trkpt><trkpt lat="49.32773511006404" lon="0.98151131763752"><ele>71.0</ele><time>2026-03-22T18:43:40.998Z</time></trkpt><trkpt lat="49.32762984237387" lon="0.981693910068816"><ele>77.0</ele><time>2026-03-22T18:43:41.998Z</time></trkpt><trkpt lat="49.32752315327187" lon="0.9818726595210702"><ele>83.0</ele><time>2026-03-22T18:43:42.998Z</time></trkpt><trkpt lat="49.32742237763028" lon="0.9820477701428882"><ele>83.0</ele><time>2026-03-22T18:43:43.998Z</time></trkpt><trkpt lat="49.32733184532036" lon="0.9822104192478252"><ele>83.0</ele><time>2026-03-22T18:43:44.998Z</time></trkpt><trkpt lat="49.32724001932218" lon="0.9823585474279762"><ele>83.0</ele><time>2026-03-22T18:43:45.998Z</time></trkpt><trkpt lat="49.32714254057772" lon="0.982487798669388"><ele>83.0</ele><time>2026-03-22T18:43:46.998Z</time></trkpt><trkpt lat="49.327027490488284" lon="0.9825902730930435"><ele>82.75</ele><time>2026-03-22T18:43:47.998Z</time></trkpt><trkpt lat="49.3269068831617" lon="0.9826887311417445"><ele>82.5</ele><time>2026-03-22T18:43:48.998Z</time></trkpt><trkpt lat="49.32677248507083" lon="0.9827527248802881"><ele>82.25</ele><time>2026-03-22T18:43:49.998Z</time></trkpt><trkpt lat="49.32664038689835" lon="0.9828274283644888"><ele>82.0</ele><time>2026-03-22T18:43:50.998Z</time></trkpt><trkpt lat="49.32650999084095" lon="0.9829187877153776"><ele>79.25</ele><time>2026-03-22T18:43:51.998Z</time></trkpt><trkpt lat="49.32638150257273" lon="0.9830215533373724"><ele>76.5</ele><time>2026-03-22T18:43:52.998Z</time></trkpt><trkpt lat="49.326254584935995" lon="0.9831173729078865"><ele>73.75</ele><time>2026-03-22T18:43:53.998Z</time></trkpt><trkpt lat="49.326122320704584" lon="0.9831943921418744"><ele>71.0</ele><time>2026-03-22T18:43:55Z</time></trkpt><trkpt lat="49.32598767073275" lon="0.9832507132718478"><ele>71.0</ele><time>2026-03-22T18:43:56Z</time></trkpt><trkpt lat="49.32585173463914" lon="0.98328056942559"><ele>71.0</ele><time>2026-03-22T18:43:57Z</time></trkpt><trkpt lat="49.32571406547698" lon="0.9832783856085447"><ele>71.0</ele><time>2026-03-22T18:43:58Z</time></trkpt><trkpt lat="49.325574460312254" lon="0.9832645234274162"><ele>71.0</ele><time>2026-03-22T18:43:59Z</time></trkpt><trkpt lat="49.325429339138125" lon="0.9832567332545007"><ele>69.5</ele><time>2026-03-22T18:44:00Z</time></trkpt><trkpt lat="49.32528088662503" lon="0.9832557560517247"><ele>68.0</ele><time>2026-03-22T18:44:01Z</time></trkpt><trkpt lat="49.32513300500716" lon="0.9832638214767206"><ele>66.5</ele><time>2026-03-22T18:44:02Z</time></trkpt><trkpt lat="49.324985893656674" lon="0.9832765598064833"><ele>65.0</ele><time>2026-03-22T18:44:03Z</time></trkpt><trkpt lat="49.32484147410146" lon="0.983290567033773"><ele>64.75</ele><time>2026-03-22T18:44:04Z</time></trkpt><trkpt lat="49.3246992973935" lon="0.9833013572398747"><ele>64.5</ele><time>2026-03-22T18:44:05Z</time></trkpt><trkpt lat="49.32455704940101" lon="0.9833003661188825"><ele>64.25</ele><time>2026-03-22T18:44:06Z</time></trkpt><trkpt lat="49.3244166792744" lon="0.9832829114281321"><ele>64.0</ele><time>2026-03-22T18:44:07Z</time></trkpt><trkpt lat="49.32427934251393" lon="0.9832529557560863"><ele>64.0</ele><time>2026-03-22T18:44:08Z</time></trkpt><trkpt lat="49.32414736306317" lon="0.9832142084857909"><ele>64.0</ele><time>2026-03-22T18:44:09Z</time></trkpt><trkpt lat="49.32402175030465" lon="0.9831746501960124"><ele>64.0</ele><time>2026-03-22T18:44:10Z</time></trkpt><trkpt lat="49.32390186340716" lon="0.9831395939489782"><ele>64.0</ele><time>2026-03-22T18:44:11Z</time></trkpt><trkpt lat="49.323789617836184" lon="0.9831266804637817"><ele>64.2</ele><time>2026-03-22T18:44:12Z</time></trkpt><trkpt lat="49.32368228161935" lon="0.9831366662466897"><ele>64.4</ele><time>2026-03-22T18:44:13Z</time></trkpt><trkpt lat="49.32357906052726" lon="0.9831671796087579"><ele>64.6</ele><time>2026-03-22T18:44:14Z</time></trkpt><trkpt lat="49.32348101826839" lon="0.9832154439837473"><ele>64.8</ele><time>2026-03-22T18:44:15Z</time></trkpt><trkpt lat="49.323383649453156" lon="0.9832849729484684"><ele>65.0</ele><time>2026-03-22T18:44:16Z</time></trkpt><trkpt lat="49.323287736447675" lon="0.9833805696361133"><ele>65.0</ele><time>2026-03-22T18:44:17Z</time></trkpt><trkpt lat="49.323191748526654" lon="0.9834905457391878"><ele>65.0</ele><time>2026-03-22T18:44:18Z</time></trkpt><trkpt lat="49.32309707436422" lon="0.9836129952961324"><ele>65.0</ele><time>2026-03-22T18:44:19Z</time></trkpt><trkpt lat="49.32300783887057" lon="0.9837418441483062"><ele>65.0</ele><time>2026-03-22T18:44:20Z</time></trkpt><trkpt lat="49.32292174341864" lon="0.9838722405252397"><ele>63.5</ele><time>2026-03-22T18:44:21Z</time></trkpt><trkpt lat="49.322837119618136" lon="0.9840047999207239"><ele>62.0</ele><time>2026-03-22T18:44:22Z</time></trkpt><trkpt lat="49.322759955060775" lon="0.9841360503968736"><ele>60.5</ele><time>2026-03-22T18:44:23Z</time></trkpt><trkpt lat="49.32268844957968" lon="0.9842660782873853"><ele>59.0</ele><time>2026-03-22T18:44:24Z</time></trkpt><trkpt lat="49.32262203132348" lon="0.9843917968427757"><ele>59.0</ele><time>2026-03-22T18:44:25Z</time></trkpt><trkpt lat="49.32255982708546" lon="0.9845110424839566"><ele>59.00000000000001</ele><time>2026-03-22T18:44:26Z</time></trkpt><trkpt lat="49.32248789134922" lon="0.984611656085323"><ele>59.00000000000001</ele><time>2026-03-22T18:44:26.999Z</time></trkpt><trkpt lat="49.322425651478305" lon="0.9847293293911011"><ele>59.0</ele><time>2026-03-22T18:44:27.999Z</time></trkpt><trkpt lat="49.32236327076571" lon="0.9848492613635669"><ele>59.0</ele><time>2026-03-22T18:44:28.999Z</time></trkpt><trkpt lat="49.322303605719156" lon="0.9849696185806162"><ele>59.400000000000006</ele><time>2026-03-22T18:44:29.999Z</time></trkpt><trkpt lat="49.32224659836444" lon="0.9850933900158858"><ele>59.800000000000004</ele><time>2026-03-22T18:44:30.999Z</time></trkpt><trkpt lat="49.32219253803108" lon="0.9852254471381928"><ele>60.199999999999996</ele><time>2026-03-22T18:44:31.999Z</time></trkpt><trkpt lat="49.32214340453115" lon="0.9853725080821132"><ele>60.599999999999994</ele><time>2026-03-22T18:44:32.999Z</time></trkpt><trkpt lat="49.32210406088034" lon="0.9855273271391178"><ele>61.0</ele><time>2026-03-22T18:44:33.999Z</time></trkpt><trkpt lat="49.3220808897996" lon="0.9856957771223386"><ele>60.0</ele><time>2026-03-22T18:44:34.999Z</time></trkpt><trkpt lat="49.32209281130004" lon="0.9858743674436027"><ele>59.0</ele><time>2026-03-22T18:44:35.999Z</time></trkpt><trkpt lat="49.322125215602156" lon="0.9860452310846097"><ele>58.0</ele><time>2026-03-22T18:44:36.999Z</time></trkpt><trkpt lat="49.322176919913545" lon="0.9862070893554005"><ele>57.0</ele><time>2026-03-22T18:44:37.999Z</time></trkpt><trkpt lat="49.32225113770436" lon="0.9863607511674704"><ele>57.0</ele><time>2026-03-22T18:44:38.999Z</time></trkpt><trkpt lat="49.3223348102665" lon="0.9864928941715753"><ele>57.0</ele><time>2026-03-22T18:44:39.999Z</time></trkpt><trkpt lat="49.322419617201085" lon="0.9866177554361097"><ele>57.0</ele><time>2026-03-22T18:44:40.999Z</time></trkpt><trkpt lat="49.32249987401448" lon="0.986741965353677"><ele>57.0</ele><time>2026-03-22T18:44:41.999Z</time></trkpt><trkpt lat="49.32255640467053" lon="0.9868720183843063"><ele>57.0</ele><time>2026-03-22T18:44:42.999Z</time></trkpt><trkpt lat="49.322588553678536" lon="0.9870174133538766"><ele>57.0</ele><time>2026-03-22T18:44:43.999Z</time></trkpt><trkpt lat="49.32257497675911" lon="0.9871455582325893"><ele>57.0</ele><time>2026-03-22T18:44:44.999Z</time></trkpt><trkpt lat="49.32253166756044" lon="0.9872428442894277"><ele>57.0</ele><time>2026-03-22T18:44:45.999Z</time></trkpt><trkpt lat="49.322470547799895" lon="0.9873072059279713"><ele>57.0</ele><time>2026-03-22T18:44:46.999Z</time></trkpt><trkpt lat="49.3224053649427" lon="0.9873653549741591"><ele>57.0</ele><time>2026-03-22T18:44:47.999Z</time></trkpt><trkpt lat="49.322317120460745" lon="0.9873510073265952"><ele>57.0</ele><time>2026-03-22T18:44:48.999Z</time></trkpt><trkpt lat="49.32223274717374" lon="0.9873206885449735"><ele>57.0</ele><time>2026-03-22T18:44:49.999Z</time></trkpt><trkpt lat="49.32214786807448" lon="0.9873044383745619"><ele>57.0</ele><time>2026-03-22T18:44:50.999Z</time></trkpt><trkpt lat="49.322065062074465" lon="0.9873222839374608"><ele>57.0</ele><time>2026-03-22T18:44:51.999Z</time></trkpt><trkpt lat="49.32198511979771" lon="0.9873787832637042"><ele>57.0</ele><time>2026-03-22T18:44:52.999Z</time></trkpt><trkpt lat="49.32191485546043" lon="0.9874698862897664"><ele>57.0</ele><time>2026-03-22T18:44:53.999Z</time></trkpt><trkpt lat="49.32186428446238" lon="0.987595608165183"><ele>55.6</ele><time>2026-03-22T18:44:54.999Z</time></trkpt><trkpt lat="49.321810374251974" lon="0.9877268579815696"><ele>54.2</ele><time>2026-03-22T18:44:55.999Z</time></trkpt><trkpt lat="49.32177546226554" lon="0.9878786637360448"><ele>52.8</ele><time>2026-03-22T18:44:56.999Z</time></trkpt><trkpt lat="49.32174083666178" lon="0.9880386947290357"><ele>51.4</ele><time>2026-03-22T18:44:57.999Z</time></trkpt><trkpt lat="49.32170382345404" lon="0.9882097606874759"><ele>50.0</ele><time>2026-03-22T18:44:58.999Z</time></trkpt><trkpt lat="49.32166570010062" lon="0.9883859575310396"><ele>50.0</ele><time>2026-03-22T18:44:59.999Z</time></trkpt><trkpt lat="49.321625688413604" lon="0.9885681071421918"><ele>50.0</ele><time>2026-03-22T18:45:00.999Z</time></trkpt><trkpt lat="49.32158316289737" lon="0.9887572526950835"><ele>50.0</ele><time>2026-03-22T18:45:01.999Z</time></trkpt><trkpt lat="49.321536779444216" lon="0.9889502386061114"><ele>50.0</ele><time>2026-03-22T18:45:02.999Z</time></trkpt><trkpt lat="49.321488386364805" lon="0.9891460369250635"><ele>51.25</ele><time>2026-03-22T18:45:03.999Z</time></trkpt><trkpt lat="49.32143660953586" lon="0.9893437690213499"><ele>52.5</ele><time>2026-03-22T18:45:04.999Z</time></trkpt><trkpt lat="49.32138702414677" lon="0.9895454658712823"><ele>53.75</ele><time>2026-03-22T18:45:05.999Z</time></trkpt><trkpt lat="49.321332460047" lon="0.9897447643760903"><ele>55.0</ele><time>2026-03-22T18:45:06.999Z</time></trkpt><trkpt lat="49.32126286004723" lon="0.9899318406168128"><ele>50.25</ele><time>2026-03-22T18:45:07.999Z</time></trkpt><trkpt lat="49.32119370681376" lon="0.9901207319470806"><ele>45.5</ele><time>2026-03-22T18:45:08.999Z</time></trkpt><trkpt lat="49.321117271994694" lon="0.9903085883914805"><ele>40.75</ele><time>2026-03-22T18:45:09.999Z</time></trkpt><trkpt lat="49.32103604114916" lon="0.9904917726392627"><ele>36.0</ele><time>2026-03-22T18:45:10.999Z</time></trkpt><trkpt lat="49.32095167623565" lon="0.990672082244276"><ele>38.5</ele><time>2026-03-22T18:45:11.999Z</time></trkpt><trkpt lat="49.32086604986409" lon="0.9908492809998818"><ele>41.0</ele><time>2026-03-22T18:45:12.999Z</time></trkpt><trkpt lat="49.320779603813094" lon="0.9910164141605202"><ele>43.5</ele><time>2026-03-22T18:45:13.999Z</time></trkpt><trkpt lat="49.32069361808241" lon="0.9911745795103537"><ele>46.0</ele><time>2026-03-22T18:45:14.998Z</time></trkpt><trkpt lat="49.3206089121134" lon="0.9913278307275385"><ele>41.25</ele><time>2026-03-22T18:45:15.998Z</time></trkpt><trkpt lat="49.32052177420865" lon="0.9914775740383024"><ele>36.5</ele><time>2026-03-22T18:45:16.998Z</time></trkpt><trkpt lat="49.320435699072405" lon="0.9916163587884435"><ele>31.75</ele><time>2026-03-22T18:45:17.998Z</time></trkpt><trkpt lat="49.32034432759378" lon="0.991750159146862"><ele>27.0</ele><time>2026-03-22T18:45:18.998Z</time></trkpt><trkpt lat="49.32025094944382" lon="0.9918814115274045"><ele>27.0</ele><time>2026-03-22T18:45:19.998Z</time></trkpt><trkpt lat="49.32015801572588" lon="0.9920109968675068"><ele>27.0</ele><time>2026-03-22T18:45:20.998Z</time></trkpt><trkpt lat="49.32006881094659" lon="0.9921362711739397"><ele>27.0</ele><time>2026-03-22T18:45:21.998Z</time></trkpt><trkpt lat="49.31998145745111" lon="0.9922573947384212"><ele>27.0</ele><time>2026-03-22T18:45:22.998Z</time></trkpt><trkpt lat="49.319894490059056" lon="0.9923785417824508"><ele>27.0</ele><time>2026-03-22T18:45:23.998Z</time></trkpt><trkpt lat="49.31981095533407" lon="0.9924972806340461"><ele>27.000000000000004</ele><time>2026-03-22T18:45:24.998Z</time></trkpt><trkpt lat="49.31972772782395" lon="0.9926101825153506"><ele>27.000000000000004</ele><time>2026-03-22T18:45:25.998Z</time></trkpt><trkpt lat="49.31964963181493" lon="0.992725491584687"><ele>27.0</ele><time>2026-03-22T18:45:26.998Z</time></trkpt><trkpt lat="49.319574519885435" lon="0.9928405432125241"><ele>27.0</ele><time>2026-03-22T18:45:27.998Z</time></trkpt><trkpt lat="49.31950499064937" lon="0.9929580063253626"><ele>26.200000000000003</ele><time>2026-03-22T18:45:28.998Z</time></trkpt><trkpt lat="49.31942712564854" lon="0.9930630404341307"><ele>25.400000000000002</ele><time>2026-03-22T18:45:29.998Z</time></trkpt><trkpt lat="49.31936216676657" lon="0.9931865548548714"><ele>24.6</ele><time>2026-03-22T18:45:30.998Z</time></trkpt><trkpt lat="49.319300400003804" lon="0.993308785625993"><ele>23.799999999999997</ele><time>2026-03-22T18:45:31.998Z</time></trkpt><trkpt lat="49.31924612264369" lon="0.9934235556354328"><ele>23.0</ele><time>2026-03-22T18:45:32.998Z</time></trkpt><trkpt lat="49.3191954681282" lon="0.9935129165140802"><ele>23.0</ele><time>2026-03-22T18:45:33.998Z</time></trkpt><trkpt lat="49.31914217368024" lon="0.9935812530527645"><ele>23.0</ele><time>2026-03-22T18:45:34.998Z</time></trkpt><trkpt lat="49.31907936644901" lon="0.9935886782409789"><ele>23.0</ele><time>2026-03-22T18:45:35.998Z</time></trkpt><trkpt lat="49.318964322703046" lon="0.993511718769903"><ele>23.0</ele><time>2026-03-22T18:45:37.998Z</time></trkpt><trkpt lat="49.31890875132992" lon="0.9934407257648247"><ele>23.0</ele><time>2026-03-22T18:45:38.998Z</time></trkpt><trkpt lat="49.31885534565038" lon="0.9933592077736941"><ele>23.0</ele><time>2026-03-22T18:45:39.998Z</time></trkpt><trkpt lat="49.31879013258057" lon="0.9932930341477518"><ele>21.2</ele><time>2026-03-22T18:45:40.998Z</time></trkpt><trkpt lat="49.31871112444102" lon="0.9932678643887782"><ele>19.4</ele><time>2026-03-22T18:45:41.998Z</time></trkpt><trkpt lat="49.31862856952" lon="0.9932884965723664"><ele>17.599999999999998</ele><time>2026-03-22T18:45:42.998Z</time></trkpt><trkpt lat="49.318550226873974" lon="0.9933339064637923"><ele>15.799999999999999</ele><time>2026-03-22T18:45:43.998Z</time></trkpt><trkpt lat="49.318419362808996" lon="0.9932837303535971"><ele>14.0</ele><time>2026-03-22T18:45:45.998Z</time></trkpt><trkpt lat="49.31837644471054" lon="0.9931902477571146"><ele>14.000000000000002</ele><time>2026-03-22T18:45:46.998Z</time></trkpt><trkpt lat="49.31835806323177" lon="0.9930848340854926"><ele>14.0</ele><time>2026-03-22T18:45:47.998Z</time></trkpt><trkpt lat="49.31836306484663" lon="0.9929760240971282"><ele>14.0</ele><time>2026-03-22T18:45:48.998Z</time></trkpt><trkpt lat="49.31838431318749" lon="0.9928741225696984"><ele>14.0</ele><time>2026-03-22T18:45:49.998Z</time></trkpt><trkpt lat="49.318405798757425" lon="0.9927808878434337"><ele>14.000000000000002</ele><time>2026-03-22T18:45:50.998Z</time></trkpt><trkpt lat="49.318450209763114" lon="0.9926019939304307"><ele>14.0</ele><time>2026-03-22T18:45:52.998Z</time></trkpt><trkpt lat="49.31846826430539" lon="0.9925013139605067"><ele>15.0</ele><time>2026-03-22T18:45:53.998Z</time></trkpt><trkpt lat="49.318478180942755" lon="0.9923105750263082"><ele>15.999999999999998</ele><time>2026-03-22T18:45:55.998Z</time></trkpt><trkpt lat="49.31849095342428" lon="0.9921660177733113"><ele>17.0</ele><time>2026-03-22T18:45:57.998Z</time></trkpt><trkpt lat="49.3185094810556" lon="0.9920712573667586"><ele>18.0</ele><time>2026-03-22T18:45:59.998Z</time></trkpt><trkpt lat="49.31855443606418" lon="0.9919158287603951"><ele>19.0</ele><time>2026-03-22T18:46:02Z</time></trkpt><trkpt lat="49.31859698997953" lon="0.9918183974616873"><ele>19.0</ele><time>2026-03-22T18:46:03Z</time></trkpt><trkpt lat="49.31864164247008" lon="0.9917345072400041"><ele>19.0</ele><time>2026-03-22T18:46:04Z</time></trkpt><trkpt lat="49.31869064070389" lon="0.9916427847392171"><ele>19.0</ele><time>2026-03-22T18:46:05Z</time></trkpt><trkpt lat="49.3187440026579" lon="0.9915420017370505"><ele>19.0</ele><time>2026-03-22T18:46:06Z</time></trkpt><trkpt lat="49.31880191722194" lon="0.9914301142552588"><ele>19.0</ele><time>2026-03-22T18:46:07Z</time></trkpt><trkpt lat="49.31886905452663" lon="0.9913116054228576"><ele>19.0</ele><time>2026-03-22T18:46:08Z</time></trkpt><trkpt lat="49.31893256543466" lon="0.9911910027321472"><ele>18.0</ele><time>2026-03-22T18:46:09Z</time></trkpt><trkpt lat="49.31899052533324" lon="0.9910656489398744"><ele>17.0</ele><time>2026-03-22T18:46:10Z</time></trkpt><trkpt lat="49.31904123420053" lon="0.9909244600422312"><ele>15.999999999999998</ele><time>2026-03-22T18:46:11Z</time></trkpt><trkpt lat="49.319088454282436" lon="0.9907728600081896"><ele>15.0</ele><time>2026-03-22T18:46:12Z</time></trkpt><trkpt lat="49.31913810481541" lon="0.9906176035068285"><ele>14.0</ele><time>2026-03-22T18:46:13Z</time></trkpt><trkpt lat="49.31919123740828" lon="0.9904578997420656"><ele>16.5</ele><time>2026-03-22T18:46:14Z</time></trkpt><trkpt lat="49.31924676124435" lon="0.9902950526620095"><ele>19.0</ele><time>2026-03-22T18:46:15Z</time></trkpt><trkpt lat="49.319306828139844" lon="0.9901285387206746"><ele>21.5</ele><time>2026-03-22T18:46:16Z</time></trkpt><trkpt lat="49.319372512498134" lon="0.9899696830529294"><ele>24.0</ele><time>2026-03-22T18:46:17Z</time></trkpt><trkpt lat="49.31944314832797" lon="0.989838556270795"><ele>22.4</ele><time>2026-03-22T18:46:18Z</time></trkpt><trkpt lat="49.31951425099137" lon="0.9897214908003061"><ele>20.799999999999997</ele><time>2026-03-22T18:46:19Z</time></trkpt><trkpt lat="49.319583358940946" lon="0.9896082352187439"><ele>19.200000000000003</ele><time>2026-03-22T18:46:20Z</time></trkpt><trkpt lat="49.319649649678375" lon="0.9894914470214274"><ele>17.6</ele><time>2026-03-22T18:46:21Z</time></trkpt><trkpt lat="49.31970874291507" lon="0.9893825440538799"><ele>16.0</ele><time>2026-03-22T18:46:22Z</time></trkpt><trkpt lat="49.31976341041757" lon="0.9892769886710086"><ele>17.166666666666664</ele><time>2026-03-22T18:46:23Z</time></trkpt><trkpt lat="49.319797065636784" lon="0.9891544867632346"><ele>18.333333333333332</ele><time>2026-03-22T18:46:24Z</time></trkpt><trkpt lat="49.31981862547022" lon="0.9890229074548722"><ele>19.5</ele><time>2026-03-22T18:46:25Z</time></trkpt><trkpt lat="49.31981489858109" lon="0.9888899109949796"><ele>20.666666666666668</ele><time>2026-03-22T18:46:26Z</time></trkpt><trkpt lat="49.319781714451885" lon="0.9887625490076969"><ele>21.833333333333336</ele><time>2026-03-22T18:46:27Z</time></trkpt><trkpt lat="49.31972512792835" lon="0.98865154964402"><ele>23.0</ele><time>2026-03-22T18:46:28Z</time></trkpt><trkpt lat="49.319647703572194" lon="0.9885696354435904"><ele>25.4</ele><time>2026-03-22T18:46:29Z</time></trkpt><trkpt lat="49.319553309134186" lon="0.9885378565164271"><ele>27.799999999999997</ele><time>2026-03-22T18:46:30Z</time></trkpt><trkpt lat="49.319452177652224" lon="0.9885511673952785"><ele>30.2</ele><time>2026-03-22T18:46:31Z</time></trkpt><trkpt lat="49.31935815955881" lon="0.9886155303789105"><ele>32.6</ele><time>2026-03-22T18:46:31.999Z</time></trkpt><trkpt lat="49.3192827010814" lon="0.9887294709783382"><ele>35.0</ele><time>2026-03-22T18:46:32.999Z</time></trkpt><trkpt lat="49.31920881893554" lon="0.9888520358600018"><ele>35.0</ele><time>2026-03-22T18:46:33.999Z</time></trkpt><trkpt lat="49.31916326828245" lon="0.9890061565535442"><ele>35.0</ele><time>2026-03-22T18:46:34.999Z</time></trkpt><trkpt lat="49.31911840102799" lon="0.9891547318532097"><ele>35.0</ele><time>2026-03-22T18:46:35.999Z</time></trkpt><trkpt lat="49.3190738005148" lon="0.9893071119503674"><ele>35.0</ele><time>2026-03-22T18:46:36.999Z</time></trkpt><trkpt lat="49.319029660407224" lon="0.9894617864892196"><ele>35.0</ele><time>2026-03-22T18:46:37.999Z</time></trkpt><trkpt lat="49.31898511443659" lon="0.9896178835174798"><ele>35.0</ele><time>2026-03-22T18:46:38.999Z</time></trkpt><trkpt lat="49.31893812725511" lon="0.989772374491021"><ele>35.0</ele><time>2026-03-22T18:46:39.999Z</time></trkpt><trkpt lat="49.318884416383774" lon="0.9899251405457644"><ele>35.0</ele><time>2026-03-22T18:46:40.999Z</time></trkpt><trkpt lat="49.31882472070842" lon="0.9900722060720628"><ele>35.0</ele><time>2026-03-22T18:46:41.999Z</time></trkpt><trkpt lat="49.318757836994386" lon="0.9902108346706601"><ele>35.8</ele><time>2026-03-22T18:46:42.999Z</time></trkpt><trkpt lat="49.31868045880665" lon="0.9903398161125503"><ele>36.6</ele><time>2026-03-22T18:46:43.999Z</time></trkpt><trkpt lat="49.31860138224781" lon="0.9904587722995052"><ele>37.4</ele><time>2026-03-22T18:46:44.999Z</time></trkpt><trkpt lat="49.318524243590915" lon="0.9905620734707559"><ele>38.2</ele><time>2026-03-22T18:46:45.999Z</time></trkpt><trkpt lat="49.31845147801976" lon="0.9906486385274117"><ele>39.0</ele><time>2026-03-22T18:46:46.999Z</time></trkpt><trkpt lat="49.318376500800696" lon="0.9907182418996741"><ele>39.0</ele><time>2026-03-22T18:46:47.999Z</time></trkpt><trkpt lat="49.31828810760125" lon="0.9907260765591711"><ele>39.0</ele><time>2026-03-22T18:46:48.999Z</time></trkpt><trkpt lat="49.318199106040645" lon="0.9906920860736846"><ele>39.0</ele><time>2026-03-22T18:46:49.999Z</time></trkpt><trkpt lat="49.31812102832563" lon="0.9906192768155204"><ele>39.0</ele><time>2026-03-22T18:46:50.999Z</time></trkpt><trkpt lat="49.318058750635466" lon="0.9905140148556444"><ele>39.0</ele><time>2026-03-22T18:46:51.999Z</time></trkpt><trkpt lat="49.31800391391788" lon="0.9903869698814949"><ele>41.0</ele><time>2026-03-22T18:46:52.999Z</time></trkpt><trkpt lat="49.31795517104357" lon="0.9902413294567822"><ele>43.0</ele><time>2026-03-22T18:46:53.999Z</time></trkpt><trkpt lat="49.31791193203211" lon="0.9900804063408966"><ele>45.0</ele><time>2026-03-22T18:46:54.999Z</time></trkpt><trkpt lat="49.31787510762542" lon="0.9899094783222188"><ele>47.0</ele><time>2026-03-22T18:46:55.999Z</time></trkpt><trkpt lat="49.317836329659016" lon="0.9897351375239782"><ele>47.5</ele><time>2026-03-22T18:46:56.999Z</time></trkpt><trkpt lat="49.31780043933047" lon="0.9895553737281357"><ele>48.0</ele><time>2026-03-22T18:46:57.999Z</time></trkpt><trkpt lat="49.317770096162484" lon="0.9893784674836896"><ele>48.5</ele><time>2026-03-22T18:46:58.999Z</time></trkpt><trkpt lat="49.31773356137616" lon="0.9892091496813377"><ele>49.0</ele><time>2026-03-22T18:46:59.999Z</time></trkpt><trkpt lat="49.31768461183906" lon="0.989047794872599"><ele>50.0</ele><time>2026-03-22T18:47:00.999Z</time></trkpt><trkpt lat="49.317622076536736" lon="0.988895343284524"><ele>51.0</ele><time>2026-03-22T18:47:01.999Z</time></trkpt><trkpt lat="49.31754845081286" lon="0.9887547330266653"><ele>52.0</ele><time>2026-03-22T18:47:02.999Z</time></trkpt><trkpt lat="49.3174582366285" lon="0.9886343655242642"><ele>53.0</ele><time>2026-03-22T18:47:03.999Z</time></trkpt><trkpt lat="49.31736022549705" lon="0.9885262318017247"><ele>53.0</ele><time>2026-03-22T18:47:04.999Z</time></trkpt><trkpt lat="49.317259744283554" lon="0.9884240886109349"><ele>53.0</ele><time>2026-03-22T18:47:05.999Z</time></trkpt><trkpt lat="49.31715861608679" lon="0.9883229130997319"><ele>53.0</ele><time>2026-03-22T18:47:06.999Z</time></trkpt><trkpt lat="49.317055805821845" lon="0.988221716525496"><ele>53.0</ele><time>2026-03-22T18:47:07.999Z</time></trkpt><trkpt lat="49.31695403464887" lon="0.9881109293496617"><ele>56.25</ele><time>2026-03-22T18:47:08.999Z</time></trkpt><trkpt lat="49.316854502658416" lon="0.9880020435761748"><ele>59.5</ele><time>2026-03-22T18:47:09.999Z</time></trkpt><trkpt lat="49.31675621956286" lon="0.9878870705176407"><ele>62.75</ele><time>2026-03-22T18:47:10.999Z</time></trkpt><trkpt lat="49.316658532023325" lon="0.9877696206397585"><ele>66.0</ele><time>2026-03-22T18:47:11.999Z</time></trkpt><trkpt lat="49.31656320687293" lon="0.9876437899511608"><ele>66.0</ele><time>2026-03-22T18:47:12.999Z</time></trkpt><trkpt lat="49.31647209353067" lon="0.9875128105217991"><ele>66.0</ele><time>2026-03-22T18:47:13.999Z</time></trkpt><trkpt lat="49.31638604273055" lon="0.9873721131621854"><ele>66.0</ele><time>2026-03-22T18:47:14.999Z</time></trkpt><trkpt lat="49.316306246859426" lon="0.9872225202760868"><ele>66.0</ele><time>2026-03-22T18:47:15.999Z</time></trkpt><trkpt lat="49.31623653853322" lon="0.9870761136627981"><ele>67.6</ele><time>2026-03-22T18:47:16.999Z</time></trkpt><trkpt lat="49.316179089427244" lon="0.9869369910353127"><ele>69.19999999999999</ele><time>2026-03-22T18:47:17.999Z</time></trkpt><trkpt lat="49.31611947869955" lon="0.986797248855962"><ele>70.80000000000001</ele><time>2026-03-22T18:47:18.998Z</time></trkpt><trkpt lat="49.316053952740994" lon="0.9866698429250869"><ele>72.4</ele><time>2026-03-22T18:47:19.998Z</time></trkpt><trkpt lat="49.315978314950996" lon="0.9865455197365772"><ele>74.0</ele><time>2026-03-22T18:47:20.998Z</time></trkpt><trkpt lat="49.31590775040623" lon="0.9864385956297733"><ele>74.0</ele><time>2026-03-22T18:47:21.998Z</time></trkpt><trkpt lat="49.31582254270431" lon="0.9863497038292673"><ele>74.0</ele><time>2026-03-22T18:47:22.998Z</time></trkpt><trkpt lat="49.31573007330398" lon="0.9862741322380605"><ele>74.0</ele><time>2026-03-22T18:47:23.998Z</time></trkpt><trkpt lat="49.31563925130978" lon="0.9862066248195015"><ele>74.0</ele><time>2026-03-22T18:47:24.998Z</time></trkpt><trkpt lat="49.31553559029623" lon="0.9861669457020034"><ele>74.0</ele><time>2026-03-22T18:47:25.998Z</time></trkpt><trkpt lat="49.31544170116651" lon="0.9861320808156449"><ele>76.2</ele><time>2026-03-22T18:47:26.998Z</time></trkpt><trkpt lat="49.31532957728977" lon="0.9861093264737372"><ele>78.4</ele><time>2026-03-22T18:47:27.998Z</time></trkpt><trkpt lat="49.3152231127654" lon="0.9861063850267461"><ele>80.6</ele><time>2026-03-22T18:47:28.998Z</time></trkpt><trkpt lat="49.315112257548826" lon="0.9860983933899772"><ele>82.8</ele><time>2026-03-22T18:47:29.998Z</time></trkpt><trkpt lat="49.31500279295367" lon="0.9860840345230657"><ele>85.0</ele><time>2026-03-22T18:47:30.998Z</time></trkpt><trkpt lat="49.31489078353578" lon="0.9860707866339036"><ele>85.0</ele><time>2026-03-22T18:47:31.998Z</time></trkpt><trkpt lat="49.31477812811887" lon="0.9860615190445688"><ele>85.0</ele><time>2026-03-22T18:47:32.998Z</time></trkpt><trkpt lat="49.31466274831904" lon="0.9860488296089194"><ele>85.0</ele><time>2026-03-22T18:47:33.998Z</time></trkpt><trkpt lat="49.31454787974544" lon="0.9860278095351022"><ele>85.0</ele><time>2026-03-22T18:47:34.998Z</time></trkpt><trkpt lat="49.31443823817871" lon="0.9860052711245536"><ele>84.0</ele><time>2026-03-22T18:47:35.998Z</time></trkpt><trkpt lat="49.314330860591056" lon="0.9859704356255738"><ele>83.0</ele><time>2026-03-22T18:47:36.998Z</time></trkpt><trkpt lat="49.314221019152264" lon="0.9859174278178284"><ele>82.0</ele><time>2026-03-22T18:47:37.998Z</time></trkpt><trkpt lat="49.31411802974719" lon="0.9858424850097192"><ele>81.0</ele><time>2026-03-22T18:47:38.998Z</time></trkpt><trkpt lat="49.31402057581399" lon="0.9857423374164889"><ele>81.0</ele><time>2026-03-22T18:47:39.998Z</time></trkpt><trkpt lat="49.31392253424022" lon="0.9856358421616078"><ele>81.0</ele><time>2026-03-22T18:47:40.998Z</time></trkpt><trkpt lat="49.313825053347685" lon="0.9855259104528463"><ele>81.0</ele><time>2026-03-22T18:47:41.998Z</time></trkpt><trkpt lat="49.31372815723022" lon="0.985410174895274"><ele>81.0</ele><time>2026-03-22T18:47:42.998Z</time></trkpt><trkpt lat="49.31362584623547" lon="0.9852957317101747"><ele>82.0</ele><time>2026-03-22T18:47:43.998Z</time></trkpt><trkpt lat="49.31352184334715" lon="0.9851737547348254"><ele>83.0</ele><time>2026-03-22T18:47:44.998Z</time></trkpt><trkpt lat="49.3134202882073" lon="0.985043874138384"><ele>84.0</ele><time>2026-03-22T18:47:45.998Z</time></trkpt><trkpt lat="49.31332818005283" lon="0.9849013874790846"><ele>85.0</ele><time>2026-03-22T18:47:46.998Z</time></trkpt><trkpt lat="49.313235835074295" lon="0.9847550216948632"><ele>85.0</ele><time>2026-03-22T18:47:47.998Z</time></trkpt><trkpt lat="49.31314221464188" lon="0.9846080450388531"><ele>85.0</ele><time>2026-03-22T18:47:48.998Z</time></trkpt><trkpt lat="49.31304633583517" lon="0.9844611999719632"><ele>85.0</ele><time>2026-03-22T18:47:49.998Z</time></trkpt><trkpt lat="49.31294624051854" lon="0.9843139145849741"><ele>85.0</ele><time>2026-03-22T18:47:50.998Z</time></trkpt><trkpt lat="49.312845895403804" lon="0.9841662240009419"><ele>88.5</ele><time>2026-03-22T18:47:51.998Z</time></trkpt><trkpt lat="49.31274249286491" lon="0.9840213783340367"><ele>92.0</ele><time>2026-03-22T18:47:52.998Z</time></trkpt><trkpt lat="49.31263679862806" lon="0.9838776619238471"><ele>95.5</ele><time>2026-03-22T18:47:53.998Z</time></trkpt><trkpt lat="49.31252784454277" lon="0.983745226634028"><ele>99.0</ele><time>2026-03-22T18:47:54.998Z</time></trkpt><trkpt lat="49.31242128371908" lon="0.9836072576133732"><ele>99.0</ele><time>2026-03-22T18:47:55.998Z</time></trkpt><trkpt lat="49.31231397605748" lon="0.9834678312459526"><ele>99.0</ele><time>2026-03-22T18:47:56.998Z</time></trkpt><trkpt lat="49.31220760141515" lon="0.9833266861781103"><ele>99.0</ele><time>2026-03-22T18:47:57.998Z</time></trkpt><trkpt lat="49.312103322720496" lon="0.98318345153538"><ele>99.0</ele><time>2026-03-22T18:47:58.998Z</time></trkpt><trkpt lat="49.31199780149412" lon="0.9830383362122096"><ele>99.75</ele><time>2026-03-22T18:47:59.998Z</time></trkpt><trkpt lat="49.31189526776444" lon="0.9828900481514585"><ele>100.5</ele><time>2026-03-22T18:48:00.998Z</time></trkpt><trkpt lat="49.311796744628076" lon="0.9827343502225127"><ele>101.25</ele><time>2026-03-22T18:48:01.998Z</time></trkpt><trkpt lat="49.31170313286792" lon="0.9825723629851358"><ele>102.0</ele><time>2026-03-22T18:48:02.998Z</time></trkpt><trkpt lat="49.31161363756766" lon="0.9824023871773553"><ele>102.0</ele><time>2026-03-22T18:48:03.998Z</time></trkpt><trkpt lat="49.31153093420236" lon="0.9822244945365513"><ele>102.0</ele><time>2026-03-22T18:48:04.998Z</time></trkpt><trkpt lat="49.31145454898055" lon="0.9820384816739107"><ele>102.0</ele><time>2026-03-22T18:48:06Z</time></trkpt><trkpt lat="49.31138441899954" lon="0.9818445349899798"><ele>102.0</ele><time>2026-03-22T18:48:07Z</time></trkpt><trkpt lat="49.31131853245142" lon="0.9816469011454654"><ele>104.75</ele><time>2026-03-22T18:48:08Z</time></trkpt><trkpt lat="49.31125731262677" lon="0.9814425792911687"><ele>107.5</ele><time>2026-03-22T18:48:09Z</time></trkpt><trkpt lat="49.311196618229005" lon="0.9812373978193153"><ele>110.25</ele><time>2026-03-22T18:48:10Z</time></trkpt><trkpt lat="49.311136275965104" lon="0.9810313219699459"><ele>113.0</ele><time>2026-03-22T18:48:11Z</time></trkpt><trkpt lat="49.31107415599949" lon="0.9808279162829556"><ele>113.0</ele><time>2026-03-22T18:48:12Z</time></trkpt><trkpt lat="49.31101606142135" lon="0.9806334525262607"><ele>113.0</ele><time>2026-03-22T18:48:13Z</time></trkpt><trkpt lat="49.310963980367326" lon="0.9804430851130006"><ele>113.0</ele><time>2026-03-22T18:48:14Z</time></trkpt><trkpt lat="49.31091240111296" lon="0.9802560186040884"><ele>113.0</ele><time>2026-03-22T18:48:15Z</time></trkpt><trkpt lat="49.31086147752247" lon="0.9800766828671951"><ele>111.75</ele><time>2026-03-22T18:48:16Z</time></trkpt><trkpt lat="49.310810285123424" lon="0.9799020853914613"><ele>110.5</ele><time>2026-03-22T18:48:17Z</time></trkpt><trkpt lat="49.31075070258858" lon="0.9797369158845863"><ele>109.25</ele><time>2026-03-22T18:48:18Z</time></trkpt><trkpt lat="49.310680943840715" lon="0.9795848462379622"><ele>108.0</ele><time>2026-03-22T18:48:19Z</time></trkpt><trkpt lat="49.31059767287297" lon="0.9794457504798421"><ele>109.0</ele><time>2026-03-22T18:48:20Z</time></trkpt><trkpt lat="49.31050249371228" lon="0.9793310492903687"><ele>110.0</ele><time>2026-03-22T18:48:21Z</time></trkpt><trkpt lat="49.31039364527985" lon="0.9792395479605996"><ele>111.0</ele><time>2026-03-22T18:48:22Z</time></trkpt><trkpt lat="49.31028182404541" lon="0.9791569340655257"><ele>112.0</ele><time>2026-03-22T18:48:23Z</time></trkpt><trkpt lat="49.31016262019661" lon="0.9790894121606273"><ele>112.0</ele><time>2026-03-22T18:48:24Z</time></trkpt><trkpt lat="49.31003709290993" lon="0.9790307090429969"><ele>112.0</ele><time>2026-03-22T18:48:24.999Z</time></trkpt><trkpt lat="49.30990905614546" lon="0.9789766808784177"><ele>112.0</ele><time>2026-03-22T18:48:25.999Z</time></trkpt><trkpt lat="49.309776681446856" lon="0.9789328480794462"><ele>112.0</ele><time>2026-03-22T18:48:26.999Z</time></trkpt><trkpt lat="49.30964279031245" lon="0.9788998289796306"><ele>113.5</ele><time>2026-03-22T18:48:27.999Z</time></trkpt><trkpt lat="49.309511117371" lon="0.9788798044813352"><ele>115.0</ele><time>2026-03-22T18:48:28.999Z</time></trkpt><trkpt lat="49.30938128228301" lon="0.9788701303247102"><ele>116.5</ele><time>2026-03-22T18:48:29.999Z</time></trkpt><trkpt lat="49.3092533362199" lon="0.9788796515711558"><ele>118.0</ele><time>2026-03-22T18:48:30.999Z</time></trkpt><trkpt lat="49.309125552482634" lon="0.9789118546704826"><ele>118.0</ele><time>2026-03-22T18:48:31.999Z</time></trkpt><trkpt lat="49.30899889781569" lon="0.9789529605169421"><ele>118.0</ele><time>2026-03-22T18:48:32.999Z</time></trkpt><trkpt lat="49.30887690325193" lon="0.9790172294931792"><ele>118.0</ele><time>2026-03-22T18:48:33.999Z</time></trkpt><trkpt lat="49.30876349142248" lon="0.9791101239187432"><ele>118.0</ele><time>2026-03-22T18:48:34.999Z</time></trkpt><trkpt lat="49.30865010316101" lon="0.9792109802145761"><ele>119.5</ele><time>2026-03-22T18:48:35.999Z</time></trkpt><trkpt lat="49.308562699103504" lon="0.9793682604275862"><ele>121.0</ele><time>2026-03-22T18:48:36.999Z</time></trkpt><trkpt lat="49.308464730640175" lon="0.979495586952484"><ele>122.5</ele><time>2026-03-22T18:48:37.999Z</time></trkpt><trkpt lat="49.30837560200967" lon="0.9796216664470231"><ele>124.0</ele><time>2026-03-22T18:48:38.999Z</time></trkpt><trkpt lat="49.308288690013384" lon="0.9797335964507679"><ele>124.0</ele><time>2026-03-22T18:48:39.999Z</time></trkpt><trkpt lat="49.308202502090815" lon="0.9798358903496057"><ele>124.0</ele><time>2026-03-22T18:48:40.999Z</time></trkpt><trkpt lat="49.30811365094531" lon="0.9799227185159345"><ele>124.0</ele><time>2026-03-22T18:48:41.999Z</time></trkpt><trkpt lat="49.308018702145105" lon="0.9799851182729834"><ele>124.0</ele><time>2026-03-22T18:48:42.999Z</time></trkpt><trkpt lat="49.30791639312622" lon="0.9800182025555001"><ele>124.0</ele><time>2026-03-22T18:48:43.999Z</time></trkpt><trkpt lat="49.30780635669374" lon="0.980019669651927"><ele>124.5</ele><time>2026-03-22T18:48:44.999Z</time></trkpt><trkpt lat="49.307699648761016" lon="0.9799834526479954"><ele>125.0</ele><time>2026-03-22T18:48:45.999Z</time></trkpt><trkpt lat="49.3075982155824" lon="0.9799122827884724"><ele>125.5</ele><time>2026-03-22T18:48:46.999Z</time></trkpt><trkpt lat="49.307504901796044" lon="0.9798112279990473"><ele>126.0</ele><time>2026-03-22T18:48:47.999Z</time></trkpt><trkpt lat="49.307403829077735" lon="0.9797037435341265"><ele>126.0</ele><time>2026-03-22T18:48:48.999Z</time></trkpt><trkpt lat="49.30729589825377" lon="0.9796037425656218"><ele>126.0</ele><time>2026-03-22T18:48:49.999Z</time></trkpt><trkpt lat="49.307180675927405" lon="0.9795015203504869"><ele>126.0</ele><time>2026-03-22T18:48:50.999Z</time></trkpt><trkpt lat="49.307056509847065" lon="0.9794114424253043"><ele>126.0</ele><time>2026-03-22T18:48:51.999Z</time></trkpt><trkpt lat="49.30693057905674" lon="0.979321077544641"><ele>126.0</ele><time>2026-03-22T18:48:52.999Z</time></trkpt><trkpt lat="49.306799742591586" lon="0.9792347626956509"><ele>126.0</ele><time>2026-03-22T18:48:53.999Z</time></trkpt><trkpt lat="49.30666373984993" lon="0.9791475015627875"><ele>126.0</ele><time>2026-03-22T18:48:54.999Z</time></trkpt><trkpt lat="49.30652433285129" lon="0.9790539030532444"><ele>126.0</ele><time>2026-03-22T18:48:55.999Z</time></trkpt><trkpt lat="49.30638650975455" lon="0.9789557385999065"><ele>126.0</ele><time>2026-03-22T18:48:56.999Z</time></trkpt><trkpt lat="49.30625373903315" lon="0.9788599246293661"><ele>126.0</ele><time>2026-03-22T18:48:57.999Z</time></trkpt><trkpt lat="49.306125434758215" lon="0.9787588364136732"><ele>126.0</ele><time>2026-03-22T18:48:58.999Z</time></trkpt><trkpt lat="49.3060056817612" lon="0.9786479621009038"><ele>126.0</ele><time>2026-03-22T18:48:59.999Z</time></trkpt><trkpt lat="49.305895869783534" lon="0.9785216152952938"><ele>126.0</ele><time>2026-03-22T18:49:00.999Z</time></trkpt><trkpt lat="49.305796858721315" lon="0.9783770755649178"><ele>126.0</ele><time>2026-03-22T18:49:01.999Z</time></trkpt><trkpt lat="49.3057059894352" lon="0.9782218000811125"><ele>126.0</ele><time>2026-03-22T18:49:02.999Z</time></trkpt><trkpt lat="49.30561671743417" lon="0.978066762036397"><ele>126.0</ele><time>2026-03-22T18:49:03.999Z</time></trkpt><trkpt lat="49.305522219274515" lon="0.9779140004648476"><ele>126.0</ele><time>2026-03-22T18:49:04.999Z</time></trkpt><trkpt lat="49.305425026215026" lon="0.9777630975472867"><ele>126.0</ele><time>2026-03-22T18:49:05.999Z</time></trkpt><trkpt lat="49.30532095523958" lon="0.9776328494075781"><ele>126.0</ele><time>2026-03-22T18:49:06.999Z</time></trkpt><trkpt lat="49.3052107066879" lon="0.9775092125216119"><ele>126.0</ele><time>2026-03-22T18:49:07.999Z</time></trkpt><trkpt lat="49.305091287457095" lon="0.9773866646065908"><ele>126.0</ele><time>2026-03-22T18:49:08.999Z</time></trkpt><trkpt lat="49.30497464381348" lon="0.9772724376098613"><ele>126.0</ele><time>2026-03-22T18:49:09.999Z</time></trkpt><trkpt lat="49.30486010595922" lon="0.9771585705744927"><ele>126.0</ele><time>2026-03-22T18:49:10.999Z</time></trkpt><trkpt lat="49.30474648438824" lon="0.9770425271988918"><ele>126.0</ele><time>2026-03-22T18:49:11.999Z</time></trkpt><trkpt lat="49.30463795412131" lon="0.9769222637503754"><ele>126.75</ele><time>2026-03-22T18:49:12.999Z</time></trkpt><trkpt lat="49.304531324869046" lon="0.9767989008050414"><ele>127.5</ele><time>2026-03-22T18:49:13.999Z</time></trkpt><trkpt lat="49.30442512486977" lon="0.976670141365027"><ele>128.25</ele><time>2026-03-22T18:49:14.998Z</time></trkpt><trkpt lat="49.30431879714551" lon="0.9765439538899289"><ele>129.0</ele><time>2026-03-22T18:49:15.998Z</time></trkpt><trkpt lat="49.304215987139905" lon="0.9764222174264812"><ele>129.0</ele><time>2026-03-22T18:49:16.998Z</time></trkpt><trkpt lat="49.304113142123" lon="0.9763072648966071"><ele>129.0</ele><time>2026-03-22T18:49:17.998Z</time></trkpt><trkpt lat="49.30400083347869" lon="0.9762054605778364"><ele>129.0</ele><time>2026-03-22T18:49:18.998Z</time></trkpt><trkpt lat="49.30388042251553" lon="0.9761175620667238"><ele>129.0</ele><time>2026-03-22T18:49:19.998Z</time></trkpt><trkpt lat="49.30375410423327" lon="0.9760332093121631"><ele>129.0</ele><time>2026-03-22T18:49:20.998Z</time></trkpt><trkpt lat="49.30362041579666" lon="0.9759632140809871"><ele>129.0</ele><time>2026-03-22T18:49:21.998Z</time></trkpt><trkpt lat="49.30348102448888" lon="0.9759061857241335"><ele>129.0</ele><time>2026-03-22T18:49:22.998Z</time></trkpt><trkpt lat="49.30333880929719" lon="0.9758568205065231"><ele>129.0</ele><time>2026-03-22T18:49:23.998Z</time></trkpt><trkpt lat="49.303193145480236" lon="0.9758256025284555"><ele>128.75</ele><time>2026-03-22T18:49:24.998Z</time></trkpt><trkpt lat="49.303048116583426" lon="0.9757881783113108"><ele>128.5</ele><time>2026-03-22T18:49:25.998Z</time></trkpt><trkpt lat="49.30290004250428" lon="0.9757658338947138"><ele>128.25</ele><time>2026-03-22T18:49:26.998Z</time></trkpt><trkpt lat="49.30275341298335" lon="0.9757423507483061"><ele>128.0</ele><time>2026-03-22T18:49:27.998Z</time></trkpt><trkpt lat="49.30260542887616" lon="0.9757235696742727"><ele>128.0</ele><time>2026-03-22T18:49:28.998Z</time></trkpt><trkpt lat="49.30245674151459" lon="0.9757141427004741"><ele>128.0</ele><time>2026-03-22T18:49:29.998Z</time></trkpt><trkpt lat="49.302307360240206" lon="0.975709713534109"><ele>128.0</ele><time>2026-03-22T18:49:30.998Z</time></trkpt><trkpt lat="49.30216082124389" lon="0.9756981732268676"><ele>128.0</ele><time>2026-03-22T18:49:31.998Z</time></trkpt><trkpt lat="49.30202019332591" lon="0.9756702709953412"><ele>128.25</ele><time>2026-03-22T18:49:32.998Z</time></trkpt><trkpt lat="49.301880481019886" lon="0.9756322683991743"><ele>128.5</ele><time>2026-03-22T18:49:33.998Z</time></trkpt><trkpt lat="49.30174722343445" lon="0.9755806336819541"><ele>128.75</ele><time>2026-03-22T18:49:34.998Z</time></trkpt><trkpt lat="49.30161892316874" lon="0.9755152719528686"><ele>129.0</ele><time>2026-03-22T18:49:35.998Z</time></trkpt><trkpt lat="49.301497300953244" lon="0.975446920542001"><ele>129.0</ele><time>2026-03-22T18:49:36.998Z</time></trkpt><trkpt lat="49.301382576328116" lon="0.975385259045872"><ele>129.0</ele><time>2026-03-22T18:49:37.998Z</time></trkpt><trkpt lat="49.30127519704909" lon="0.9753216457683072"><ele>129.0</ele><time>2026-03-22T18:49:38.998Z</time></trkpt><trkpt lat="49.301177023718886" lon="0.9752586365515736"><ele>129.0</ele><time>2026-03-22T18:49:39.998Z</time></trkpt><trkpt lat="49.30109053002586" lon="0.9751991057876109"><ele>129.0</ele><time>2026-03-22T18:49:40.998Z</time></trkpt><trkpt lat="49.30101456669893" lon="0.9751404715312874"><ele>129.0</ele><time>2026-03-22T18:49:41.998Z</time></trkpt><trkpt lat="49.30095153090885" lon="0.9750761798701563"><ele>129.0</ele><time>2026-03-22T18:49:42.998Z</time></trkpt><trkpt lat="49.30088178820924" lon="0.9750207883295771"><ele>129.0</ele><time>2026-03-22T18:49:43.998Z</time></trkpt><trkpt lat="49.30080577699482" lon="0.9749863060478406"><ele>129.0</ele><time>2026-03-22T18:49:44.998Z</time></trkpt><trkpt lat="49.30071955121251" lon="0.9749488091076479"><ele>129.0</ele><time>2026-03-22T18:49:45.998Z</time></trkpt><trkpt lat="49.30062487375131" lon="0.9748978438566167"><ele>129.0</ele><time>2026-03-22T18:49:46.998Z</time></trkpt><trkpt lat="49.30052644124122" lon="0.9748259866408651"><ele>127.5</ele><time>2026-03-22T18:49:47.998Z</time></trkpt><trkpt lat="49.30042617141432" lon="0.9747433858096615"><ele>126.0</ele><time>2026-03-22T18:49:48.998Z</time></trkpt><trkpt lat="49.30032911029974" lon="0.9746492053528338"><ele>124.5</ele><time>2026-03-22T18:49:49.998Z</time></trkpt><trkpt lat="49.300227130268176" lon="0.9745434343400899"><ele>123.0</ele><time>2026-03-22T18:49:50.998Z</time></trkpt><trkpt lat="49.30012251470735" lon="0.9744315929389882"><ele>123.0</ele><time>2026-03-22T18:49:51.998Z</time></trkpt><trkpt lat="49.30001450420339" lon="0.9743133456712526"><ele>123.0</ele><time>2026-03-22T18:49:52.998Z</time></trkpt><trkpt lat="49.29990485000441" lon="0.9741882497252858"><ele>123.0</ele><time>2026-03-22T18:49:53.998Z</time></trkpt><trkpt lat="49.29978992825256" lon="0.9740602869397481"><ele>123.0</ele><time>2026-03-22T18:49:54.998Z</time></trkpt><trkpt lat="49.29966808109767" lon="0.9739366272324924"><ele>121.5</ele><time>2026-03-22T18:49:55.998Z</time></trkpt><trkpt lat="49.299544589304645" lon="0.973814648256773"><ele>120.0</ele><time>2026-03-22T18:49:56.998Z</time></trkpt><trkpt lat="49.29942247624697" lon="0.9737001677638397"><ele>118.5</ele><time>2026-03-22T18:49:57.998Z</time></trkpt><trkpt lat="49.29929938115924" lon="0.973597218338783"><ele>117.0</ele><time>2026-03-22T18:49:58.998Z</time></trkpt><trkpt lat="49.299174252070436" lon="0.9734982100073584"><ele>117.0</ele><time>2026-03-22T18:49:59.998Z</time></trkpt><trkpt lat="49.29904779298511" lon="0.9733995019550068"><ele>117.0</ele><time>2026-03-22T18:50:00.998Z</time></trkpt><trkpt lat="49.29891999530913" lon="0.9732986359828728"><ele>117.0</ele><time>2026-03-22T18:50:01.998Z</time></trkpt><trkpt lat="49.298790706348285" lon="0.9731983361640871"><ele>117.0</ele><time>2026-03-22T18:50:02.998Z</time></trkpt><trkpt lat="49.29866049965839" lon="0.9731003393984311"><ele>117.75</ele><time>2026-03-22T18:50:03.997Z</time></trkpt><trkpt lat="49.298529344765356" lon="0.9730070115724098"><ele>118.5</ele><time>2026-03-22T18:50:04.997Z</time></trkpt><trkpt lat="49.298396345177906" lon="0.9729208765898596"><ele>119.25</ele><time>2026-03-22T18:50:05.997Z</time></trkpt><trkpt lat="49.298263143985054" lon="0.9728361485224757"><ele>120.0</ele><time>2026-03-22T18:50:06.997Z</time></trkpt><trkpt lat="49.298131050212625" lon="0.9727497938113894"><ele>120.0</ele><time>2026-03-22T18:50:07.997Z</time></trkpt><trkpt lat="49.29799955122279" lon="0.9726571347078288"><ele>120.0</ele><time>2026-03-22T18:50:08.997Z</time></trkpt><trkpt lat="49.297869678612514" lon="0.9725682455493805"><ele>120.0</ele><time>2026-03-22T18:50:09.997Z</time></trkpt><trkpt lat="49.297741519462654" lon="0.9724771811055517"><ele>120.0</ele><time>2026-03-22T18:50:10.997Z</time></trkpt><trkpt lat="49.2976155369005" lon="0.9723816941528468"><ele>120.25</ele><time>2026-03-22T18:50:11.999Z</time></trkpt><trkpt lat="49.29749276104043" lon="0.9722814328130986"><ele>120.5</ele><time>2026-03-22T18:50:12.999Z</time></trkpt><trkpt lat="49.297372951712084" lon="0.972182503922749"><ele>120.75</ele><time>2026-03-22T18:50:13.999Z</time></trkpt><trkpt lat="49.297258210357725" lon="0.9720757432299844"><ele>121.0</ele><time>2026-03-22T18:50:14.999Z</time></trkpt><trkpt lat="49.29714951317296" lon="0.9719644051622567"><ele>121.5</ele><time>2026-03-22T18:50:15.999Z</time></trkpt><trkpt lat="49.29704443095887" lon="0.9718537674293805"><ele>122.0</ele><time>2026-03-22T18:50:16.999Z</time></trkpt><trkpt lat="49.296943457051185" lon="0.9717421813291077"><ele>122.5</ele><time>2026-03-22T18:50:17.999Z</time></trkpt><trkpt lat="49.296846746585906" lon="0.9716330076632778"><ele>123.0</ele><time>2026-03-22T18:50:18.999Z</time></trkpt><trkpt lat="49.29675577435044" lon="0.9715240545665714"><ele>123.0</ele><time>2026-03-22T18:50:19.999Z</time></trkpt><trkpt lat="49.29667068576344" lon="0.9714319804190867"><ele>123.00000000000001</ele><time>2026-03-22T18:50:20.999Z</time></trkpt><trkpt lat="49.29658886274169" lon="0.9713421901548716"><ele>123.00000000000001</ele><time>2026-03-22T18:50:21.999Z</time></trkpt><trkpt lat="49.296512945163215" lon="0.9712579444086339"><ele>123.0</ele><time>2026-03-22T18:50:22.999Z</time></trkpt><trkpt lat="49.29644615058563" lon="0.9711811771881818"><ele>123.0</ele><time>2026-03-22T18:50:23.999Z</time></trkpt><trkpt lat="49.29638608603095" lon="0.9711072991642972"><ele>122.80000000000001</ele><time>2026-03-22T18:50:24.999Z</time></trkpt><trkpt lat="49.29629102976414" lon="0.9710023671748206"><ele>122.60000000000001</ele><time>2026-03-22T18:50:26.999Z</time></trkpt><trkpt lat="49.29621371407376" lon="0.970910674288648"><ele>122.39999999999999</ele><time>2026-03-22T18:50:28.999Z</time></trkpt><trkpt lat="49.29614305904575" lon="0.9708633747900745"><ele>122.19999999999999</ele><time>2026-03-22T18:50:30.999Z</time></trkpt><trkpt lat="49.2960774570066" lon="0.9709390280418744"><ele>122.0</ele><time>2026-03-22T18:50:32.999Z</time></trkpt><trkpt lat="49.296027908308666" lon="0.9710924746284874"><ele>121.99999999999999</ele><time>2026-03-22T18:50:34.999Z</time></trkpt><trkpt lat="49.29592330958899" lon="0.9711665701093921"><ele>122.0</ele><time>2026-03-22T18:50:36.999Z</time></trkpt><trkpt lat="49.29587522141245" lon="0.9712291158503942"><ele>122.0</ele><time>2026-03-22T18:50:37.999Z</time></trkpt><trkpt lat="49.29576163139787" lon="0.9713184032810996"><ele>122.0</ele><time>2026-03-22T18:50:39.999Z</time></trkpt><trkpt lat="49.29570484576684" lon="0.9713654662598893"><ele>121.99999999999999</ele><time>2026-03-22T18:50:40.999Z</time></trkpt><trkpt lat="49.295647216139336" lon="0.971408386366516"><ele>122.0</ele><time>2026-03-22T18:50:41.999Z</time></trkpt><trkpt lat="49.295589409904714" lon="0.9714494193292713"><ele>121.8</ele><time>2026-03-22T18:50:42.999Z</time></trkpt><trkpt lat="49.29547226518317" lon="0.9715152155136809"><ele>121.6</ele><time>2026-03-22T18:50:44.999Z</time></trkpt><trkpt lat="49.29540821377814" lon="0.9715244326018714"><ele>121.39999999999999</ele><time>2026-03-22T18:50:45.999Z</time></trkpt><trkpt lat="49.29534609776398" lon="0.9715084247199718"><ele>121.19999999999999</ele><time>2026-03-22T18:50:46.999Z</time></trkpt><trkpt lat="49.295235726187094" lon="0.9714292697927527"><ele>121.0</ele><time>2026-03-22T18:50:48.999Z</time></trkpt><trkpt lat="49.295142588962776" lon="0.9713311299776358"><ele>121.0</ele><time>2026-03-22T18:50:50.999Z</time></trkpt><trkpt lat="49.29504598613359" lon="0.9712396194236815"><ele>121.0</ele><time>2026-03-22T18:50:52.999Z</time></trkpt><trkpt lat="49.29494256051047" lon="0.9711452697056338"><ele>121.0</ele><time>2026-03-22T18:50:54.999Z</time></trkpt><trkpt lat="49.294889376716654" lon="0.971093518926328"><ele>121.0</ele><time>2026-03-22T18:50:55.999Z</time></trkpt><trkpt lat="49.29483443794279" lon="0.9710446740979797"><ele>121.0</ele><time>2026-03-22T18:50:56.999Z</time></trkpt><trkpt lat="49.29472233554045" lon="0.9709636034754123"><ele>120.50000000000001</ele><time>2026-03-22T18:50:58.999Z</time></trkpt><trkpt lat="49.294595960545635" lon="0.9709325231421344"><ele>120.0</ele><time>2026-03-22T18:51:00.999Z</time></trkpt><trkpt lat="49.29452999712662" lon="0.9709429525997059"><ele>119.5</ele><time>2026-03-22T18:51:01.999Z</time></trkpt><trkpt lat="49.29446728991953" lon="0.9709714096608015"><ele>119.0</ele><time>2026-03-22T18:51:02.999Z</time></trkpt><trkpt lat="49.29440607185469" lon="0.9710029821922034"><ele>118.50000000000001</ele><time>2026-03-22T18:51:03.999Z</time></trkpt><trkpt lat="49.294345902273456" lon="0.9710354072453853"><ele>118.0</ele><time>2026-03-22T18:51:04.999Z</time></trkpt><trkpt lat="49.29428632975762" lon="0.9710724197851155"><ele>118.0</ele><time>2026-03-22T18:51:05.999Z</time></trkpt><trkpt lat="49.29417024744574" lon="0.9711419788614185"><ele>118.0</ele><time>2026-03-22T18:51:07.999Z</time></trkpt><trkpt lat="49.294050715778106" lon="0.9711942498013414"><ele>118.0</ele><time>2026-03-22T18:51:09.999Z</time></trkpt><trkpt lat="49.29393505493658" lon="0.9712614974220608"><ele>118.0</ele><time>2026-03-22T18:51:11.999Z</time></trkpt><trkpt lat="49.293836955082114" lon="0.9713203693619382"><ele>118.0</ele><time>2026-03-22T18:51:13.998Z</time></trkpt><trkpt lat="49.29377173396198" lon="0.9713718133879826"><ele>118.00000000000001</ele><time>2026-03-22T18:51:15.998Z</time></trkpt><trkpt lat="49.29368655005095" lon="0.9714322866762188"><ele>118.00000000000001</ele><time>2026-03-22T18:51:18.998Z</time></trkpt><trkpt lat="49.29360069566239" lon="0.971494148452424"><ele>118.0</ele><time>2026-03-22T18:51:20.998Z</time></trkpt><trkpt lat="49.29351099441586" lon="0.9715727221938864"><ele>118.0</ele><time>2026-03-22T18:51:22.998Z</time></trkpt><trkpt lat="49.29340135009718" lon="0.9716587360890258"><ele>118.00000000000001</ele><time>2026-03-22T18:51:24.998Z</time></trkpt><trkpt lat="49.29334044492859" lon="0.9717040175894539"><ele>118.0</ele><time>2026-03-22T18:51:25.998Z</time></trkpt><trkpt lat="49.293279979601515" lon="0.971745861189547"><ele>118.0</ele><time>2026-03-22T18:51:26.998Z</time></trkpt><trkpt lat="49.293221276243585" lon="0.9717875221911446"><ele>118.0</ele><time>2026-03-22T18:51:27.998Z</time></trkpt><trkpt lat="49.2931157793032" lon="0.9718653524302664"><ele>118.00000000000001</ele><time>2026-03-22T18:51:29.998Z</time></trkpt><trkpt lat="49.293018960020504" lon="0.9719458278728843"><ele>118.0</ele><time>2026-03-22T18:51:31.998Z</time></trkpt><trkpt lat="49.292939147895964" lon="0.9720113970341617"><ele>118.0</ele><time>2026-03-22T18:51:33.998Z</time></trkpt><trkpt lat="49.29286327970697" lon="0.9720544317962525"><ele>118.00000000000001</ele><time>2026-03-22T18:51:35.998Z</time></trkpt><trkpt lat="49.29280076066143" lon="0.9720659974291381"><ele>118.00000000000001</ele><time>2026-03-22T18:51:38.998Z</time></trkpt><trkpt lat="49.29276788580871" lon="0.9722760137697547"><ele>118.0</ele><time>2026-03-22T18:51:42.998Z</time></trkpt><trkpt lat="49.29278185296219" lon="0.9724007113080498"><ele>118.0</ele><time>2026-03-22T18:51:44.998Z</time></trkpt><trkpt lat="49.29280150713966" lon="0.9725269131322937"><ele>117.85714285714286</ele><time>2026-03-22T18:51:46.998Z</time></trkpt><trkpt lat="49.292825720404224" lon="0.9726434321904344"><ele>117.71428571428572</ele><time>2026-03-22T18:51:48.998Z</time></trkpt><trkpt lat="49.29285246176568" lon="0.9727391784801984"><ele>117.57142857142858</ele><time>2026-03-22T18:51:50.998Z</time></trkpt><trkpt lat="49.29290246486208" lon="0.972831614080234"><ele>117.42857142857143</ele><time>2026-03-22T18:51:54.998Z</time></trkpt><trkpt lat="49.292847506669816" lon="0.9727804481187433"><ele>117.2857142857143</ele><time>2026-03-22T18:53:02.999Z</time></trkpt><trkpt lat="49.29277287111892" lon="0.9728075223817917"><ele>117.14285714285715</ele><time>2026-03-22T18:53:19.998Z</time></trkpt><trkpt lat="49.29283055086768" lon="0.9727623041283135"><ele>117.0</ele><time>2026-03-22T18:54:45.998Z</time></trkpt><trkpt lat="49.29276778633325" lon="0.9728327213236366"><ele>117.0</ele><time>2026-03-22T18:55:02.998Z</time></trkpt><trkpt lat="49.29267144528409" lon="0.9729487256401533"><ele>117.0</ele><time>2026-03-22T18:55:08.998Z</time></trkpt><trkpt lat="49.29261705029548" lon="0.973010254563478"><ele>117.0</ele><time>2026-03-22T18:55:09.998Z</time></trkpt><trkpt lat="49.292669504788506" lon="0.9729387977717748"><ele>117.0</ele><time>2026-03-22T18:55:12.998Z</time></trkpt><trkpt lat="49.29272516126578" lon="0.972892569909252"><ele>117.0</ele><time>2026-03-22T18:55:22.998Z</time></trkpt><trkpt lat="49.29281408272975" lon="0.9727721691424219"><ele>117.0</ele><time>2026-03-22T18:56:05.997Z</time></trkpt><trkpt lat="49.29282775006613" lon="0.9728709175653567"><ele>117.0</ele><time>2026-03-22T18:57:11.998Z</time></trkpt><trkpt lat="49.29277727092208" lon="0.9729396148853098"><ele>117.00000000000001</ele><time>2026-03-22T18:57:59.998Z</time></trkpt><trkpt lat="49.29271660517955" lon="0.9729867803401533"><ele>117.0</ele><time>2026-03-22T18:58:07.998Z</time></trkpt><trkpt lat="49.292668283525906" lon="0.9728891893477007"><ele>117.0</ele><time>2026-03-22T18:58:39.999Z</time></trkpt><trkpt lat="49.29269461134184" lon="0.9729859508942594"><ele>117.00000000000001</ele><time>2026-03-22T19:01:09Z</time></trkpt><trkpt lat="49.29263102128791" lon="0.9729740856917838"><ele>117.0</ele><time>2026-03-22T19:01:16Z</time></trkpt><trkpt lat="49.29259520984295" lon="0.9728752361510947"><ele>117.0</ele><time>2026-03-22T19:02:05.999Z</time></trkpt><trkpt lat="49.29266254783878" lon="0.9728380139095384"><ele>117.0</ele><time>2026-03-22T19:02:25.999Z</time></trkpt><trkpt lat="49.29271626832238" lon="0.9727703179205918"><ele>117.00000000000001</ele><time>2026-03-22T19:02:34.999Z</time></trkpt><trkpt lat="49.292782646438845" lon="0.9727807162743595"><ele>117.0</ele><time>2026-03-22T19:02:43.999Z</time></trkpt><trkpt lat="49.2928079794331" lon="0.9728790370875754"><ele>117.0</ele><time>2026-03-22T19:03:28Z</time></trkpt><trkpt lat="49.29277142978321" lon="0.9727919811108913"><ele>117.00000000000001</ele><time>2026-03-22T19:04:20.999Z</time></trkpt><trkpt lat="49.2927992490171" lon="0.9728896120336951"><ele>117.0</ele><time>2026-03-22T19:04:39.999Z</time></trkpt><trkpt lat="49.292754010593804" lon="0.9728034034935219"><ele>117.0</ele><time>2026-03-22T19:05:29.999Z</time></trkpt><trkpt lat="49.29268940842527" lon="0.9728270037491407"><ele>117.0</ele><time>2026-03-22T19:05:36.999Z</time></trkpt></trkseg></trk></gpx>